# Wetter Temperatur Luftdruck Luftfeuchtigkeit Sichtweite Windgeschwindigkeit Windrichtung Zeit
1 Rain 30 1008 43 10000 7.2 290 08:57 14.08.2022
2 Clouds 27 1008 75 10000 4.63 320 06:41 14.08.2022
3 Clouds 27 1008 80 10000 4.12 330 05:37 14.08.2022
4 Clouds 28 1010 82 10000 2.57 230 01:43 14.08.2022
5 Clear 28 1010 77 10000 2.06 200 23:22 13.08.2022
6 Clear 29 1011 73 10000 2.57 320 22:28 13.08.2022
7 Rain 28 1011 83 10000 7.2 50 20:51 13.08.2022
8 Clear 29 1011 78 10000 2.57 120 19:49 13.08.2022
9 Clear 30 1011 72 10000 2.57 120 19:19 13.08.2022
10 Clear 30 1011 75 10000 6.17 110 17:22 13.08.2022
11 Clouds 31 1011 73 10000 5.14 130 14:51 13.08.2022
12 Clouds 32 1011 73 10000 5.66 120 14:24 13.08.2022
13 Clouds 32 1011 69 10000 7.2 130 13:34 13.08.2022
14 Clear 33 1010 50 10000 2.68 79 11:33 13.08.2022
15 Clear 29 1009 64 10000 4.63 330 09:27 13.08.2022
16 Clear 26 1009 73 10000 3.09 300 07:43 13.08.2022
17 Clear 28 1011 74 10000 2.24 300 01:52 13.08.2022
18 Clear 29 1012 72 10000 4.63 240 23:36 12.08.2022
19 Clear 30 1011 71 10000 6.69 230 21:40 12.08.2022
20 Clear 31 1011 70 10000 5.66 190 19:50 12.08.2022
21 Clouds 32 1011 67 10000 9.77 230 19:24 12.08.2022
22 Clear 33 1010 65 10000 10.29 230 18:29 12.08.2022
23 Clear 34 1010 64 10000 10.29 220 16:27 12.08.2022
24 Clear 34 1011 64 10000 9.77 210 15:23 12.08.2022
25 Clear 34 1011 59 10000 11.32 220 13:50 12.08.2022
26 Clear 33 1012 62 10000 9.77 230 12:50 12.08.2022
27 Clouds 29 1013 70 10000 2.06 310 09:22 12.08.2022
28 Clear 26 1013 76 10000 3.6 320 07:46 12.08.2022
29 Clear 26 1013 78 10000 2.06 320 06:24 12.08.2022
30 Clear 27 1014 63 10000 2.06 270 01:22 12.08.2022
31 Clear 27 1014 69 10000 2.57 240 00:18 12.08.2022
32 Clear 28 1015 73 10000 3.09 220 23:27 11.08.2022
33 Clear 29 1014 70 10000 3.09 220 21:55 11.08.2022
34 Clear 29 1014 68 10000 3.09 210 21:28 11.08.2022
35 Clear 31 1014 60 10000 4.12 170 20:31 11.08.2022
36 Clear 31 1014 61 10000 4.12 210 19:41 11.08.2022
37 Clear 31 1014 61 10000 4.63 190 19:21 11.08.2022
38 Clear 32 1014 55 10000 5.14 170 17:23 11.08.2022
39 Clear 33 1015 51 10000 6.17 140 16:19 11.08.2022
40 Clear 32 1015 55 10000 7.2 130 15:20 11.08.2022
41 Clear 32 1015 60 10000 5.14 190 12:35 11.08.2022
42 Clear 28 1015 56 10000 3.09 320 09:29 11.08.2022
43 Clear 25 1015 65 10000 3.6 320 06:59 11.08.2022
44 Clear 26 1015 64 10000 2.57 290 03:25 11.08.2022
45 Clouds 28 1015 69 10000 2.57 270 00:28 11.08.2022
46 Clouds 30 1015 64 10000 5.14 220 22:21 10.08.2022
47 Clouds 30 1015 67 10000 3.09 250 21:20 10.08.2022
48 Clouds 31 1015 65 10000 4.12 220 20:43 10.08.2022
49 Clouds 30 1015 64 10000 3.09 250 20:43 10.08.2022
50 Clear 32 1014 64 10000 5.66 210 18:53 10.08.2022
51 Clear 32 1015 60 10000 7.72 210 17:31 10.08.2022
52 Clouds 33 1015 55 10000 6.17 200 15:53 10.08.2022
53 Clear 33 1015 52 10000 5.14 180 13:34 10.08.2022
54 Clear 32 1016 54 10000 4.12 190 12:24 10.08.2022
55 Clear 28 1016 54 10000 2.24 316 08:55 10.08.2022
56 Clear 26 1017 58 10000 4.12 320 08:31 10.08.2022
57 Clear 25 1015 61 10000 4.12 310 06:22 10.08.2022
58 Clear 27 1017 59 10000 4.63 330 02:45 10.08.2022
59 Clear 28 1016 68 10000 3.09 200 23:34 09.08.2022
60 Clear 28 1016 67 10000 3.09 210 22:55 09.08.2022
61 Clear 29 1017 67 10000 2.06 180 21:34 09.08.2022
62 Clear 30 1016 65 10000 3.6 130 19:34 09.08.2022
63 Clear 31 1016 63 10000 4.63 120 18:29 09.08.2022
64 Clear 31 1016 59 10000 5.14 130 17:27 09.08.2022
65 Clear 32 1017 55 10000 5.66 120 16:40 09.08.2022
66 Clear 32 1017 56 10000 5.66 120 16:40 09.08.2022
67 Clear 32 1017 51 10000 5.66 140 15:40 09.08.2022
68 Clear 31 1018 59 10000 5.14 150 12:48 09.08.2022
69 Clear 28 1017 62 10000 5.14 320 09:30 09.08.2022
70 Clear 27 1017 62 10000 5.66 320 08:33 09.08.2022
71 Clear 25 1016 65 10000 5.14 320 07:20 09.08.2022
72 Clear 26 1016 70 10000 4.12 320 03:32 09.08.2022
73 Clear 27 1016 75 10000 1.54 120 23:27 08.08.2022
74 Clear 27 1016 75 10000 1.54 120 23:27 08.08.2022
75 Clear 27 1016 73 10000 2.57 130 22:54 08.08.2022
76 Clear 28 1016 68 10000 1.54 180 21:49 08.08.2022
77 Clear 28 1015 65 10000 3.6 140 20:55 08.08.2022
78 Clear 29 1015 61 10000 3.09 140 19:50 08.08.2022
79 Clear 30 1015 57 10000 4.63 120 18:38 08.08.2022
80 Clear 31 1016 53 10000 6.17 130 16:37 08.08.2022
81 Clear 31 1016 52 10000 5.66 110 15:39 08.08.2022
82 Clear 32 1016 43 10000 3.6 130 12:51 08.08.2022
83 Clear 31 1016 43 10000 4.63 90 11:53 08.08.2022
84 Clear 29 1016 51 10000 3.6 340 09:43 08.08.2022
85 Clear 25 1014 65 10000 5.14 310 05:43 08.08.2022
86 Clear 26 1014 64 10000 3.6 330 02:27 08.08.2022
87 Clear 27 1014 61 10000 4.63 300 22:32 07.08.2022
88 Rain 27 1013 59 10000 3.09 280 21:39 07.08.2022
89 Rain 28 1014 57 10000 2.06 300 20:26 07.08.2022
90 Rain 29 1015 56 10000 1.54 340 19:55 07.08.2022
91 Rain 29 1015 55 10000 1.54 50 19:34 07.08.2022
92 Rain 30 1015 60 10000 3.6 100 18:23 07.08.2022
93 Clear 31 1014 52 10000 6.17 130 16:54 07.08.2022
94 Clear 31 1014 50 10000 4.63 160 16:35 07.08.2022
95 Clear 31 1015 52 10000 5.66 140 15:19 07.08.2022
96 Clouds 31 1016 51 10000 5.14 110 13:24 07.08.2022
97 Clear 31 1016 54 10000 5.14 90 11:27 07.08.2022
98 Clear 30 1016 58 10000 1.79 76 10:34 07.08.2022
99 Clouds 25 1014 61 10000 3.6 330 06:52 07.08.2022
100 Clouds 26 1015 61 10000 4.12 320 03:20 07.08.2022
101 Clear 28 1014 71 10000 6.69 240 00:31 07.08.2022
102 Clouds 28 1015 76 10000 4.63 220 22:24 06.08.2022
103 Clear 30 1015 69 10000 3.09 210 20:42 06.08.2022
104 Clear 30 1015 67 10000 6.17 220 19:41 06.08.2022
105 Clear 31 1015 59 10000 7.2 220 18:30 06.08.2022
106 Clear 32 1015 57 10000 7.2 210 17:32 06.08.2022
107 Clear 33 1016 52 10000 4.63 200 14:43 06.08.2022
108 Clear 33 1016 49 10000 4.12 140 13:44 06.08.2022
109 Clear 32 1017 44 10000 1.34 68 11:55 06.08.2022
110 Clear 29 1017 54 10000 5.14 330 10:32 06.08.2022
111 Clear 27 1016 63 10000 7.2 330 08:40 06.08.2022
112 Clear 24 1016 67 10000 5.14 330 03:53 06.08.2022
113 Clouds 25 1015 62 10000 6.17 320 23:50 05.08.2022
114 Clouds 25 1014 67 10000 5.14 310 22:32 05.08.2022
115 Thunderstorm 23 1015 85 8000 4.12 320 19:59 05.08.2022
116 Thunderstorm 22 1017 87 2200 3.6 280 18:46 05.08.2022
117 Thunderstorm 26 1017 68 3000 7.2 330 18:25 05.08.2022
118 Clouds 31 1014 69 10000 6.17 110 16:49 05.08.2022
119 Clouds 32 1014 66 10000 7.2 120 15:22 05.08.2022
120 Clouds 32 1015 67 10000 5.66 160 14:31 05.08.2022
121 Clouds 32 1015 64 10000 5.66 180 13:24 05.08.2022
122 Clouds 32 1015 64 10000 5.66 180 12:44 05.08.2022
123 Clouds 30 1015 66 10000 3.09 190 10:55 05.08.2022
124 Clouds 26 1015 75 10000 3.09 330 08:36 05.08.2022
125 Clear 25 1015 81 10000 3.6 330 07:28 05.08.2022
126 Clear 27 1015 76 10000 2.57 240 01:46 05.08.2022
127 Clear 28 1015 74 10000 3.6 240 22:40 04.08.2022
128 Clear 29 1014 73 10000 2.57 210 21:27 04.08.2022
129 Clear 29 1013 71 10000 3.6 200 20:45 04.08.2022
130 Clear 31 1013 67 10000 5.14 160 19:58 04.08.2022
131 Clear 32 1013 64 10000 5.14 170 18:52 04.08.2022
132 Clouds 32 1013 64 10000 5.14 200 18:32 04.08.2022
133 Clear 33 1014 53 10000 6.17 210 14:50 04.08.2022
134 Clear 33 1014 54 10000 5.14 200 13:23 04.08.2022
135 Clear 32 1014 54 10000 3.6 200 11:38 04.08.2022
136 Clear 30 1014 56 10000 2.57 320 09:58 04.08.2022
137 Clear 26 1014 65 10000 2.06 320 07:31 04.08.2022
138 Clear 27 1014 68 10000 3.09 230 02:46 04.08.2022
139 Clear 29 1014 57 10000 3.09 270 23:58 03.08.2022
140 Clear 29 1014 55 10000 3.09 280 23:36 03.08.2022
141 Clear 30 1013 64 10000 3.09 220 21:26 03.08.2022
142 Clear 31 1013 60 10000 4.63 240 20:20 03.08.2022
143 Clear 32 1013 59 10000 5.14 210 18:53 03.08.2022
144 Clear 33 1013 56 10000 5.66 200 16:27 03.08.2022
145 Clear 33 1013 57 10000 5.66 210 15:53 03.08.2022
146 Clear 33 1014 60 10000 6.17 200 13:38 03.08.2022
147 Clear 31 1013 54 10000 3.6 230 10:50 03.08.2022
148 Clear 26 1013 65 10000 2.57 320 07:23 03.08.2022
149 Clear 27 1013 64 10000 3.09 320 04:22 03.08.2022
150 Clear 27 1014 63 10000 2.06 260 03:23 03.08.2022
151 Clear 28 1014 60 10000 3.09 250 00:49 03.08.2022
152 Clouds 29 1014 66 10000 3.09 230 22:37 02.08.2022
153 Clouds 29 1014 66 10000 3.09 220 21:51 02.08.2022
154 Clear 30 1014 60 10000 4.63 220 20:30 02.08.2022
155 Clear 32 1014 55 10000 6.69 220 17:52 02.08.2022
156 Clear 33 1015 53 10000 3.6 150 14:46 02.08.2022
157 Clear 32 1015 51 10000 2.24 60 10:50 02.08.2022
158 Clouds 29 1016 62 10000 2.06 330 08:54 02.08.2022
159 Clouds 27 1015 67 10000 4.12 320 07:52 02.08.2022
160 Clouds 27 1015 65 10000 2.24 244 05:40 02.08.2022
161 Clouds 28 1015 63 10000 3.09 300 03:40 02.08.2022
162 Clouds 29 1016 58 10000 3.09 240 23:35 01.08.2022
163 Clear 29 1016 60 10000 2.06 220 22:22 01.08.2022
164 Clear 30 1015 58 10000 4.12 220 20:47 01.08.2022
165 Clear 32 1015 53 10000 5.14 220 19:22 01.08.2022
166 Clear 33 1014 46 10000 6.69 170 17:57 01.08.2022
167 Clear 33 1015 43 10000 6.17 180 16:52 01.08.2022
168 Clouds 33 1015 43 10000 5.66 210 15:52 01.08.2022
169 Clouds 33 1015 43 10000 5.66 210 15:30 01.08.2022
170 Clear 33 1016 48 10000 5.14 220 13:45 01.08.2022
171 Clear 33 1016 50 10000 1.79 195 11:49 01.08.2022
172 Clear 33 1016 50 10000 1.79 195 11:49 01.08.2022
173 Clear 29 1016 63 10000 3.6 330 09:39 01.08.2022
174 Clear 26 1016 73 10000 5.14 320 08:22 01.08.2022
175 Clear 25 1016 74 10000 5.66 320 04:47 01.08.2022
176 Clear 26 1016 71 10000 4.12 320 02:32 01.08.2022
177 Clouds 27 1017 67 10000 4.63 240 23:54 31.07.2022
178 Clouds 28 1016 67 10000 2.06 200 22:36 31.07.2022
179 Clouds 28 1016 67 10000 2.06 200 22:36 31.07.2022
180 Clouds 29 1016 60 10000 3.6 210 20:50 31.07.2022
181 Clouds 30 1016 55 10000 4.63 120 19:41 31.07.2022
182 Clouds 32 1016 50 10000 5.66 200 17:47 31.07.2022
183 Clouds 32 1017 51 10000 6.69 160 15:35 31.07.2022
184 Clouds 32 1018 55 10000 3.6 180 13:41 31.07.2022
185 Clouds 31 1018 56 10000 3.6 110 11:55 31.07.2022
186 Clouds 28 1018 70 10000 4.12 340 09:36 31.07.2022
187 Clouds 24 1017 81 10000 2.06 310 06:48 31.07.2022
188 Clear 25 1019 77 10000 3.09 290 02:57 31.07.2022
189 Clear 26 1019 71 10000 1.03 0 23:36 30.07.2022
190 Clear 27 1018 69 10000 1.54 140 22:19 30.07.2022
191 Clear 27 1018 68 10000 2.57 180 21:48 30.07.2022
192 Clear 28 1018 64 10000 3.6 190 20:56 30.07.2022
193 Clear 28 1017 62 10000 5.14 170 19:58 30.07.2022
194 Clear 29 1017 58 10000 5.66 210 18:53 30.07.2022
195 Clear 30 1018 55 10000 6.17 210 17:44 30.07.2022
196 Clouds 30 1018 55 10000 5.14 220 15:50 30.07.2022
197 Clouds 30 1018 56 10000 4.63 190 15:22 30.07.2022
198 Clouds 29 1019 58 10000 2.57 140 12:59 30.07.2022
199 Clouds 28 1019 62 10000 2.57 160 11:55 30.07.2022
200 Clouds 27 1019 71 10000 1.03 0 10:31 30.07.2022
201 Clouds 26 1019 72 10000 2.57 310 09:54 30.07.2022
202 Clouds 24 1018 79 10000 2.57 320 07:55 30.07.2022
203 Clouds 24 1017 85 10000 2.57 40 02:57 30.07.2022
204 Clouds 24 1017 84 10000 2.06 60 02:24 30.07.2022
205 Clouds 25 1017 82 10000 6.69 70 22:41 29.07.2022
206 Clouds 25 1016 82 10000 5.14 60 21:24 29.07.2022
207 Clouds 26 1016 79 10000 3.6 70 20:39 29.07.2022
208 Clouds 27 1016 68 10000 5.81 61 18:18 29.07.2022
209 Clouds 28 1016 76 10000 8.23 90 15:35 29.07.2022
210 Clouds 30 1015 73 10000 4.63 120 13:19 29.07.2022
211 Clouds 29 1015 69 10000 3.09 100 11:28 29.07.2022
212 Clouds 26 1014 83 10000 3.6 330 08:50 29.07.2022
213 Clouds 25 1014 83 10000 3.6 330 08:18 29.07.2022
214 Clouds 25 1014 85 10000 1.54 280 01:58 29.07.2022
215 Clouds 27 1013 80 10000 2.06 150 22:53 28.07.2022
216 Rain 27 1012 76 10000 2.57 210 21:29 28.07.2022
217 Clouds 28 1012 73 10000 3.6 210 20:34 28.07.2022
218 Clouds 29 1012 69 10000 2.24 173 19:44 28.07.2022
219 Clouds 29 1012 66 10000 5.66 200 19:24 28.07.2022
220 Rain 28 1012 69 10000 4.63 200 17:44 28.07.2022
221 Rain 28 1012 71 10000 5.14 200 16:59 28.07.2022
222 Rain 29 1013 68 10000 4.63 190 16:36 28.07.2022
223 Clouds 30 1013 65 10000 4.12 160 13:35 28.07.2022
224 Clouds 28 1013 74 10000 2.06 0 11:42 28.07.2022
225 Rain 25 1012 85 10000 1.54 360 06:59 28.07.2022
226 Clouds 24 1012 83 10000 1.03 0 05:33 28.07.2022
227 Clouds 25 1012 84 10000 1.54 280 03:53 28.07.2022
228 Clouds 26 1012 80 10000 2.57 230 23:19 27.07.2022
229 Clouds 28 1011 72 10000 5.66 220 21:29 27.07.2022
230 Clouds 29 1011 69 10000 7.2 210 19:46 27.07.2022
231 Clouds 28 1011 75 10000 5.66 170 18:41 27.07.2022
232 Clouds 28 1013 69 10000 5.14 150 16:31 27.07.2022
233 Clouds 27 1014 71 10000 5.14 170 15:41 27.07.2022
234 Clouds 27 1014 72 10000 4.12 150 14:41 27.07.2022
235 Clouds 27 1014 72 10000 5.14 160 13:29 27.07.2022
236 Clouds 25 1014 75 10000 1.54 350 09:27 27.07.2022
237 Clouds 24 1014 76 10000 4.63 310 07:40 27.07.2022
238 Clouds 26 1014 85 10000 3.09 190 02:52 27.07.2022
239 Clouds 27 1014 82 10000 3.09 180 22:49 26.07.2022
240 Clouds 27 1013 80 10000 5.14 210 21:36 26.07.2022
241 Clouds 28 1013 78 10000 5.66 210 20:49 26.07.2022
242 Clouds 29 1013 71 10000 5.66 200 18:47 26.07.2022
243 Clouds 29 1013 71 10000 5.66 190 18:28 26.07.2022
244 Clouds 29 1013 69 10000 5.66 180 17:46 26.07.2022
245 Clouds 30 1014 67 10000 6.69 170 15:43 26.07.2022
246 Clouds 30 1015 68 10000 6.69 170 14:38 26.07.2022
247 Clouds 30 1015 60 10000 3.58 110 11:47 26.07.2022
248 Clouds 27 1015 58 10000 7.2 330 09:44 26.07.2022
249 Clouds 25 1015 63 10000 6.69 340 08:18 26.07.2022
250 Clouds 26 1016 81 10000 1.03 0 01:52 26.07.2022
251 Clouds 26 1016 81 10000 1.03 210 23:44 25.07.2022
252 Clouds 27 1015 80 10000 4.12 80 22:39 25.07.2022
253 Clouds 27 1015 77 10000 5.14 90 21:43 25.07.2022
254 Clouds 27 1014 75 10000 5.14 90 20:43 25.07.2022
255 Clouds 28 1014 76 10000 5.66 90 19:55 25.07.2022
256 Clouds 28 1014 75 10000 5.66 130 19:20 25.07.2022
257 Clouds 29 1014 73 10000 5.66 110 17:35 25.07.2022
258 Clouds 30 1014 70 10000 6.17 110 16:40 25.07.2022
259 Clouds 30 1016 71 10000 6.69 70 12:58 25.07.2022
260 Clouds 29 1015 73 10000 6.17 60 10:48 25.07.2022
261 Clear 26 1014 66 10000 3.09 320 07:32 25.07.2022
262 Clear 28 1015 62 10000 4.12 220 00:38 25.07.2022
263 Clear 28 1015 61 10000 4.12 230 23:45 24.07.2022
264 Clear 29 1014 62 10000 5.14 220 22:43 24.07.2022
265 Clear 30 1014 58 10000 5.66 220 21:41 24.07.2022
266 Clear 31 1014 58 10000 6.17 220 20:58 24.07.2022
267 Clear 31 1014 60 10000 6.69 220 20:37 24.07.2022
268 Clear 32 1014 60 10000 7.2 220 19:18 24.07.2022
269 Clear 33 1015 59 10000 6.17 210 17:56 24.07.2022
270 Clear 32 1016 65 10000 6.17 200 15:54 24.07.2022
271 Clear 32 1016 65 10000 6.17 180 14:41 24.07.2022
272 Clear 32 1017 67 10000 5.66 170 13:47 24.07.2022
273 Clear 31 1017 68 10000 3.6 160 12:28 24.07.2022
274 Clear 31 1017 67 10000 3.09 160 11:30 24.07.2022
275 Clear 29 1018 75 10000 2.68 314 09:47 24.07.2022
276 Clear 25 1017 89 10000 3.09 330 07:57 24.07.2022
277 Clouds 25 1017 89 10000 2.57 320 07:31 24.07.2022
278 Clouds 25 1018 90 10000 1.54 280 02:57 24.07.2022
279 Clouds 27 1018 86 10000 2.57 120 22:52 23.07.2022
280 Clouds 29 1017 78 10000 3.6 160 20:47 23.07.2022
281 Clouds 30 1018 74 10000 4.12 180 19:29 23.07.2022
282 Clouds 30 1018 72 10000 4.63 150 18:36 23.07.2022
283 Clouds 30 1018 73 10000 6.17 130 17:27 23.07.2022
284 Clouds 30 1018 71 10000 5.14 130 16:24 23.07.2022
285 Clouds 30 1019 71 10000 6.69 130 15:22 23.07.2022
286 Clouds 30 1019 71 10000 6.17 120 14:52 23.07.2022
287 Clouds 30 1019 70 10000 5.66 120 14:23 23.07.2022
288 Clouds 29 1018 75 10000 5.66 110 11:56 23.07.2022
289 Clouds 28 1018 77 10000 4.63 60 10:44 23.07.2022
290 Clouds 27 1018 75 10000 3.6 50 09:44 23.07.2022
291 Clouds 25 1017 79 10000 3.09 340 07:37 23.07.2022
292 Clear 26 1017 72 10000 2.06 320 03:37 23.07.2022
293 Clear 27 1017 78 10000 2.06 210 00:37 23.07.2022
294 Clear 29 1015 69 10000 4.12 220 21:38 22.07.2022
295 Clear 30 1015 64 10000 6.69 220 20:33 22.07.2022
296 Clear 31 1014 60 10000 7.2 220 18:56 22.07.2022
297 Clear 33 1014 57 10000 8.23 210 17:40 22.07.2022
298 Clear 33 1015 53 10000 7.72 220 16:31 22.07.2022
299 Clear 34 1016 52 10000 6.69 210 13:50 22.07.2022
300 Clear 31 1016 59 10000 3.09 250 10:40 22.07.2022
301 Clear 29 1016 61 10000 2.06 310 09:25 22.07.2022
302 Clear 26 1016 69 10000 2.68 128 08:26 22.07.2022
303 Clear 25 1016 78 10000 2.57 320 04:24 22.07.2022
304 Clear 27 1017 76 10000 3.09 240 23:45 21.07.2022
305 Clear 27 1017 74 10000 3.09 220 22:20 21.07.2022
306 Clear 29 1016 64 10000 4.63 210 20:36 21.07.2022
307 Clear 31 1017 61 10000 6.69 210 18:52 21.07.2022
308 Clear 32 1017 58 10000 8.75 210 17:29 21.07.2022
309 Clear 32 1017 55 10000 8.23 220 16:53 21.07.2022
310 Clear 32 1018 58 10000 7.72 210 14:52 21.07.2022
311 Clear 32 1018 57 10000 7.2 220 14:22 21.07.2022
312 Clear 31 1019 58 10000 3.09 200 12:27 21.07.2022
313 Clear 30 1019 58 10000 3.13 349 10:39 21.07.2022
314 Clear 27 1019 68 10000 3.09 330 08:54 21.07.2022
315 Clear 26 1019 73 10000 3.6 330 08:35 21.07.2022
316 Clear 24 1019 79 10000 3.6 330 07:23 21.07.2022
317 Clouds 25 1019 78 10000 2.57 330 03:55 21.07.2022
318 Clouds 26 1019 77 10000 2.06 70 23:26 20.07.2022
319 Clouds 26 1019 80 10000 3.6 130 22:21 20.07.2022
320 Clouds 28 1018 76 10000 3.6 140 20:50 20.07.2022
321 Clouds 28 1018 76 10000 5.14 120 19:49 20.07.2022
322 Clouds 28 1018 75 10000 5.14 110 19:20 20.07.2022
323 Clouds 29 1018 73 10000 5.14 100 18:33 20.07.2022
324 Clouds 30 1018 70 10000 5.66 100 17:54 20.07.2022
325 Clouds 30 1019 69 10000 6.69 130 16:19 20.07.2022
326 Clouds 30 1019 69 10000 6.17 100 14:57 20.07.2022
327 Clouds 30 1019 69 10000 6.17 100 13:57 20.07.2022
328 Clouds 30 1018 69 10000 4.12 70 11:32 20.07.2022
329 Clear 26 1016 64 10000 3.6 330 07:50 20.07.2022
330 Clear 25 1016 74 10000 3.09 320 03:25 20.07.2022
331 Clear 26 1016 70 10000 2.06 280 00:48 20.07.2022
332 Clouds 27 1016 68 10000 2.06 280 23:41 19.07.2022
333 Clear 27 1016 77 10000 0.51 350 22:31 19.07.2022
334 Clear 28 1015 76 10000 2.06 160 21:23 19.07.2022
335 Clear 29 1015 72 10000 4.12 130 20:27 19.07.2022
336 Clouds 31 1015 66 10000 6.17 120 18:43 19.07.2022
337 Clouds 31 1015 64 10000 6.69 120 17:58 19.07.2022
338 Clear 31 1016 63 10000 6.17 110 16:37 19.07.2022
339 Clear 31 1016 65 10000 6.17 110 14:52 19.07.2022
340 Clouds 30 1016 69 10000 3.09 110 11:39 19.07.2022
341 Clear 29 1016 69 7000 1.54 110 10:52 19.07.2022
342 Mist 27 1017 80 10000 2.57 320 09:23 19.07.2022
343 Clouds 25 1017 86 10000 2.57 320 08:38 19.07.2022
344 Clouds 23 1017 88 10000 1.54 310 07:19 19.07.2022
345 Clouds 24 1016 89 9000 1.54 340 05:28 19.07.2022
346 Clouds 24 1017 89 10000 1.03 0 04:53 19.07.2022
347 Clouds 25 1017 87 10000 1.03 100 01:19 19.07.2022
348 Clouds 25 1017 87 10000 1.54 90 23:47 18.07.2022
349 Clouds 25 1017 86 10000 2.06 120 23:18 18.07.2022
350 Clouds 26 1017 83 10000 2.06 100 21:58 18.07.2022
351 Clouds 27 1017 79 10000 3.6 130 20:51 18.07.2022
352 Clouds 29 1017 74 10000 4.12 130 19:33 18.07.2022
353 Clouds 30 1017 68 10000 6.17 120 17:38 18.07.2022
354 Clear 30 1018 67 10000 5.66 120 15:55 18.07.2022
355 Clear 31 1018 63 10000 6.17 130 14:51 18.07.2022
356 Clear 30 1019 65 10000 4.12 100 13:23 18.07.2022
357 Clear 30 1018 64 10000 4.12 80 11:31 18.07.2022
358 Clouds 27 1019 72 10000 4.12 70 09:28 18.07.2022
359 Clouds 25 1018 70 10000 2.57 330 07:43 18.07.2022
360 Clear 26 1018 66 10000 1.54 290 02:21 18.07.2022
361 Clear 27 1018 64 10000 2.06 290 22:51 17.07.2022
362 Clear 28 1018 62 10000 1.03 0 22:23 17.07.2022
363 Clear 28 1018 62 10000 1.54 70 21:24 17.07.2022
364 Clear 29 1018 62 10000 2.57 110 20:44 17.07.2022
365 Clouds 29 1018 56 10000 3.6 130 19:34 17.07.2022
366 Clouds 30 1018 53 10000 4.12 80 18:56 17.07.2022
367 Clear 31 1018 49 10000 5.66 140 17:39 17.07.2022
368 Clear 31 1018 47 10000 6.17 130 16:51 17.07.2022
369 Clear 31 1018 46 10000 6.69 130 16:27 17.07.2022
370 Clear 31 1018 45 10000 6.17 120 15:27 17.07.2022
371 Clear 32 1018 42 10000 5.14 120 13:47 17.07.2022
372 Clear 32 1019 42 10000 3.6 120 12:32 17.07.2022
373 Clear 30 1018 40 10000 2.24 73 09:31 17.07.2022
374 Clear 26 1016 47 10000 4.12 350 06:58 17.07.2022
375 Clear 27 1017 50 10000 3.13 126 02:33 17.07.2022
376 Clear 27 1017 56 10000 2.06 280 23:22 16.07.2022
377 Clear 28 1016 51 10000 1.54 110 21:57 16.07.2022
378 Clear 30 1016 49 10000 3.09 80 20:28 16.07.2022
379 Clear 31 1016 50 10000 5.14 110 18:42 16.07.2022
380 Clear 32 1016 45 10000 5.14 100 17:24 16.07.2022
381 Clear 32 1016 46 10000 5.66 120 15:41 16.07.2022
382 Clear 32 1016 40 10000 3.6 130 11:55 16.07.2022
383 Clear 31 1016 41 10000 1.34 46 09:41 16.07.2022
384 Clear 30 1016 42 10000 2.06 340 09:22 16.07.2022
385 Clear 29 1015 43 10000 3.09 330 08:35 16.07.2022
386 Clear 27 1015 46 10000 5.14 330 06:47 16.07.2022
387 Clear 28 1015 42 10000 3.09 330 03:32 16.07.2022
388 Clear 29 1015 41 10000 2.57 300 23:54 15.07.2022
389 Clear 30 1015 41 10000 1.03 0 22:46 15.07.2022
390 Clear 31 1015 43 10000 1.54 200 21:55 15.07.2022
391 Clear 32 1015 45 10000 4.63 170 20:40 15.07.2022
392 Clear 32 1014 54 10000 6.17 220 18:55 15.07.2022
393 Clear 33 1014 55 10000 6.17 200 18:22 15.07.2022
394 Clear 33 1015 55 10000 6.69 110 16:46 15.07.2022
395 Clear 33 1015 48 10000 6.69 130 13:58 15.07.2022
396 Clear 33 1016 48 10000 4.63 220 12:28 15.07.2022
397 Clear 32 1016 46 10000 2.06 220 10:52 15.07.2022
398 Clear 27 1015 52 10000 4.12 290 07:48 15.07.2022
399 Clear 26 1016 57 10000 2.57 300 03:41 15.07.2022
400 Clear 27 1017 54 10000 3.09 250 00:40 15.07.2022
401 Clear 28 1017 59 10000 4.12 220 23:24 14.07.2022
402 Clear 28 1017 59 10000 3.6 220 22:24 14.07.2022
403 Clear 29 1017 57 10000 4.63 220 21:40 14.07.2022
404 Clear 29 1017 57 10000 5.14 210 21:21 14.07.2022
405 Clear 30 1017 58 10000 5.14 210 20:43 14.07.2022
406 Clear 30 1017 56 10000 4.63 210 20:18 14.07.2022
407 Clear 31 1017 54 10000 5.14 200 18:24 14.07.2022
408 Clear 31 1019 57 10000 5.14 210 16:19 14.07.2022
409 Clouds 31 1019 63 10000 6.17 140 14:56 14.07.2022
410 Clouds 31 1019 62 10000 6.17 130 13:51 14.07.2022
411 Clear 30 1019 60 10000 4.12 180 12:36 14.07.2022
412 Clear 30 1019 57 10000 3.09 170 11:28 14.07.2022
413 Clear 30 1019 49 10000 2.68 352 10:52 14.07.2022
414 Clear 27 1019 57 10000 3.09 320 08:58 14.07.2022
415 Clear 24 1019 73 10000 2.57 320 04:45 14.07.2022
416 Clear 25 1021 84 10000 1.54 280 01:19 14.07.2022
417 Clear 25 1020 83 10000 2.06 290 00:51 14.07.2022
418 Clear 27 1020 82 10000 3.09 130 22:31 13.07.2022
419 Clear 27 1020 77 10000 4.12 120 21:47 13.07.2022
420 Clear 29 1019 70 10000 5.14 120 20:41 13.07.2022
421 Clear 30 1019 64 10000 5.14 160 18:40 13.07.2022
422 Clear 31 1019 59 10000 5.66 170 17:31 13.07.2022
423 Clear 31 1020 62 10000 6.17 130 16:19 13.07.2022
424 Clear 30 1020 66 10000 6.17 120 14:54 13.07.2022
425 Clear 30 1020 55 10000 5.66 130 11:56 13.07.2022
426 Clear 30 1020 57 10000 2.06 120 10:45 13.07.2022
427 Clear 29 1020 56 10000 2.24 272 09:56 13.07.2022
428 Clear 28 1019 58 10000 2.06 320 09:20 13.07.2022
429 Clear 26 1019 54 10000 2.57 310 05:29 13.07.2022
430 Clear 26 1020 62 10000 1.54 280 01:22 13.07.2022
431 Clear 26 1019 70 10000 1.54 280 23:35 12.07.2022
432 Clear 27 1019 70 10000 1.54 120 21:54 12.07.2022
433 Clear 28 1018 69 10000 3.6 120 21:18 12.07.2022
434 Clear 28 1018 68 10000 3.09 110 20:41 12.07.2022
435 Clear 30 1018 65 10000 5.14 120 18:56 12.07.2022
436 Clear 31 1018 62 10000 5.66 120 17:38 12.07.2022
437 Clear 30 1018 65 10000 6.17 120 15:42 12.07.2022
438 Clear 30 1020 66 10000 5.66 120 14:23 12.07.2022
439 Clear 30 1019 63 10000 4.12 70 12:19 12.07.2022
440 Clear 29 1019 63 10000 4.12 80 11:22 12.07.2022
441 Clear 27 1019 60 10000 1.03 0 09:28 12.07.2022
442 Clear 26 1018 59 10000 2.57 340 08:18 12.07.2022
443 Clear 24 1017 58 10000 3.09 320 06:24 12.07.2022
444 Clear 24 1017 58 10000 2.57 310 05:39 12.07.2022
445 Clear 25 1017 65 10000 3.13 247 02:21 12.07.2022
446 Clear 25 1016 77 10000 2.06 120 23:18 11.07.2022
447 Clouds 26 1017 76 10000 1.54 110 22:30 11.07.2022
448 Clear 27 1016 70 10000 3.09 110 20:33 11.07.2022
449 Clear 28 1015 66 10000 4.63 110 19:36 11.07.2022
450 Clear 29 1015 63 10000 5.66 110 18:32 11.07.2022
451 Clear 29 1015 57 10000 5.66 120 17:39 11.07.2022
452 Clear 29 1016 53 10000 6.69 130 16:19 11.07.2022
453 Clear 30 1016 48 10000 6.69 130 14:37 11.07.2022
454 Clear 29 1016 47 10000 6.17 70 11:49 11.07.2022
455 Clear 28 1016 52 10000 5.14 70 10:29 11.07.2022
456 Clear 28 1016 55 10000 2.57 80 09:42 11.07.2022
457 Clear 27 1015 55 10000 3.09 320 08:34 11.07.2022
458 Clear 24 1014 60 10000 4.63 320 05:52 11.07.2022
459 Clear 25 1016 72 10000 3.09 240 00:22 11.07.2022
460 Clear 26 1016 75 10000 2.06 220 22:58 10.07.2022
461 Clear 26 1016 73 10000 2.06 130 21:51 10.07.2022
462 Clear 27 1016 70 10000 3.6 140 20:54 10.07.2022
463 Clouds 28 1016 67 10000 4.63 150 19:50 10.07.2022
464 Clouds 28 1016 67 10000 4.63 150 19:50 10.07.2022
465 Clouds 28 1016 67 10000 4.63 150 19:50 10.07.2022
466 Clear 29 1016 64 10000 5.66 160 18:50 10.07.2022
467 Clear 30 1016 59 10000 5.66 210 17:40 10.07.2022
468 Clear 30 1016 57 10000 6.69 170 16:57 10.07.2022
469 Clear 31 1016 55 10000 6.17 210 16:19 10.07.2022
470 Clear 31 1017 56 10000 6.17 210 14:33 10.07.2022
471 Clear 31 1017 45 10000 4.63 100 12:30 10.07.2022
472 Clear 31 1018 41 10000 3.09 100 11:34 10.07.2022
473 Clear 27 1018 57 10000 3.09 340 08:46 10.07.2022
474 Clear 26 1018 60 10000 4.63 320 08:24 10.07.2022
475 Clear 24 1018 62 10000 1.34 262 03:38 10.07.2022
476 Clear 25 1020 71 10000 3.09 220 23:30 09.07.2022
477 Clear 26 1019 73 10000 2.57 210 22:25 09.07.2022
478 Clear 26 1019 72 10000 3.09 210 21:29 09.07.2022
479 Clear 28 1019 68 10000 5.14 110 18:59 09.07.2022
480 Clear 28 1020 64 10000 6.17 120 17:59 09.07.2022
481 Clear 29 1020 66 10000 6.69 110 16:59 09.07.2022
482 Clouds 29 1020 64 10000 7.2 120 15:54 09.07.2022
483 Clouds 29 1020 63 10000 6.69 120 15:35 09.07.2022
484 Clouds 29 1021 63 10000 6.69 150 13:54 09.07.2022
485 Clouds 29 1021 65 10000 7.2 140 13:28 09.07.2022
486 Clear 29 1022 54 10000 4.12 140 11:34 09.07.2022
487 Clear 28 1021 55 10000 1.34 153 10:24 09.07.2022
488 Clear 24 1021 58 10000 4.12 310 08:27 09.07.2022
489 Clear 23 1021 61 10000 3.09 340 06:59 09.07.2022
490 Clear 24 1021 59 10000 2.06 290 04:35 09.07.2022
491 Clear 25 1022 67 10000 4.63 250 23:27 08.07.2022
492 Clear 26 1021 60 10000 4.63 240 21:59 08.07.2022
493 Clear 27 1021 58 10000 5.14 240 21:20 08.07.2022
494 Clouds 27 1021 57 10000 5.14 220 20:33 08.07.2022
495 Clouds 28 1021 62 10000 5.14 180 18:36 08.07.2022
496 Clouds 28 1021 62 10000 6.17 130 17:45 08.07.2022
497 Clouds 29 1021 60 10000 6.69 130 15:53 08.07.2022
498 Clouds 29 1021 57 10000 6.17 130 14:50 08.07.2022
499 Clouds 28 1021 63 10000 4.63 120 12:30 08.07.2022
500 Clouds 27 1021 64 10000 5.66 70 10:46 08.07.2022
501 Clouds 26 1021 68 10000 4.63 50 09:42 08.07.2022
502 Clear 22 1020 73 10000 4.63 330 06:55 08.07.2022
503 Clear 23 1020 76 10000 3.09 310 04:32 08.07.2022
504 Clear 25 1020 68 10000 5.14 230 00:23 08.07.2022
505 Clear 26 1020 71 10000 5.14 220 22:47 07.07.2022
506 Clouds 27 1019 67 10000 5.14 220 21:41 07.07.2022
507 Clouds 29 1019 58 10000 6.17 220 19:34 07.07.2022
508 Clouds 30 1019 54 10000 6.69 220 17:43 07.07.2022
509 Clouds 29 1020 59 10000 7.2 200 15:58 07.07.2022
510 Clouds 29 1020 58 10000 4.63 160 13:40 07.07.2022
511 Clouds 29 1021 56 10000 5.14 180 12:41 07.07.2022
512 Clouds 28 1020 58 10000 5.14 200 12:22 07.07.2022
513 Clear 28 1020 57 10000 5.66 340 11:32 07.07.2022
514 Clouds 26 1020 62 10000 6.17 320 10:45 07.07.2022
515 Clouds 26 1020 62 10000 6.17 320 10:27 07.07.2022
516 Fog 23 1020 73 10000 5.66 320 08:40 07.07.2022
517 Clear 22 1019 76 10000 6.69 320 05:45 07.07.2022
518 Clouds 24 1020 71 10000 3.13 118 00:18 07.07.2022
519 Clouds 24 1019 68 10000 3.58 260 23:36 06.07.2022
520 Clouds 24 1019 66 10000 5.66 310 23:18 06.07.2022
521 Clouds 24 1019 66 10000 5.66 310 22:47 06.07.2022
522 Clouds 24 1018 66 10000 5.14 310 22:47 06.07.2022
523 Clouds 24 1018 67 10000 5.14 310 22:28 06.07.2022
524 Clouds 26 1019 73 10000 9.26 250 20:19 06.07.2022
525 Rain 28 1018 67 10000 8.23 230 18:48 06.07.2022
526 Clouds 29 1018 65 10000 7.72 220 17:21 06.07.2022
527 Rain 28 1019 66 10000 4.63 220 15:50 06.07.2022
528 Rain 27 1019 64 10000 4.12 150 12:44 06.07.2022
529 Clouds 26 1018 70 10000 4.12 90 11:52 06.07.2022
530 Clouds 26 1019 69 10000 2.57 110 10:49 06.07.2022
531 Thunderstorm 25 1019 75 9000 2.57 320 09:21 06.07.2022
532 Rain 23 1019 82 10000 3.6 0 07:43 06.07.2022
533 Rain 24 1021 78 10000 2.24 152 06:43 06.07.2022
534 Clouds 25 1017 71 10000 3.6 120 23:42 05.07.2022
535 Rain 26 1021 70 10000 6.17 230 22:42 05.07.2022
536 Rain 27 1018 64 10000 4.63 120 20:48 05.07.2022
537 Rain 27 1018 61 10000 3.6 150 19:55 05.07.2022
538 Clouds 28 1018 61 10000 4.63 120 19:36 05.07.2022
539 Clear 29 1018 60 10000 5.14 130 17:50 05.07.2022
540 Clear 29 1018 59 10000 5.66 130 17:18 05.07.2022
541 Clear 30 1019 56 10000 6.69 130 16:18 05.07.2022
542 Clear 30 1018 56 10000 6.69 130 14:54 05.07.2022
543 Clear 30 1018 56 10000 5.14 140 12:59 05.07.2022
544 Clear 30 1018 54 10000 3.09 140 12:22 05.07.2022
545 Clear 30 1018 54 10000 2.06 150 10:45 05.07.2022
546 Clouds 28 1018 57 10000 2.06 330 09:44 05.07.2022
547 Clouds 24 1018 73 10000 3.6 320 08:21 05.07.2022
548 Rain 24 1018 70 10000 3.6 320 06:48 05.07.2022
549 Clear 23 1018 74 10000 2.06 330 04:30 05.07.2022
550 Clear 25 1017 72 10000 1.54 290 00:47 05.07.2022
551 Clear 25 1016 74 10000 3.09 50 23:37 04.07.2022
552 Clear 25 1016 76 10000 2.06 50 22:54 04.07.2022
553 Clear 25 1015 77 10000 3.09 120 21:56 04.07.2022
554 Clear 27 1015 72 10000 3.6 130 20:55 04.07.2022
555 Clear 27 1015 72 10000 3.6 110 20:35 04.07.2022
556 Clear 27 1015 68 10000 4.12 120 19:56 04.07.2022
557 Clear 28 1015 65 10000 4.12 120 19:37 04.07.2022
558 Clear 28 1015 58 10000 4.63 130 18:34 04.07.2022
559 Clear 29 1016 50 10000 6.17 130 16:42 04.07.2022
560 Clear 29 1016 55 10000 7.2 130 15:34 04.07.2022
561 Clear 30 1017 44 10000 7.2 130 13:44 04.07.2022
562 Clear 31 1017 39 10000 5.14 120 12:38 04.07.2022
563 Clear 30 1015 40 10000 1.79 165 10:39 04.07.2022
564 Clear 29 1015 43 10000 3.09 330 10:20 04.07.2022
565 Clear 26 1015 41 10000 3.6 330 08:31 04.07.2022
566 Clear 24 1017 53 10000 3.6 330 05:57 04.07.2022
567 Clouds 26 1017 55 10000 1.54 90 00:44 04.07.2022
568 Clouds 26 1017 54 10000 1.54 90 00:44 04.07.2022
569 Rain 27 1018 46 10000 3.13 36 23:38 03.07.2022
570 Clear 26 1017 59 10000 1.54 280 22:27 03.07.2022
571 Clear 27 1015 58 10000 3.6 90 20:45 03.07.2022
572 Rain 28 1015 57 10000 3.09 190 19:42 03.07.2022
573 Clear 28 1016 56 10000 3.09 170 19:23 03.07.2022
574 Clear 29 1017 50 10000 4.63 120 17:46 03.07.2022
575 Clear 29 1017 51 10000 5.66 120 17:18 03.07.2022
576 Clear 29 1018 44 10000 5.14 120 15:26 03.07.2022
577 Clear 29 1018 44 10000 6.17 120 14:49 03.07.2022
578 Clear 29 1018 51 10000 5.14 130 13:49 03.07.2022
579 Clear 29 1018 60 10000 4.63 110 12:42 03.07.2022
580 Clear 28 1018 62 10000 3.6 90 11:47 03.07.2022
581 Clear 27 1017 65 10000 4.63 60 10:51 03.07.2022
582 Clear 26 1017 67 10000 4.63 60 10:33 03.07.2022
583 Clear 23 1017 65 10000 3.6 320 07:38 03.07.2022
584 Clear 22 1017 67 10000 2.57 300 05:34 03.07.2022
585 Clear 24 1019 69 10000 1.54 180 00:26 03.07.2022
586 Clear 24 1018 65 10000 1.03 0 22:37 02.07.2022
587 Clear 24 1018 65 10000 1.03 0 22:18 02.07.2022
588 Clear 26 1018 55 10000 2.57 100 20:26 02.07.2022
589 Clear 26 1018 54 10000 4.12 120 19:49 02.07.2022
590 Clear 27 1019 52 10000 4.12 120 18:20 02.07.2022
591 Clear 27 1019 54 10000 5.14 130 17:37 02.07.2022
592 Clouds 27 1019 58 10000 5.14 120 15:46 02.07.2022
593 Clear 27 1019 61 10000 5.14 110 12:56 02.07.2022
594 Clear 27 1019 62 10000 4.12 100 11:48 02.07.2022
595 Clear 26 1019 63 10000 3.6 70 10:50 02.07.2022
596 Clear 25 1019 66 10000 1.54 30 09:49 02.07.2022
597 Clear 23 1019 70 10000 4.12 330 08:37 02.07.2022
598 Clear 22 1018 72 10000 4.63 330 08:19 02.07.2022
599 Clear 21 1019 77 10000 2.06 300 02:53 02.07.2022
600 Clear 21 1019 73 10000 1.03 290 00:28 02.07.2022
601 Clear 22 1019 71 10000 1.54 120 23:21 01.07.2022
602 Clear 22 1018 70 10000 2.57 110 22:29 01.07.2022
603 Clear 23 1018 69 10000 3.6 120 21:37 01.07.2022
604 Clouds 23 1018 68 10000 3.6 110 20:58 01.07.2022
605 Clouds 23 1018 67 10000 4.12 130 20:32 01.07.2022
606 Clouds 24 1018 66 10000 5.66 120 19:36 01.07.2022
607 Clouds 25 1018 64 10000 6.69 130 16:42 01.07.2022
608 Clouds 26 1018 64 10000 7.2 120 14:32 01.07.2022
609 Clouds 25 1018 64 10000 6.17 120 13:39 01.07.2022
610 Clouds 24 1017 62 10000 3.6 120 11:22 01.07.2022
611 Clouds 24 1017 61 10000 2.24 307 10:19 01.07.2022
612 Clouds 22 1016 66 10000 4.63 330 07:32 01.07.2022
613 Clouds 23 1015 77 10000 1.54 110 02:43 01.07.2022
614 Clouds 23 1015 78 10000 6.17 80 23:52 30.06.2022
615 Clouds 23 1014 81 10000 7.2 70 22:51 30.06.2022
616 Clouds 23 1014 81 10000 7.72 70 22:32 30.06.2022
617 Clouds 23 1014 81 10000 7.72 70 22:32 30.06.2022
618 Clouds 23 1014 81 10000 7.72 70 22:32 30.06.2022
619 Clouds 23 1013 82 10000 7.72 70 22:32 30.06.2022
620 Clouds 24 1013 82 10000 5.81 116 21:54 30.06.2022
621 Clear 25 1012 78 10000 4.92 104 20:53 30.06.2022
622 Clear 26 1011 73 10000 5.14 130 20:21 30.06.2022
623 Clear 27 1011 67 10000 5.14 130 19:48 30.06.2022
624 Clear 27 1011 61 10000 4.63 120 18:56 30.06.2022
625 Clear 28 1011 58 10000 4.63 120 18:34 30.06.2022
626 Clear 28 1011 57 10000 4.63 220 17:37 30.06.2022
627 Clear 28 1011 59 10000 5.66 200 16:22 30.06.2022
628 Clear 28 1012 61 10000 5.66 200 14:31 30.06.2022
629 Clear 28 1012 66 10000 6.69 190 13:29 30.06.2022
630 Clear 28 1012 65 10000 6.17 210 12:34 30.06.2022
631 Clear 27 1011 67 10000 4.63 210 11:28 30.06.2022
632 Clear 25 1011 70 10000 2.57 200 09:53 30.06.2022
633 Clear 25 1011 71 10000 1.03 0 09:31 30.06.2022
634 Clouds 22 1011 76 10000 2.06 320 07:41 30.06.2022
635 Clouds 22 1011 81 10000 1.54 250 05:47 30.06.2022
636 Clouds 23 1012 84 10000 2.06 240 00:31 30.06.2022
637 Clouds 23 1012 85 10000 1.54 200 23:19 29.06.2022
638 Clouds 24 1011 83 10000 3.09 170 22:38 29.06.2022
639 Clouds 25 1011 77 10000 3.6 210 21:34 29.06.2022
640 Clouds 26 1011 72 10000 4.63 210 20:33 29.06.2022
641 Clouds 27 1011 68 10000 4.63 220 19:37 29.06.2022
642 Clouds 28 1012 67 10000 5.66 200 17:43 29.06.2022
643 Clouds 28 1012 67 10000 5.66 210 16:36 29.06.2022
644 Clouds 28 1013 69 10000 5.66 220 14:56 29.06.2022
645 Clouds 27 1015 73 10000 5.14 190 12:40 29.06.2022
646 Clear 27 1015 67 10000 1.34 161 10:56 29.06.2022
647 Clouds 25 1015 68 10000 2.06 320 09:32 29.06.2022
648 Clouds 22 1015 76 10000 2.06 320 07:39 29.06.2022
649 Clear 21 1015 75 10000 2.06 330 04:51 29.06.2022
650 Clear 23 1016 70 10000 4.12 240 00:57 29.06.2022
651 Clear 23 1016 70 10000 4.63 240 00:35 29.06.2022
652 Clear 25 1015 63 10000 6.69 230 22:54 28.06.2022
653 Clear 25 1015 63 10000 2.57 240 22:30 28.06.2022
654 Clear 26 1014 61 10000 3.6 220 21:54 28.06.2022
655 Clear 26 1014 63 10000 9.77 230 21:32 28.06.2022
656 Clear 28 1013 54 10000 5.14 210 20:35 28.06.2022
657 Clear 29 1013 51 10000 9.26 230 19:34 28.06.2022
658 Clear 29 1013 52 10000 9.77 230 18:46 28.06.2022
659 Clouds 29 1013 56 10000 10.29 220 17:40 28.06.2022
660 Clouds 28 1014 58 10000 7.2 200 15:59 28.06.2022
661 Clouds 28 1015 58 10000 7.72 210 15:38 28.06.2022
662 Clouds 27 1015 59 10000 5.66 200 14:21 28.06.2022
663 Clouds 27 1016 57 10000 5.66 190 13:52 28.06.2022
664 Clouds 27 1016 58 10000 4.63 170 12:57 28.06.2022
665 Clouds 26 1016 59 10000 3.58 164 11:18 28.06.2022
666 Clear 23 1017 68 10000 5.66 340 09:29 28.06.2022
667 Clouds 22 1016 68 10000 5.66 340 08:43 28.06.2022
668 Clouds 21 1016 75 10000 4.63 340 07:42 28.06.2022
669 Clouds 21 1016 75 10000 4.63 350 06:56 28.06.2022
670 Clouds 22 1017 67 10000 7.2 320 00:58 28.06.2022
671 Clouds 23 1017 69 10000 5.14 310 23:37 27.06.2022
672 Clouds 24 1017 71 10000 3.6 330 22:52 27.06.2022
673 Clouds 24 1016 72 10000 4.12 280 21:38 27.06.2022
674 Clouds 24 1016 72 10000 4.12 260 20:52 27.06.2022
675 Clouds 26 1015 65 10000 6.17 230 19:33 27.06.2022
676 Clouds 27 1014 58 10000 4.12 200 18:25 27.06.2022
677 Clouds 27 1015 60 10000 4.63 140 16:27 27.06.2022
678 Clouds 27 1014 65 10000 5.66 120 15:23 27.06.2022
679 Clouds 26 1015 72 10000 3.6 140 13:37 27.06.2022
680 Clouds 26 1015 73 10000 3.6 150 12:56 27.06.2022
681 Clouds 25 1014 75 10000 3.09 160 10:35 27.06.2022
682 Clouds 25 1013 79 10000 2.24 313 09:21 27.06.2022
683 Clouds 24 1012 82 10000 1.03 0 08:30 27.06.2022
684 Clouds 22 1011 87 10000 2.57 100 06:39 27.06.2022
685 Clouds 23 1011 88 10000 1.79 253 03:58 27.06.2022
686 Clouds 23 1012 89 10000 2.57 90 01:18 27.06.2022
687 Clouds 24 1010 87 10000 3.09 130 22:22 26.06.2022
688 Clouds 25 1009 83 10000 3.6 130 20:48 26.06.2022
689 Clouds 26 1009 80 10000 4.12 120 19:44 26.06.2022
690 Clouds 26 1009 77 10000 4.63 120 18:32 26.06.2022
691 Clouds 27 1009 74 10000 4.63 120 17:22 26.06.2022
692 Clouds 26 1010 75 10000 5.66 100 15:27 26.06.2022
693 Clouds 27 1011 75 10000 7.2 100 13:53 26.06.2022
694 Clouds 26 1011 76 10000 7.2 90 13:20 26.06.2022
695 Clouds 26 1011 77 10000 7.2 80 11:27 26.06.2022
696 Clouds 25 1011 79 10000 6.69 90 10:28 26.06.2022
697 Clouds 25 1010 80 10000 7.72 60 09:39 26.06.2022
698 Clouds 22 1010 83 10000 4.12 50 07:45 26.06.2022
699 Clouds 23 1010 86 10000 2.06 30 02:52 26.06.2022
700 Clouds 23 1011 86 10000 0.51 150 00:36 26.06.2022
701 Clouds 23 1011 86 10000 0.51 150 00:18 26.06.2022
702 Clouds 24 1011 85 10000 1.54 170 23:24 25.06.2022
703 Clouds 24 1010 84 10000 3.09 130 22:27 25.06.2022
704 Clear 25 1010 78 10000 2.57 120 21:50 25.06.2022
705 Clear 26 1009 75 10000 3.09 130 21:20 25.06.2022
706 Clear 26 1009 74 10000 3.09 120 20:30 25.06.2022
707 Clear 27 1010 71 10000 3.6 130 19:55 25.06.2022
708 Clouds 27 1010 73 10000 6.17 120 18:21 25.06.2022
709 Clouds 28 1010 70 10000 5.66 110 17:25 25.06.2022
710 Clouds 28 1010 66 10000 6.69 120 16:24 25.06.2022
711 Clouds 27 1012 66 10000 6.17 100 13:51 25.06.2022
712 Clouds 27 1012 66 10000 4.12 100 12:39 25.06.2022
713 Clouds 26 1012 71 10000 3.6 90 11:34 25.06.2022
714 Clouds 24 1012 73 10000 2.57 320 09:22 25.06.2022
715 Clouds 23 1012 75 10000 2.57 320 08:46 25.06.2022
716 Clouds 23 1012 77 10000 3.09 330 08:19 25.06.2022
717 Clouds 21 1013 85 10000 2.06 60 05:26 25.06.2022
718 Clouds 22 1014 82 10000 5.14 50 00:44 25.06.2022
719 Clouds 22 1014 82 10000 5.14 50 00:44 25.06.2022
720 Clouds 23 1014 84 10000 5.66 60 23:18 24.06.2022
721 Clouds 23 1013 83 10000 5.66 60 21:59 24.06.2022
722 Clouds 24 1013 80 10000 7.2 60 21:21 24.06.2022
723 Clouds 25 1012 71 10000 7.72 80 20:22 24.06.2022
724 Clouds 27 1012 58 10000 5.14 90 19:23 24.06.2022
725 Clouds 27 1012 64 10000 6.17 100 18:50 24.06.2022
726 Clouds 28 1012 63 10000 6.69 200 18:30 24.06.2022
727 Clouds 30 1011 44 10000 8.23 220 17:46 24.06.2022
728 Clouds 30 1012 44 10000 9.26 220 16:32 24.06.2022
729 Clouds 30 1012 44 10000 8.75 210 14:29 24.06.2022
730 Clouds 30 1012 45 10000 7.72 210 13:55 24.06.2022
731 Clouds 30 1011 40 10000 5.66 200 12:26 24.06.2022
732 Clouds 29 1012 42 10000 4.12 280 11:40 24.06.2022
733 Clouds 27 1012 53 10000 3.09 330 10:22 24.06.2022
734 Clouds 25 1012 59 10000 4.63 310 09:41 24.06.2022
735 Clouds 24 1012 66 10000 3.09 320 08:52 24.06.2022
736 Clouds 21 1012 79 10000 3.09 320 07:20 24.06.2022
737 Clouds 21 1012 81 10000 2.57 320 06:42 24.06.2022
738 Clouds 21 1011 79 10000 2.06 280 06:18 24.06.2022
739 Clear 23 1011 78 10000 2.06 310 02:44 24.06.2022
740 Clouds 25 1011 62 10000 4.12 220 22:58 23.06.2022
741 Clear 26 1011 59 10000 6.17 220 22:40 23.06.2022
742 Clear 27 1011 59 10000 6.69 230 20:57 23.06.2022
743 Clear 27 1011 58 10000 7.2 230 20:32 23.06.2022
744 Clouds 28 1010 64 10000 8.23 220 19:25 23.06.2022
745 Clouds 28 1011 66 10000 7.72 220 17:52 23.06.2022
746 Clouds 28 1011 64 10000 6.17 210 16:58 23.06.2022
747 Clouds 28 1011 65 10000 5.66 120 15:50 23.06.2022
748 Clouds 28 1011 64 10000 5.14 190 15:24 23.06.2022
749 Clouds 28 1012 67 10000 5.14 200 13:33 23.06.2022
750 Clouds 26 1011 71 10000 6.17 200 11:27 23.06.2022
751 Clouds 26 1011 73 10000 4.47 2 10:35 23.06.2022
752 Clouds 24 1011 80 10000 4.63 220 08:53 23.06.2022
753 Clouds 23 1011 89 9000 3.09 200 03:35 23.06.2022
754 Clear 24 1011 86 10000 2.57 210 00:26 23.06.2022
755 Clouds 24 1011 87 10000 3.09 210 23:30 22.06.2022
756 Clouds 25 1010 86 10000 3.09 200 22:39 22.06.2022
757 Clouds 26 1009 81 10000 4.12 210 21:22 22.06.2022
758 Clouds 27 1009 76 10000 4.63 220 20:42 22.06.2022
759 Clouds 27 1009 77 10000 5.66 180 19:56 22.06.2022
760 Clouds 28 1009 76 10000 6.17 210 18:47 22.06.2022
761 Clouds 27 1009 80 10000 3.6 170 17:28 22.06.2022
762 Clouds 27 1010 79 10000 5.14 100 16:29 22.06.2022
763 Clouds 26 1010 78 10000 5.66 90 15:26 22.06.2022
764 Clouds 27 1010 77 9000 6.69 70 14:20 22.06.2022
765 Clouds 27 1010 76 9000 6.17 70 13:39 22.06.2022
766 Clouds 26 1010 77 9000 6.17 70 13:21 22.06.2022
767 Clouds 25 1010 82 9000 4.12 70 11:49 22.06.2022
768 Clouds 24 1010 83 9000 2.06 20 10:55 22.06.2022
769 Clouds 23 1010 85 9000 1.54 330 10:19 22.06.2022
770 Clear 23 1010 82 10000 3.6 340 08:28 22.06.2022
771 Clouds 21 1008 88 10000 4.63 330 04:50 22.06.2022
772 Rain 22 1013 88 8000 8.75 320 01:23 22.06.2022
773 Rain 24 1011 78 10000 7.72 320 00:29 22.06.2022
774 Rain 26 1010 80 10000 1.03 0 22:19 21.06.2022
775 Clouds 27 1010 75 10000 1.54 240 19:56 21.06.2022
776 Clouds 27 1010 75 10000 5.14 170 18:36 21.06.2022
777 Clouds 28 1010 73 10000 4.02 3 17:39 21.06.2022
778 Clouds 29 1009 67 10000 4.12 60 14:22 21.06.2022
779 Rain 26 1011 77 10000 3.13 246 11:49 21.06.2022
780 Rain 26 1011 77 10000 1.54 160 10:19 21.06.2022
781 Clouds 26 1010 73 10000 3.09 220 08:48 21.06.2022
782 Clouds 24 1010 78 10000 1.03 280 07:23 21.06.2022
783 Clouds 24 1011 83 10000 2.57 270 02:27 21.06.2022
784 Clouds 25 1011 84 10000 0.51 30 23:26 20.06.2022
785 Clouds 26 1010 81 10000 2.57 110 21:58 20.06.2022
786 Clouds 26 1010 81 10000 2.57 110 21:30 20.06.2022
787 Clouds 27 1011 79 10000 4.12 120 19:49 20.06.2022
788 Clouds 27 1011 78 10000 4.63 130 18:53 20.06.2022
789 Clouds 28 1011 78 10000 4.63 130 18:23 20.06.2022
790 Clouds 28 1011 75 10000 4.63 120 17:40 20.06.2022
791 Clouds 28 1011 73 10000 5.14 130 16:20 20.06.2022
792 Clouds 28 1011 76 10000 5.14 140 14:18 20.06.2022
793 Clouds 28 1011 69 10000 3.6 120 11:30 20.06.2022
794 Clear 26 1011 70 10000 2.57 50 09:48 20.06.2022
795 Clouds 25 1010 75 10000 1.54 350 08:45 20.06.2022
796 Clouds 23 1010 83 10000 2.06 330 06:59 20.06.2022
797 Clear 24 1010 82 10000 3.09 10 03:29 20.06.2022
798 Clear 25 1011 80 10000 5.14 40 00:52 20.06.2022
799 Clear 25 1011 78 10000 5.14 50 23:29 19.06.2022
800 Clear 25 1010 78 10000 7.2 50 22:19 19.06.2022
801 Clouds 26 1010 77 10000 7.2 50 21:42 19.06.2022
802 Clouds 26 1010 76 10000 7.2 60 20:48 19.06.2022
803 Clear 27 1010 75 10000 7.72 60 19:49 19.06.2022
804 Clear 27 1010 74 10000 7.2 70 19:24 19.06.2022
805 Clouds 28 1011 74 10000 7.2 60 18:31 19.06.2022
806 Clouds 28 1011 75 10000 7.2 70 17:39 19.06.2022
807 Clouds 28 1011 75 10000 7.2 70 16:47 19.06.2022
808 Clouds 28 1012 77 10000 6.69 130 16:23 19.06.2022
809 Clouds 28 1012 75 10000 6.17 100 15:29 19.06.2022
810 Clouds 28 1012 75 10000 6.69 140 14:41 19.06.2022
811 Clouds 28 1012 78 10000 7.2 130 13:44 19.06.2022
812 Clear 29 1012 71 10000 6.17 70 12:19 19.06.2022
813 Clear 28 1012 71 10000 6.69 70 10:52 19.06.2022
814 Clouds 25 1012 79 10000 5.14 50 08:55 19.06.2022
815 Clouds 25 1012 83 10000 3.09 30 08:32 19.06.2022
816 Clouds 23 1012 86 10000 5.14 50 07:26 19.06.2022
817 Clouds 23 1012 86 10000 3.09 40 03:57 19.06.2022
818 Clouds 24 1014 89 10000 4.12 50 00:51 19.06.2022
819 Clouds 24 1014 89 10000 3.6 70 00:22 19.06.2022
820 Clouds 24 1014 88 10000 4.12 60 23:35 18.06.2022
821 Clouds 24 1014 87 10000 4.63 70 22:30 18.06.2022
822 Clouds 26 1014 80 10000 4.12 70 20:51 18.06.2022
823 Clouds 27 1014 75 10000 5.14 70 20:18 18.06.2022
824 Clouds 29 1014 69 10000 5.14 120 18:57 18.06.2022
825 Clouds 29 1014 69 10000 5.14 120 18:57 18.06.2022
826 Clouds 29 1015 69 10000 4.63 120 18:38 18.06.2022
827 Clouds 30 1015 63 10000 5.66 100 17:29 18.06.2022
828 Clear 30 1016 60 10000 5.66 140 16:18 18.06.2022
829 Clear 31 1016 51 10000 5.66 130 14:58 18.06.2022
830 Clear 31 1016 49 10000 6.69 120 14:37 18.06.2022
831 Clear 31 1017 50 10000 4.12 70 12:31 18.06.2022
832 Clear 31 1017 53 10000 3.09 80 11:29 18.06.2022
833 Clear 29 1017 54 10000 3.6 70 10:23 18.06.2022
834 Clear 28 1017 60 10000 4.12 60 09:19 18.06.2022
835 Clear 27 1017 58 10000 5.14 320 07:58 18.06.2022
836 Clear 26 1016 55 10000 4.12 330 06:24 18.06.2022
837 Clear 28 1017 43 10000 4.63 320 02:53 18.06.2022
838 Clear 28 1018 44 10000 2.57 310 01:23 18.06.2022
839 Clear 28 1018 44 10000 2.06 300 00:39 18.06.2022
840 Clear 28 1018 45 10000 2.57 290 23:42 17.06.2022
841 Clear 29 1018 44 10000 1.54 280 22:49 17.06.2022
842 Clear 31 1017 39 10000 3.09 240 20:33 17.06.2022
843 Clear 32 1017 40 10000 3.6 110 19:24 17.06.2022
844 Clear 32 1018 41 10000 4.63 120 18:19 17.06.2022
845 Clear 32 1018 41 10000 5.14 120 17:21 17.06.2022
846 Clear 33 1018 40 10000 5.66 140 16:37 17.06.2022
847 Clear 33 1019 41 10000 6.17 130 15:41 17.06.2022
848 Clear 33 1018 39 10000 6.17 130 14:37 17.06.2022
849 Clear 33 1019 39 10000 6.17 130 14:18 17.06.2022
850 Clear 33 1019 38 10000 6.17 120 13:41 17.06.2022
851 Clear 33 1019 39 10000 3.09 170 12:42 17.06.2022
852 Clear 33 1018 40 10000 3.09 160 11:56 17.06.2022
853 Clear 33 1019 40 10000 1.54 140 11:34 17.06.2022
854 Clear 31 1018 42 10000 0.89 53 09:49 17.06.2022
855 Clear 28 1018 46 10000 2.57 330 08:27 17.06.2022
856 Clear 27 1017 39 10000 6.17 330 06:51 17.06.2022
857 Clear 27 1017 37 10000 3.6 290 04:49 17.06.2022
858 Clear 28 1018 37 10000 3.58 121 01:57 17.06.2022
859 Clear 29 1018 38 10000 2.24 249 00:26 17.06.2022
860 Clear 28 1018 52 10000 1.54 300 22:43 16.06.2022
861 Clear 31 1019 47 10000 1.03 0 21:23 16.06.2022
862 Clear 31 1019 45 10000 1.54 120 20:56 16.06.2022
863 Clear 32 1019 47 10000 2.57 200 20:36 16.06.2022
864 Clear 31 1018 50 10000 2.57 200 20:36 16.06.2022
865 Clear 32 1019 43 10000 2.57 120 19:53 16.06.2022
866 Clear 33 1019 41 10000 4.12 100 18:27 16.06.2022
867 Clear 33 1018 43 10000 4.63 100 17:43 16.06.2022
868 Clear 33 1019 43 10000 4.63 140 16:39 16.06.2022
869 Clear 33 1019 45 10000 4.63 120 15:24 16.06.2022
870 Clear 33 1019 44 10000 4.63 130 14:46 16.06.2022
871 Clear 33 1017 41 10000 5.66 120 13:32 16.06.2022
872 Clear 34 1017 35 10000 2.06 170 12:36 16.06.2022
873 Clear 32 1017 43 10000 5.14 220 11:52 16.06.2022
874 Clear 31 1017 45 10000 2.57 230 10:56 16.06.2022
875 Clear 30 1017 48 10000 2.57 240 10:27 16.06.2022
876 Clear 27 1018 54 10000 3.09 300 09:21 16.06.2022
877 Clear 26 1017 59 10000 4.12 310 08:30 16.06.2022
878 Clear 25 1017 61 10000 3.09 300 07:26 16.06.2022
879 Clouds 24 1017 69 10000 5.36 120 05:29 16.06.2022
880 Clouds 24 1017 77 10000 1.79 308 02:50 16.06.2022
881 Clouds 24 1017 79 10000 0.51 0 01:50 16.06.2022
882 Clouds 25 1018 75 10000 1.03 260 01:21 16.06.2022
883 Clear 25 1018 76 10000 2.06 330 23:47 15.06.2022
884 Clouds 26 1016 73 10000 2.57 120 22:42 15.06.2022
885 Clear 27 1017 71 10000 1.54 130 21:23 15.06.2022
886 Clear 27 1017 70 10000 3.09 70 20:45 15.06.2022
887 Clear 28 1018 69 10000 3.09 70 20:27 15.06.2022
888 Clear 28 1016 68 10000 4.12 80 19:30 15.06.2022
889 Clear 30 1017 62 10000 5.66 130 17:58 15.06.2022
890 Clear 30 1016 59 10000 4.12 100 17:33 15.06.2022
891 Clear 30 1016 57 10000 5.14 110 15:46 15.06.2022
892 Clear 31 1017 55 10000 5.66 100 14:26 15.06.2022
893 Clear 32 1016 55 10000 5.66 190 12:54 15.06.2022
894 Clear 31 1016 56 10000 5.66 200 12:32 15.06.2022
895 Clear 30 1015 41 10000 3.09 200 10:28 15.06.2022
896 Clouds 30 1015 41 10000 3.09 240 09:53 15.06.2022
897 Clouds 27 1014 46 10000 4.63 270 08:50 15.06.2022
898 Clear 26 1014 48 10000 4.02 125 06:42 15.06.2022
899 Clear 27 1015 41 10000 2.06 340 04:51 15.06.2022
900 Clear 27 1016 40 10000 3.6 290 02:28 15.06.2022
901 Rain 27 1016 41 10000 2.06 260 00:54 15.06.2022
902 Clouds 27 1015 40 10000 2.57 300 23:55 14.06.2022
903 Clear 27 1015 37 10000 3.13 298 23:37 14.06.2022
904 Clouds 26 1015 46 10000 1.03 0 22:28 14.06.2022
905 Clouds 27 1015 48 10000 2.06 210 21:41 14.06.2022
906 Clouds 28 1014 43 10000 2.06 250 20:57 14.06.2022
907 Clouds 28 1014 42 10000 1.54 210 20:32 14.06.2022
908 Clouds 28 1015 47 10000 2.06 100 19:25 14.06.2022
909 Rain 28 1015 53 10000 3.6 160 18:25 14.06.2022
910 Clear 29 1015 44 10000 4.63 120 16:49 14.06.2022
911 Clouds 29 1016 48 10000 5.66 130 15:50 14.06.2022
912 Clouds 29 1015 46 10000 5.14 130 15:31 14.06.2022
913 Clear 30 1015 41 10000 5.66 130 14:46 14.06.2022
914 Clear 29 1016 44 10000 5.14 90 13:46 14.06.2022
915 Clear 29 1016 47 10000 5.14 110 12:55 14.06.2022
916 Clear 28 1016 51 10000 4.63 80 11:52 14.06.2022
917 Clear 28 1016 49 10000 4.12 70 10:49 14.06.2022
918 Clear 28 1016 48 10000 3.6 100 10:25 14.06.2022
919 Clear 26 1016 48 10000 0 0 08:52 14.06.2022
920 Clear 25 1015 51 10000 4.12 320 07:58 14.06.2022
921 Clear 23 1015 49 10000 3.6 310 06:19 14.06.2022
922 Clear 24 1016 52 10000 2.57 310 03:36 14.06.2022
923 Clear 24 1016 51 10000 3.09 290 01:36 14.06.2022
924 Clear 25 1016 50 10000 1.54 160 23:53 13.06.2022
925 Clear 27 1016 42 10000 2.06 250 22:27 13.06.2022
926 Clear 28 1016 39 10000 2.06 200 21:59 13.06.2022
927 Clear 29 1016 38 10000 3.6 180 21:24 13.06.2022
928 Clear 30 1016 36 10000 3.6 170 19:48 13.06.2022
929 Clear 31 1016 36 10000 4.12 210 18:52 13.06.2022
930 Clear 31 1016 38 10000 5.66 230 17:52 13.06.2022
931 Clear 31 1016 37 10000 6.69 230 17:21 13.06.2022
932 Clear 32 1018 40 10000 7.72 210 16:30 13.06.2022
933 Clear 31 1017 38 10000 4.63 110 14:48 13.06.2022
934 Clear 31 1018 39 10000 4.63 130 14:23 13.06.2022
935 Clouds 30 1018 47 10000 5.14 160 13:28 13.06.2022
936 Clear 30 1019 45 10000 3.6 160 12:22 13.06.2022
937 Clouds 28 1019 49 10000 3.6 80 10:36 13.06.2022
938 Clear 27 1019 53 10000 1.54 330 09:43 13.06.2022
939 Clouds 25 1018 58 10000 0 0 08:34 13.06.2022
940 Clouds 23 1017 67 10000 1.54 280 06:36 13.06.2022
941 Clouds 24 1017 62 10000 1.54 240 04:43 13.06.2022
942 Clouds 25 1018 55 10000 3.6 220 01:45 13.06.2022
943 Clear 26 1018 50 10000 0.45 323 01:18 13.06.2022
944 Clear 26 1018 50 10000 3.09 270 23:43 12.06.2022
945 Clear 27 1019 56 10000 3.6 250 22:36 12.06.2022
946 Clear 27 1019 57 10000 2.06 270 21:46 12.06.2022
947 Clear 28 1018 58 10000 2.57 140 20:53 12.06.2022
948 Clear 29 1018 52 10000 3.09 260 19:58 12.06.2022
949 Clear 30 1019 46 10000 3.09 180 18:54 12.06.2022
950 Clear 30 1020 54 10000 6.17 210 17:36 12.06.2022
951 Clear 31 1020 52 10000 5.66 210 15:52 12.06.2022
952 Clear 32 1021 51 10000 6.17 130 14:50 12.06.2022
953 Clear 32 1021 48 10000 6.69 120 14:18 12.06.2022
954 Clear 31 1020 53 10000 6.17 120 13:45 12.06.2022
955 Clear 31 1021 50 10000 5.66 220 12:31 12.06.2022
956 Clear 29 1020 53 10000 2.68 336 11:19 12.06.2022
957 Clear 29 1020 51 10000 3.6 220 10:20 12.06.2022
958 Clear 27 1019 56 10000 4.63 320 08:51 12.06.2022
959 Clear 25 1020 59 10000 5.14 310 08:29 12.06.2022
960 Clear 23 1019 61 10000 2.57 340 06:49 12.06.2022
961 Clear 23 1019 61 10000 2.57 340 06:49 12.06.2022
962 Clear 24 1019 61 10000 3.09 310 04:26 12.06.2022
963 Clear 24 1019 67 10000 4.63 240 02:32 12.06.2022
964 Clear 24 1020 66 10000 1.54 210 01:36 12.06.2022
965 Clear 25 1020 64 10000 2.57 210 00:57 12.06.2022
966 Clear 25 1021 63 10000 3.09 250 00:19 12.06.2022
967 Clear 25 1020 65 10000 2.57 210 00:19 12.06.2022
968 Clouds 24 1021 72 10000 3.6 220 23:21 11.06.2022
969 Clouds 25 1021 71 10000 4.63 230 22:37 11.06.2022
970 Clear 25 1020 73 10000 4.12 210 21:31 11.06.2022
971 Clear 26 1020 72 10000 5.66 210 20:27 11.06.2022
972 Clear 27 1020 68 10000 6.69 210 19:36 11.06.2022
973 Clear 28 1019 60 10000 6.17 210 18:45 11.06.2022
974 Clear 28 1019 58 10000 5.66 210 18:27 11.06.2022
975 Clear 29 1019 55 10000 6.17 110 17:48 11.06.2022
976 Clear 29 1019 52 10000 6.17 110 17:26 11.06.2022
977 Clear 29 1019 52 10000 7.2 110 16:44 11.06.2022
978 Clear 30 1019 47 10000 6.17 120 16:25 11.06.2022
979 Clear 30 1019 48 10000 6.17 210 15:18 11.06.2022
980 Clear 29 1020 51 10000 5.66 110 13:52 11.06.2022
981 Clear 29 1021 47 10000 4.63 120 12:19 11.06.2022
982 Clear 27 1020 54 10000 1.54 130 10:32 11.06.2022
983 Clouds 26 1020 60 10000 2.57 300 09:41 11.06.2022
984 Clouds 25 1020 62 10000 3.6 310 08:45 11.06.2022
985 Clouds 21 1019 74 10000 3.6 330 06:34 11.06.2022
986 Clouds 22 1019 74 10000 3.09 330 05:53 11.06.2022
987 Clear 22 1019 76 10000 1.54 270 03:31 11.06.2022
988 Clear 23 1019 78 10000 2.24 302 01:51 11.06.2022
989 Clear 23 1019 77 10000 2.06 300 01:25 11.06.2022
990 Clouds 24 1019 76 10000 6.69 250 23:27 10.06.2022
991 Clouds 24 1018 75 10000 7.72 230 22:27 10.06.2022
992 Clouds 25 1018 74 10000 7.72 220 21:46 10.06.2022
993 Clouds 26 1018 74 10000 8.23 220 20:39 10.06.2022
994 Clouds 26 1018 73 10000 8.23 220 20:20 10.06.2022
995 Clouds 27 1017 72 10000 9.26 220 19:19 10.06.2022
996 Clouds 27 1017 72 10000 8.75 220 18:44 10.06.2022
997 Clouds 27 1018 69 10000 8.23 210 17:54 10.06.2022
998 Clouds 27 1018 70 10000 7.72 210 17:22 10.06.2022
999 Clouds 27 1018 71 10000 7.72 210 16:28 10.06.2022
1000 Clouds 27 1018 71 10000 6.17 190 15:40 10.06.2022
1001 Clouds 27 1019 72 10000 5.14 100 14:28 10.06.2022
1002 Clouds 26 1020 73 10000 4.12 180 13:19 10.06.2022
1003 Clouds 25 1020 73 10000 3.09 130 11:59 10.06.2022
1004 Clouds 24 1020 73 10000 3.09 120 10:51 10.06.2022
1005 Clouds 24 1020 74 10000 3.6 120 10:24 10.06.2022
1006 Clouds 22 1019 80 10000 2.57 330 08:58 10.06.2022
1007 Clouds 20 1019 86 10000 1.34 264 07:50 10.06.2022
1008 Clouds 19 1019 88 10000 1.03 0 06:47 10.06.2022
1009 Clouds 19 1019 87 10000 1.03 0 06:28 10.06.2022
1010 Clouds 19 1018 85 10000 1.54 290 04:53 10.06.2022
1011 Clouds 20 1019 83 10000 3.6 260 01:59 10.06.2022
1012 Clouds 20 1019 83 10000 5.14 260 01:36 10.06.2022
1013 Clouds 20 1019 83 10000 5.14 260 01:36 10.06.2022
1014 Clouds 21 1019 82 10000 2.57 220 23:58 09.06.2022
1015 Clouds 21 1018 79 10000 2.57 190 22:30 09.06.2022
1016 Clouds 22 1018 78 10000 2.57 180 21:43 09.06.2022
1017 Clouds 22 1018 77 10000 3.09 150 21:24 09.06.2022
1018 Clouds 23 1017 75 10000 4.12 140 20:38 09.06.2022
1019 Clouds 23 1017 74 10000 4.12 160 19:43 09.06.2022
1020 Clouds 23 1017 72 10000 4.63 120 18:37 09.06.2022
1021 Clouds 24 1017 72 10000 5.14 130 17:31 09.06.2022
1022 Clouds 23 1017 72 10000 5.66 130 16:28 09.06.2022
1023 Clouds 24 1017 73 10000 6.17 130 14:52 09.06.2022
1024 Clouds 24 1017 73 10000 6.17 130 14:27 09.06.2022
1025 Clouds 23 1017 74 10000 6.69 120 13:30 09.06.2022
1026 Clouds 23 1017 74 10000 6.69 120 13:30 09.06.2022
1027 Clouds 24 1017 74 10000 7.72 120 12:55 09.06.2022
1028 Clouds 24 1016 71 10000 5.14 90 11:33 09.06.2022
1029 Clouds 24 1016 64 10000 3.58 263 09:55 09.06.2022
1030 Clouds 24 1016 64 10000 3.58 263 09:55 09.06.2022
1031 Clouds 24 1016 64 10000 4.12 330 09:37 09.06.2022
1032 Clouds 22 1016 71 10000 2.06 330 08:38 09.06.2022
1033 Clouds 20 1015 82 10000 1.54 340 07:29 09.06.2022
1034 Clouds 21 1015 79 10000 1.54 310 03:31 09.06.2022
1035 Clouds 21 1015 77 10000 2.06 280 00:34 09.06.2022
1036 Clouds 22 1015 74 10000 2.06 50 23:18 08.06.2022
1037 Clouds 22 1015 73 10000 2.06 50 22:43 08.06.2022
1038 Clouds 22 1015 72 10000 2.57 60 22:23 08.06.2022
1039 Clouds 22 1014 69 10000 5.14 60 21:33 08.06.2022
1040 Clouds 23 1014 65 10000 5.14 70 20:25 08.06.2022
1041 Clouds 23 1013 67 10000 4.63 100 19:42 08.06.2022
1042 Clouds 24 1013 73 10000 4.63 120 18:48 08.06.2022
1043 Clouds 24 1012 76 10000 4.63 120 17:41 08.06.2022
1044 Clouds 26 1012 75 10000 5.66 110 15:56 08.06.2022
1045 Clouds 26 1012 72 10000 6.17 200 14:44 08.06.2022
1046 Clouds 26 1011 69 10000 5.66 190 12:55 08.06.2022
1047 Clouds 26 1011 69 10000 5.66 190 12:55 08.06.2022
1048 Clouds 26 1011 69 10000 5.66 190 12:55 08.06.2022
1049 Clouds 26 1011 69 10000 5.66 190 12:55 08.06.2022
1050 Clouds 25 1012 72 10000 4.12 190 11:41 08.06.2022
1051 Clouds 25 1012 72 10000 4.12 190 11:19 08.06.2022
1052 Clear 23 1013 74 10000 0.51 280 09:30 08.06.2022
1053 Clouds 23 1013 76 10000 2.06 330 08:55 08.06.2022
1054 Clouds 21 1013 79 10000 3.09 330 07:21 08.06.2022
1055 Clouds 21 1013 80 10000 2.06 330 07:21 08.06.2022
1056 Clouds 21 1014 81 10000 1.54 320 04:49 08.06.2022
1057 Clouds 21 1015 81 10000 1.03 270 01:27 08.06.2022
1058 Clouds 22 1016 80 10000 2.57 100 23:33 07.06.2022
1059 Clouds 22 1016 81 10000 2.57 90 22:58 07.06.2022
1060 Clouds 22 1016 80 10000 3.09 110 22:37 07.06.2022
1061 Clouds 23 1016 78 10000 4.63 140 21:41 07.06.2022
1062 Clouds 23 1016 77 10000 4.63 140 21:20 07.06.2022
1063 Clouds 23 1016 76 10000 4.63 190 20:42 07.06.2022
1064 Clouds 24 1016 74 10000 5.14 170 19:57 07.06.2022
1065 Clouds 25 1016 71 10000 6.17 180 18:38 07.06.2022
1066 Clouds 26 1016 70 10000 6.17 160 17:36 07.06.2022
1067 Clouds 27 1016 70 10000 7.2 160 16:47 07.06.2022
1068 Clouds 26 1016 69 10000 7.2 160 16:28 07.06.2022
1069 Clouds 27 1017 66 10000 6.69 160 15:37 07.06.2022
1070 Clouds 27 1017 66 10000 7.2 160 15:18 07.06.2022
1071 Clouds 27 1017 64 10000 7.2 160 14:43 07.06.2022
1072 Clouds 27 1018 62 10000 6.17 150 13:38 07.06.2022
1073 Clouds 27 1017 63 10000 4.12 200 13:20 07.06.2022
1074 Clouds 28 1018 57 10000 3.58 43 11:56 07.06.2022
1075 Clouds 26 1018 65 10000 2.57 210 10:53 07.06.2022
1076 Clear 24 1018 71 10000 1.03 300 09:26 07.06.2022
1077 Clear 23 1017 71 10000 2.57 320 08:22 07.06.2022
1078 Clouds 21 1017 77 10000 1.03 290 06:42 07.06.2022
1079 Clouds 21 1017 75 10000 0.89 360 04:52 07.06.2022
1080 Clouds 23 1017 70 10000 1.03 0 01:28 07.06.2022
1081 Clouds 23 1017 69 10000 5.14 230 23:59 06.06.2022
1082 Clouds 24 1016 66 10000 7.2 230 22:56 06.06.2022
1083 Clouds 24 1016 66 10000 6.69 240 22:30 06.06.2022
1084 Clear 25 1015 68 10000 6.69 230 21:28 06.06.2022
1085 Clear 26 1016 68 10000 5.14 210 19:29 06.06.2022
1086 Clear 26 1016 67 10000 5.66 200 18:59 06.06.2022
1087 Clear 26 1016 65 10000 5.14 210 18:32 06.06.2022
1088 Clear 26 1017 62 10000 6.17 220 17:27 06.06.2022
1089 Clouds 27 1017 66 10000 6.17 210 16:21 06.06.2022
1090 Clouds 27 1018 63 10000 6.17 160 15:33 06.06.2022
1091 Clouds 27 1018 60 10000 4.63 150 14:36 06.06.2022
1092 Clouds 27 1019 61 10000 3.6 200 13:26 06.06.2022
1093 Clouds 27 1019 61 10000 2.57 190 12:36 06.06.2022
1094 Clouds 26 1019 63 10000 2.57 120 11:53 06.06.2022
1095 Clouds 25 1020 68 10000 2.06 130 10:46 06.06.2022
1096 Clear 24 1019 72 10000 1.54 350 09:40 06.06.2022
1097 Clear 23 1019 77 10000 2.57 330 08:33 06.06.2022
1098 Clouds 20 1019 89 10000 2.06 320 07:28 06.06.2022
1099 Clouds 21 1018 86 10000 1.54 300 05:28 06.06.2022
1100 Clouds 21 1019 87 10000 1.54 50 03:39 06.06.2022
1101 Clouds 22 1020 87 10000 3.09 70 01:23 06.06.2022
1102 Clouds 22 1019 85 10000 2.06 100 00:39 06.06.2022
1103 Clouds 22 1019 84 10000 1.54 90 23:40 05.06.2022
1104 Clouds 23 1019 83 10000 3.09 120 22:47 05.06.2022
1105 Clear 24 1018 76 10000 4.63 130 20:57 05.06.2022
1106 Clear 25 1017 69 10000 4.63 130 19:44 05.06.2022
1107 Clouds 26 1017 66 10000 4.63 120 18:30 05.06.2022
1108 Clouds 26 1017 66 10000 4.63 120 18:30 05.06.2022
1109 Clear 27 1017 65 10000 5.66 120 17:55 05.06.2022
1110 Clear 27 1018 67 10000 4.63 130 17:26 05.06.2022
1111 Clear 26 1018 67 10000 5.66 130 16:52 05.06.2022
1112 Clear 26 1018 68 10000 5.66 130 16:34 05.06.2022
1113 Clouds 27 1018 66 10000 6.69 120 14:27 05.06.2022
1114 Clear 27 1018 63 10000 4.12 130 12:57 05.06.2022
1115 Clear 27 1018 64 10000 3.09 70 11:47 05.06.2022
1116 Clouds 25 1017 68 10000 4.12 30 10:39 05.06.2022
1117 Clouds 25 1017 70 10000 4.63 10 10:20 05.06.2022
1118 Clouds 22 1016 77 10000 2.06 350 08:34 05.06.2022
1119 Clouds 21 1016 76 10000 2.57 320 07:48 05.06.2022
1120 Clouds 20 1014 83 10000 1.03 0 05:22 05.06.2022
1121 Clouds 20 1014 83 10000 1.03 220 04:30 05.06.2022
1122 Clouds 21 1015 85 10000 3.09 210 01:32 05.06.2022
1123 Clouds 21 1015 83 10000 3.6 210 00:39 05.06.2022
1124 Clear 22 1013 82 10000 1.54 220 22:43 04.06.2022
1125 Clear 25 1013 68 10000 3.09 190 20:42 04.06.2022
1126 Clouds 25 1013 73 10000 3.6 230 18:51 04.06.2022
1127 Clouds 25 1013 72 10000 5.14 120 16:47 04.06.2022
1128 Clouds 26 1014 72 10000 8.75 120 16:18 04.06.2022
1129 Clear 27 1012 66 10000 4.12 120 14:54 04.06.2022
1130 Clouds 27 1013 64 10000 4.63 130 13:37 04.06.2022
1131 Clear 25 1015 73 10000 4.12 120 11:22 04.06.2022
1132 Clear 25 1015 73 10000 3.6 120 10:49 04.06.2022
1133 Clouds 23 1014 77 9000 1.54 310 09:45 04.06.2022
1134 Clouds 22 1014 85 9000 1.03 0 08:43 04.06.2022
1135 Clouds 20 1014 86 7000 1.54 120 07:42 04.06.2022
1136 Clouds 20 1013 84 7000 1.03 150 05:38 04.06.2022
1137 Mist 20 1013 87 8000 2.68 247 02:20 04.06.2022
1138 Clouds 21 1014 83 7000 2.06 200 00:19 04.06.2022
1139 Fog 21 1013 84 900 1.54 130 22:41 03.06.2022
1140 Clouds 22 1013 84 8000 3.09 110 21:39 03.06.2022
1141 Clouds 23 1013 83 9000 3.6 120 20:38 03.06.2022
1142 Clouds 25 1013 77 10000 4.12 130 18:54 03.06.2022
1143 Clouds 26 1013 72 10000 5.66 130 16:52 03.06.2022
1144 Clouds 26 1013 71 10000 6.17 130 15:40 03.06.2022
1145 Clear 26 1013 70 10000 5.14 140 13:49 03.06.2022
1146 Clear 27 1013 55 10000 3.13 349 11:51 03.06.2022
1147 Clouds 24 1012 67 10000 6.17 60 09:54 03.06.2022
1148 Clouds 23 1012 74 10000 4.63 60 09:29 03.06.2022
1149 Clouds 21 1012 78 10000 2.57 40 07:42 03.06.2022
1150 Clouds 20 1012 81 10000 2.57 100 06:45 03.06.2022
1151 Clouds 21 1012 77 10000 1.54 110 06:27 03.06.2022
1152 Clouds 20 1012 86 8000 3.6 60 02:50 03.06.2022
1153 Clear 21 1013 80 10000 3.09 60 23:36 02.06.2022
1154 Clear 21 1013 77 10000 4.63 70 21:58 02.06.2022
1155 Clear 23 1012 73 10000 4.63 70 20:34 02.06.2022
1156 Clear 23 1012 71 10000 4.63 70 19:54 02.06.2022
1157 Clear 23 1012 72 10000 5.14 70 19:36 02.06.2022
1158 Clear 25 1013 65 10000 6.17 80 18:34 02.06.2022
1159 Clear 26 1013 64 10000 4.63 80 16:28 02.06.2022
1160 Clouds 26 1013 63 10000 6.17 80 15:30 02.06.2022
1161 Clouds 25 1015 67 10000 6.17 70 13:30 02.06.2022
1162 Clouds 24 1015 72 10000 6.17 60 12:46 02.06.2022
1163 Clouds 23 1014 73 10000 6.69 130 10:34 02.06.2022
1164 Clear 23 1013 69 10000 3.13 62 09:29 02.06.2022
1165 Clear 22 1013 75 10000 4.12 340 08:39 02.06.2022
1166 Clear 22 1012 74 10000 4.12 340 08:19 02.06.2022
1167 Clear 20 1012 77 10000 4.63 330 06:20 02.06.2022
1168 Clear 19 1013 83 10000 2.06 260 03:49 02.06.2022
1169 Clear 21 1013 81 10000 4.12 230 00:39 02.06.2022
1170 Clear 21 1014 79 10000 3.09 210 22:57 01.06.2022
1171 Clear 22 1013 76 10000 4.12 210 21:52 01.06.2022
1172 Clear 23 1013 75 10000 3.6 220 21:24 01.06.2022
1173 Clear 23 1013 76 10000 4.12 210 20:38 01.06.2022
1174 Clear 24 1013 73 10000 5.66 220 19:50 01.06.2022
1175 Clouds 26 1013 68 10000 5.66 130 18:28 01.06.2022
1176 Clear 26 1014 67 10000 6.17 210 16:56 01.06.2022
1177 Clear 26 1014 65 10000 5.66 200 15:42 01.06.2022
1178 Clear 26 1014 65 10000 6.17 120 14:46 01.06.2022
1179 Clear 27 1015 63 10000 5.66 200 13:23 01.06.2022
1180 Clear 25 1015 66 10000 2.68 5 10:44 01.06.2022
1181 Clear 23 1015 73 10000 2.57 310 09:29 01.06.2022
1182 Clouds 20 1014 82 10000 2.06 330 08:18 01.06.2022
1183 Clouds 18 1014 84 10000 2.06 310 07:20 01.06.2022
1184 Clear 19 1014 86 10000 0.45 317 03:55 01.06.2022
1185 Clouds 20 1015 87 10000 2.06 90 23:50 31.05.2022
1186 Clouds 21 1015 85 10000 2.57 130 22:41 31.05.2022
1187 Clouds 21 1014 85 10000 3.6 130 22:22 31.05.2022
1188 Clouds 21 1014 83 10000 4.12 120 21:39 31.05.2022
1189 Clouds 22 1013 80 10000 4.63 120 20:44 31.05.2022
1190 Clear 23 1013 74 10000 4.63 120 19:31 31.05.2022
1191 Clear 24 1013 68 10000 5.66 110 18:32 31.05.2022
1192 Clear 25 1012 62 10000 5.66 110 17:38 31.05.2022
1193 Clear 25 1013 50 10000 5.14 130 15:55 31.05.2022
1194 Clear 25 1013 47 10000 3.6 130 15:34 31.05.2022
1195 Clear 25 1014 40 10000 3.09 110 12:56 31.05.2022
1196 Clear 24 1013 46 10000 3.09 110 12:18 31.05.2022
1197 Clear 23 1014 52 10000 2.57 120 10:34 31.05.2022
1198 Clear 20 1013 59 10000 2.06 330 08:26 31.05.2022
1199 Clear 18 1011 56 10000 2.57 330 06:21 31.05.2022
1200 Clear 19 1011 52 10000 4.12 340 04:31 31.05.2022
1201 Clear 20 1011 55 10000 2.06 40 23:46 30.05.2022
1202 Clear 20 1011 55 10000 2.06 40 23:24 30.05.2022
1203 Clear 20 1011 55 10000 2.06 50 22:42 30.05.2022
1204 Clear 20 1010 57 10000 2.57 160 21:40 30.05.2022
1205 Clear 21 1009 59 10000 3.09 60 20:52 30.05.2022
1206 Clear 21 1009 58 10000 4.12 80 19:45 30.05.2022
1207 Clear 22 1009 57 10000 5.66 140 18:21 30.05.2022
1208 Clear 23 1008 59 10000 5.66 130 17:23 30.05.2022
1209 Clear 23 1008 60 10000 6.69 130 16:30 30.05.2022
1210 Clear 24 1008 58 10000 4.63 140 13:38 30.05.2022
1211 Clear 24 1007 59 10000 7.2 100 11:54 30.05.2022
1212 Clear 23 1007 58 10000 5.14 70 10:20 30.05.2022
1213 Clouds 22 1006 53 10000 2.06 350 09:18 30.05.2022
1214 Clouds 18 1005 65 10000 3.09 330 06:28 30.05.2022
1215 Clear 19 1005 66 10000 3.09 330 05:38 30.05.2022
1216 Clouds 19 1006 72 10000 1.54 50 01:30 30.05.2022
1217 Clouds 20 1007 72 10000 1.03 0 22:49 29.05.2022
1218 Clouds 20 1007 72 10000 2.06 100 22:29 29.05.2022
1219 Clear 21 1006 65 10000 3.09 110 20:38 29.05.2022
1220 Clouds 22 1006 62 10000 4.63 110 19:30 29.05.2022
1221 Clouds 23 1006 60 10000 5.14 110 18:35 29.05.2022
1222 Clouds 23 1006 59 10000 5.66 130 16:51 29.05.2022
1223 Clouds 24 1007 59 10000 6.17 110 15:47 29.05.2022
1224 Clouds 23 1007 61 10000 7.2 110 14:56 29.05.2022
1225 Clouds 23 1008 66 10000 5.66 120 13:46 29.05.2022
1226 Clouds 24 1008 67 10000 3.6 170 11:34 29.05.2022
1227 Clouds 23 1008 71 10000 3.09 130 10:38 29.05.2022
1228 Clouds 21 1007 80 10000 4.12 60 08:39 29.05.2022
1229 Clear 19 1007 86 10000 2.68 92 05:22 29.05.2022
1230 Clear 20 1007 85 10000 2.57 10 04:43 29.05.2022
1231 Clear 20 1008 83 10000 4.12 80 02:50 29.05.2022
1232 Clear 22 1008 74 10000 2.57 90 23:49 28.05.2022
1233 Clouds 22 1008 73 10000 1.03 0 23:26 28.05.2022
1234 Clouds 23 1008 69 10000 4.63 220 22:33 28.05.2022
1235 Clouds 24 1008 69 10000 6.69 220 21:34 28.05.2022
1236 Clouds 25 1008 71 10000 8.75 230 19:24 28.05.2022
1237 Clouds 25 1009 70 10000 8.23 230 18:46 28.05.2022
1238 Clouds 26 1009 61 10000 5.14 110 17:36 28.05.2022
1239 Clouds 28 1010 56 10000 5.66 100 16:37 28.05.2022
1240 Clouds 29 1010 51 10000 5.66 130 15:39 28.05.2022
1241 Clouds 30 1011 44 10000 4.63 200 14:18 28.05.2022
1242 Clear 29 1012 41 10000 5.14 210 12:44 28.05.2022
1243 Clear 29 1012 43 10000 2.57 320 12:18 28.05.2022
1244 Clear 26 1013 50 10000 4.63 350 10:51 28.05.2022
1245 Clear 25 1013 57 10000 4.63 340 09:57 28.05.2022
1246 Clear 23 1013 60 10000 5.66 330 08:45 28.05.2022
1247 Clear 21 1013 68 10000 5.14 320 07:23 28.05.2022
1248 Clear 21 1014 69 10000 3.09 330 05:28 28.05.2022
1249 Clear 21 1016 68 10000 3.09 300 02:44 28.05.2022
1250 Clear 22 1016 64 10000 3.09 230 00:32 28.05.2022
1251 Clear 23 1016 63 10000 3.09 210 22:53 27.05.2022
1252 Clear 24 1016 62 10000 5.14 240 21:44 27.05.2022
1253 Clear 25 1016 59 10000 5.14 240 20:50 27.05.2022
1254 Clouds 26 1016 57 10000 5.14 230 20:24 27.05.2022
1255 Clouds 27 1016 57 10000 5.66 230 19:42 27.05.2022
1256 Clouds 27 1015 57 10000 5.66 230 19:21 27.05.2022
1257 Clouds 25 1016 65 10000 5.14 190 17:54 27.05.2022
1258 Clouds 26 1017 60 10000 6.69 210 16:38 27.05.2022
1259 Clouds 27 1017 56 10000 6.17 210 15:22 27.05.2022
1260 Clouds 27 1017 52 10000 4.12 200 14:25 27.05.2022
1261 Clouds 25 1018 50 10000 3.6 170 12:43 27.05.2022
1262 Clear 24 1018 52 10000 4.63 340 11:34 27.05.2022
1263 Clear 23 1018 57 10000 5.14 340 10:55 27.05.2022
1264 Clear 22 1018 59 10000 5.66 330 10:31 27.05.2022
1265 Clear 21 1018 61 10000 6.17 350 09:35 27.05.2022
1266 Clear 19 1018 65 10000 5.14 330 07:52 27.05.2022
1267 Clear 19 1017 65 10000 2.68 261 05:39 27.05.2022
1268 Clear 20 1019 62 10000 5.14 320 02:26 27.05.2022
1269 Clear 21 1020 62 10000 3.09 300 00:29 27.05.2022
1270 Clear 22 1020 57 10000 4.63 250 22:39 26.05.2022
1271 Clear 22 1019 60 10000 5.66 230 21:39 26.05.2022
1272 Clear 23 1019 60 10000 4.12 220 20:53 26.05.2022
1273 Clouds 23 1019 57 10000 4.63 190 19:19 26.05.2022
1274 Clear 24 1019 53 10000 5.14 200 18:18 26.05.2022
1275 Clear 24 1019 48 10000 5.14 210 16:42 26.05.2022
1276 Clear 25 1020 43 10000 5.14 130 15:46 26.05.2022
1277 Clear 24 1020 46 10000 6.17 180 14:43 26.05.2022
1278 Clear 25 1021 41 10000 3.13 165 12:37 26.05.2022
1279 Clear 23 1021 44 10000 4.63 330 11:29 26.05.2022
1280 Clear 21 1021 49 10000 5.66 330 10:19 26.05.2022
1281 Clear 20 1021 52 10000 6.17 340 09:33 26.05.2022
1282 Clear 19 1020 55 10000 5.66 330 08:35 26.05.2022
1283 Clear 19 1019 57 10000 4.63 340 04:41 26.05.2022
1284 Clear 20 1019 62 10000 2.57 290 00:48 26.05.2022
1285 Clear 20 1019 59 10000 2.68 122 23:40 25.05.2022
1286 Clear 20 1019 63 10000 2.06 260 22:22 25.05.2022
1287 Clear 20 1018 59 10000 2.06 330 21:33 25.05.2022
1288 Clear 21 1017 56 10000 3.09 260 20:37 25.05.2022
1289 Clear 21 1017 53 10000 3.6 330 19:29 25.05.2022
1290 Clear 21 1016 57 10000 6.17 270 17:43 25.05.2022
1291 Clear 20 1016 60 10000 6.69 280 16:38 25.05.2022
1292 Clear 20 1016 61 10000 6.69 290 15:57 25.05.2022
1293 Clear 19 1016 66 10000 4.63 310 14:55 25.05.2022
1294 Clear 19 1016 68 10000 5.14 320 14:33 25.05.2022
1295 Clear 19 1016 71 10000 4.63 310 13:56 25.05.2022
1296 Clear 17 1016 76 10000 3.6 310 12:45 25.05.2022
1297 Clouds 16 1015 80 10000 3.6 320 10:54 25.05.2022
1298 Clouds 16 1015 80 10000 4.12 310 10:19 25.05.2022
1299 Clouds 15 1013 86 10000 1.34 257 08:41 25.05.2022
1300 Rain 14 1012 84 10000 1.34 278 07:23 25.05.2022
1301 Rain 14 1012 84 10000 1.34 278 07:23 25.05.2022
1302 Rain 14 1012 85 9000 1.34 130 05:18 25.05.2022
1303 Rain 16 1011 82 10000 2.06 80 00:28 25.05.2022
1304 Clouds 16 1011 82 10000 4.12 70 23:47 24.05.2022
1305 Clouds 16 1011 86 10000 6.17 50 22:39 24.05.2022
1306 Rain 16 1010 85 6000 5.66 90 21:43 24.05.2022
1307 Rain 16 1010 84 2400 3.13 144 21:21 24.05.2022
1308 Thunderstorm 17 1010 82 4000 3.09 320 20:30 24.05.2022
1309 Rain 19 1009 78 10000 5.66 70 18:57 24.05.2022
1310 Rain 18 1009 81 8000 6.17 90 16:58 24.05.2022
1311 Rain 18 1010 79 7000 3.09 120 16:28 24.05.2022
1312 Rain 19 1010 74 10000 3.6 90 15:20 24.05.2022
1313 Clouds 20 1010 74 10000 4.63 70 14:34 24.05.2022
1314 Thunderstorm 19 1010 78 10000 4.63 80 13:27 24.05.2022
1315 Clouds 19 1010 80 10000 5.66 110 11:53 24.05.2022
1316 Clouds 21 1010 79 10000 4.12 260 09:49 24.05.2022
1317 Clouds 21 1010 82 10000 3.09 220 08:51 24.05.2022
1318 Clouds 21 1009 83 10000 2.06 220 07:30 24.05.2022
1319 Clouds 21 1009 81 10000 1.54 120 05:59 24.05.2022
1320 Clear 20 1009 82 10000 2.06 280 02:54 24.05.2022
1321 Clouds 21 1009 80 10000 1.03 270 01:44 24.05.2022
1322 Clouds 21 1009 78 10000 1.03 0 23:59 23.05.2022
1323 Clouds 21 1009 76 10000 2.06 170 22:22 23.05.2022
1324 Clouds 22 1008 75 10000 2.57 150 21:42 23.05.2022
1325 Clouds 23 1008 74 10000 3.6 140 20:45 23.05.2022
1326 Clouds 23 1007 73 10000 5.14 120 19:44 23.05.2022
1327 Clouds 24 1008 72 10000 4.63 120 19:18 23.05.2022
1328 Clouds 24 1007 73 10000 5.66 130 18:40 23.05.2022
1329 Clouds 24 1007 72 10000 5.66 120 17:56 23.05.2022
1330 Clouds 24 1007 73 10000 5.66 130 15:55 23.05.2022
1331 Clouds 24 1007 75 10000 6.69 130 13:56 23.05.2022
1332 Clouds 25 1007 71 10000 5.66 90 11:41 23.05.2022
1333 Clear 24 1007 69 10000 6.17 80 10:47 23.05.2022
1334 Clear 23 1007 67 10000 7.2 60 09:47 23.05.2022
1335 Clear 22 1006 68 10000 7.2 50 08:46 23.05.2022
1336 Clear 22 1006 68 10000 7.2 50 08:46 23.05.2022
1337 Clouds 21 1006 67 10000 2.68 245 07:24 23.05.2022
1338 Clouds 21 1005 69 10000 2.06 300 06:39 23.05.2022
1339 Clear 22 1007 61 10000 0.51 0 03:27 23.05.2022
1340 Clear 22 1008 69 10000 1.54 300 01:52 23.05.2022
1341 Clear 22 1008 70 10000 1.54 280 01:29 23.05.2022
1342 Clear 23 1009 75 10000 0 0 23:18 22.05.2022
1343 Clear 23 1009 70 10000 3.6 240 22:27 22.05.2022
1344 Clear 24 1009 66 10000 2.57 110 21:51 22.05.2022
1345 Clear 27 1009 51 10000 3.09 130 20:46 22.05.2022
1346 Clear 28 1009 47 10000 3.09 190 20:22 22.05.2022
1347 Clear 29 1009 43 10000 4.63 210 19:34 22.05.2022
1348 Clear 30 1009 42 10000 4.63 210 18:50 22.05.2022
1349 Clear 31 1009 41 10000 5.14 200 18:21 22.05.2022
1350 Clear 31 1012 45 10000 6.17 210 17:26 22.05.2022
1351 Clear 33 1013 33 10000 5.14 220 15:57 22.05.2022
1352 Clear 33 1014 34 10000 4.63 0 14:47 22.05.2022
1353 Clear 33 1014 35 10000 4.63 0 14:47 22.05.2022
1354 Clear 34 1012 25 10000 4.12 220 13:21 22.05.2022
1355 Clear 31 1012 38 10000 3.09 210 12:45 22.05.2022
1356 Clear 29 1012 49 10000 7.72 210 11:29 22.05.2022
1357 Clear 25 1013 46 10000 5.14 240 09:40 22.05.2022
1358 Clear 22 1013 46 10000 2.06 290 07:54 22.05.2022
1359 Clear 21 1013 45 10000 2.06 290 07:21 22.05.2022
1360 Clear 22 1014 44 10000 1.03 260 04:59 22.05.2022
1361 Clear 23 1016 44 10000 2.06 250 01:21 22.05.2022
1362 Clear 24 1016 42 10000 1.54 280 00:39 22.05.2022
1363 Clear 24 1016 46 10000 4.12 220 23:50 21.05.2022
1364 Clear 25 1016 43 10000 4.12 210 22:26 21.05.2022
1365 Clear 26 1016 38 10000 1.79 226 21:41 21.05.2022
1366 Clear 28 1016 35 10000 2.24 272 20:48 21.05.2022
1367 Clear 29 1016 36 10000 7.72 230 20:21 21.05.2022
1368 Clear 30 1016 31 10000 8.23 230 19:25 21.05.2022
1369 Clear 31 1017 29 10000 8.23 220 17:47 21.05.2022
1370 Clear 32 1018 33 10000 9.77 230 15:44 21.05.2022
1371 Clear 31 1019 41 10000 8.75 220 14:37 21.05.2022
1372 Clear 30 1020 44 10000 3.6 210 13:42 21.05.2022
1373 Clear 30 1020 50 10000 3.09 210 12:49 21.05.2022
1374 Clear 28 1020 59 10000 3.09 210 11:58 21.05.2022
1375 Clear 26 1021 59 10000 1.54 110 10:23 21.05.2022
1376 Clear 24 1021 64 10000 1.54 120 09:41 21.05.2022
1377 Clear 22 1022 74 10000 1.54 330 08:52 21.05.2022
1378 Clear 21 1021 73 10000 3.09 330 07:53 21.05.2022
1379 Clear 21 1022 74 10000 3.09 330 03:48 21.05.2022
1380 Clear 22 1023 77 10000 1.54 110 23:53 20.05.2022
1381 Clear 23 1023 77 10000 0.51 0 22:57 20.05.2022
1382 Clear 23 1023 76 10000 1.03 0 22:23 20.05.2022
1383 Clear 24 1023 74 10000 2.57 120 21:41 20.05.2022
1384 Clear 24 1023 71 10000 2.57 130 20:54 20.05.2022
1385 Clear 26 1022 64 10000 4.63 130 19:58 20.05.2022
1386 Clear 28 1022 58 10000 3.6 160 19:26 20.05.2022
1387 Clear 27 1023 61 10000 4.12 140 18:36 20.05.2022
1388 Clear 28 1023 59 10000 5.14 100 16:54 20.05.2022
1389 Clear 28 1023 61 10000 6.17 120 16:19 20.05.2022
1390 Clear 28 1024 59 10000 6.17 120 15:44 20.05.2022
1391 Clear 27 1024 65 10000 4.63 120 14:30 20.05.2022
1392 Clear 27 1024 62 10000 4.63 120 13:55 20.05.2022
1393 Clear 26 1025 57 10000 4.12 100 11:33 20.05.2022
1394 Clear 24 1025 57 10000 2.57 350 09:51 20.05.2022
1395 Clear 23 1025 58 10000 0.45 47 08:44 20.05.2022
1396 Clear 20 1023 68 10000 3.09 340 06:50 20.05.2022
1397 Clouds 20 1023 67 10000 2.06 330 06:31 20.05.2022
1398 Clear 20 1024 66 10000 4.63 330 04:31 20.05.2022
1399 Clear 21 1024 70 10000 1.03 30 00:43 20.05.2022
1400 Clear 21 1023 78 10000 1.54 50 22:46 19.05.2022
1401 Clear 22 1023 76 10000 2.57 70 21:59 19.05.2022
1402 Clear 22 1023 76 10000 2.57 70 21:40 19.05.2022
1403 Clear 22 1023 74 10000 3.09 70 21:22 19.05.2022
1404 Clear 23 1022 72 10000 3.09 90 20:32 19.05.2022
1405 Clear 24 1022 70 10000 3.09 110 19:40 19.05.2022
1406 Clear 25 1022 70 10000 4.63 120 18:19 19.05.2022
1407 Clear 25 1022 71 10000 5.66 130 16:32 19.05.2022
1408 Clear 25 1030 72 10000 6.17 120 14:52 19.05.2022
1409 Clear 26 1017 71 10000 6.17 100 14:24 19.05.2022
1410 Clear 26 1023 64 10000 5.14 80 13:20 19.05.2022
1411 Clouds 25 1023 73 7000 5.66 70 11:25 19.05.2022
1412 Clouds 22 1022 84 7000 3.09 70 09:19 19.05.2022
1413 Mist 20 1021 87 4000 3.6 50 07:49 19.05.2022
1414 Clouds 20 1020 89 9000 2.06 330 05:32 19.05.2022
1415 Clouds 21 1019 87 9000 0 0 02:23 19.05.2022
1416 Clouds 21 1019 85 9000 1.03 0 23:57 18.05.2022
1417 Clouds 22 1019 85 8000 1.54 120 22:47 18.05.2022
1418 Clouds 23 1018 80 9000 2.06 150 21:51 18.05.2022
1419 Clouds 23 1018 79 9000 2.06 150 21:29 18.05.2022
1420 Clear 24 1018 73 10000 2.57 130 20:47 18.05.2022
1421 Clear 25 1018 71 10000 3.09 100 20:18 18.05.2022
1422 Clear 27 1018 60 10000 5.14 110 18:33 18.05.2022
1423 Clear 27 1018 64 10000 4.63 200 17:41 18.05.2022
1424 Clear 27 1018 62 10000 4.63 200 17:23 18.05.2022
1425 Clear 28 1018 57 10000 5.14 130 16:34 18.05.2022
1426 Clear 28 1018 58 10000 5.14 130 15:42 18.05.2022
1427 Clear 28 1018 57 10000 5.14 130 14:35 18.05.2022
1428 Clouds 28 1018 57 10000 4.12 120 13:41 18.05.2022
1429 Clear 28 1019 58 10000 2.57 180 12:43 18.05.2022
1430 Clear 28 1019 56 9000 3.09 190 11:36 18.05.2022
1431 Clear 28 1019 55 10000 0.89 43 11:18 18.05.2022
1432 Clear 26 1019 66 9000 2.57 240 09:50 18.05.2022
1433 Clouds 21 1018 84 9000 3.6 340 07:51 18.05.2022
1434 Clouds 19 1018 81 10000 3.09 330 06:41 18.05.2022
1435 Clouds 19 1018 86 10000 1.54 210 01:53 18.05.2022
1436 Clouds 20 1018 88 10000 1.03 120 00:23 18.05.2022
1437 Clouds 21 1018 84 10000 1.54 110 21:57 17.05.2022
1438 Clouds 22 1017 81 10000 4.12 200 21:20 17.05.2022
1439 Clouds 22 1017 81 10000 4.12 200 21:20 17.05.2022
1440 Clouds 23 1017 79 10000 4.12 200 20:19 17.05.2022
1441 Clear 24 1016 73 10000 5.14 200 19:28 17.05.2022
1442 Clouds 25 1017 68 10000 4.63 130 17:52 17.05.2022
1443 Clouds 25 1017 66 10000 5.14 130 16:59 17.05.2022
1444 Clouds 26 1017 65 10000 5.14 120 16:30 17.05.2022
1445 Clouds 26 1017 64 10000 4.63 120 15:32 17.05.2022
1446 Clouds 26 1018 63 10000 5.14 120 14:30 17.05.2022
1447 Clouds 25 1018 63 10000 4.63 120 13:37 17.05.2022
1448 Clear 25 1018 58 10000 4.12 210 11:46 17.05.2022
1449 Clear 22 1019 70 10000 2.06 270 09:38 17.05.2022
1450 Clouds 21 1018 76 10000 3.09 320 08:36 17.05.2022
1451 Clear 18 1018 80 10000 3.6 320 06:50 17.05.2022
1452 Clouds 19 1018 78 10000 2.57 310 04:24 17.05.2022
1453 Clouds 19 1019 86 9000 2.57 60 00:46 17.05.2022
1454 Clouds 20 1019 85 10000 2.06 60 22:44 16.05.2022
1455 Clouds 20 1019 84 10000 2.06 120 21:52 16.05.2022
1456 Clear 22 1019 80 10000 3.09 100 20:49 16.05.2022
1457 Clear 23 1018 75 10000 3.09 110 19:49 16.05.2022
1458 Clear 24 1018 68 10000 4.12 130 18:21 16.05.2022
1459 Clear 25 1019 65 10000 5.14 130 16:24 16.05.2022
1460 Mist 25 1019 59 10000 5.14 130 14:38 16.05.2022
1461 Clear 25 1019 54 10000 6.69 110 13:23 16.05.2022
1462 Clear 26 1018 42 10000 3.6 230 11:33 16.05.2022
1463 Clear 24 1018 45 10000 2.06 270 09:58 16.05.2022
1464 Clear 19 1017 53 10000 4.12 320 07:21 16.05.2022
1465 Clear 19 1017 51 10000 3.6 330 04:41 16.05.2022
1466 Clouds 20 1018 64 10000 1.54 180 23:56 15.05.2022
1467 Clear 21 1017 59 10000 2.57 210 22:34 15.05.2022
1468 Clear 21 1016 56 10000 2.06 210 21:48 15.05.2022
1469 Clear 22 1016 51 10000 3.09 210 21:19 15.05.2022
1470 Clear 23 1016 58 10000 4.12 170 19:56 15.05.2022
1471 Clear 25 1016 50 10000 5.66 180 17:52 15.05.2022
1472 Clear 26 1016 55 10000 6.17 140 16:35 15.05.2022
1473 Clouds 26 1017 53 10000 5.14 180 14:18 15.05.2022
1474 Clouds 26 1017 53 10000 4.63 170 13:27 15.05.2022
1475 Clouds 25 1017 51 10000 2.57 170 11:55 15.05.2022
1476 Clear 24 1017 47 10000 1.34 30 10:35 15.05.2022
1477 Clear 21 1016 57 10000 3.09 330 08:52 15.05.2022
1478 Clear 18 1016 62 10000 2.57 290 06:59 15.05.2022
1479 Clouds 18 1016 61 10000 2.06 290 06:38 15.05.2022
1480 Clear 19 1017 58 10000 1.54 250 01:43 15.05.2022
1481 Clear 19 1018 62 10000 3.09 250 23:52 14.05.2022
1482 Clear 20 1018 63 10000 2.57 230 23:33 14.05.2022
1483 Clear 21 1017 61 10000 2.57 110 21:45 14.05.2022
1484 Clear 21 1017 58 10000 2.57 110 21:19 14.05.2022
1485 Clear 23 1017 55 10000 4.63 210 19:40 14.05.2022
1486 Clear 23 1017 55 10000 4.63 210 19:40 14.05.2022
1487 Clear 23 1017 56 10000 4.63 210 19:20 14.05.2022
1488 Clear 24 1017 54 10000 4.12 210 18:47 14.05.2022
1489 Clouds 24 1017 56 10000 5.14 200 17:36 14.05.2022
1490 Clouds 25 1018 49 10000 5.14 100 15:47 14.05.2022
1491 Clear 25 1019 50 10000 5.14 130 14:37 14.05.2022
1492 Clear 25 1019 48 10000 4.63 200 12:51 14.05.2022
1493 Clear 24 1019 48 10000 1.79 339 11:37 14.05.2022
1494 Clear 23 1019 50 10000 3.6 290 10:24 14.05.2022
1495 Clear 23 1019 50 10000 3.6 290 09:56 14.05.2022
1496 Clear 21 1019 58 10000 4.12 320 09:19 14.05.2022
1497 Clouds 17 1019 68 10000 3.6 310 07:23 14.05.2022
1498 Clouds 18 1019 68 10000 4.12 300 03:45 14.05.2022
1499 Clouds 18 1021 77 9000 2.57 290 00:21 14.05.2022
1500 Clouds 18 1021 79 10000 2.57 280 23:24 13.05.2022
1501 Clouds 18 1021 78 10000 1.54 290 22:54 13.05.2022
1502 Clouds 19 1021 76 10000 1.03 140 22:20 13.05.2022
1503 Clear 20 1020 70 10000 3.09 110 20:57 13.05.2022
1504 Clear 21 1020 68 10000 3.6 120 20:30 13.05.2022
1505 Clear 21 1020 66 10000 3.6 120 19:44 13.05.2022
1506 Clear 21 1020 66 10000 4.12 110 18:47 13.05.2022
1507 Clear 23 1020 61 10000 5.14 130 17:29 13.05.2022
1508 Clouds 22 1021 65 10000 5.66 120 16:29 13.05.2022
1509 Clouds 22 1021 65 10000 5.66 120 15:45 13.05.2022
1510 Clear 22 1021 63 10000 5.66 130 14:29 13.05.2022
1511 Clear 23 1022 59 10000 4.63 80 12:47 13.05.2022
1512 Clear 22 1022 58 10000 4.63 80 11:36 13.05.2022
1513 Clear 19 1021 60 10000 3.09 340 09:43 13.05.2022
1514 Clear 18 1021 62 10000 3.09 330 08:51 13.05.2022
1515 Clear 17 1021 67 10000 3.09 330 07:49 13.05.2022
1516 Clear 16 1020 70 10000 4.12 330 06:48 13.05.2022
1517 Clear 16 1020 71 10000 3.09 330 04:54 13.05.2022
1518 Clear 17 1021 79 10000 2.06 290 00:42 13.05.2022
1519 Clear 18 1021 80 10000 1.54 130 22:47 12.05.2022
1520 Clear 18 1021 80 10000 1.54 130 22:29 12.05.2022
1521 Clear 20 1021 74 10000 3.6 110 20:41 12.05.2022
1522 Clear 21 1021 68 10000 5.14 120 19:26 12.05.2022
1523 Clear 22 1021 63 10000 6.69 130 18:19 12.05.2022
1524 Clear 23 1021 55 10000 6.69 110 16:34 12.05.2022
1525 Clear 24 1021 52 10000 4.63 190 14:52 12.05.2022
1526 Clear 23 1022 54 10000 4.63 190 13:48 12.05.2022
1527 Clear 22 1022 57 10000 2.57 200 11:31 12.05.2022
1528 Clouds 21 1022 61 10000 1.79 317 10:22 12.05.2022
1529 Clouds 19 1022 65 10000 3.09 310 08:52 12.05.2022
1530 Clouds 18 1022 65 10000 3.09 310 08:52 12.05.2022
1531 Clouds 19 1022 65 10000 3.09 310 08:52 12.05.2022
1532 Clouds 18 1022 65 10000 3.09 310 08:52 12.05.2022
1533 Clear 17 1022 71 10000 4.63 320 07:58 12.05.2022
1534 Clouds 16 1021 74 10000 4.12 320 06:58 12.05.2022
1535 Clouds 17 1021 72 10000 2.57 320 03:46 12.05.2022
1536 Clear 17 1021 73 10000 1.54 250 01:29 12.05.2022
1537 Clear 18 1022 72 10000 2.57 200 22:59 11.05.2022
1538 Clear 19 1021 68 10000 3.6 210 22:18 11.05.2022
1539 Clear 20 1021 63 10000 4.12 210 21:24 11.05.2022
1540 Clear 20 1021 63 10000 4.12 210 21:24 11.05.2022
1541 Clear 22 1020 57 10000 5.66 220 19:57 11.05.2022
1542 Clear 23 1020 59 10000 6.69 210 17:33 11.05.2022
1543 Clear 23 1020 59 10000 6.69 210 16:19 11.05.2022
1544 Clear 24 1020 57 10000 8.23 220 14:47 11.05.2022
1545 Clear 24 1020 55 10000 8.23 220 14:24 11.05.2022
1546 Clear 24 1021 56 10000 6.69 210 12:39 11.05.2022
1547 Clear 23 1021 58 10000 4.02 16 11:47 11.05.2022
1548 Clouds 20 1020 68 10000 4.12 220 09:29 11.05.2022
1549 Clouds 16 1020 71 10000 2.06 300 06:30 11.05.2022
1550 Clear 18 1021 67 10000 2.57 220 01:53 11.05.2022
1551 Clear 19 1022 60 10000 3.09 220 22:58 10.05.2022
1552 Clear 20 1022 58 10000 3.09 220 22:24 10.05.2022
1553 Clouds 21 1021 55 10000 4.63 220 21:26 10.05.2022
1554 Clouds 22 1021 49 10000 5.14 220 20:26 10.05.2022
1555 Clouds 24 1021 45 10000 7.72 220 18:49 10.05.2022
1556 Clouds 24 1021 45 10000 8.23 220 17:38 10.05.2022
1557 Clouds 24 1021 48 10000 8.75 220 16:24 10.05.2022
1558 Clear 23 1023 51 10000 7.2 210 13:19 10.05.2022
1559 Clear 23 1023 52 10000 5.66 210 11:53 10.05.2022
1560 Clear 23 1023 53 10000 4.12 200 11:30 10.05.2022
1561 Clear 22 1022 54 10000 2.57 210 10:56 10.05.2022
1562 Clear 19 1022 62 10000 2.57 300 09:36 10.05.2022
1563 Clear 17 1022 67 10000 3.6 320 07:58 10.05.2022
1564 Clear 16 1021 69 10000 2.57 310 06:20 10.05.2022
1565 Clear 17 1022 74 10000 2.06 290 01:54 10.05.2022
1566 Clear 17 1023 76 10000 2.57 290 23:45 09.05.2022
1567 Clear 18 1023 74 10000 1.54 90 22:35 09.05.2022
1568 Clear 19 1022 71 10000 2.57 110 21:39 09.05.2022
1569 Clear 20 1022 64 10000 1.54 110 20:20 09.05.2022
1570 Clouds 21 1022 60 10000 4.12 140 18:26 09.05.2022
1571 Clouds 22 1022 58 10000 5.66 120 17:26 09.05.2022
1572 Clouds 22 1022 58 10000 5.14 120 16:19 09.05.2022
1573 Clouds 22 1022 59 10000 5.14 120 15:47 09.05.2022
1574 Clouds 22 1022 57 10000 6.69 120 14:37 09.05.2022
1575 Clouds 22 1022 56 10000 7.2 120 13:59 09.05.2022
1576 Clouds 22 1022 55 10000 5.66 130 13:22 09.05.2022
1577 Clouds 23 1022 50 10000 3.09 110 11:53 09.05.2022
1578 Clear 22 1022 50 10000 1.34 57 10:48 09.05.2022
1579 Clear 21 1022 54 10000 3.09 340 10:26 09.05.2022
1580 Clouds 17 1021 64 10000 5.14 320 07:57 09.05.2022
1581 Clouds 17 1020 64 10000 3.09 360 05:53 09.05.2022
1582 Clouds 18 1021 63 10000 3.6 300 01:59 09.05.2022
1583 Clouds 17 1021 66 10000 0 0 23:29 08.05.2022
1584 Clouds 18 1021 61 10000 2.06 280 22:32 08.05.2022
1585 Clouds 19 1020 60 10000 3.09 170 21:24 08.05.2022
1586 Clouds 21 1019 57 10000 3.6 180 20:25 08.05.2022
1587 Clouds 21 1019 57 10000 4.12 140 19:35 08.05.2022
1588 Clouds 22 1019 55 10000 4.63 130 18:40 08.05.2022
1589 Clouds 22 1019 53 10000 3.6 130 17:40 08.05.2022
1590 Clouds 21 1018 59 10000 6.17 130 16:22 08.05.2022
1591 Clouds 22 1019 56 10000 4.63 120 15:24 08.05.2022
1592 Clouds 22 1018 54 10000 4.12 130 13:44 08.05.2022
1593 Clouds 22 1019 52 10000 2.57 170 11:50 08.05.2022
1594 Clouds 20 1019 54 10000 3.09 310 10:26 08.05.2022
1595 Clouds 19 1019 58 10000 4.12 310 09:53 08.05.2022
1596 Clouds 17 1018 61 10000 5.14 320 07:57 08.05.2022
1597 Clouds 16 1017 65 10000 4.12 310 06:21 08.05.2022
1598 Clouds 17 1018 65 10000 3.09 330 03:22 08.05.2022
1599 Clouds 17 1019 70 10000 3.13 136 01:19 08.05.2022
1600 Clouds 17 1019 70 10000 3.09 250 23:57 07.05.2022
1601 Clear 17 1019 70 10000 2.57 240 23:34 07.05.2022
1602 Clouds 17 1019 73 10000 3.6 220 22:46 07.05.2022
1603 Clear 18 1019 74 10000 3.6 210 21:56 07.05.2022
1604 Clouds 18 1019 73 10000 3.09 200 21:31 07.05.2022
1605 Clouds 19 1018 68 10000 3.09 120 20:25 07.05.2022
1606 Clouds 20 1018 67 10000 5.66 130 18:52 07.05.2022
1607 Clouds 22 1018 59 10000 5.14 130 16:51 07.05.2022
1608 Clouds 22 1018 52 10000 6.17 120 15:18 07.05.2022
1609 Clear 22 1018 48 10000 3.13 352 11:51 07.05.2022
1610 Clear 19 1019 53 10000 4.63 310 09:55 07.05.2022
1611 Clear 16 1019 60 10000 5.14 300 08:33 07.05.2022
1612 Clouds 15 1018 61 10000 4.63 320 07:25 07.05.2022
1613 Clouds 15 1018 61 10000 4.02 128 06:42 07.05.2022
1614 Clouds 15 1019 64 10000 4.63 310 04:19 07.05.2022
1615 Clouds 16 1020 63 10000 1.54 310 00:45 07.05.2022
1616 Clear 17 1019 64 10000 3.6 260 22:40 06.05.2022
1617 Clear 17 1019 63 10000 4.12 240 21:54 06.05.2022
1618 Clouds 18 1019 62 10000 1.54 270 21:30 06.05.2022
1619 Clouds 20 1018 56 10000 4.63 120 19:49 06.05.2022
1620 Clouds 20 1018 56 10000 4.63 120 19:25 06.05.2022
1621 Clouds 20 1018 56 10000 5.14 130 18:43 06.05.2022
1622 Clouds 21 1017 56 10000 5.66 110 17:37 06.05.2022
1623 Clouds 22 1017 50 10000 6.17 130 15:54 06.05.2022
1624 Clouds 22 1017 50 10000 6.17 130 15:30 06.05.2022
1625 Clouds 22 1018 49 10000 5.14 180 13:50 06.05.2022
1626 Clouds 21 1018 49 10000 4.63 180 12:51 06.05.2022
1627 Clear 21 1018 49 10000 5.66 260 11:58 06.05.2022
1628 Clear 20 1018 51 10000 5.14 270 11:27 06.05.2022
1629 Clear 18 1018 57 10000 2.57 310 09:48 06.05.2022
1630 Clear 17 1018 62 10000 2.57 330 09:18 06.05.2022
1631 Clear 15 1018 70 10000 4.63 310 07:55 06.05.2022
1632 Clouds 14 1018 72 10000 4.12 350 06:27 06.05.2022
1633 Clear 14 1019 79 10000 1.54 340 03:44 06.05.2022
1634 Clouds 15 1019 78 10000 3.13 110 02:38 06.05.2022
1635 Clouds 17 1020 73 10000 4.63 290 23:24 05.05.2022
1636 Clouds 17 1019 74 10000 4.63 240 21:51 05.05.2022
1637 Clouds 18 1018 71 10000 2.57 240 20:37 05.05.2022
1638 Clouds 18 1018 71 10000 4.12 240 19:19 05.05.2022
1639 Clouds 19 1018 75 9000 3.6 130 16:42 05.05.2022
1640 Rain 18 1018 75 10000 4.12 150 15:46 05.05.2022
1641 Clouds 21 1018 58 10000 4.12 200 13:41 05.05.2022
1642 Clouds 21 1018 58 10000 4.12 200 13:18 05.05.2022
1643 Clouds 20 1018 62 10000 5.66 280 11:42 05.05.2022
1644 Clouds 18 1018 72 10000 4.63 320 09:46 05.05.2022
1645 Clouds 17 1018 72 10000 5.66 310 09:26 05.05.2022
1646 Clouds 14 1017 79 10000 4.12 320 06:33 05.05.2022
1647 Clouds 16 1018 79 10000 3.6 330 02:28 05.05.2022
1648 Clouds 16 1018 80 10000 2.06 300 01:45 05.05.2022
1649 Clouds 16 1018 79 10000 2.57 330 00:57 05.05.2022
1650 Clouds 16 1018 78 10000 2.06 280 23:22 04.05.2022
1651 Clouds 16 1018 79 10000 2.57 10 22:18 04.05.2022
1652 Clouds 16 1018 79 10000 2.06 20 21:45 04.05.2022
1653 Rain 16 1018 80 10000 2.06 20 21:18 04.05.2022
1654 Rain 17 1017 80 10000 2.57 70 20:20 04.05.2022
1655 Rain 17 1017 79 10000 3.6 130 19:35 04.05.2022
1656 Rain 17 1017 76 10000 5.14 130 18:44 04.05.2022
1657 Rain 18 1017 74 10000 6.17 140 18:20 04.05.2022
1658 Clouds 18 1017 72 10000 5.14 140 17:22 04.05.2022
1659 Clouds 19 1016 70 10000 5.14 100 15:34 04.05.2022
1660 Clouds 19 1016 67 10000 4.63 70 14:46 04.05.2022
1661 Clouds 20 1016 61 10000 4.63 70 14:20 04.05.2022
1662 Clear 19 1016 66 10000 3.6 80 12:58 04.05.2022
1663 Clear 18 996 71 10000 3.6 50 12:24 04.05.2022
1664 Clouds 17 1017 76 10000 6.17 40 10:30 04.05.2022
1665 Clouds 16 1016 78 10000 3.09 340 09:23 04.05.2022
1666 Clouds 14 1017 82 10000 3.6 340 08:26 04.05.2022
1667 Clouds 13 1016 85 10000 2.57 350 05:42 04.05.2022
1668 Clouds 14 1016 83 10000 0.51 350 02:43 04.05.2022
1669 Clouds 15 1016 83 10000 3.09 50 23:31 03.05.2022
1670 Clouds 16 1015 84 10000 3.09 40 22:00 03.05.2022
1671 Clouds 16 1015 82 10000 3.09 70 21:32 03.05.2022
1672 Clouds 16 1015 81 10000 4.12 60 20:52 03.05.2022
1673 Clouds 17 1014 77 10000 4.63 60 19:39 03.05.2022
1674 Clouds 18 1014 74 10000 5.66 60 18:48 03.05.2022
1675 Clouds 18 1014 73 10000 6.17 60 17:34 03.05.2022
1676 Clouds 18 1014 73 10000 6.17 70 16:20 03.05.2022
1677 Rain 17 1015 80 10000 5.66 70 14:34 03.05.2022
1678 Rain 17 1015 80 10000 5.66 80 12:46 03.05.2022
1679 Rain 17 1015 81 10000 6.17 70 12:22 03.05.2022
1680 Clouds 17 1014 76 10000 5.66 70 10:52 03.05.2022
1681 Clouds 15 1013 78 10000 3.09 40 08:38 03.05.2022
1682 Clouds 15 1012 77 10000 3.6 50 06:46 03.05.2022
1683 Clear 15 1013 72 10000 2.57 50 03:34 03.05.2022
1684 Clouds 16 1013 68 10000 2.57 60 23:32 02.05.2022
1685 Clouds 16 1013 69 10000 3.6 50 22:34 02.05.2022
1686 Clouds 17 1013 67 10000 4.12 70 21:48 02.05.2022
1687 Clouds 17 1013 62 10000 3.6 70 20:50 02.05.2022
1688 Clouds 19 1012 59 10000 5.66 80 18:35 02.05.2022
1689 Clouds 19 1013 60 10000 5.14 90 17:44 02.05.2022
1690 Clouds 19 1013 61 10000 5.14 100 16:50 02.05.2022
1691 Rain 19 1013 63 10000 3.6 100 15:56 02.05.2022
1692 Clouds 19 1014 62 10000 3.6 120 14:57 02.05.2022
1693 Clouds 19 1014 62 10000 3.6 150 13:48 02.05.2022
1694 Clouds 20 1014 62 10000 3.6 90 12:18 02.05.2022
1695 Clouds 18 1014 70 10000 3.09 40 10:20 02.05.2022
1696 Clouds 16 1014 78 10000 1.54 350 08:46 02.05.2022
1697 Clear 16 1014 80 10000 2.57 10 07:30 02.05.2022
1698 Clear 16 1016 75 10000 1.03 310 01:58 02.05.2022
1699 Clear 17 1016 75 10000 1.03 0 00:23 02.05.2022
1700 Rain 17 1016 74 10000 1.03 0 23:46 01.05.2022
1701 Clear 17 1016 71 10000 1.54 70 21:56 01.05.2022
1702 Clouds 18 1016 69 10000 2.57 120 20:58 01.05.2022
1703 Clouds 19 1016 68 10000 4.12 130 19:49 01.05.2022
1704 Clear 20 1016 67 10000 5.66 160 18:55 01.05.2022
1705 Clouds 20 1016 66 10000 5.14 170 18:18 01.05.2022
1706 Clouds 21 1016 64 10000 5.66 160 16:55 01.05.2022
1707 Clouds 21 1016 62 10000 5.66 190 16:23 01.05.2022
1708 Clouds 21 1017 64 10000 4.63 160 15:23 01.05.2022
1709 Clouds 20 1018 66 10000 3.6 130 13:42 01.05.2022
1710 Clouds 19 1018 72 10000 4.12 80 10:50 01.05.2022
1711 Clear 16 1018 81 10000 5.66 320 08:51 01.05.2022
1712 Clouds 15 1018 83 10000 5.14 330 07:42 01.05.2022
1713 Clouds 16 1018 82 10000 2.06 330 03:26 01.05.2022
1714 Clouds 17 1020 78 10000 1.54 210 23:23 30.04.2022
1715 Clouds 17 1019 77 10000 1.54 280 21:35 30.04.2022
1716 Clouds 18 1019 77 10000 2.06 220 20:36 30.04.2022
1717 Clear 18 1019 76 10000 2.06 200 19:41 30.04.2022
1718 Rain 19 1019 69 10000 5.14 130 17:44 30.04.2022
1719 Clouds 21 1019 64 10000 6.69 150 16:37 30.04.2022
1720 Clouds 21 1019 62 10000 6.17 150 15:24 30.04.2022
1721 Clouds 21 1020 64 10000 5.66 150 14:34 30.04.2022
1722 Clear 22 1021 60 10000 2.57 140 12:40 30.04.2022
1723 Clear 21 1021 60 10000 1.79 60 11:33 30.04.2022
1724 Clear 20 1021 63 10000 1.03 130 10:43 30.04.2022
1725 Clear 18 1021 71 10000 3.09 340 08:59 30.04.2022
1726 Clear 16 1020 74 10000 3.6 320 05:51 30.04.2022
1727 Clear 17 1022 69 10000 2.24 128 01:53 30.04.2022
1728 Clouds 18 1022 71 10000 3.09 230 23:37 29.04.2022
1729 Clouds 18 1022 70 10000 2.06 280 22:31 29.04.2022
1730 Clear 18 1021 70 10000 2.06 200 21:34 29.04.2022
1731 Clear 19 1021 66 10000 2.57 140 20:40 29.04.2022
1732 Clear 20 1021 64 10000 3.09 110 19:43 29.04.2022
1733 Clear 22 1022 58 10000 4.63 130 17:54 29.04.2022
1734 Clouds 22 1022 57 10000 5.14 140 17:21 29.04.2022
1735 Clouds 24 1022 47 10000 5.66 210 14:57 29.04.2022
1736 Clouds 24 1023 48 10000 5.66 220 14:20 29.04.2022
1737 Clear 23 1023 51 10000 2.24 7 12:48 29.04.2022
1738 Clouds 21 1024 54 10000 4.63 320 10:59 29.04.2022
1739 Clear 18 1023 67 10000 5.66 330 08:46 29.04.2022
1740 Clear 15 1022 73 10000 6.17 320 07:27 29.04.2022
1741 Clear 16 1022 68 10000 5.66 320 06:38 29.04.2022
1742 Clear 16 1022 68 10000 4.63 330 04:43 29.04.2022
1743 Clear 17 1023 66 10000 2.57 300 00:19 29.04.2022
1744 Clear 17 1022 66 10000 1.03 0 23:27 28.04.2022
1745 Clear 18 1022 65 10000 2.06 40 22:41 28.04.2022
1746 Clear 18 1021 65 10000 2.57 60 21:47 28.04.2022
1747 Clear 19 1021 61 10000 3.09 60 20:57 28.04.2022
1748 Clear 20 1021 60 10000 2.06 60 20:24 28.04.2022
1749 Clear 20 1020 59 10000 3.09 70 19:41 28.04.2022
1750 Clear 20 1020 56 10000 3.09 70 19:21 28.04.2022
1751 Clear 20 1020 56 10000 5.14 70 18:35 28.04.2022
1752 Clear 21 1020 55 10000 5.66 80 17:20 28.04.2022
1753 Clear 21 1020 53 10000 5.66 70 16:40 28.04.2022
1754 Clouds 21 1020 54 10000 5.14 70 16:18 28.04.2022
1755 Clouds 21 1020 57 10000 5.66 70 15:27 28.04.2022
1756 Clouds 20 1020 58 10000 4.63 100 13:44 28.04.2022
1757 Clouds 21 1020 53 10000 3.6 90 12:44 28.04.2022
1758 Clouds 20 1020 53 10000 4.63 80 11:58 28.04.2022
1759 Clouds 19 1020 57 10000 5.14 70 10:46 28.04.2022
1760 Clear 17 1020 59 10000 1.03 0 09:54 28.04.2022
1761 Clouds 16 1019 64 10000 2.06 350 08:31 28.04.2022
1762 Clouds 15 1018 65 10000 3.09 330 06:59 28.04.2022
1763 Clouds 14 1017 66 10000 3.09 330 05:55 28.04.2022
1764 Clouds 14 1017 65 10000 2.57 330 05:37 28.04.2022
1765 Clouds 15 1017 65 10000 2.06 340 04:38 28.04.2022
1766 Clouds 16 1018 68 10000 0.51 0 00:30 28.04.2022
1767 Clear 16 1018 66 10000 1.03 180 22:39 27.04.2022
1768 Clear 17 1017 65 10000 1.54 200 21:54 27.04.2022
1769 Clear 17 1017 61 10000 2.06 220 20:59 27.04.2022
1770 Clear 18 1017 60 10000 3.09 240 20:37 27.04.2022
1771 Clear 18 1016 59 10000 3.09 210 19:38 27.04.2022
1772 Clear 19 1016 56 10000 3.09 210 19:18 27.04.2022
1773 Clouds 19 1016 53 10000 4.12 130 18:22 27.04.2022
1774 Clouds 20 1016 52 10000 4.12 130 16:58 27.04.2022
1775 Clear 21 1017 49 10000 2.57 170 14:33 27.04.2022
1776 Clear 21 1017 50 10000 4.12 200 12:25 27.04.2022
1777 Clear 20 1017 54 10000 1.34 309 11:20 27.04.2022
1778 Clear 18 1016 60 10000 4.12 330 09:43 27.04.2022
1779 Clear 14 1015 64 10000 4.12 320 07:18 27.04.2022
1780 Clouds 14 1014 67 10000 4.12 320 04:45 27.04.2022
1781 Clouds 15 1015 68 10000 2.57 300 01:34 27.04.2022
1782 Clouds 15 1015 68 10000 1.54 240 00:38 27.04.2022
1783 Clouds 15 1015 68 10000 1.54 240 00:38 27.04.2022
1784 Clouds 15 1015 69 10000 2.57 230 23:40 26.04.2022
1785 Clouds 16 1015 68 10000 3.09 220 23:22 26.04.2022
1786 Clouds 16 1015 67 10000 2.57 220 22:41 26.04.2022
1787 Clear 17 1014 63 10000 3.09 220 21:37 26.04.2022
1788 Clear 18 1014 57 10000 3.09 210 20:53 26.04.2022
1789 Clear 19 1014 57 10000 4.63 220 20:33 26.04.2022
1790 Clouds 20 1013 52 10000 5.66 220 19:32 26.04.2022
1791 Clouds 21 1013 51 10000 6.17 210 18:45 26.04.2022
1792 Clouds 21 1013 50 10000 6.17 210 18:18 26.04.2022
1793 Clouds 21 1013 47 10000 6.17 200 17:22 26.04.2022
1794 Clouds 21 1014 50 10000 5.66 210 14:28 26.04.2022
1795 Clouds 21 1015 56 10000 4.63 210 13:34 26.04.2022
1796 Clouds 20 1015 59 10000 3.6 190 12:22 26.04.2022
1797 Clear 19 1014 58 10000 0.89 148 10:44 26.04.2022
1798 Clouds 17 1014 64 10000 2.06 310 09:36 26.04.2022
1799 Clouds 13 1014 73 10000 5.14 300 07:54 26.04.2022
1800 Clouds 13 1013 74 10000 2.06 320 04:33 26.04.2022
1801 Clear 13 1014 75 10000 1.54 290 01:54 26.04.2022
1802 Clear 15 1014 74 10000 2.06 230 00:26 26.04.2022
1803 Clear 16 1013 70 10000 4.63 220 22:49 25.04.2022
1804 Clear 17 1012 69 10000 3.09 210 21:43 25.04.2022
1805 Clear 18 1012 67 10000 5.66 230 20:45 25.04.2022
1806 Clear 18 1012 67 10000 5.66 230 20:45 25.04.2022
1807 Clouds 19 1012 68 10000 6.69 220 19:34 25.04.2022
1808 Clouds 20 1012 64 10000 6.17 220 18:23 25.04.2022
1809 Clouds 20 1012 61 10000 5.66 220 17:32 25.04.2022
1810 Clouds 19 1013 67 10000 6.17 130 15:30 25.04.2022
1811 Clouds 19 1013 68 10000 5.66 150 14:54 25.04.2022
1812 Clouds 19 1014 67 10000 4.63 100 13:41 25.04.2022
1813 Clouds 19 1013 59 10000 1.34 60 11:49 25.04.2022
1814 Clear 17 1013 65 10000 1.03 0 10:27 25.04.2022
1815 Clouds 15 1013 75 10000 2.57 330 08:47 25.04.2022
1816 Clouds 12 1012 82 10000 3.6 330 06:46 25.04.2022
1817 Clouds 12 1012 81 10000 2.57 330 05:23 25.04.2022
1818 Clouds 14 1012 79 10000 2.57 50 00:58 25.04.2022
1819 Clouds 15 1012 77 10000 2.57 80 23:52 24.04.2022
1820 Clouds 15 1011 76 10000 1.34 0 22:52 24.04.2022
1821 Clouds 15 1011 75 10000 4.63 250 22:31 24.04.2022
1822 Clouds 16 1010 72 10000 6.69 220 21:42 24.04.2022
1823 Clouds 17 1010 71 10000 7.2 220 21:18 24.04.2022
1824 Clouds 18 1009 65 10000 8.75 230 20:37 24.04.2022
1825 Clouds 18 1008 60 10000 7.72 220 19:48 24.04.2022
1826 Clouds 20 1007 54 10000 10.8 230 18:20 24.04.2022
1827 Clouds 20 1008 54 10000 10.8 220 17:37 24.04.2022
1828 Clouds 20 1008 59 10000 10.8 220 17:19 24.04.2022
1829 Clouds 20 1008 62 10000 8.75 230 16:35 24.04.2022
1830 Clouds 21 1008 56 10000 4.47 345 15:56 24.04.2022
1831 Clouds 20 1008 57 10000 4.12 180 15:31 24.04.2022
1832 Clouds 20 1008 55 10000 5.14 200 13:58 24.04.2022
1833 Clouds 19 1008 55 10000 3.09 270 13:25 24.04.2022
1834 Clouds 18 1007 58 10000 4.12 280 12:32 24.04.2022
1835 Clouds 17 1007 62 10000 6.17 310 11:33 24.04.2022
1836 Clouds 15 1006 65 10000 8.23 280 10:27 24.04.2022
1837 Clouds 14 1005 68 10000 5.14 290 09:26 24.04.2022
1838 Clouds 12 1004 70 10000 6.17 230 06:46 24.04.2022
1839 Clouds 12 1003 69 10000 8.75 240 03:57 24.04.2022
1840 Clouds 12 1003 72 10000 6.17 250 01:38 24.04.2022
1841 Clouds 12 1003 72 10000 6.17 250 01:38 24.04.2022
1842 Clouds 12 1003 72 10000 8.23 250 00:29 24.04.2022
1843 Clouds 12 1003 75 10000 5.14 270 23:44 23.04.2022
1844 Clouds 12 1003 75 10000 5.14 270 23:21 23.04.2022
1845 Drizzle 12 1002 77 10000 7.2 250 21:53 23.04.2022
1846 Drizzle 12 1002 78 10000 8.75 260 21:34 23.04.2022
1847 Clouds 12 1001 76 10000 6.17 230 20:51 23.04.2022
1848 Thunderstorm 14 1000 66 10000 5.14 210 19:47 23.04.2022
1849 Clouds 15 999 63 10000 7.72 230 19:19 23.04.2022
1850 Rain 15 999 65 10000 10.29 230 18:52 23.04.2022
1851 Rain 14 999 69 10000 7.2 230 17:51 23.04.2022
1852 Rain 14 999 68 10000 6.69 240 17:26 23.04.2022
1853 Clouds 13 999 69 10000 8.23 220 16:41 23.04.2022
1854 Rain 14 998 67 10000 9.77 260 15:28 23.04.2022
1855 Clouds 15 997 67 10000 9.77 220 12:44 23.04.2022
1856 Drizzle 15 997 80 9000 7.72 210 10:44 23.04.2022
1857 Drizzle 14 996 82 7000 1.79 1 09:33 23.04.2022
1858 Clouds 14 997 83 10000 1.54 140 06:32 23.04.2022
1859 Clouds 13 998 82 9000 1.54 170 03:54 23.04.2022
1860 Clouds 13 1000 82 10000 2.06 300 01:20 23.04.2022
1861 Clouds 14 1000 79 10000 1.54 160 23:30 22.04.2022
1862 Clouds 15 1000 75 10000 1.34 340 22:20 22.04.2022
1863 Clear 15 1000 72 10000 2.06 210 21:43 22.04.2022
1864 Clouds 16 1000 66 10000 3.13 62 20:47 22.04.2022
1865 Clouds 16 1000 64 10000 3.58 68 20:27 22.04.2022
1866 Clouds 17 1000 65 10000 6.17 240 19:20 22.04.2022
1867 Clouds 17 1000 65 10000 7.2 220 18:41 22.04.2022
1868 Clouds 18 1000 63 10000 6.69 230 17:41 22.04.2022
1869 Clouds 18 1000 61 10000 7.72 210 16:46 22.04.2022
1870 Clouds 20 1000 56 10000 7.72 220 15:42 22.04.2022
1871 Clouds 20 1000 57 10000 7.72 210 14:46 22.04.2022
1872 Clouds 20 1001 53 10000 4.12 260 13:50 22.04.2022
1873 Clear 20 1001 55 10000 3.09 230 12:58 22.04.2022
1874 Clear 18 1001 60 10000 7.2 220 11:50 22.04.2022
1875 Clear 18 1001 60 10000 4.12 260 11:21 22.04.2022
1876 Clear 17 1001 61 10000 4.12 270 10:50 22.04.2022
1877 Clear 16 1001 64 10000 4.12 250 10:30 22.04.2022
1878 Clear 15 1001 69 10000 4.63 250 09:50 22.04.2022
1879 Clear 13 1001 75 10000 4.63 320 08:50 22.04.2022
1880 Clear 12 1001 80 10000 3.6 270 06:58 22.04.2022
1881 Clouds 13 1001 81 10000 1.03 0 03:30 22.04.2022
1882 Clouds 13 1003 79 10000 2.06 300 00:51 22.04.2022
1883 Clouds 14 1003 79 10000 1.03 0 23:24 21.04.2022
1884 Clouds 14 1003 81 10000 1.54 290 22:27 21.04.2022
1885 Clouds 14 1002 81 10000 4.02 121 20:37 21.04.2022
1886 Clouds 14 1002 81 10000 2.24 114 20:18 21.04.2022
1887 Rain 14 1002 79 9000 3.09 280 18:42 21.04.2022
1888 Rain 13 1002 80 8000 3.09 270 17:57 21.04.2022
1889 Rain 14 1002 77 10000 2.68 325 16:35 21.04.2022
1890 Rain 13 1002 79 10000 4.63 280 15:21 21.04.2022
1891 Rain 13 1002 79 10000 4.12 300 14:49 21.04.2022
1892 Rain 11 1003 80 10000 5.14 290 13:23 21.04.2022
1893 Rain 12 1003 79 10000 4.47 135 12:57 21.04.2022
1894 Rain 12 1004 83 10000 4.63 330 10:49 21.04.2022
1895 Rain 12 1004 82 10000 2.06 320 08:57 21.04.2022
1896 Rain 11 1003 81 6000 0.51 350 07:32 21.04.2022
1897 Rain 12 1004 81 10000 6.69 60 05:42 21.04.2022
1898 Clouds 13 1004 78 10000 9.77 50 03:32 21.04.2022
1899 Clouds 13 1004 80 10000 9.26 60 02:47 21.04.2022
1900 Clouds 14 1004 80 10000 6.69 50 00:47 21.04.2022
1901 Thunderstorm 14 1004 80 10000 4.47 53 23:51 20.04.2022
1902 Clouds 14 1004 81 10000 5.14 130 23:22 20.04.2022
1903 Clouds 14 1004 82 10000 6.69 80 22:50 20.04.2022
1904 Clouds 14 1004 83 10000 7.72 60 22:31 20.04.2022
1905 Rain 15 1004 81 10000 10.29 50 21:29 20.04.2022
1906 Rain 15 1003 80 10000 10.29 60 20:37 20.04.2022
1907 Rain 15 1003 79 10000 10.29 50 19:52 20.04.2022
1908 Rain 15 1003 78 10000 9.77 50 19:21 20.04.2022
1909 Thunderstorm 16 1003 76 10000 13.38 60 18:23 20.04.2022
1910 Clouds 16 1003 75 10000 12.35 60 16:56 20.04.2022
1911 Clouds 16 1003 72 10000 12.86 60 16:37 20.04.2022
1912 Clouds 16 1003 70 6000 12.35 60 14:21 20.04.2022
1913 Clouds 16 1004 70 10000 11.32 60 11:52 20.04.2022
1914 Clouds 15 1004 71 10000 10.29 60 11:25 20.04.2022
1915 Clouds 15 1004 70 10000 9.77 60 10:24 20.04.2022
1916 Clouds 15 1003 70 10000 10.29 60 09:25 20.04.2022
1917 Clouds 14 1004 75 10000 8.23 60 08:22 20.04.2022
1918 Clouds 14 1004 74 10000 8.23 60 08:22 20.04.2022
1919 Clouds 14 1004 78 10000 8.23 60 07:42 20.04.2022
1920 Clouds 14 1005 76 10000 4.12 30 03:54 20.04.2022
1921 Clouds 14 1008 79 10000 2.06 320 00:24 20.04.2022
1922 Clouds 14 1008 78 10000 2.06 320 23:59 19.04.2022
1923 Clouds 15 1008 77 10000 3.09 50 22:28 19.04.2022
1924 Clouds 15 1009 75 10000 2.57 50 21:57 19.04.2022
1925 Rain 16 1008 73 10000 3.09 40 21:34 19.04.2022
1926 Rain 16 1009 66 10000 1.03 10 20:50 19.04.2022
1927 Clouds 17 1009 66 10000 2.57 40 20:32 19.04.2022
1928 Clouds 17 1009 62 10000 2.57 30 19:24 19.04.2022
1929 Clouds 18 1009 59 10000 3.6 100 17:59 19.04.2022
1930 Clouds 18 1010 58 10000 3.09 80 16:44 19.04.2022
1931 Clouds 18 1010 57 10000 4.12 150 16:24 19.04.2022
1932 Clouds 17 1011 70 10000 3.6 130 14:51 19.04.2022
1933 Clouds 17 1011 71 10000 2.57 110 14:31 19.04.2022
1934 Clouds 17 1012 74 9000 2.06 110 12:52 19.04.2022
1935 Clouds 17 1013 75 9000 2.06 150 12:26 19.04.2022
1936 Clouds 16 1013 76 9000 1.54 190 11:22 19.04.2022
1937 Clouds 14 1012 78 9000 2.06 330 09:25 19.04.2022
1938 Clouds 12 1012 78 10000 3.09 320 06:34 19.04.2022
1939 Clouds 13 1013 78 10000 2.57 320 04:19 19.04.2022
1940 Clouds 14 1014 82 10000 1.54 290 00:56 19.04.2022
1941 Clouds 14 1014 82 10000 1.54 50 23:38 18.04.2022
1942 Clouds 15 1014 81 10000 2.06 90 21:48 18.04.2022
1943 Clouds 15 1014 81 10000 3.09 120 21:24 18.04.2022
1944 Clouds 16 1014 78 10000 4.12 130 20:38 18.04.2022
1945 Clouds 17 1013 79 10000 4.12 130 19:59 18.04.2022
1946 Clouds 17 1013 77 10000 3.6 110 19:27 18.04.2022
1947 Clouds 18 1013 76 10000 3.6 120 18:33 18.04.2022
1948 Clouds 18 1014 74 10000 4.12 120 17:39 18.04.2022
1949 Clouds 18 1014 73 10000 4.12 120 17:19 18.04.2022
1950 Clouds 18 1015 70 10000 4.63 120 16:35 18.04.2022
1951 Clouds 18 1015 71 10000 5.14 130 15:28 18.04.2022
1952 Clouds 18 1016 70 10000 5.66 130 13:44 18.04.2022
1953 Clear 18 1016 69 10000 4.12 140 12:40 18.04.2022
1954 Clear 18 1016 64 10000 4.12 200 11:43 18.04.2022
1955 Clear 17 1015 63 10000 3.09 310 10:43 18.04.2022
1956 Clear 16 1015 66 10000 3.13 249 09:31 18.04.2022
1957 Clear 16 1015 67 10000 3.13 249 09:31 18.04.2022
1958 Clear 15 1015 69 10000 4.12 320 08:37 18.04.2022
1959 Clear 13 1015 73 10000 2.06 320 06:25 18.04.2022
1960 Clouds 15 1016 66 10000 2.57 320 02:22 18.04.2022
1961 Clear 15 1017 72 10000 1.54 80 22:53 17.04.2022
1962 Clear 15 1017 72 10000 1.54 70 22:31 17.04.2022
1963 Clouds 16 1016 70 10000 3.09 70 21:32 17.04.2022
1964 Clouds 16 1016 69 10000 3.09 70 20:51 17.04.2022
1965 Clear 17 1016 67 10000 3.6 70 19:55 17.04.2022
1966 Clear 18 1016 66 10000 4.12 120 18:34 17.04.2022
1967 Clear 18 1016 66 10000 5.66 140 17:20 17.04.2022
1968 Clouds 19 1017 61 10000 6.69 90 15:34 17.04.2022
1969 Clouds 21 1017 54 10000 6.17 80 14:38 17.04.2022
1970 Clouds 21 1017 58 10000 6.17 80 13:28 17.04.2022
1971 Clouds 21 1017 57 10000 5.14 90 12:31 17.04.2022
1972 Clouds 21 1017 55 10000 3.09 90 10:48 17.04.2022
1973 Clouds 20 1017 57 10000 1.54 10 10:29 17.04.2022
1974 Clouds 19 1017 62 10000 3.6 340 09:51 17.04.2022
1975 Clouds 18 1017 67 10000 4.63 330 09:18 17.04.2022
1976 Clouds 17 1017 71 10000 3.6 340 08:31 17.04.2022
1977 Clear 16 1015 75 10000 2.57 350 05:33 17.04.2022
1978 Clear 16 1016 78 10000 2.06 250 01:52 17.04.2022
1979 Clouds 16 1016 77 10000 1.54 300 00:37 17.04.2022
1980 Clear 17 1016 76 10000 1.03 130 23:30 16.04.2022
1981 Clouds 18 1016 75 10000 3.09 110 21:47 16.04.2022
1982 Clouds 19 1015 71 10000 4.12 130 20:54 16.04.2022
1983 Clouds 21 1015 71 10000 9.77 230 19:24 16.04.2022
1984 Clouds 22 1015 69 10000 8.23 220 18:43 16.04.2022
1985 Clouds 24 1014 53 10000 5.66 150 17:20 16.04.2022
1986 Clouds 25 1015 48 10000 5.14 210 15:51 16.04.2022
1987 Clouds 25 1015 44 10000 5.66 210 14:58 16.04.2022
1988 Clouds 25 1016 45 10000 5.66 200 14:40 16.04.2022
1989 Clear 25 1016 46 10000 3.6 240 13:49 16.04.2022
1990 Clear 24 1017 51 10000 5.14 190 13:18 16.04.2022
1991 Clear 24 1017 49 10000 3.6 300 11:43 16.04.2022
1992 Clear 21 1017 57 10000 4.12 320 10:33 16.04.2022
1993 Clear 18 1018 69 10000 5.14 320 09:37 16.04.2022
1994 Clear 18 1018 69 10000 6.17 320 08:51 16.04.2022
1995 Clear 16 1017 75 10000 6.69 310 07:22 16.04.2022
1996 Clear 17 1017 71 10000 5.14 310 05:38 16.04.2022
1997 Clear 18 1020 64 10000 3.09 320 01:47 16.04.2022
1998 Clear 18 1020 64 10000 2.06 290 23:52 15.04.2022
1999 Clear 19 1020 61 10000 2.06 270 22:51 15.04.2022
2000 Clear 19 1020 61 10000 2.57 280 22:29 15.04.2022
2001 Clear 20 1020 58 10000 2.06 250 21:25 15.04.2022
2002 Clear 21 1019 56 10000 3.09 230 20:38 15.04.2022
2003 Clear 22 1018 52 10000 3.6 180 19:46 15.04.2022
2004 Clear 22 1019 51 10000 3.6 180 19:23 15.04.2022
2005 Clear 23 1018 49 10000 3.6 180 18:42 15.04.2022
2006 Clouds 23 1019 48 10000 3.09 180 18:22 15.04.2022
2007 Clouds 24 1019 48 10000 4.12 130 17:27 15.04.2022
2008 Clouds 24 1019 47 10000 5.14 130 16:25 15.04.2022
2009 Clouds 24 1019 46 10000 5.66 130 15:46 15.04.2022
2010 Clear 24 1020 44 10000 4.12 200 14:18 15.04.2022
2011 Clear 24 1019 41 10000 3.09 160 12:52 15.04.2022
2012 Clear 23 1019 42 10000 2.57 150 12:26 15.04.2022
2013 Clear 23 1019 43 10000 3.6 320 11:51 15.04.2022
2014 Clear 21 1019 47 10000 0.89 276 10:48 15.04.2022
2015 Clear 19 1019 51 10000 3.09 340 10:21 15.04.2022
2016 Clear 17 1019 57 10000 5.66 330 09:23 15.04.2022
2017 Clear 16 1019 59 10000 6.17 330 08:49 15.04.2022
2018 Clouds 15 1019 60 10000 3.6 340 06:51 15.04.2022
2019 Clouds 15 1018 64 10000 2.06 320 04:49 15.04.2022
2020 Clouds 16 1019 62 10000 3.09 290 00:51 15.04.2022
2021 Clouds 17 1019 58 10000 3.6 30 23:28 14.04.2022
2022 Clouds 17 1019 59 10000 3.09 20 22:46 14.04.2022
2023 Clouds 17 1019 59 10000 3.09 20 22:27 14.04.2022
2024 Clouds 17 1018 58 10000 3.6 50 21:50 14.04.2022
2025 Clouds 19 1017 50 10000 7.72 70 19:53 14.04.2022
2026 Clouds 19 1017 50 10000 9.26 70 19:22 14.04.2022
2027 Clouds 20 1016 48 10000 9.77 80 17:48 14.04.2022
2028 Clear 20 1015 48 10000 11.32 70 17:18 14.04.2022
2029 Clear 21 1015 49 10000 9.77 70 16:32 14.04.2022
2030 Clouds 21 1016 45 10000 10.29 80 13:55 14.04.2022
2031 Clouds 21 1016 48 10000 9.77 80 13:26 14.04.2022
2032 Clouds 22 1016 42 10000 8.75 70 12:33 14.04.2022
2033 Clouds 21 1015 42 10000 6.17 70 11:47 14.04.2022
2034 Clouds 20 1015 43 10000 6.17 30 11:21 14.04.2022
2035 Clouds 19 1015 48 10000 3.6 330 10:36 14.04.2022
2036 Clouds 18 1015 48 10000 4.12 330 09:52 14.04.2022
2037 Clouds 14 1015 68 10000 4.12 330 08:39 14.04.2022
2038 Clouds 13 1015 76 10000 2.06 290 06:24 14.04.2022
2039 Clouds 14 1015 72 10000 3.6 30 01:49 14.04.2022
2040 Clouds 14 1015 71 10000 8.23 60 22:45 13.04.2022
2041 Drizzle 14 1015 76 10000 10.8 60 21:44 13.04.2022
2042 Rain 14 1014 77 10000 8.23 70 20:48 13.04.2022
2043 Clouds 14 1014 80 10000 8.75 70 20:22 13.04.2022
2044 Rain 15 1012 81 10000 7.72 50 19:23 13.04.2022
2045 Mist 14 1013 82 5000 8.23 60 17:54 13.04.2022
2046 Mist 14 1013 84 5000 8.75 70 17:23 13.04.2022
2047 Mist 14 1013 84 5000 8.23 70 16:33 13.04.2022
2048 Rain 14 1013 85 7000 7.72 70 15:32 13.04.2022
2049 Rain 14 1013 85 6000 8.23 60 14:50 13.04.2022
2050 Mist 14 1013 86 2000 9.26 60 13:58 13.04.2022
2051 Mist 14 1013 88 1200 9.77 60 13:19 13.04.2022
2052 Mist 14 1013 88 1200 9.77 60 12:20 13.04.2022
2053 Mist 14 1012 88 3000 8.75 60 10:47 13.04.2022
2054 Clouds 14 1011 86 3100 7.2 50 08:57 13.04.2022
2055 Drizzle 14 1011 85 6000 7.2 60 08:33 13.04.2022
2056 Clouds 14 1010 86 6000 7.72 50 06:51 13.04.2022
2057 Clouds 14 1011 86 4000 7.72 50 06:25 13.04.2022
2058 Clouds 14 1011 81 7000 5.66 70 04:55 13.04.2022
2059 Mist 14 1012 91 5000 7.72 50 00:20 13.04.2022
2060 Clouds 14 1012 82 8000 8.75 60 23:21 12.04.2022
2061 Clouds 14 1011 80 10000 8.75 60 21:57 12.04.2022
2062 Clouds 15 1011 78 10000 7.2 60 20:57 12.04.2022
2063 Clouds 15 1011 80 10000 8.23 60 20:38 12.04.2022
2064 Clouds 15 1011 78 10000 7.72 60 19:48 12.04.2022
2065 Clouds 15 1011 78 10000 7.72 60 19:29 12.04.2022
2066 Clouds 15 1011 78 10000 7.72 60 19:29 12.04.2022
2067 Clouds 15 1011 77 10000 8.23 60 17:59 12.04.2022
2068 Clouds 15 1011 77 10000 8.75 60 17:23 12.04.2022
2069 Clouds 15 1011 76 10000 8.75 60 16:22 12.04.2022
2070 Clouds 15 1011 76 10000 10.8 50 15:29 12.04.2022
2071 Clouds 15 1012 75 10000 11.32 60 14:21 12.04.2022
2072 Clouds 15 1012 76 10000 10.29 50 13:29 12.04.2022
2073 Drizzle 14 1012 78 7000 10.29 50 12:49 12.04.2022
2074 Drizzle 14 1013 77 5000 9.77 50 11:46 12.04.2022
2075 Clouds 14 1012 76 9000 8.75 60 10:35 12.04.2022
2076 Clouds 14 1012 75 10000 8.23 60 09:18 12.04.2022
2077 Clouds 14 1011 74 10000 10.29 50 07:55 12.04.2022
2078 Clouds 14 1011 75 10000 9.26 60 05:50 12.04.2022
2079 Clouds 14 1012 75 9000 9.26 60 05:31 12.04.2022
2080 Clouds 14 1014 76 9000 8.23 60 23:59 11.04.2022
2081 Clouds 14 1015 76 9000 7.72 60 22:44 11.04.2022
2082 Clouds 14 1014 75 10000 9.26 50 21:37 11.04.2022
2083 Clouds 14 1014 75 10000 8.75 60 20:57 11.04.2022
2084 Clouds 14 1014 74 10000 7.72 60 20:29 11.04.2022
2085 Clouds 14 1014 73 10000 8.75 60 19:54 11.04.2022
2086 Clouds 15 1014 72 10000 7.72 60 19:18 11.04.2022
2087 Clouds 15 1014 72 10000 8.23 60 18:47 11.04.2022
2088 Clouds 16 1014 71 10000 8.23 60 17:56 11.04.2022
2089 Clouds 16 1015 71 10000 7.72 70 16:54 11.04.2022
2090 Clouds 16 1015 68 10000 7.2 70 15:54 11.04.2022
2091 Clouds 17 1016 70 10000 5.66 90 14:24 11.04.2022
2092 Clouds 16 1017 73 10000 5.66 90 12:52 11.04.2022
2093 Clouds 16 1017 73 10000 5.14 70 12:31 11.04.2022
2094 Clouds 16 1016 73 10000 4.12 80 11:31 11.04.2022
2095 Clouds 15 1016 73 10000 1.54 340 10:28 11.04.2022
2096 Clear 13 1016 77 10000 3.09 330 09:20 11.04.2022
2097 Clear 11 1015 78 10000 2.57 330 06:24 11.04.2022
2098 Clear 12 1017 77 10000 1.54 180 01:53 11.04.2022
2099 Clear 14 1017 70 10000 4.12 240 22:37 10.04.2022
2100 Clear 14 1017 69 10000 3.6 240 21:55 10.04.2022
2101 Clear 14 1017 70 10000 4.12 240 21:29 10.04.2022
2102 Clear 15 1017 67 10000 5.66 240 20:31 10.04.2022
2103 Clear 16 1017 66 10000 6.17 230 19:44 10.04.2022
2104 Clouds 17 1017 66 10000 6.17 230 19:20 10.04.2022
2105 Clouds 17 1017 66 10000 6.17 230 18:42 10.04.2022
2106 Clouds 17 1017 68 10000 7.2 210 17:52 10.04.2022
2107 Clouds 17 1018 68 10000 6.17 200 17:33 10.04.2022
2108 Clouds 17 1019 64 10000 5.14 200 16:22 10.04.2022
2109 Clouds 16 1019 62 10000 4.12 200 15:19 10.04.2022
2110 Clouds 16 1020 62 10000 3.6 180 14:22 10.04.2022
2111 Clouds 15 1021 68 10000 3.09 160 12:34 10.04.2022
2112 Clouds 14 1021 73 10000 3.6 140 11:46 10.04.2022
2113 Clouds 14 1021 74 10000 3.6 140 11:28 10.04.2022
2114 Clouds 14 1020 73 10000 1.54 300 10:48 10.04.2022
2115 Clouds 13 1020 76 10000 1.54 310 09:56 10.04.2022
2116 Clouds 13 1020 76 10000 2.06 320 09:28 10.04.2022
2117 Clouds 12 1020 78 10000 3.6 320 08:22 10.04.2022
2118 Clouds 12 1020 77 10000 2.57 320 07:21 10.04.2022
2119 Clouds 12 1019 75 10000 2.06 330 05:46 10.04.2022
2120 Clouds 13 1020 74 10000 1.03 0 02:21 10.04.2022
2121 Clouds 13 1020 73 10000 2.06 150 00:25 10.04.2022
2122 Clouds 13 1019 75 10000 2.57 120 23:43 09.04.2022
2123 Clouds 13 1019 73 10000 3.09 110 22:45 09.04.2022
2124 Clouds 13 1018 74 10000 3.6 100 21:35 09.04.2022
2125 Clouds 13 1017 74 10000 4.12 110 20:48 09.04.2022
2126 Clouds 14 1017 74 10000 4.12 100 20:25 09.04.2022
2127 Clouds 14 1016 73 10000 5.14 110 19:41 09.04.2022
2128 Clouds 14 1016 74 10000 6.17 110 18:55 09.04.2022
2129 Clouds 14 1016 73 10000 6.17 120 18:19 09.04.2022
2130 Clouds 14 1015 72 10000 6.69 130 17:39 09.04.2022
2131 Clouds 15 1015 71 10000 6.69 130 16:50 09.04.2022
2132 Clouds 15 1015 72 10000 6.69 130 15:55 09.04.2022
2133 Clouds 15 1015 72 10000 6.69 140 15:29 09.04.2022
2134 Clouds 15 1015 71 10000 6.69 130 14:27 09.04.2022
2135 Clouds 15 1015 75 10000 6.69 130 13:54 09.04.2022
2136 Clouds 15 1015 69 10000 5.14 110 13:18 09.04.2022
2137 Clouds 15 1015 71 10000 6.69 120 12:41 09.04.2022
2138 Clouds 15 1014 68 10000 4.63 100 11:22 09.04.2022
2139 Clouds 15 1013 71 10000 5.36 318 10:21 09.04.2022
2140 Clouds 14 1013 68 10000 3.6 340 09:37 09.04.2022
2141 Clouds 14 1012 66 10000 3.09 320 08:51 09.04.2022
2142 Clouds 15 1011 60 10000 6.69 320 06:56 09.04.2022
2143 Clear 19 1010 46 10000 5.14 260 01:32 09.04.2022
2144 Clear 20 1010 42 10000 4.12 250 23:30 08.04.2022
2145 Clear 21 1010 39 10000 7.2 250 21:58 08.04.2022
2146 Clear 21 1009 37 10000 5.66 250 21:29 08.04.2022
2147 Clear 21 1009 34 10000 4.12 280 20:38 08.04.2022
2148 Clear 23 1009 32 10000 7.72 260 19:20 08.04.2022
2149 Clouds 23 1009 33 10000 8.75 270 18:30 08.04.2022
2150 Clear 23 1009 31 10000 7.2 250 17:49 08.04.2022
2151 Clear 24 1008 29 10000 8.23 260 17:25 08.04.2022
2152 Clear 24 1009 29 10000 8.75 270 16:47 08.04.2022
2153 Clear 24 1009 33 10000 6.17 260 15:57 08.04.2022
2154 Clear 24 1009 33 10000 10.29 290 15:26 08.04.2022
2155 Clear 23 1010 35 10000 8.75 270 14:33 08.04.2022
2156 Clear 22 1011 41 10000 8.23 240 13:46 08.04.2022
2157 Clear 22 1011 42 10000 8.23 240 13:27 08.04.2022
2158 Clear 20 1012 44 10000 5.66 250 11:56 08.04.2022
2159 Clear 17 1013 54 10000 2.57 270 10:37 08.04.2022
2160 Clear 16 1013 57 10000 4.02 107 09:38 08.04.2022
2161 Clouds 15 1013 59 10000 2.24 297 08:51 08.04.2022
2162 Clouds 13 1013 65 10000 3.09 350 06:55 08.04.2022
2163 Clouds 14 1013 62 10000 1.54 260 05:23 08.04.2022
2164 Clear 16 1014 60 10000 4.63 240 01:29 08.04.2022
2165 Clear 17 1014 61 10000 5.66 230 00:25 08.04.2022
2166 Clear 18 1014 53 10000 5.14 260 22:59 07.04.2022
2167 Clear 18 1014 50 10000 2.06 280 22:39 07.04.2022
2168 Clear 18 1014 48 10000 2.06 280 22:21 07.04.2022
2169 Clear 19 1013 45 10000 3.6 270 21:53 07.04.2022
2170 Clear 19 1013 46 10000 3.6 260 21:19 07.04.2022
2171 Clear 19 1012 42 10000 3.09 230 20:38 07.04.2022
2172 Clear 21 1012 39 10000 9.77 230 18:48 07.04.2022
2173 Clear 22 1011 37 10000 8.75 270 17:27 07.04.2022
2174 Clear 23 1011 36 10000 8.23 260 16:45 07.04.2022
2175 Clear 23 1011 34 10000 9.26 250 16:23 07.04.2022
2176 Clear 23 1012 32 10000 7.2 260 15:19 07.04.2022
2177 Clear 20 1014 49 10000 7.72 260 13:45 07.04.2022
2178 Clear 19 1014 49 10000 6.69 270 12:58 07.04.2022
2179 Clear 17 1015 51 10000 4.63 280 11:40 07.04.2022
2180 Clear 15 1015 58 10000 3.09 330 10:27 07.04.2022
2181 Clouds 11 1014 69 10000 3.6 300 08:39 07.04.2022
2182 Clear 10 1013 69 10000 4.12 330 06:58 07.04.2022
2183 Clear 10 1013 71 10000 3.6 320 03:59 07.04.2022
2184 Clear 11 1013 72 10000 2.06 340 02:28 07.04.2022
2185 Clear 12 1013 67 10000 2.57 180 00:42 07.04.2022
2186 Clear 13 1013 63 10000 3.6 210 22:58 06.04.2022
2187 Clear 13 1013 61 10000 3.6 210 22:39 06.04.2022
2188 Clouds 14 1013 60 10000 3.6 220 21:47 06.04.2022
2189 Clear 14 1011 65 10000 5.66 210 20:41 06.04.2022
2190 Clear 15 1011 61 10000 4.12 220 19:59 06.04.2022
2191 Clouds 16 1011 60 10000 5.14 190 19:19 06.04.2022
2192 Clouds 16 1010 57 10000 5.14 190 18:47 06.04.2022
2193 Clear 17 1010 54 10000 6.69 230 17:35 06.04.2022
2194 Clear 17 1010 45 10000 6.69 230 16:39 06.04.2022
2195 Clouds 17 1010 44 10000 6.17 220 15:57 06.04.2022
2196 Clouds 17 1010 43 10000 6.17 220 15:39 06.04.2022
2197 Clouds 17 1011 45 10000 4.63 220 13:31 06.04.2022
2198 Clouds 16 1011 50 10000 0.51 220 12:28 06.04.2022
2199 Clouds 14 1011 55 10000 2.06 300 10:57 06.04.2022
2200 Clouds 13 1011 57 10000 3.09 300 10:33 06.04.2022
2201 Clouds 12 1010 62 10000 5.14 310 09:46 06.04.2022
2202 Clouds 11 1010 64 10000 3.6 320 08:39 06.04.2022
2203 Clouds 10 1010 66 10000 4.63 310 07:57 06.04.2022
2204 Clouds 10 1010 64 10000 4.12 320 05:23 06.04.2022
2205 Clouds 10 1013 67 10000 1.54 320 00:20 06.04.2022
2206 Clear 11 1013 67 10000 2.06 0 23:47 05.04.2022
2207 Clear 11 1013 66 10000 1.54 150 21:48 05.04.2022
2208 Clear 12 1013 63 10000 2.57 160 20:58 05.04.2022
2209 Clear 12 1013 60 10000 3.09 130 20:23 05.04.2022
2210 Clear 14 1013 52 10000 4.12 120 18:31 05.04.2022
2211 Clear 14 1013 49 10000 5.14 140 17:21 05.04.2022
2212 Clear 15 1013 47 10000 5.14 150 16:42 05.04.2022
2213 Clear 15 1014 47 10000 5.14 130 15:51 05.04.2022
2214 Clear 15 1014 45 10000 3.6 120 15:30 05.04.2022
2215 Clear 15 1015 41 10000 3.09 110 13:49 05.04.2022
2216 Clear 14 1016 42 10000 1.54 100 12:33 05.04.2022
2217 Clear 13 1016 43 10000 1.34 49 11:43 05.04.2022
2218 Clear 13 1016 45 10000 2.57 340 11:24 05.04.2022
2219 Clear 8 1016 59 10000 6.17 330 09:31 05.04.2022
2220 Clear 7 1016 61 10000 6.17 330 08:33 05.04.2022
2221 Clear 8 1017 60 10000 4.63 320 04:19 05.04.2022
2222 Clear 9 1017 60 10000 3.09 20 23:45 04.04.2022
2223 Clear 10 1017 56 10000 6.17 70 22:38 04.04.2022
2224 Clear 10 1017 57 10000 7.72 80 21:51 04.04.2022
2225 Clear 11 1016 58 10000 7.72 80 21:20 04.04.2022
2226 Clear 11 1016 60 10000 7.2 80 20:47 04.04.2022
2227 Clear 12 1016 57 10000 6.71 265 19:30 04.04.2022
2228 Clear 12 1016 55 10000 5.36 265 18:46 04.04.2022
2229 Clouds 12 1016 51 10000 3.09 100 17:33 04.04.2022
2230 Clouds 12 1016 47 10000 5.14 100 16:36 04.04.2022
2231 Clear 12 1017 45 10000 5.66 100 15:34 04.04.2022
2232 Clouds 12 1017 50 10000 5.14 100 14:49 04.04.2022
2233 Clouds 12 1017 52 10000 5.66 100 14:31 04.04.2022
2234 Clouds 11 1018 53 10000 4.12 100 13:18 04.04.2022
2235 Clouds 9 1019 63 10000 2.57 350 11:29 04.04.2022
2236 Clouds 8 1019 69 10000 3.6 320 10:49 04.04.2022
2237 Clouds 5 1018 75 10000 3.6 340 07:36 04.04.2022
2238 Clouds 6 1019 76 10000 2.57 330 03:19 04.04.2022
2239 Clouds 6 1019 73 10000 2.06 360 00:25 04.04.2022
2240 Clouds 7 1019 73 10000 4.63 80 22:31 03.04.2022
2241 Clouds 7 1018 73 10000 4.12 80 21:37 03.04.2022
2242 Clouds 7 1017 72 10000 3.6 60 20:41 03.04.2022
2243 Clouds 8 1017 69 10000 3.6 100 19:45 03.04.2022
2244 Clouds 8 1016 69 10000 3.6 110 18:31 03.04.2022
2245 Clouds 8 1016 70 10000 3.09 120 17:46 03.04.2022
2246 Drizzle 8 1016 73 10000 3.09 110 16:50 03.04.2022
2247 Drizzle 7 1016 73 10000 2.57 110 16:31 03.04.2022
2248 Rain 7 1017 70 10000 4.63 150 14:38 03.04.2022
2249 Rain 8 1017 63 10000 3.6 160 13:46 03.04.2022
2250 Clouds 8 1016 51 10000 2.57 290 12:38 03.04.2022
2251 Clouds 6 1016 49 10000 3.09 10 10:58 03.04.2022
2252 Clouds 6 1016 47 10000 5.14 320 09:36 03.04.2022
2253 Clouds 6 1015 47 10000 4.63 320 08:27 03.04.2022
2254 Clouds 7 1014 54 10000 3.13 245 04:37 03.04.2022
2255 Clouds 8 1014 61 10000 2.57 50 00:41 03.04.2022
2256 Clouds 9 1014 58 10000 9.26 80 23:21 02.04.2022
2257 Clouds 10 1013 60 10000 9.26 50 21:58 02.04.2022
2258 Clouds 10 1013 61 10000 9.26 50 21:36 02.04.2022
2259 Clouds 10 1013 61 10000 8.75 50 21:18 02.04.2022
2260 Clouds 11 1011 58 10000 9.77 50 19:53 02.04.2022
2261 Clouds 14 1010 36 10000 7.6 75 18:23 02.04.2022
2262 Clouds 15 1009 32 10000 10.29 270 17:53 02.04.2022
2263 Clouds 16 1009 26 10000 5.66 270 16:27 02.04.2022
2264 Clouds 15 1010 28 10000 9.26 270 15:22 02.04.2022
2265 Clouds 14 1010 30 10000 7.72 300 14:49 02.04.2022
2266 Clear 12 1010 35 10000 9.77 290 13:36 02.04.2022
2267 Clear 11 1010 36 10000 9.26 290 12:47 02.04.2022
2268 Clear 10 1010 40 10000 9.77 310 11:31 02.04.2022
2269 Clear 6 1010 55 10000 5.14 310 09:30 02.04.2022
2270 Clear 5 1009 63 10000 6.69 320 06:51 02.04.2022
2271 Clear 5 1009 63 10000 6.69 320 06:51 02.04.2022
2272 Clear 5 1009 59 10000 5.14 240 03:53 02.04.2022
2273 Clear 8 1010 35 10000 7.2 270 00:19 02.04.2022
2274 Clear 9 1010 29 10000 6.17 280 23:40 01.04.2022
2275 Clouds 10 1009 25 10000 4.63 280 21:52 01.04.2022
2276 Clouds 11 1008 22 10000 6.17 320 20:52 01.04.2022
2277 Clouds 11 1008 21 10000 9.77 310 20:30 01.04.2022
2278 Clouds 12 1007 17 10000 9.26 300 19:37 01.04.2022
2279 Clouds 13 1006 16 10000 10.8 300 18:51 01.04.2022
2280 Clouds 14 1006 15 10000 11.83 310 17:54 01.04.2022
2281 Clouds 14 1005 15 10000 9.77 300 17:34 01.04.2022
2282 Clouds 14 1005 19 10000 10.29 300 15:42 01.04.2022
2283 Clouds 14 1005 20 10000 10.29 310 14:26 01.04.2022
2284 Clouds 13 1005 22 10000 8.23 300 13:34 01.04.2022
2285 Clouds 12 1005 25 10000 7.72 300 12:33 01.04.2022
2286 Clouds 12 1005 25 10000 7.72 300 12:33 01.04.2022
2287 Clouds 12 1004 27 10000 5.66 320 11:44 01.04.2022
2288 Clouds 10 1003 40 10000 7.2 310 10:19 01.04.2022
2289 Clouds 9 1002 50 10000 5.66 320 09:29 01.04.2022
2290 Clouds 9 1000 71 10000 5.66 300 06:55 01.04.2022
2291 Clouds 9 1000 77 10000 4.12 250 04:53 01.04.2022
2292 Clear 9 1001 77 10000 4.12 330 04:34 01.04.2022
2293 Clouds 10 1001 81 10000 2.57 320 01:58 01.04.2022
2294 Clouds 10 1001 80 10000 1.54 360 00:44 01.04.2022
2295 Clouds 11 1001 78 10000 3.09 20 21:55 31.03.2022
2296 Clouds 11 1000 78 10000 4.12 40 21:33 31.03.2022
2297 Clouds 11 999 78 10000 5.14 50 20:30 31.03.2022
2298 Clouds 12 999 76 10000 6.69 70 19:50 31.03.2022
2299 Rain 13 999 75 10000 5.36 31 18:52 31.03.2022
2300 Clouds 14 998 75 10000 3.6 170 17:54 31.03.2022
2301 Clouds 14 998 76 10000 5.66 120 16:40 31.03.2022
2302 Clouds 15 999 73 10000 4.63 140 15:48 31.03.2022
2303 Clouds 15 999 70 10000 4.63 140 15:20 31.03.2022
2304 Clouds 15 999 72 10000 4.63 120 14:40 31.03.2022
2305 Clouds 14 1000 72 10000 5.14 340 12:30 31.03.2022
2306 Clouds 14 1000 72 10000 5.14 340 12:30 31.03.2022
2307 Clouds 13 999 73 10000 5.66 320 11:28 31.03.2022
2308 Clouds 12 999 77 10000 3.6 330 09:50 31.03.2022
2309 Clouds 11 998 80 10000 3.6 280 08:23 31.03.2022
2310 Clouds 12 999 81 10000 2.57 320 06:21 31.03.2022
2311 Clouds 12 1001 92 10000 1.54 190 00:46 31.03.2022
2312 Rain 12 1001 92 10000 2.06 210 23:23 30.03.2022
2313 Clouds 12 1001 82 10000 1.54 190 21:41 30.03.2022
2314 Clouds 12 1001 80 10000 2.06 170 20:55 30.03.2022
2315 Drizzle 12 1000 78 10000 2.57 190 20:20 30.03.2022
2316 Clouds 13 1000 77 10000 3.6 120 19:36 30.03.2022
2317 Clouds 14 1000 74 10000 4.63 130 18:34 30.03.2022
2318 Clouds 14 1000 74 10000 4.63 130 17:48 30.03.2022
2319 Clouds 14 1000 74 10000 2.24 335 16:57 30.03.2022
2320 Clouds 14 1000 74 10000 2.24 326 16:38 30.03.2022
2321 Clouds 14 1001 75 10000 2.06 130 15:24 30.03.2022
2322 Clouds 13 1002 79 10000 2.06 150 13:44 30.03.2022
2323 Clouds 12 1003 81 10000 1.54 40 12:58 30.03.2022
2324 Clouds 11 1003 83 10000 2.06 310 11:36 30.03.2022
2325 Clouds 11 1003 83 9000 2.06 60 10:31 30.03.2022
2326 Clouds 11 1002 82 6000 3.09 340 09:25 30.03.2022
2327 Rain 12 1002 77 10000 4.12 320 07:33 30.03.2022
2328 Clouds 13 1001 66 10000 6.17 10 05:41 30.03.2022
2329 Clouds 14 1002 64 10000 7.2 30 04:19 30.03.2022
2330 Clouds 14 1005 68 10000 7.2 50 00:42 30.03.2022
2331 Clouds 15 1006 70 10000 8.23 50 22:34 29.03.2022
2332 Clouds 15 1006 69 10000 7.2 50 21:45 29.03.2022
2333 Clouds 15 1006 71 10000 8.23 60 20:54 29.03.2022
2334 Clouds 15 1006 69 10000 7.72 60 20:20 29.03.2022
2335 Clouds 15 1006 68 10000 9.26 50 18:56 29.03.2022
2336 Rain 15 1006 70 10000 7.72 60 18:31 29.03.2022
2337 Clouds 16 1007 70 10000 6.69 50 17:36 29.03.2022
2338 Clouds 16 1007 71 10000 8.23 50 16:58 29.03.2022
2339 Clouds 15 1009 72 10000 6.69 60 15:58 29.03.2022
2340 Clouds 15 1010 77 10000 6.17 70 14:53 29.03.2022
2341 Clouds 15 1011 77 10000 6.17 70 14:18 29.03.2022
2342 Clouds 15 1012 74 10000 6.17 70 12:53 29.03.2022
2343 Clear 15 1012 64 10000 4.12 90 11:43 29.03.2022
2344 Clear 14 1012 61 10000 2.06 330 10:51 29.03.2022
2345 Clear 13 1012 62 10000 3.6 330 09:49 29.03.2022
2346 Clear 13 1012 62 10000 3.6 330 09:49 29.03.2022
2347 Clouds 12 1013 69 10000 3.6 330 07:57 29.03.2022
2348 Clouds 12 1015 66 10000 1.54 310 04:47 29.03.2022
2349 Clear 13 1018 74 10000 0.51 0 00:36 29.03.2022
2350 Clear 13 1018 73 10000 1.03 80 23:24 28.03.2022
2351 Clear 13 1018 71 10000 1.54 70 22:53 28.03.2022
2352 Clear 13 1019 70 10000 1.03 0 22:26 28.03.2022
2353 Clear 14 1019 68 10000 2.06 70 20:58 28.03.2022
2354 Clear 15 1019 65 10000 3.09 140 20:23 28.03.2022
2355 Clear 16 1019 60 10000 3.6 120 19:44 28.03.2022
2356 Clear 16 1019 58 10000 3.6 120 19:25 28.03.2022
2357 Clear 17 1020 55 10000 3.6 140 18:40 28.03.2022
2358 Clear 18 1020 49 10000 3.6 110 17:39 28.03.2022
2359 Clear 19 1020 43 10000 3.09 80 16:21 28.03.2022
2360 Clear 19 1022 39 10000 3.09 100 14:47 28.03.2022
2361 Clear 19 1023 39 10000 3.09 130 14:21 28.03.2022
2362 Clear 18 1025 43 10000 2.57 70 12:20 28.03.2022
2363 Clear 17 1025 48 10000 1.54 350 11:24 28.03.2022
2364 Clear 14 1025 58 10000 4.63 330 09:43 28.03.2022
2365 Clear 13 1024 61 10000 5.14 330 09:19 28.03.2022
2366 Clouds 11 1024 62 10000 4.63 330 08:22 28.03.2022
2367 Clouds 11 1024 64 10000 5.14 320 07:28 28.03.2022
2368 Clouds 12 1025 66 10000 3.09 330 03:52 28.03.2022
2369 Clouds 13 1026 70 10000 1.54 30 23:30 27.03.2022
2370 Clouds 14 1026 68 10000 2.57 70 22:24 27.03.2022
2371 Clear 14 1025 67 10000 3.6 60 21:42 27.03.2022
2372 Clear 15 1025 66 10000 7.2 70 20:57 27.03.2022
2373 Clear 16 1024 58 10000 5.66 80 19:48 27.03.2022
2374 Clear 17 1024 56 10000 5.14 70 19:24 27.03.2022
2375 Clear 18 1024 48 10000 7.2 70 18:27 27.03.2022
2376 Clear 18 1023 46 10000 5.66 70 17:39 27.03.2022
2377 Clear 19 1023 50 10000 5.66 70 16:31 27.03.2022
2378 Clouds 19 1023 47 10000 6.69 70 15:25 27.03.2022
2379 Clouds 19 1024 42 10000 6.69 70 13:56 27.03.2022
2380 Clouds 18 1024 52 10000 6.69 50 12:31 27.03.2022
2381 Clouds 16 1024 55 10000 5.66 40 11:20 27.03.2022
2382 Clouds 13 1023 68 10000 4.12 10 08:53 27.03.2022
2383 Clouds 12 1022 72 10000 5.14 20 05:54 27.03.2022
2384 Clouds 12 1022 74 10000 2.57 360 00:48 27.03.2022
2385 Clouds 12 1022 75 10000 3.09 10 23:46 26.03.2022
2386 Clouds 12 1022 73 10000 6.17 50 22:38 26.03.2022
2387 Clouds 12 1022 73 10000 6.17 30 21:38 26.03.2022
2388 Clouds 12 1022 73 10000 6.17 30 21:38 26.03.2022
2389 Clouds 12 1022 72 10000 6.17 30 20:57 26.03.2022
2390 Clouds 13 1021 67 10000 5.14 60 19:29 26.03.2022
2391 Clouds 14 1020 67 10000 7.72 50 17:54 26.03.2022
2392 Clouds 14 1020 67 10000 7.72 50 17:54 26.03.2022
2393 Clouds 14 1020 68 10000 7.72 60 17:33 26.03.2022
2394 Clouds 14 1020 66 10000 7.72 60 16:27 26.03.2022
2395 Rain 13 1020 68 10000 6.17 60 15:20 26.03.2022
2396 Rain 13 1021 72 10000 6.69 40 13:53 26.03.2022
2397 Rain 13 1021 68 10000 7.72 60 12:59 26.03.2022
2398 Rain 14 1021 62 10000 7.2 50 11:41 26.03.2022
2399 Rain 14 1021 62 10000 7.2 50 11:41 26.03.2022
2400 Rain 14 1021 62 10000 7.2 50 11:41 26.03.2022
2401 Rain 13 1021 62 10000 6.69 40 10:28 26.03.2022
2402 Clouds 12 1020 67 10000 7.72 50 08:35 26.03.2022
2403 Drizzle 12 1020 66 10000 6.69 50 06:25 26.03.2022
2404 Clear 12 1020 65 10000 7.72 50 05:22 26.03.2022
2405 Clouds 12 1021 72 10000 5.66 50 00:28 26.03.2022
2406 Clear 12 1021 72 10000 7.72 60 21:49 25.03.2022
2407 Clouds 13 1021 71 10000 7.72 60 20:46 25.03.2022
2408 Clouds 13 1020 71 10000 7.72 70 19:38 25.03.2022
2409 Clouds 14 1020 68 10000 7.72 70 18:47 25.03.2022
2410 Clouds 14 1020 66 10000 8.23 80 17:47 25.03.2022
2411 Clear 15 1020 62 10000 8.75 80 17:27 25.03.2022
2412 Clear 16 1020 56 10000 8.75 80 16:18 25.03.2022
2413 Clouds 16 1021 44 10000 10.8 80 14:26 25.03.2022
2414 Clear 16 1022 57 10000 8.75 60 12:57 25.03.2022
2415 Clear 15 1023 50 10000 6.69 60 10:22 25.03.2022
2416 Clear 14 1023 59 10000 4.63 50 09:28 25.03.2022
2417 Clear 12 1023 66 10000 4.63 50 08:24 25.03.2022
2418 Clear 11 1023 70 10000 6.17 60 07:28 25.03.2022
2419 Clouds 11 1022 69 10000 5.66 70 06:24 25.03.2022
2420 Clear 12 1024 70 10000 5.14 50 01:18 25.03.2022
2421 Clouds 12 1025 68 10000 5.14 60 22:51 24.03.2022
2422 Clouds 13 1025 70 10000 4.63 60 21:45 24.03.2022
2423 Drizzle 13 1025 69 10000 4.63 60 20:37 24.03.2022
2424 Clouds 13 1025 68 10000 5.14 60 19:47 24.03.2022
2425 Clouds 13 1024 68 10000 3.58 114 17:48 24.03.2022
2426 Clouds 13 1024 66 10000 3.13 266 17:19 24.03.2022
2427 Clouds 13 1025 62 10000 6.17 50 15:45 24.03.2022
2428 Clouds 13 1025 59 10000 8.23 40 14:50 24.03.2022
2429 Clouds 13 1025 59 10000 8.23 50 14:19 24.03.2022
2430 Clouds 13 1026 61 10000 7.2 50 13:23 24.03.2022
2431 Clouds 13 1026 63 10000 7.2 50 11:52 24.03.2022
2432 Clouds 12 1026 69 10000 7.2 60 10:18 24.03.2022
2433 Clouds 11 1025 70 10000 5.14 50 08:49 24.03.2022
2434 Drizzle 10 1025 72 10000 3.6 30 06:55 24.03.2022
2435 Clouds 10 1025 73 10000 2.57 340 03:59 24.03.2022
2436 Clouds 11 1026 73 10000 7.2 70 23:20 23.03.2022
2437 Clouds 12 1027 73 10000 6.69 80 21:45 23.03.2022
2438 Clouds 12 1026 74 10000 6.69 80 21:20 23.03.2022
2439 Clouds 12 1026 72 10000 6.17 80 19:46 23.03.2022
2440 Clouds 12 1026 69 10000 6.69 80 18:59 23.03.2022
2441 Clouds 13 1026 67 10000 7.2 70 17:38 23.03.2022
2442 Clouds 14 1026 65 10000 7.72 80 16:50 23.03.2022
2443 Clouds 14 1026 67 10000 7.72 60 14:52 23.03.2022
2444 Drizzle 13 1026 65 10000 6.69 60 14:32 23.03.2022
2445 Clouds 12 1028 67 10000 7.2 50 13:21 23.03.2022
2446 Clouds 12 1028 71 10000 7.2 50 10:20 23.03.2022
2447 Clouds 10 1027 74 10000 3.6 320 07:44 23.03.2022
2448 Clouds 9 1027 72 10000 4.12 340 05:27 23.03.2022
2449 Clouds 10 1029 73 10000 3.6 30 01:18 23.03.2022
2450 Clouds 10 1029 71 10000 4.63 50 00:23 23.03.2022
2451 Clouds 11 1029 70 10000 7.72 70 21:31 22.03.2022
2452 Clouds 11 1029 70 10000 6.69 70 20:55 22.03.2022
2453 Clouds 12 1029 68 10000 7.2 80 19:56 22.03.2022
2454 Clouds 12 1029 68 10000 6.69 80 19:25 22.03.2022
2455 Clouds 13 1029 65 10000 8.23 80 18:45 22.03.2022
2456 Clouds 13 1028 63 10000 7.72 80 17:42 22.03.2022
2457 Clouds 14 1028 61 10000 7.72 90 16:35 22.03.2022
2458 Clouds 13 1029 61 10000 7.72 90 15:37 22.03.2022
2459 Clouds 14 1029 60 10000 5.66 100 15:18 22.03.2022
2460 Clouds 14 1029 59 10000 8.75 80 14:41 22.03.2022
2461 Clouds 13 1030 60 10000 8.23 80 13:37 22.03.2022
2462 Clouds 13 1030 66 10000 7.72 100 11:52 22.03.2022
2463 Clouds 12 1029 72 10000 7.2 100 10:51 22.03.2022
2464 Rain 10 1028 79 10000 6.17 50 08:40 22.03.2022
2465 Clouds 10 1028 76 10000 7.2 40 07:21 22.03.2022
2466 Clouds 11 1028 76 10000 5.66 60 03:54 22.03.2022
2467 Clouds 11 1028 75 10000 7.2 60 00:46 22.03.2022
2468 Clouds 11 1029 75 10000 9.26 60 22:46 21.03.2022
2469 Clouds 12 1028 75 10000 8.75 70 21:20 21.03.2022
2470 Clouds 12 1028 75 10000 8.23 70 20:43 21.03.2022
2471 Clouds 12 1028 75 10000 8.23 70 20:21 21.03.2022
2472 Clouds 12 1028 76 10000 7.72 80 19:35 21.03.2022
2473 Clouds 13 1027 74 10000 8.23 80 18:47 21.03.2022
2474 Clouds 13 1027 72 10000 7.72 80 17:35 21.03.2022
2475 Clouds 13 1028 72 10000 8.23 80 16:58 21.03.2022
2476 Clouds 14 1028 72 10000 8.23 90 16:24 21.03.2022
2477 Clouds 14 1028 72 10000 8.75 80 15:21 21.03.2022
2478 Clouds 14 1028 72 10000 6.17 90 14:29 21.03.2022
2479 Clouds 14 1029 74 10000 8.75 80 12:58 21.03.2022
2480 Clouds 14 1029 77 10000 8.75 80 11:57 21.03.2022
2481 Clouds 13 1029 77 10000 7.72 80 10:59 21.03.2022
2482 Clouds 13 1028 80 10000 5.66 80 09:42 21.03.2022
2483 Clouds 13 1027 81 10000 5.14 80 07:22 21.03.2022
2484 Clouds 12 1027 81 10000 6.17 80 05:42 21.03.2022
2485 Clouds 13 1027 81 9000 4.63 80 00:46 21.03.2022
2486 Clouds 13 1027 81 8000 5.14 80 22:56 20.03.2022
2487 Clouds 13 1027 81 8000 5.14 80 22:23 20.03.2022
2488 Clouds 13 1027 81 10000 4.63 80 21:31 20.03.2022
2489 Clouds 13 1027 81 10000 4.63 80 20:54 20.03.2022
2490 Clouds 13 1027 81 10000 5.14 80 20:27 20.03.2022
2491 Clouds 13 1026 81 10000 4.63 80 19:48 20.03.2022
2492 Clouds 13 1026 81 10000 4.63 80 19:19 20.03.2022
2493 Clouds 14 1026 81 10000 4.12 70 17:43 20.03.2022
2494 Clouds 14 1026 81 10000 4.12 70 17:24 20.03.2022
2495 Clouds 14 1026 80 10000 4.63 60 15:57 20.03.2022
2496 Clouds 14 1026 78 10000 5.14 60 14:38 20.03.2022
2497 Clouds 15 1027 74 10000 6.69 70 13:38 20.03.2022
2498 Clouds 15 1027 76 10000 6.69 70 11:58 20.03.2022
2499 Clouds 13 1026 76 10000 8.23 60 09:59 20.03.2022
2500 Clouds 12 1026 76 10000 5.14 50 08:19 20.03.2022
2501 Clouds 11 1025 77 10000 2.57 330 05:49 20.03.2022
2502 Clouds 11 1026 78 10000 3.09 320 03:18 20.03.2022
2503 Clouds 11 1026 76 10000 2.06 10 00:53 20.03.2022
2504 Clouds 11 1027 75 10000 2.06 360 00:28 20.03.2022
2505 Clouds 12 1027 73 10000 1.54 350 22:25 19.03.2022
2506 Clouds 12 1027 74 10000 5.14 40 21:26 19.03.2022
2507 Clouds 13 1026 74 9000 7.72 50 19:22 19.03.2022
2508 Clouds 13 1026 74 9000 6.69 50 18:38 19.03.2022
2509 Clouds 13 1026 74 9000 7.72 60 17:48 19.03.2022
2510 Clouds 13 1026 74 10000 6.17 50 16:46 19.03.2022
2511 Clouds 13 1026 74 8000 8.23 50 15:26 19.03.2022
2512 Clouds 13 1026 75 8000 10.29 50 13:45 19.03.2022
2513 Clouds 13 1027 75 8000 8.75 50 12:43 19.03.2022
2514 Clouds 13 1027 76 8000 9.77 60 12:20 19.03.2022
2515 Clouds 13 1027 78 8000 10.8 50 11:45 19.03.2022
2516 Clouds 12 1026 79 10000 8.75 50 09:22 19.03.2022
2517 Clouds 12 1026 75 10000 10.29 50 04:53 19.03.2022
2518 Clouds 14 1026 65 10000 7.72 60 02:33 19.03.2022
2519 Clouds 14 1026 63 10000 10.29 50 23:52 18.03.2022
2520 Clouds 14 1026 58 10000 10.29 50 22:58 18.03.2022
2521 Clouds 14 1026 55 10000 9.77 60 22:21 18.03.2022
2522 Clouds 14 1025 56 10000 6.69 50 20:26 18.03.2022
2523 Clouds 14 1025 59 10000 7.2 60 19:24 18.03.2022
2524 Clouds 14 1025 61 10000 8.75 60 18:58 18.03.2022
2525 Clouds 15 1024 66 10000 9.26 60 16:56 18.03.2022
2526 Clouds 15 1024 67 10000 8.23 60 16:24 18.03.2022
2527 Clouds 15 1025 65 10000 10.29 60 14:27 18.03.2022
2528 Clouds 15 1025 64 10000 11.32 50 13:40 18.03.2022
2529 Clouds 16 1025 65 10000 10.8 50 11:37 18.03.2022
2530 Clouds 16 1024 64 10000 10.8 50 10:27 18.03.2022
2531 Clouds 15 1023 67 10000 9.77 50 08:46 18.03.2022
2532 Clouds 15 1023 70 10000 7.72 50 07:26 18.03.2022
2533 Clouds 14 1022 72 10000 7.2 30 05:20 18.03.2022
2534 Clouds 15 1022 68 10000 5.66 40 01:51 18.03.2022
2535 Clouds 15 1022 67 10000 5.14 60 00:20 18.03.2022
2536 Clouds 15 1022 64 10000 3.09 30 22:50 17.03.2022
2537 Clouds 15 1022 65 10000 5.14 40 22:19 17.03.2022
2538 Clouds 14 1022 67 10000 7.2 40 21:31 17.03.2022
2539 Clouds 14 1022 68 10000 7.2 50 20:54 17.03.2022
2540 Clouds 14 1022 69 10000 7.72 60 20:28 17.03.2022
2541 Clouds 15 1021 70 10000 8.75 70 19:39 17.03.2022
2542 Clouds 15 1021 71 10000 9.26 70 18:55 17.03.2022
2543 Clouds 15 1020 72 10000 10.29 70 17:47 17.03.2022
2544 Clouds 16 1020 71 10000 10.29 70 16:29 17.03.2022
2545 Clouds 17 1019 67 10000 7.72 70 15:43 17.03.2022
2546 Clouds 17 1019 67 10000 11.32 60 15:18 17.03.2022
2547 Clouds 16 1020 70 10000 7.72 70 13:47 17.03.2022
2548 Clouds 16 1020 71 10000 8.75 70 12:47 17.03.2022
2549 Clouds 16 1020 73 10000 9.26 70 11:40 17.03.2022
2550 Clouds 15 1020 75 10000 8.75 60 10:58 17.03.2022
2551 Rain 14 1019 76 10000 6.69 70 09:40 17.03.2022
2552 Rain 14 1019 77 10000 7.72 60 08:21 17.03.2022
2553 Rain 14 1018 78 10000 7.72 70 06:18 17.03.2022
2554 Clouds 14 1018 77 10000 8.23 60 05:25 17.03.2022
2555 Clouds 15 1018 66 10000 8.75 50 00:33 17.03.2022
2556 Clouds 15 1018 70 10000 8.23 60 22:58 16.03.2022
2557 Clouds 15 1018 71 10000 8.23 60 22:37 16.03.2022
2558 Clouds 15 1018 74 10000 8.23 60 21:58 16.03.2022
2559 Clouds 14 1017 75 10000 8.75 60 21:18 16.03.2022
2560 Clouds 15 1017 75 10000 9.77 60 19:25 16.03.2022
2561 Clouds 15 1016 76 10000 9.77 60 18:43 16.03.2022
2562 Clouds 15 1016 77 10000 9.77 70 18:18 16.03.2022
2563 Clouds 15 1016 75 10000 10.8 70 17:36 16.03.2022
2564 Clouds 15 1016 76 10000 12.86 60 16:36 16.03.2022
2565 Clouds 15 1017 76 10000 11.32 60 15:35 16.03.2022
2566 Clouds 15 1019 76 10000 11.32 50 13:41 16.03.2022
2567 Clouds 15 1019 77 10000 10.8 60 12:57 16.03.2022
2568 Clouds 14 1020 78 10000 10.8 60 11:26 16.03.2022
2569 Clouds 14 1020 79 10000 10.8 60 10:43 16.03.2022
2570 Clouds 14 1020 79 9000 10.29 50 09:58 16.03.2022
2571 Clouds 14 1020 80 9000 9.77 60 08:37 16.03.2022
2572 Clouds 13 1021 80 9000 8.75 60 03:30 16.03.2022
2573 Clouds 14 1023 81 9000 8.75 50 23:37 15.03.2022
2574 Clouds 14 1023 81 9000 9.26 50 22:37 15.03.2022
2575 Clouds 14 1023 81 9000 9.26 60 21:27 15.03.2022
2576 Clouds 14 1023 80 6000 9.77 60 19:47 15.03.2022
2577 Clouds 14 1023 80 7000 9.77 60 18:38 15.03.2022
2578 Clouds 15 1023 79 7000 10.8 60 16:45 15.03.2022
2579 Clouds 15 1023 78 7000 10.8 60 16:18 15.03.2022
2580 Clouds 15 1024 79 8000 11.83 60 14:55 15.03.2022
2581 Clouds 15 1024 79 7000 10.8 50 14:30 15.03.2022
2582 Clouds 15 1024 80 7000 12.35 50 13:24 15.03.2022
2583 Clouds 15 1025 81 7000 11.32 50 11:48 15.03.2022
2584 Clouds 15 1025 81 6000 11.83 50 11:19 15.03.2022
2585 Drizzle 14 1025 83 7000 11.32 50 09:31 15.03.2022
2586 Drizzle 14 1024 83 9000 11.32 50 08:32 15.03.2022
2587 Clouds 14 1023 83 8000 11.32 50 07:44 15.03.2022
2588 Clouds 14 1023 82 6000 11.32 50 06:32 15.03.2022
2589 Clouds 14 1023 81 8000 9.77 50 01:59 15.03.2022
2590 Clouds 14 1023 81 9000 11.32 60 23:36 14.03.2022
2591 Clouds 14 1023 81 9000 10.8 60 23:18 14.03.2022
2592 Clouds 14 1022 81 10000 11.32 60 21:57 14.03.2022
2593 Clouds 14 1022 81 10000 12.86 60 21:20 14.03.2022
2594 Clouds 14 1022 80 10000 11.83 50 20:31 14.03.2022
2595 Clouds 14 1021 80 10000 12.86 50 19:47 14.03.2022
2596 Drizzle 14 1021 81 10000 12.86 60 18:23 14.03.2022
2597 Clouds 14 1020 79 10000 12.35 60 17:43 14.03.2022
2598 Clouds 14 1020 78 10000 11.83 50 16:54 14.03.2022
2599 Clouds 14 1020 77 10000 12.86 60 15:29 14.03.2022
2600 Clouds 14 1020 77 10000 11.32 60 14:24 14.03.2022
2601 Rain 13 1021 80 10000 10.29 60 11:36 14.03.2022
2602 Rain 13 1021 80 10000 10.29 60 10:23 14.03.2022
2603 Clouds 13 1021 81 10000 10.29 60 09:38 14.03.2022
2604 Clouds 13 1021 81 10000 10.29 60 09:19 14.03.2022
2605 Clouds 12 1021 80 10000 9.26 60 08:46 14.03.2022
2606 Clouds 12 1020 76 10000 9.26 60 07:21 14.03.2022
2607 Clouds 12 1019 67 10000 9.77 60 04:27 14.03.2022
2608 Clouds 12 1020 75 10000 5.66 60 01:52 14.03.2022
2609 Clouds 12 1020 76 10000 5.66 70 00:38 14.03.2022
2610 Clouds 12 1019 79 10000 6.69 70 21:56 13.03.2022
2611 Clouds 12 1019 81 10000 7.72 70 21:28 13.03.2022
2612 Clouds 12 1018 81 10000 5.81 253 20:53 13.03.2022
2613 Clear 13 1017 81 10000 7.15 243 20:28 13.03.2022
2614 Clear 13 1017 80 10000 1.03 0 19:43 13.03.2022
2615 Clear 13 1016 80 10000 2.06 140 19:25 13.03.2022
2616 Clear 14 1016 75 10000 3.09 200 18:50 13.03.2022
2617 Clouds 15 1015 71 10000 3.6 190 18:27 13.03.2022
2618 Clouds 16 1014 66 10000 3.09 310 17:40 13.03.2022
2619 Clouds 16 1014 65 10000 4.12 280 16:48 13.03.2022
2620 Clouds 15 1014 70 10000 4.63 300 16:27 13.03.2022
2621 Clouds 15 1014 75 10000 6.69 290 15:44 13.03.2022
2622 Clouds 15 1013 77 10000 1.34 311 14:49 13.03.2022
2623 Clouds 14 1013 82 10000 2.57 350 13:30 13.03.2022
2624 Clouds 13 1013 82 10000 2.06 340 12:37 13.03.2022
2625 Clouds 13 1014 82 10000 1.03 320 11:51 13.03.2022
2626 Rain 13 1014 81 10000 0.51 0 11:25 13.03.2022
2627 Rain 13 1013 80 10000 0.51 0 10:44 13.03.2022
2628 Clouds 12 1013 82 10000 1.54 340 09:43 13.03.2022
2629 Clouds 12 1013 83 10000 2.57 320 09:20 13.03.2022
2630 Clear 10 1013 83 10000 3.6 340 08:39 13.03.2022
2631 Clouds 9 1013 82 10000 3.09 310 07:37 13.03.2022
2632 Clouds 10 1012 82 10000 2.57 330 05:39 13.03.2022
2633 Clear 10 1013 83 10000 4.12 310 01:48 13.03.2022
2634 Clouds 11 1014 84 10000 3.09 330 23:31 12.03.2022
2635 Clouds 12 1014 84 10000 1.54 340 21:49 12.03.2022
2636 Clouds 12 1014 82 10000 2.57 20 20:29 12.03.2022
2637 Clouds 12 1013 81 10000 2.57 20 19:47 12.03.2022
2638 Clouds 12 1012 81 10000 5.14 30 18:55 12.03.2022
2639 Clouds 13 1012 81 10000 7.2 30 18:21 12.03.2022
2640 Clouds 13 1012 81 10000 5.14 330 17:23 12.03.2022
2641 Clouds 13 1011 81 10000 5.14 330 16:23 12.03.2022
2642 Clouds 13 1011 83 10000 6.17 320 15:22 12.03.2022
2643 Rain 12 1011 83 10000 5.66 320 14:27 12.03.2022
2644 Rain 12 1012 85 5000 4.12 320 12:35 12.03.2022
2645 Rain 12 1012 85 5000 4.12 320 11:56 12.03.2022
2646 Rain 12 1012 85 5000 3.09 360 11:34 12.03.2022
2647 Rain 12 1012 85 5000 2.68 247 10:52 12.03.2022
2648 Rain 11 1012 84 6000 2.57 340 09:44 12.03.2022
2649 Rain 11 1012 83 8000 1.54 40 08:53 12.03.2022
2650 Rain 12 1011 82 10000 3.09 120 06:53 12.03.2022
2651 Rain 12 1014 83 10000 2.06 90 01:44 12.03.2022
2652 Drizzle 12 1015 84 10000 2.57 40 23:52 11.03.2022
2653 Clouds 12 1016 83 10000 2.06 60 22:52 11.03.2022
2654 Clouds 12 1016 83 10000 1.54 90 21:35 11.03.2022
2655 Rain 12 1016 81 10000 1.54 110 20:54 11.03.2022
2656 Rain 12 1016 83 10000 2.06 110 20:28 11.03.2022
2657 Clouds 12 1016 85 10000 1.03 0 19:42 11.03.2022
2658 Clouds 12 1016 84 10000 1.03 0 19:20 11.03.2022
2659 Clouds 13 1015 84 8000 2.57 150 17:29 11.03.2022
2660 Clouds 13 1015 82 9000 3.09 170 16:27 11.03.2022
2661 Clouds 13 1016 81 10000 3.6 120 15:53 11.03.2022
2662 Clouds 14 1016 80 10000 4.12 130 14:19 11.03.2022
2663 Clouds 14 1018 79 10000 4.12 120 12:44 11.03.2022
2664 Clouds 14 1017 79 10000 3.09 170 12:20 11.03.2022
2665 Clouds 14 1018 80 10000 3.09 170 11:43 11.03.2022
2666 Mist 12 1018 86 9000 1.54 20 09:39 11.03.2022
2667 Clouds 11 1017 85 9000 0.51 40 08:40 11.03.2022
2668 Mist 11 1017 85 9000 0 0 07:49 11.03.2022
2669 Mist 11 1018 84 10000 0.51 360 07:28 11.03.2022
2670 Clouds 11 1017 84 10000 1.54 300 05:42 11.03.2022
2671 Clouds 11 1019 84 10000 1.03 280 02:56 11.03.2022
2672 Clouds 12 1020 84 10000 1.03 0 22:56 10.03.2022
2673 Clouds 12 1020 85 10000 1.03 180 22:28 10.03.2022
2674 Clouds 12 1021 85 10000 2.06 190 21:27 10.03.2022
2675 Clouds 12 1021 85 10000 2.06 180 20:45 10.03.2022
2676 Clouds 13 1021 83 10000 2.57 190 19:23 10.03.2022
2677 Clouds 13 1020 80 10000 4.63 180 18:39 10.03.2022
2678 Clouds 14 1020 77 10000 5.66 180 16:54 10.03.2022
2679 Clouds 15 1021 76 10000 5.36 348 15:49 10.03.2022
2680 Clouds 15 1021 77 10000 6.69 200 14:24 10.03.2022
2681 Clouds 14 1022 80 10000 5.66 210 12:50 10.03.2022
2682 Mist 13 1022 83 10000 5.66 210 11:39 10.03.2022
2683 Mist 12 1023 86 10000 1.03 0 10:24 10.03.2022
2684 Mist 11 1022 84 10000 2.57 310 08:49 10.03.2022
2685 Clouds 10 1022 89 10000 2.06 330 06:36 10.03.2022
2686 Clouds 10 1023 87 10000 2.06 320 03:42 10.03.2022
2687 Clouds 10 1023 86 10000 1.54 290 00:23 10.03.2022
2688 Clouds 10 1024 85 10000 2.57 290 22:46 09.03.2022
2689 Clouds 11 1022 85 10000 1.54 260 21:48 09.03.2022
2690 Clouds 11 1023 84 10000 1.54 240 21:23 09.03.2022
2691 Clouds 12 1022 81 10000 4.12 230 19:40 09.03.2022
2692 Clouds 13 1021 75 10000 4.12 210 18:25 09.03.2022
2693 Clouds 14 1022 73 10000 4.63 210 17:26 09.03.2022
2694 Clouds 14 1022 71 10000 3.6 190 16:24 09.03.2022
2695 Clouds 14 1022 75 10000 2.06 110 14:32 09.03.2022
2696 Clouds 14 1023 76 10000 2.57 100 13:52 09.03.2022
2697 Clouds 12 1024 83 10000 3.6 40 12:36 09.03.2022
2698 Clouds 12 1023 85 10000 4.12 40 11:52 09.03.2022
2699 Clouds 12 1024 84 10000 3.09 40 11:32 09.03.2022
2700 Clouds 10 1023 84 10000 3.6 330 09:45 09.03.2022
2701 Clouds 9 1022 88 10000 3.6 330 08:47 09.03.2022
2702 Clouds 8 1020 90 9000 3.6 330 06:51 09.03.2022
2703 Clouds 9 1020 85 10000 3.09 320 01:54 09.03.2022
2704 Clouds 9 1020 87 10000 2.06 330 00:27 09.03.2022
2705 Clouds 9 1020 89 10000 1.54 300 22:47 08.03.2022
2706 Clouds 10 1019 89 10000 2.06 300 21:52 08.03.2022
2707 Clouds 10 1019 87 10000 2.06 280 21:22 08.03.2022
2708 Clouds 10 1019 87 10000 2.06 250 20:24 08.03.2022
2709 Clouds 11 1018 85 10000 3.6 250 19:24 08.03.2022
2710 Clouds 11 1018 86 10000 4.12 220 18:23 08.03.2022
2711 Clouds 11 1018 86 10000 2.06 190 16:56 08.03.2022
2712 Mist 11 1018 88 10000 1.54 140 14:58 08.03.2022
2713 Rain 11 1017 86 10000 1.79 14 13:54 08.03.2022
2714 Clouds 11 1018 85 10000 2.06 320 12:28 08.03.2022
2715 Clouds 11 1018 79 10000 2.57 320 11:43 08.03.2022
2716 Clouds 11 1018 79 10000 3.6 320 10:29 08.03.2022
2717 Clouds 10 1018 80 10000 3.09 330 08:58 08.03.2022
2718 Clouds 8 1017 84 10000 3.09 320 06:31 08.03.2022
2719 Clear 8 1017 82 10000 3.09 320 03:48 08.03.2022
2720 Clouds 10 1016 76 10000 1.54 180 22:57 07.03.2022
2721 Clouds 11 1017 74 10000 1.54 160 21:46 07.03.2022
2722 Clouds 11 1017 73 10000 1.34 14 21:27 07.03.2022
2723 Clouds 11 1017 71 10000 1.54 150 20:38 07.03.2022
2724 Clouds 12 1017 70 10000 2.06 140 19:50 07.03.2022
2725 Clouds 12 1017 70 10000 1.34 194 19:29 07.03.2022
2726 Clouds 12 1016 70 10000 3.6 140 18:38 07.03.2022
2727 Clouds 13 1016 68 10000 3.6 140 17:33 07.03.2022
2728 Clouds 13 1015 68 10000 3.6 120 16:55 07.03.2022
2729 Clouds 13 1016 66 10000 5.14 80 14:57 07.03.2022
2730 Clouds 12 1017 63 10000 4.63 80 12:48 07.03.2022
2731 Clouds 11 1017 63 10000 4.63 70 12:20 07.03.2022
2732 Clouds 11 1017 69 10000 5.66 80 10:35 07.03.2022
2733 Clouds 10 1016 82 10000 2.06 340 08:35 07.03.2022
2734 Clouds 9 1016 82 10000 2.06 330 02:58 07.03.2022
2735 Clouds 10 1016 82 10000 1.03 340 00:21 07.03.2022
2736 Clouds 10 1017 81 10000 0.51 0 23:29 06.03.2022
2737 Clouds 10 1017 82 10000 2.06 290 22:32 06.03.2022
2738 Clouds 10 1016 80 10000 1.03 0 21:45 06.03.2022
2739 Clouds 10 1016 80 10000 1.34 241 20:30 06.03.2022
2740 Clouds 10 1016 79 10000 1.54 160 19:50 06.03.2022
2741 Clouds 11 1015 75 10000 3.09 70 18:51 06.03.2022
2742 Clouds 11 1015 72 10000 3.09 110 17:53 06.03.2022
2743 Clouds 11 1015 71 10000 3.6 90 17:20 06.03.2022
2744 Clouds 12 1015 69 10000 3.6 90 16:40 06.03.2022
2745 Clouds 12 1015 69 10000 3.6 90 16:40 06.03.2022
2746 Clouds 12 1015 67 10000 2.57 110 15:37 06.03.2022
2747 Clouds 12 1015 69 10000 2.57 80 14:49 06.03.2022
2748 Clouds 12 959 70 10000 3.09 90 14:28 06.03.2022
2749 Drizzle 11 1016 79 10000 2.57 90 12:43 06.03.2022
2750 Drizzle 11 1016 84 10000 2.57 90 11:56 06.03.2022
2751 Drizzle 10 1015 87 10000 1.03 0 10:45 06.03.2022
2752 Drizzle 9 1016 88 10000 1.54 270 09:34 06.03.2022
2753 Drizzle 9 1015 88 10000 2.06 60 08:28 06.03.2022
2754 Rain 9 1015 89 10000 2.57 30 07:33 06.03.2022
2755 Rain 10 1014 85 5000 0.51 0 04:45 06.03.2022
2756 Clouds 11 1015 72 10000 2.06 260 00:42 06.03.2022
2757 Clouds 11 1015 71 10000 2.06 260 00:23 06.03.2022
2758 Clouds 11 1015 70 10000 2.06 240 23:19 05.03.2022
2759 Clouds 11 1015 69 10000 2.57 240 22:42 05.03.2022
2760 Clouds 12 1015 68 10000 2.57 250 21:44 05.03.2022
2761 Clouds 12 1015 66 10000 3.09 200 21:19 05.03.2022
2762 Clouds 13 1014 62 10000 3.09 180 19:24 05.03.2022
2763 Clouds 13 1014 61 10000 4.12 220 18:50 05.03.2022
2764 Clouds 14 1014 61 10000 4.12 210 17:41 05.03.2022
2765 Clouds 14 1014 59 10000 5.14 210 16:20 05.03.2022
2766 Clouds 14 1014 57 10000 4.63 210 15:30 05.03.2022
2767 Clouds 15 1015 57 10000 4.63 190 14:44 05.03.2022
2768 Clouds 15 1015 57 10000 4.63 190 14:24 05.03.2022
2769 Clouds 15 1015 55 10000 4.63 190 12:59 05.03.2022
2770 Clouds 15 1016 53 10000 2.06 290 11:43 05.03.2022
2771 Clouds 14 1016 53 10000 4.12 330 11:18 05.03.2022
2772 Clouds 12 1016 60 10000 5.66 320 09:58 05.03.2022
2773 Clouds 10 1016 66 10000 5.66 330 08:57 05.03.2022
2774 Clouds 10 1015 67 10000 5.66 330 07:37 05.03.2022
2775 Clouds 11 1015 64 10000 5.66 310 05:42 05.03.2022
2776 Clouds 10 1015 65 10000 6.17 320 05:42 05.03.2022
2777 Clouds 12 1014 60 10000 4.63 330 01:30 05.03.2022
2778 Clouds 12 1015 76 10000 3.6 320 23:36 04.03.2022
2779 Clouds 13 1015 79 10000 1.54 340 22:42 04.03.2022
2780 Clouds 13 1015 79 10000 2.06 360 21:47 04.03.2022
2781 Clouds 13 1014 81 10000 2.57 20 20:51 04.03.2022
2782 Clouds 13 1014 80 10000 2.57 20 20:21 04.03.2022
2783 Clouds 14 1014 79 10000 3.6 190 19:35 04.03.2022
2784 Clouds 15 1013 76 10000 3.6 210 18:37 04.03.2022
2785 Clouds 16 1012 73 10000 5.14 190 17:30 04.03.2022
2786 Clouds 16 1013 69 10000 5.14 190 16:43 04.03.2022
2787 Clouds 16 1014 67 10000 4.63 190 15:28 04.03.2022
2788 Clouds 16 1014 62 10000 4.12 200 14:19 04.03.2022
2789 Clouds 16 1013 63 10000 4.12 240 13:24 04.03.2022
2790 Clouds 14 1014 71 10000 4.12 330 11:41 04.03.2022
2791 Clouds 13 1014 74 10000 3.6 320 10:42 04.03.2022
2792 Clouds 12 1014 79 10000 4.12 320 09:40 04.03.2022
2793 Clouds 11 1013 82 10000 4.12 320 08:36 04.03.2022
2794 Clouds 10 1013 84 10000 4.63 330 07:23 04.03.2022
2795 Clouds 10 1011 87 10000 3.6 330 03:50 04.03.2022
2796 Clouds 11 1013 84 10000 1.54 330 00:24 04.03.2022
2797 Clouds 11 1013 82 10000 1.54 310 22:26 03.03.2022
2798 Clouds 12 1013 81 10000 3.09 250 21:41 03.03.2022
2799 Clouds 12 1013 81 10000 3.09 250 21:21 03.03.2022
2800 Clouds 13 1013 79 10000 4.63 240 19:51 03.03.2022
2801 Clouds 13 1012 75 10000 0.89 233 18:53 03.03.2022
2802 Clouds 14 1012 71 10000 5.66 220 18:23 03.03.2022
2803 Clouds 15 1013 67 10000 6.69 220 17:30 03.03.2022
2804 Clouds 16 1012 59 10000 6.69 220 16:24 03.03.2022
2805 Clouds 17 1013 57 10000 5.66 220 15:21 03.03.2022
2806 Clouds 17 1014 57 10000 7.2 220 14:42 03.03.2022
2807 Clouds 17 1015 61 10000 0.45 119 13:24 03.03.2022
2808 Clouds 15 1017 67 10000 4.12 260 11:54 03.03.2022
2809 Clouds 14 1016 72 10000 3.13 122 10:47 03.03.2022
2810 Clear 11 1016 79 10000 5.14 320 09:38 03.03.2022
2811 Clouds 9 1017 85 10000 4.63 340 07:48 03.03.2022
2812 Clouds 10 1017 87 10000 2.57 320 06:36 03.03.2022
2813 Clouds 11 1018 87 10000 2.57 60 02:42 03.03.2022
2814 Clouds 12 1019 89 10000 1.03 350 23:34 02.03.2022
2815 Clouds 11 1019 89 10000 2.06 290 22:52 02.03.2022
2816 Clouds 12 1019 88 10000 5.14 230 21:35 02.03.2022
2817 Clouds 12 1018 89 10000 4.12 220 20:55 02.03.2022
2818 Clouds 13 1018 88 10000 3.09 220 20:24 02.03.2022
2819 Clouds 13 1018 88 10000 3.09 220 20:24 02.03.2022
2820 Clouds 13 1018 87 10000 4.12 230 19:37 02.03.2022
2821 Clouds 14 1018 86 10000 5.66 220 18:54 02.03.2022
2822 Clouds 14 1017 85 10000 5.66 220 18:26 02.03.2022
2823 Clouds 14 1019 85 10000 5.14 220 17:36 02.03.2022
2824 Clouds 14 1019 82 10000 4.63 200 16:51 02.03.2022
2825 Clouds 14 1020 79 10000 5.66 190 14:59 02.03.2022
2826 Clouds 14 1021 82 10000 3.09 210 13:30 02.03.2022
2827 Clouds 13 1022 82 10000 1.54 280 12:45 02.03.2022
2828 Clouds 12 1022 82 10000 0.51 0 12:21 02.03.2022
2829 Clouds 12 1022 83 10000 1.54 340 11:26 02.03.2022
2830 Clouds 12 1022 83 10000 2.06 330 10:30 02.03.2022
2831 Clouds 12 1022 83 10000 2.06 330 10:30 02.03.2022
2832 Clouds 11 1023 84 10000 2.57 320 09:31 02.03.2022
2833 Clouds 10 1023 86 9000 3.09 0 08:28 02.03.2022
2834 Clouds 9 1023 86 9000 2.57 330 07:23 02.03.2022
2835 Clouds 9 1023 88 9000 4.12 330 04:46 02.03.2022
2836 Clouds 10 1025 86 10000 2.06 330 00:40 02.03.2022
2837 Clouds 11 1025 85 10000 2.06 310 23:24 01.03.2022
2838 Clouds 11 1026 84 10000 2.06 290 22:37 01.03.2022
2839 Clouds 11 1026 83 10000 1.03 0 21:37 01.03.2022
2840 Clouds 12 1026 82 10000 3.09 120 20:38 01.03.2022
2841 Clouds 12 1026 82 10000 3.09 120 20:19 01.03.2022
2842 Clouds 13 1026 79 10000 1.34 136 18:53 01.03.2022
2843 Clear 14 1025 74 10000 5.14 130 18:22 01.03.2022
2844 Clear 14 974 74 10000 5.14 130 17:42 01.03.2022
2845 Clear 15 1025 62 10000 4.63 120 16:36 01.03.2022
2846 Clouds 16 1025 62 10000 4.63 120 15:47 01.03.2022
2847 Clouds 16 1026 62 10000 5.66 110 14:54 01.03.2022
2848 Clouds 16 1026 62 10000 6.69 100 14:31 01.03.2022
2849 Clouds 16 1027 65 10000 6.17 90 13:26 01.03.2022
2850 Clear 15 1027 66 10000 3.6 110 12:36 01.03.2022
2851 Clear 14 1027 66 10000 2.24 57 11:35 01.03.2022
2852 Clear 12 1025 73 10000 6.17 320 09:52 01.03.2022
2853 Clouds 8 1025 81 10000 5.66 320 08:25 01.03.2022
2854 Clear 9 1024 83 10000 4.12 320 06:47 01.03.2022
2855 Clouds 10 1024 83 10000 2.68 127 03:26 01.03.2022
2856 Clouds 11 1025 80 10000 2.57 250 00:48 01.03.2022
2857 Clouds 11 1025 79 10000 5.14 230 23:46 28.02.2022
2858 Clouds 11 1026 79 10000 4.12 250 22:43 28.02.2022
2859 Clouds 12 1026 78 10000 3.6 250 21:48 28.02.2022
2860 Clouds 12 1026 79 10000 4.12 230 20:54 28.02.2022
2861 Clouds 12 1026 77 10000 5.14 220 19:51 28.02.2022
2862 Clouds 13 1025 76 10000 4.63 210 18:56 28.02.2022
2863 Clouds 14 1025 72 10000 5.66 210 17:43 28.02.2022
2864 Clouds 14 1025 70 10000 5.14 210 17:23 28.02.2022
2865 Clouds 15 1025 68 10000 5.14 200 16:25 28.02.2022
2866 Clouds 14 1027 67 10000 3.6 180 14:33 28.02.2022
2867 Clouds 14 1027 69 10000 3.6 170 13:56 28.02.2022
2868 Clouds 14 1028 68 10000 4.12 160 13:24 28.02.2022
2869 Clouds 14 1028 69 10000 4.63 140 12:29 28.02.2022
2870 Clouds 13 1028 71 10000 4.63 110 11:20 28.02.2022
2871 Clouds 12 1028 71 10000 1.79 69 10:23 28.02.2022
2872 Clouds 12 1027 72 10000 3.09 320 09:53 28.02.2022
2873 Clouds 11 1027 73 10000 3.09 320 09:24 28.02.2022
2874 Clouds 11 1027 73 10000 3.09 320 09:24 28.02.2022
2875 Clouds 10 1027 72 10000 2.57 340 08:22 28.02.2022
2876 Clouds 10 1027 72 10000 2.57 340 08:22 28.02.2022
2877 Clouds 10 1026 69 10000 3.6 320 06:44 28.02.2022
2878 Clouds 10 1026 70 10000 3.6 330 04:31 28.02.2022
2879 Clouds 11 1026 70 10000 3.09 320 01:42 28.02.2022
2880 Clouds 11 1025 70 10000 2.57 330 23:18 27.02.2022
2881 Clouds 11 1025 72 10000 1.54 360 22:33 27.02.2022
2882 Clouds 10 1024 72 10000 2.57 290 21:46 27.02.2022
2883 Clouds 11 1024 70 10000 1.03 160 20:54 27.02.2022
2884 Clouds 11 1024 70 10000 1.03 160 20:25 27.02.2022
2885 Clouds 12 1023 66 10000 1.03 0 19:50 27.02.2022
2886 Clear 12 1023 67 10000 2.57 140 19:26 27.02.2022
2887 Clear 12 1023 64 10000 3.09 210 18:39 27.02.2022
2888 Clear 14 1023 61 10000 4.12 200 17:53 27.02.2022
2889 Clouds 15 1022 58 10000 5.14 190 16:36 27.02.2022
2890 Clouds 15 1022 56 10000 5.14 200 15:42 27.02.2022
2891 Clouds 14 1024 56 10000 3.13 14 12:53 27.02.2022
2892 Clouds 14 1024 58 10000 2.68 335 12:29 27.02.2022
2893 Clouds 13 1023 65 10000 1.54 300 10:50 27.02.2022
2894 Clouds 11 1024 70 10000 3.09 320 09:58 27.02.2022
2895 Clouds 10 1024 73 10000 3.6 320 09:29 27.02.2022
2896 Clear 9 1024 77 10000 4.12 320 08:59 27.02.2022
2897 Clear 8 1023 88 10000 3.09 330 06:43 27.02.2022
2898 Clear 8 1021 82 10000 3.6 340 05:35 27.02.2022
2899 Clouds 9 1025 77 10000 2.06 340 00:37 27.02.2022
2900 Clouds 10 1025 72 10000 1.54 290 22:56 26.02.2022
2901 Clouds 11 1025 71 10000 1.03 0 21:39 26.02.2022
2902 Clouds 11 1024 71 10000 1.03 0 20:48 26.02.2022
2903 Clouds 11 1024 70 10000 2.06 150 20:19 26.02.2022
2904 Clouds 11 1024 68 10000 2.57 150 19:37 26.02.2022
2905 Clouds 12 1024 65 10000 3.09 130 18:49 26.02.2022
2906 Clouds 12 1024 62 10000 2.57 120 17:42 26.02.2022
2907 Clouds 12 1024 58 10000 3.09 130 16:49 26.02.2022
2908 Clouds 12 1024 56 10000 3.09 150 15:49 26.02.2022
2909 Clouds 12 1025 53 10000 4.12 170 15:22 26.02.2022
2910 Clouds 12 1025 51 10000 4.63 100 14:53 26.02.2022
2911 Clouds 12 1025 51 10000 5.66 90 14:33 26.02.2022
2912 Clouds 12 1025 47 10000 5.66 90 13:19 26.02.2022
2913 Clouds 11 1026 50 10000 6.17 80 12:20 26.02.2022
2914 Clouds 11 1026 54 10000 6.17 70 11:28 26.02.2022
2915 Clouds 10 1026 56 10000 5.14 80 10:39 26.02.2022
2916 Clouds 10 1025 68 10000 4.63 70 08:53 26.02.2022
2917 Clouds 10 1025 82 10000 2.24 75 06:51 26.02.2022
2918 Clouds 11 1025 85 10000 3.09 170 00:56 26.02.2022
2919 Clouds 12 1025 84 10000 2.06 180 22:49 25.02.2022
2920 Clouds 12 1025 83 10000 2.06 180 21:43 25.02.2022
2921 Clouds 12 1025 83 10000 2.06 160 21:23 25.02.2022
2922 Clouds 12 1024 83 10000 1.54 140 20:32 25.02.2022
2923 Clouds 13 1024 82 10000 3.6 180 19:18 25.02.2022
2924 Clouds 14 1023 78 10000 4.12 150 17:29 25.02.2022
2925 Clouds 14 1023 76 10000 4.12 140 16:32 25.02.2022
2926 Clouds 15 1024 74 10000 4.63 140 15:47 25.02.2022
2927 Clouds 15 1024 72 10000 4.12 150 15:21 25.02.2022
2928 Clouds 15 1024 72 10000 4.12 160 14:42 25.02.2022
2929 Clouds 15 1024 72 10000 4.12 160 14:42 25.02.2022
2930 Clouds 15 1024 70 10000 3.6 170 13:51 25.02.2022
2931 Clouds 15 1025 70 10000 0.45 3 13:18 25.02.2022
2932 Clouds 13 1026 70 10000 3.09 330 11:28 25.02.2022
2933 Clouds 12 1026 75 10000 3.09 330 10:43 25.02.2022
2934 Clouds 12 1025 76 10000 2.68 144 10:22 25.02.2022
2935 Clouds 11 1025 78 10000 3.6 320 09:30 25.02.2022
2936 Clouds 11 1024 82 10000 2.24 248 07:42 25.02.2022
2937 Clouds 11 1023 85 10000 3.6 330 05:51 25.02.2022
2938 Clouds 11 1023 85 10000 4.63 320 05:31 25.02.2022
2939 Clouds 11 1023 88 10000 2.06 330 00:27 25.02.2022
2940 Clear 12 1023 86 10000 1.54 280 22:00 24.02.2022
2941 Clear 12 1023 86 10000 2.06 290 21:40 24.02.2022
2942 Clear 12 1022 86 10000 2.06 290 21:20 24.02.2022
2943 Clear 13 1022 84 10000 2.06 210 19:53 24.02.2022
2944 Clear 14 1021 78 10000 2.57 210 18:52 24.02.2022
2945 Clear 15 1021 77 10000 3.6 210 18:19 24.02.2022
2946 Clear 15 1020 74 10000 4.63 220 17:42 24.02.2022
2947 Clear 16 1020 70 10000 4.12 210 16:56 24.02.2022
2948 Clear 16 1019 66 10000 4.63 160 16:25 24.02.2022
2949 Clear 17 1020 60 10000 4.63 200 15:30 24.02.2022
2950 Clouds 17 1020 57 10000 5.66 230 14:37 24.02.2022
2951 Clouds 17 1021 60 10000 4.63 200 13:42 24.02.2022
2952 Clouds 17 1021 58 10000 3.13 7 13:24 24.02.2022
2953 Clouds 14 1022 78 10000 1.03 0 10:43 24.02.2022
2954 Clouds 12 1022 83 10000 2.57 330 09:41 24.02.2022
2955 Clouds 11 1021 89 8000 1.54 350 08:42 24.02.2022
2956 Clouds 11 1021 88 8000 1.03 320 06:25 24.02.2022
2957 Clouds 11 1021 88 8000 1.03 330 05:36 24.02.2022
2958 Clouds 11 1023 84 10000 2.57 260 00:30 24.02.2022
2959 Clouds 12 1023 83 10000 3.09 250 21:56 23.02.2022
2960 Clouds 12 1023 82 10000 4.12 230 20:33 23.02.2022
2961 Clouds 13 1023 81 10000 4.12 240 19:56 23.02.2022
2962 Clouds 13 1023 81 10000 5.66 240 19:23 23.02.2022
2963 Clouds 15 1023 76 10000 6.69 230 17:56 23.02.2022
2964 Clouds 16 1023 71 10000 5.14 170 16:18 23.02.2022
2965 Clouds 17 1025 60 10000 4.47 8 13:36 23.02.2022
2966 Clouds 16 1026 62 10000 3.09 230 12:31 23.02.2022
2967 Clouds 14 1026 65 10000 3.6 0 10:55 23.02.2022
2968 Clouds 11 1027 76 10000 6.69 330 09:38 23.02.2022
2969 Clouds 10 1027 80 10000 6.69 320 08:54 23.02.2022
2970 Clouds 9 1025 82 10000 6.17 320 07:47 23.02.2022
2971 Clouds 10 1026 83 10000 2.57 320 02:31 23.02.2022
2972 Clear 10 1026 76 10000 3.6 340 23:50 22.02.2022
2973 Clear 10 1027 75 10000 2.57 320 23:31 22.02.2022
2974 Clear 11 1026 77 10000 1.54 340 22:28 22.02.2022
2975 Clear 11 1026 79 10000 2.57 290 21:44 22.02.2022
2976 Clear 11 1026 77 10000 2.57 210 21:21 22.02.2022
2977 Clear 12 1025 77 10000 3.09 210 20:41 22.02.2022
2978 Clear 12 1025 76 10000 3.09 210 20:22 22.02.2022
2979 Clear 13 1024 72 10000 3.6 210 19:34 22.02.2022
2980 Clouds 14 1025 68 10000 1.79 286 18:35 22.02.2022
2981 Clouds 16 1024 64 10000 4.12 130 17:34 22.02.2022
2982 Clouds 16 1025 61 10000 5.14 120 16:57 22.02.2022
2983 Clear 16 1025 59 10000 5.14 130 16:22 22.02.2022
2984 Clear 16 1025 58 10000 4.63 130 15:31 22.02.2022
2985 Clear 17 1025 56 10000 5.14 210 14:33 22.02.2022
2986 Clear 14 1027 48 10000 4.63 340 11:39 22.02.2022
2987 Clouds 11 1027 58 10000 7.72 340 09:48 22.02.2022
2988 Clouds 9 1026 62 10000 6.17 330 07:41 22.02.2022
2989 Clouds 9 1026 61 10000 6.17 330 07:23 22.02.2022
2990 Clouds 10 1025 80 10000 3.09 310 02:51 22.02.2022
2991 Clouds 12 1024 78 10000 3.6 40 23:48 21.02.2022
2992 Clouds 13 1023 78 10000 5.66 40 22:37 21.02.2022
2993 Clear 13 1022 77 10000 5.14 30 21:24 21.02.2022
2994 Clear 15 1020 72 10000 5.14 30 19:36 21.02.2022
2995 Clear 17 1019 61 10000 4.12 280 18:39 21.02.2022
2996 Clear 19 1018 53 10000 5.14 260 16:40 21.02.2022
2997 Clear 18 1020 51 10000 4.12 260 14:24 21.02.2022
2998 Clear 18 1020 47 10000 3.6 290 13:55 21.02.2022
2999 Clear 17 1021 49 10000 1.79 271 12:57 21.02.2022
3000 Clear 16 1022 52 10000 5.66 260 12:22 21.02.2022
3001 Clear 12 1023 64 10000 5.14 320 10:32 21.02.2022
3002 Clear 9 1022 78 10000 4.12 310 08:31 21.02.2022
3003 Clear 10 1025 65 10000 2.57 320 00:56 21.02.2022
3004 Clear 11 1026 58 10000 2.57 300 22:40 20.02.2022
3005 Clear 11 1025 56 10000 1.54 260 21:54 20.02.2022
3006 Clear 12 1025 56 10000 2.57 250 21:25 20.02.2022
3007 Clear 12 1025 53 10000 3.09 240 20:50 20.02.2022
3008 Clear 12 1025 62 10000 6.69 230 19:59 20.02.2022
3009 Clear 13 1025 62 10000 7.2 230 19:21 20.02.2022
3010 Clear 14 1024 61 10000 6.69 230 18:42 20.02.2022
3011 Clear 14 1024 60 10000 6.69 230 18:23 20.02.2022
3012 Clear 15 1024 57 10000 6.69 220 17:30 20.02.2022
3013 Clear 16 1025 56 10000 6.17 210 15:29 20.02.2022
3014 Clear 15 1026 55 10000 4.12 300 14:33 20.02.2022
3015 Clear 14 1026 54 10000 3.6 270 12:51 20.02.2022
3016 Clear 12 1027 59 10000 4.12 340 11:56 20.02.2022
3017 Clear 10 1028 67 10000 5.66 320 10:21 20.02.2022
3018 Clear 9 1027 70 10000 4.63 320 09:52 20.02.2022
3019 Clear 8 1026 78 10000 4.63 320 06:44 20.02.2022
3020 Clouds 9 1025 84 10000 2.57 320 00:33 20.02.2022
3021 Clouds 9 1024 84 10000 2.06 330 23:42 19.02.2022
3022 Clouds 10 1024 82 10000 3.09 320 22:25 19.02.2022
3023 Clouds 10 1024 80 10000 3.09 310 21:54 19.02.2022
3024 Clouds 10 1023 80 10000 3.09 340 20:48 19.02.2022
3025 Clouds 11 1022 78 10000 2.06 260 19:41 19.02.2022
3026 Clouds 11 1022 78 10000 3.09 320 18:41 19.02.2022
3027 Clouds 11 1021 78 10000 3.6 310 18:19 19.02.2022
3028 Drizzle 11 1021 78 10000 4.12 320 17:33 19.02.2022
3029 Drizzle 11 1021 77 10000 3.09 340 16:21 19.02.2022
3030 Clouds 12 1021 70 10000 4.63 280 14:56 19.02.2022
3031 Clouds 12 1020 68 10000 4.63 330 13:59 19.02.2022
3032 Clouds 13 1020 72 10000 4.12 340 11:59 19.02.2022
3033 Clouds 13 1020 73 10000 4.63 340 11:36 19.02.2022
3034 Clouds 12 1019 83 10000 1.79 132 09:34 19.02.2022
3035 Mist 12 1017 86 5000 2.06 350 06:53 19.02.2022
3036 Mist 12 1017 87 9000 2.57 300 02:38 19.02.2022
3037 Clouds 13 1017 89 10000 3.6 70 23:28 18.02.2022
3038 Clouds 14 1015 84 6000 4.02 60 21:30 18.02.2022
3039 Clouds 14 1014 78 10000 5.14 220 20:39 18.02.2022
3040 Clouds 15 1014 78 10000 5.14 210 19:51 18.02.2022
3041 Clear 16 1015 73 10000 6.69 220 18:50 18.02.2022
3042 Clear 17 1014 69 10000 7.72 220 18:20 18.02.2022
3043 Clear 19 1013 59 10000 8.23 210 17:25 18.02.2022
3044 Clouds 19 1014 70 10000 9.77 220 14:48 18.02.2022
3045 Clouds 19 1016 68 10000 8.75 220 13:54 18.02.2022
3046 Clear 19 1016 67 10000 0.89 124 12:51 18.02.2022
3047 Clear 18 1017 65 10000 4.12 240 11:58 18.02.2022
3048 Clear 18 1017 65 10000 4.12 240 11:58 18.02.2022
3049 Clear 18 1017 65 10000 4.12 240 11:58 18.02.2022
3050 Clouds 17 1017 71 10000 7.72 220 11:21 18.02.2022
3051 Clouds 13 1018 79 10000 3.09 320 09:33 18.02.2022
3052 Clear 11 1018 82 10000 3.09 310 06:52 18.02.2022
3053 Clear 12 1018 80 10000 4.12 320 05:38 18.02.2022
3054 Clear 13 1022 81 10000 2.57 290 22:47 17.02.2022
3055 Clear 14 1021 77 10000 1.54 250 21:43 17.02.2022
3056 Clouds 14 1021 76 10000 4.12 240 20:59 17.02.2022
3057 Clouds 15 1021 75 10000 4.63 240 20:34 17.02.2022
3058 Clouds 16 1021 72 10000 4.12 230 19:48 17.02.2022
3059 Clear 17 1021 71 10000 4.63 210 18:38 17.02.2022
3060 Clear 18 1021 66 10000 4.12 210 17:48 17.02.2022
3061 Clear 19 1020 56 10000 5.66 220 16:20 17.02.2022
3062 Clear 20 1020 55 10000 5.14 260 15:26 17.02.2022
3063 Clear 19 1022 54 10000 5.66 220 14:20 17.02.2022
3064 Clear 17 1023 59 10000 6.17 280 12:24 17.02.2022
3065 Clear 16 1023 64 10000 6.17 320 11:21 17.02.2022
3066 Clear 12 1022 74 10000 4.63 290 08:43 17.02.2022
3067 Clear 12 1021 71 10000 2.57 320 00:29 17.02.2022
3068 Clear 12 1021 75 10000 2.06 350 22:41 16.02.2022
3069 Clouds 12 1021 77 10000 2.57 290 21:25 16.02.2022
3070 Clouds 13 1021 74 10000 4.12 240 19:43 16.02.2022
3071 Clouds 15 1020 68 10000 4.12 210 18:36 16.02.2022
3072 Clear 16 1020 62 10000 5.66 230 17:41 16.02.2022
3073 Clear 16 1020 63 10000 5.66 230 17:37 16.02.2022
3074 Clouds 16 1019 51 10000 5.66 270 15:30 16.02.2022
3075 Clouds 15 1021 52 10000 6.69 270 14:57 16.02.2022
3076 Clouds 13 1022 53 10000 5.14 280 12:35 16.02.2022
3077 Clouds 13 1023 53 10000 5.66 280 11:53 16.02.2022
3078 Clouds 13 1023 54 10000 6.69 270 11:23 16.02.2022
3079 Clouds 12 1023 59 10000 3.6 330 10:29 16.02.2022
3080 Rain 9 1022 66 10000 4.12 340 06:57 16.02.2022
3081 Clear 9 1022 69 10000 3.09 330 04:42 16.02.2022
3082 Clear 10 1023 76 10000 2.57 70 23:44 15.02.2022
3083 Clear 12 1022 71 10000 3.09 80 22:19 15.02.2022
3084 Clear 12 1023 70 10000 3.09 70 21:45 15.02.2022
3085 Clear 12 1023 68 10000 3.6 50 21:27 15.02.2022
3086 Clear 13 1023 64 10000 3.09 70 20:55 15.02.2022
3087 Clear 14 1022 57 10000 2.68 111 19:55 15.02.2022
3088 Clear 15 1021 48 10000 4.02 246 18:52 15.02.2022
3089 Clear 15 1021 42 10000 4.63 290 18:19 15.02.2022
3090 Clear 16 1021 39 10000 4.63 290 17:48 15.02.2022
3091 Clouds 17 1020 34 10000 5.14 290 16:32 15.02.2022
3092 Clouds 17 1021 36 10000 5.14 230 15:22 15.02.2022
3093 Clear 15 1022 47 10000 5.14 260 13:26 15.02.2022
3094 Clear 13 1022 53 10000 4.12 340 11:57 15.02.2022
3095 Clear 11 1022 58 10000 6.17 320 10:58 15.02.2022
3096 Clear 8 1022 70 10000 6.17 330 09:28 15.02.2022
3097 Clouds 7 1020 72 10000 3.6 330 06:50 15.02.2022
3098 Clouds 8 1017 72 10000 3.09 320 02:36 15.02.2022
3099 Clouds 10 1015 77 10000 2.06 120 22:36 14.02.2022
3100 Clouds 11 1016 74 10000 3.09 80 21:35 14.02.2022
3101 Clouds 12 1014 73 10000 4.63 90 20:30 14.02.2022
3102 Clouds 13 1014 66 10000 4.12 300 19:32 14.02.2022
3103 Clouds 14 1013 51 10000 4.12 290 18:30 14.02.2022
3104 Clouds 15 1012 46 10000 7.2 280 17:58 14.02.2022
3105 Clouds 16 1012 43 10000 7.2 290 17:25 14.02.2022
3106 Clouds 17 1011 38 10000 6.69 260 16:19 14.02.2022
3107 Clouds 15 1012 47 10000 6.69 320 13:54 14.02.2022
3108 Clouds 15 1012 46 10000 6.69 300 13:26 14.02.2022
3109 Clouds 16 1012 49 10000 6.17 240 12:33 14.02.2022
3110 Clouds 16 1012 57 10000 4.63 230 11:54 14.02.2022
3111 Clouds 15 1012 64 10000 4.12 230 10:43 14.02.2022
3112 Clouds 12 1011 81 8000 3.6 250 08:45 14.02.2022
3113 Clouds 12 1011 83 6000 2.57 250 07:31 14.02.2022
3114 Clouds 13 1015 84 10000 6.69 210 01:18 14.02.2022
3115 Clouds 13 1017 84 10000 6.17 210 22:42 13.02.2022
3116 Clouds 13 1017 84 10000 6.17 210 22:24 13.02.2022
3117 Clouds 13 1017 84 10000 6.69 210 21:32 13.02.2022
3118 Clouds 13 1017 85 10000 6.17 200 20:36 13.02.2022
3119 Clouds 13 1017 84 10000 6.17 200 19:45 13.02.2022
3120 Clouds 13 1018 81 10000 5.66 210 18:49 13.02.2022
3121 Clouds 13 1018 80 10000 5.66 210 18:28 13.02.2022
3122 Clouds 15 1018 70 10000 8.23 220 15:54 13.02.2022
3123 Clouds 15 1019 72 10000 8.23 220 15:24 13.02.2022
3124 Clouds 15 1020 72 10000 7.2 220 14:31 13.02.2022
3125 Clouds 14 1021 80 10000 5.66 210 12:51 13.02.2022
3126 Clouds 13 1022 84 10000 5.66 220 11:44 13.02.2022
3127 Clouds 12 1023 86 10000 4.63 210 10:34 13.02.2022
3128 Clouds 12 1022 87 10000 5.14 210 09:47 13.02.2022
3129 Clouds 11 1022 89 10000 1.54 330 07:51 13.02.2022
3130 Clouds 10 1025 87 10000 1.54 290 00:36 13.02.2022
3131 Clouds 11 1025 86 10000 1.03 320 23:53 12.02.2022
3132 Clouds 11 1025 83 10000 1.54 10 22:33 12.02.2022
3133 Clouds 11 1025 81 10000 1.03 0 21:36 12.02.2022
3134 Clouds 11 1024 81 10000 1.03 40 20:52 12.02.2022
3135 Clouds 11 1025 80 10000 2.06 70 19:47 12.02.2022
3136 Clouds 11 1025 78 10000 2.06 70 18:53 12.02.2022
3137 Clouds 11 1025 77 10000 2.57 130 18:35 12.02.2022
3138 Clouds 12 1024 77 10000 2.57 90 17:37 12.02.2022
3139 Clouds 12 1025 76 10000 2.57 100 16:43 12.02.2022
3140 Clouds 12 1024 77 10000 2.57 80 15:52 12.02.2022
3141 Clouds 12 1024 78 10000 3.6 120 14:55 12.02.2022
3142 Clouds 12 1026 78 10000 3.6 130 14:25 12.02.2022
3143 Clouds 12 1027 81 10000 1.79 271 11:20 12.02.2022
3144 Clouds 12 1026 82 10000 2.68 275 10:28 12.02.2022
3145 Clouds 11 1025 84 9000 1.03 340 09:33 12.02.2022
3146 Clouds 10 1025 85 9000 1.03 0 08:46 12.02.2022
3147 Clouds 10 1024 85 10000 2.57 320 06:46 12.02.2022
3148 Clouds 10 1025 86 10000 1.54 310 04:44 12.02.2022
3149 Clouds 10 1026 83 10000 2.57 300 02:19 12.02.2022
3150 Clouds 11 1026 82 10000 2.06 320 23:20 11.02.2022
3151 Clouds 11 1026 83 10000 1.54 310 22:21 11.02.2022
3152 Clear 11 1026 81 10000 1.54 280 21:18 11.02.2022
3153 Clear 12 1026 80 10000 1.03 0 20:26 11.02.2022
3154 Clear 13 1026 77 10000 2.57 170 19:28 11.02.2022
3155 Clear 14 1024 74 10000 3.09 220 18:29 11.02.2022
3156 Clear 15 1025 69 10000 3.09 190 17:27 11.02.2022
3157 Clear 15 1024 65 10000 5.66 130 16:40 11.02.2022
3158 Clear 17 1024 61 10000 3.09 190 15:19 11.02.2022
3159 Clear 17 1025 59 10000 2.57 180 14:37 11.02.2022
3160 Clear 16 1025 60 10000 2.57 180 14:19 11.02.2022
3161 Clear 16 1025 59 10000 2.57 180 13:44 11.02.2022
3162 Clear 16 1025 58 10000 2.57 150 13:25 11.02.2022
3163 Clouds 13 1027 65 9000 0.51 0 10:59 11.02.2022
3164 Clouds 11 1026 74 10000 4.12 330 09:32 11.02.2022
3165 Clouds 9 1026 74 10000 4.12 330 08:35 11.02.2022
3166 Clouds 9 1024 75 10000 4.12 330 07:46 11.02.2022
3167 Clouds 9 1024 75 10000 4.12 330 07:46 11.02.2022
3168 Clouds 9 1025 75 10000 5.14 320 06:24 11.02.2022
3169 Clear 9 1025 79 10000 0.45 268 02:22 11.02.2022
3170 Clear 9 1025 86 10000 2.24 246 23:48 10.02.2022
3171 Clear 10 1026 84 10000 2.06 300 22:33 10.02.2022
3172 Clear 10 1026 84 10000 1.54 300 21:42 10.02.2022
3173 Clear 10 1026 83 10000 2.57 260 20:50 10.02.2022
3174 Clear 11 1026 84 10000 3.6 230 19:56 10.02.2022
3175 Clear 12 1026 81 10000 3.6 230 19:23 10.02.2022
3176 Clear 13 1026 77 10000 4.12 220 18:33 10.02.2022
3177 Clouds 14 1026 73 10000 5.14 210 17:23 10.02.2022
3178 Clouds 15 1026 72 10000 5.14 200 16:43 10.02.2022
3179 Clouds 15 1026 70 10000 4.12 190 15:41 10.02.2022
3180 Clouds 15 1026 69 10000 3.6 190 15:21 10.02.2022
3181 Clouds 15 1026 69 10000 3.09 190 14:35 10.02.2022
3182 Clouds 15 1027 70 10000 3.09 180 13:59 10.02.2022
3183 Clouds 14 1027 71 10000 0.45 169 13:19 10.02.2022
3184 Clouds 13 1029 70 10000 3.09 320 11:57 10.02.2022
3185 Clouds 12 1029 72 10000 4.12 320 11:32 10.02.2022
3186 Clouds 10 1029 78 10000 5.66 330 10:25 10.02.2022
3187 Clouds 9 1029 80 10000 5.14 320 09:46 10.02.2022
3188 Clouds 9 1029 80 10000 5.14 320 09:46 10.02.2022
3189 Clouds 8 1028 86 10000 4.63 320 08:42 10.02.2022
3190 Clouds 8 1028 85 10000 4.12 320 06:34 10.02.2022
3191 Clouds 8 1029 86 10000 4.12 320 03:33 10.02.2022
3192 Clear 9 1030 83 10000 2.57 320 00:57 10.02.2022
3193 Clear 9 1030 83 10000 1.03 0 00:38 10.02.2022
3194 Clear 9 1030 82 10000 1.03 0 00:20 10.02.2022
3195 Clear 9 1030 80 10000 1.79 122 22:57 09.02.2022
3196 Clear 10 1029 80 10000 1.54 290 22:33 09.02.2022
3197 Clear 10 1030 80 10000 2.57 250 21:48 09.02.2022
3198 Clear 10 1030 78 10000 3.09 240 21:27 09.02.2022
3199 Clear 11 1030 77 10000 3.09 250 20:45 09.02.2022
3200 Clear 11 1030 79 10000 3.09 250 20:23 09.02.2022
3201 Clear 12 1029 77 10000 3.6 230 19:42 09.02.2022
3202 Clear 12 1030 76 10000 4.12 220 18:50 09.02.2022
3203 Clear 15 1029 69 10000 6.69 210 17:24 09.02.2022
3204 Clear 16 1032 70 10000 6.69 220 16:25 09.02.2022
3205 Clear 16 1031 69 10000 7.2 210 15:26 09.02.2022
3206 Clouds 15 1031 70 10000 5.36 2 13:32 09.02.2022
3207 Clouds 13 1032 74 10000 3.6 240 11:52 09.02.2022
3208 Clouds 11 1032 81 9000 3.6 330 10:35 09.02.2022
3209 Clouds 10 1032 82 8000 4.12 330 09:56 09.02.2022
3210 Clouds 9 1032 85 9000 5.14 330 09:22 09.02.2022
3211 Clouds 8 1032 87 7000 4.63 320 08:51 09.02.2022
3212 Clouds 8 1032 86 7000 3.09 320 06:56 09.02.2022
3213 Mist 9 1032 88 7000 3.09 320 04:36 09.02.2022
3214 Clouds 9 1032 88 8000 1.54 310 03:49 09.02.2022
3215 Clouds 10 1031 87 10000 1.54 320 23:45 08.02.2022
3216 Clouds 11 1032 88 10000 1.54 290 23:19 08.02.2022
3217 Clouds 11 1032 88 10000 2.06 290 23:19 08.02.2022
3218 Clouds 11 1032 88 10000 3.09 220 22:38 08.02.2022
3219 Clouds 11 1032 88 10000 3.09 220 22:20 08.02.2022
3220 Clouds 12 1033 88 10000 3.09 210 21:22 08.02.2022
3221 Clouds 12 1032 88 10000 3.6 220 20:59 08.02.2022
3222 Clouds 12 1032 88 10000 3.09 210 20:38 08.02.2022
3223 Clouds 13 1032 86 10000 3.6 200 19:31 08.02.2022
3224 Clouds 13 1032 84 10000 3.6 200 18:24 08.02.2022
3225 Clouds 14 1031 81 10000 4.12 190 17:30 08.02.2022
3226 Clouds 16 1031 76 10000 4.63 200 15:52 08.02.2022
3227 Clouds 16 1031 75 10000 4.63 200 15:28 08.02.2022
3228 Clouds 15 1032 74 10000 3.13 1 13:50 08.02.2022
3229 Clouds 14 1033 71 10000 1.54 130 12:25 08.02.2022
3230 Clouds 13 1032 72 10000 2.24 305 10:55 08.02.2022
3231 Clouds 11 1032 76 10000 4.63 330 09:50 08.02.2022
3232 Clouds 10 1032 77 10000 5.14 330 08:53 08.02.2022
3233 Clouds 9 1031 78 10000 4.63 330 06:50 08.02.2022
3234 Clouds 9 1030 76 10000 3.6 330 04:40 08.02.2022
3235 Clouds 9 1030 75 10000 3.6 330 04:22 08.02.2022
3236 Clouds 9 1030 75 10000 2.06 330 03:36 08.02.2022
3237 Clouds 9 1030 73 10000 2.06 20 03:18 08.02.2022
3238 Clouds 9 1030 74 10000 2.06 20 02:59 08.02.2022
3239 Clouds 9 1030 74 10000 2.57 340 02:36 08.02.2022
3240 Clouds 10 1030 72 10000 2.57 340 02:18 08.02.2022
3241 Clouds 10 1029 69 10000 3.6 330 01:45 08.02.2022
3242 Clouds 10 1029 69 10000 3.6 330 01:45 08.02.2022
3243 Clouds 10 1028 70 10000 2.57 340 01:25 08.02.2022
3244 Clouds 10 1029 68 10000 4.12 330 00:55 08.02.2022
3245 Clouds 10 1028 67 10000 4.12 330 00:32 08.02.2022
3246 Clouds 11 1028 65 10000 3.6 320 23:45 07.02.2022
3247 Clear 11 1027 65 10000 2.06 280 23:18 07.02.2022
3248 Clear 11 1029 66 10000 2.06 280 22:59 07.02.2022
3249 Clear 11 1029 65 10000 2.06 300 22:19 07.02.2022
3250 Clear 11 1028 64 10000 1.54 300 21:51 07.02.2022
3251 Clear 11 1028 64 10000 3.09 290 21:28 07.02.2022
3252 Clear 12 1027 65 10000 1.54 320 20:47 07.02.2022
3253 Clear 12 1027 65 10000 2.57 300 20:29 07.02.2022
3254 Clear 12 1027 65 10000 1.54 300 19:47 07.02.2022
3255 Clear 14 1026 59 10000 3.6 130 18:40 07.02.2022
3256 Clear 15 1026 54 10000 4.63 130 17:33 07.02.2022
3257 Clear 16 1026 51 10000 3.09 220 16:52 07.02.2022
3258 Clear 16 1025 51 10000 4.12 230 15:48 07.02.2022
3259 Clear 16 1024 49 10000 4.12 270 14:19 07.02.2022
3260 Clear 15 1025 48 10000 5.66 330 13:27 07.02.2022
3261 Clear 14 1026 52 10000 0.45 275 12:36 07.02.2022
3262 Clear 13 1026 55 10000 0.89 28 11:50 07.02.2022
3263 Clear 12 1026 57 10000 0.89 234 11:24 07.02.2022
3264 Clear 11 1025 61 10000 1.34 179 10:42 07.02.2022
3265 Clear 10 1025 63 10000 1.79 301 10:24 07.02.2022
3266 Clear 9 1025 64 10000 0.89 84 09:52 07.02.2022
3267 Clear 8 1025 68 10000 0.45 302 09:18 07.02.2022
3268 Clouds 7 1026 70 10000 0.45 137 07:58 07.02.2022
3269 Clouds 7 1025 70 10000 1.79 168 06:34 07.02.2022
3270 Clouds 8 1025 70 10000 1.34 342 05:18 07.02.2022
3271 Clouds 8 1026 66 10000 1.34 244 02:38 07.02.2022
3272 Clouds 9 1028 68 10000 1.79 304 00:29 07.02.2022
3273 Clouds 9 1028 61 10000 1.34 271 23:33 06.02.2022
3274 Clouds 10 1028 59 10000 2.24 296 22:45 06.02.2022
3275 Clouds 10 1028 56 10000 1.34 257 21:47 06.02.2022
3276 Clouds 10 1028 54 10000 1.79 285 21:21 06.02.2022
3277 Clouds 11 1028 54 10000 3.13 296 21:21 06.02.2022
3278 Clouds 11 1028 54 10000 3.13 296 21:21 06.02.2022
3279 Clouds 11 1027 53 10000 0.45 348 20:48 06.02.2022
3280 Clouds 11 1027 54 10000 0.89 284 20:24 06.02.2022
3281 Clouds 12 1027 59 10000 0.45 0 19:30 06.02.2022
3282 Clouds 13 1026 61 10000 2.24 231 18:34 06.02.2022
3283 Clouds 13 1026 60 10000 2.24 220 17:54 06.02.2022
3284 Clouds 14 1026 58 10000 2.24 271 16:52 06.02.2022
3285 Clouds 15 1026 59 10000 0.45 0 16:30 06.02.2022
3286 Clouds 15 1026 61 10000 0.45 74 15:47 06.02.2022
3287 Clouds 15 1026 61 10000 0.89 111 15:25 06.02.2022
3288 Clouds 15 1027 50 10000 0.45 119 14:25 06.02.2022
3289 Clouds 14 1027 49 10000 1.34 321 13:24 06.02.2022
3290 Clouds 12 1027 52 10000 0.89 303 12:34 06.02.2022
3291 Clouds 10 1028 60 10000 3.58 267 10:43 06.02.2022
3292 Clouds 9 1028 64 10000 3.58 255 09:48 06.02.2022
3293 Clouds 8 1027 67 10000 4.92 300 08:46 06.02.2022
3294 Clouds 8 1027 68 10000 4.47 321 07:36 06.02.2022
3295 Clouds 9 1026 82 10000 0.45 272 05:29 06.02.2022
3296 Clouds 10 1027 83 10000 2.57 330 02:26 06.02.2022
3297 Clouds 10 1027 86 9000 0.45 285 01:20 06.02.2022
3298 Clouds 10 1026 86 9000 2.57 320 00:24 06.02.2022
3299 Clouds 11 1026 86 8000 0.51 0 22:18 05.02.2022
3300 Clouds 11 1025 85 10000 1.03 240 20:48 05.02.2022
3301 Clouds 11 1025 86 10000 2.06 220 20:23 05.02.2022
3302 Clouds 12 1025 86 10000 2.57 220 19:44 05.02.2022
3303 Clouds 13 1024 85 7000 0.45 273 18:49 05.02.2022
3304 Clouds 14 1023 81 8000 2.57 180 17:37 05.02.2022
3305 Clouds 14 1023 78 8000 0.45 81 16:36 05.02.2022
3306 Clouds 15 1023 75 8000 1.34 264 15:33 05.02.2022
3307 Clouds 14 1024 77 7000 0.45 99 14:40 05.02.2022
3308 Clouds 13 1025 78 7000 0.89 80 12:46 05.02.2022
3309 Clouds 13 1024 80 8000 0.45 102 11:49 05.02.2022
3310 Clouds 12 1023 82 10000 0.45 250 10:46 05.02.2022
3311 Clouds 11 1024 82 8000 0.45 239 09:52 05.02.2022
3312 Mist 11 1023 85 8000 0.89 247 09:25 05.02.2022
3313 Mist 10 1022 88 8000 0.45 242 07:36 05.02.2022
3314 Mist 10 1022 87 7000 3.6 330 06:56 05.02.2022
3315 Mist 11 1021 87 6000 0.45 266 03:55 05.02.2022
3316 Clouds 11 1022 85 8000 0.51 0 01:19 05.02.2022
3317 Clouds 11 1022 85 8000 0.51 0 00:42 05.02.2022
3318 Mist 12 1022 85 9000 1.03 0 23:38 04.02.2022
3319 Mist 12 1022 85 9000 1.03 0 23:20 04.02.2022
3320 Clouds 12 1021 87 10000 2.06 180 21:36 04.02.2022
3321 Clouds 12 1021 88 10000 2.06 180 21:18 04.02.2022
3322 Clouds 12 1021 88 10000 1.54 160 20:50 04.02.2022
3323 Clouds 13 1021 88 10000 1.03 140 19:33 04.02.2022
3324 Clouds 14 1019 84 10000 2.57 210 17:27 04.02.2022
3325 Clouds 15 1018 79 10000 0.89 34 15:39 04.02.2022
3326 Clouds 15 1018 76 10000 0.45 168 14:52 04.02.2022
3327 Clouds 15 1020 67 10000 0.89 122 12:43 04.02.2022
3328 Clouds 14 1020 70 10000 0.45 128 11:47 04.02.2022
3329 Clouds 13 1020 68 10000 0.45 121 11:22 04.02.2022
3330 Clouds 13 1020 70 10000 1.41 262 10:32 04.02.2022
3331 Clouds 10 1020 77 10000 0.45 296 08:34 04.02.2022
3332 Clear 10 1019 76 10000 0.45 305 05:19 04.02.2022
3333 Clear 11 1019 79 10000 0.45 334 02:39 04.02.2022
3334 Clouds 11 1020 81 10000 0.45 269 00:31 04.02.2022
3335 Mist 12 1020 83 4500 0.45 340 23:21 03.02.2022
3336 Mist 12 1020 86 1100 0.89 322 22:26 03.02.2022
3337 Fog 12 1019 86 1200 1.34 343 21:47 03.02.2022
3338 Clear 13 1019 83 10000 0.89 9 20:27 03.02.2022
3339 Fog 14 1019 81 1500 1.34 328 19:59 03.02.2022
3340 Fog 14 1018 78 8000 2.24 327 19:26 03.02.2022
3341 Fog 16 1017 74 800 3.6 230 18:26 03.02.2022
3342 Clouds 17 1018 70 10000 0.45 219 17:32 03.02.2022
3343 Clear 18 1017 63 10000 1.79 263 15:53 03.02.2022
3344 Clear 17 1018 62 10000 0.45 107 14:26 03.02.2022
3345 Clear 16 1019 56 10000 0.89 116 12:40 03.02.2022
3346 Clear 13 1021 71 10000 3.6 330 10:35 03.02.2022
3347 Clear 9 1021 75 10000 3.6 330 08:23 03.02.2022
3348 Clear 11 1021 68 10000 2.24 245 03:28 03.02.2022
3349 Clear 12 1022 66 10000 2.24 248 00:30 03.02.2022
3350 Clear 12 1022 66 10000 3.13 247 22:47 02.02.2022
3351 Clear 12 1022 69 10000 1.34 267 21:53 02.02.2022
3352 Clear 13 1022 70 10000 2.24 263 21:30 02.02.2022
3353 Clear 12 1022 75 10000 0 0 20:33 02.02.2022
3354 Clear 13 1023 78 10000 0.45 280 19:51 02.02.2022
3355 Clear 13 1023 78 10000 2.57 230 19:20 02.02.2022
3356 Clear 14 1023 75 10000 0.45 318 18:27 02.02.2022
3357 Clear 16 1023 69 10000 2.06 180 17:37 02.02.2022
3358 Clear 16 1023 69 10000 2.06 180 17:18 02.02.2022
3359 Clear 16 1023 69 10000 2.06 180 17:18 02.02.2022
3360 Clear 17 1023 63 10000 0.89 133 16:30 02.02.2022
3361 Clear 16 1024 58 10000 0.45 254 12:54 02.02.2022
3362 Clear 15 1025 57 10000 0.45 150 11:51 02.02.2022
3363 Clear 14 1024 59 10000 3.09 330 11:31 02.02.2022
3364 Clear 11 1025 65 10000 0.45 62 09:46 02.02.2022
3365 Clear 10 1022 70 10000 4.02 236 06:18 02.02.2022
3366 Clear 12 1025 53 10000 4.02 288 22:44 01.02.2022
3367 Clear 13 1024 55 10000 2.68 245 21:30 01.02.2022
3368 Clouds 13 1025 59 10000 1.34 86 19:57 01.02.2022
3369 Clouds 15 1023 52 10000 0.45 244 17:38 01.02.2022
3370 Clouds 16 1023 48 10000 0.89 244 16:33 01.02.2022
3371 Clear 14 1023 48 10000 0.45 312 13:28 01.02.2022
3372 Clear 13 1024 47 10000 0.45 232 12:28 01.02.2022
3373 Clear 10 1023 58 10000 1.34 290 10:44 01.02.2022
3374 Clouds 9 1020 86 7000 3.6 330 02:30 01.02.2022
3375 Clear 9 1019 85 10000 0.51 0 23:40 31.01.2022
3376 Clear 10 1019 84 10000 0.51 0 22:43 31.01.2022
3377 Clouds 10 1018 82 10000 0.45 283 21:38 31.01.2022
3378 Clouds 10 1019 83 10000 1.03 0 20:45 31.01.2022
3379 Clouds 11 1018 82 10000 0 0 20:26 31.01.2022
3380 Clouds 12 1018 78 10000 2.06 220 18:54 31.01.2022
3381 Clouds 13 1018 75 9000 1.03 0 18:20 31.01.2022
3382 Clear 14 1018 69 9000 0.45 153 17:25 31.01.2022
3383 Clear 15 1018 66 10000 0.45 140 16:25 31.01.2022
3384 Clouds 15 1019 61 10000 0.89 266 14:54 31.01.2022
3385 Clouds 14 1020 63 10000 0.89 65 13:43 31.01.2022
3386 Clouds 14 1021 59 10000 0.89 55 12:38 31.01.2022
3387 Clouds 13 1022 54 10000 0.45 302 11:42 31.01.2022
3388 Clouds 11 1021 56 10000 1.79 304 10:49 31.01.2022
3389 Clear 10 1021 60 10000 1.34 297 09:45 31.01.2022
3390 Clear 9 1021 61 10000 0.45 296 08:58 31.01.2022
3391 Clear 9 1021 61 10000 0.89 105 08:38 31.01.2022
3392 Clear 9 1021 60 10000 0.89 281 08:19 31.01.2022
3393 Clouds 10 1020 56 10000 5.36 286 06:18 31.01.2022
3394 Clear 11 1022 49 10000 4.92 300 00:44 31.01.2022
3395 Clear 12 1023 42 10000 3.58 259 22:34 30.01.2022
3396 Clear 12 1023 41 10000 0.89 0 21:56 30.01.2022
3397 Clear 13 1023 41 10000 0.45 0 21:37 30.01.2022
3398 Clear 13 1023 40 10000 1.34 91 21:18 30.01.2022
3399 Clear 13 1023 40 10000 1.79 40 20:43 30.01.2022
3400 Clear 13 1023 40 10000 0.45 0 20:25 30.01.2022
3401 Clear 14 1023 43 10000 0.89 218 19:23 30.01.2022
3402 Clear 15 1023 48 10000 0.89 298 18:35 30.01.2022
3403 Clear 16 1023 47 10000 3.6 220 17:53 30.01.2022
3404 Clear 17 1023 46 10000 5.14 220 17:20 30.01.2022
3405 Clear 17 1024 51 10000 6.17 220 16:37 30.01.2022
3406 Clear 18 1024 45 10000 0.45 203 16:19 30.01.2022
3407 Clear 18 1024 46 10000 0.45 64 15:48 30.01.2022
3408 Clear 18 1024 45 10000 0.45 298 15:30 30.01.2022
3409 Clear 18 1024 44 10000 0.89 196 14:45 30.01.2022
3410 Clear 15 1027 43 10000 3.13 249 12:46 30.01.2022
3411 Clear 14 1028 47 10000 3.13 248 11:53 30.01.2022
3412 Clear 10 1027 55 10000 3.58 253 10:27 30.01.2022
3413 Clear 10 1028 57 10000 3.13 245 09:48 30.01.2022
3414 Clear 9 1028 57 10000 3.58 253 08:52 30.01.2022
3415 Clear 8 1027 60 10000 2.68 259 06:55 30.01.2022
3416 Clear 9 1029 57 10000 1.34 227 01:55 30.01.2022
3417 Haze 10 1030 55 10000 0.45 257 00:22 30.01.2022
3418 Clear 10 1030 59 10000 3.58 238 22:58 29.01.2022
3419 Clear 10 1030 61 10000 1.34 271 21:47 29.01.2022
3420 Clear 11 1030 62 10000 0.89 278 21:23 29.01.2022
3421 Clear 11 1030 63 10000 0.45 295 20:22 29.01.2022
3422 Clear 12 1030 63 10000 1.54 210 19:33 29.01.2022
3423 Clear 12 1030 62 10000 2.06 220 18:51 29.01.2022
3424 Clear 13 1030 59 10000 3.09 200 18:18 29.01.2022
3425 Clear 15 1030 54 10000 3.09 230 17:28 29.01.2022
3426 Clear 16 1031 50 10000 0.89 136 15:50 29.01.2022
3427 Clear 16 1032 48 10000 0.45 95 13:59 29.01.2022
3428 Clear 16 1032 46 10000 0.89 176 13:41 29.01.2022
3429 Clear 16 1032 45 10000 1.34 237 13:22 29.01.2022
3430 Clear 13 1032 47 10000 1.34 246 11:40 29.01.2022
3431 Clear 12 1033 46 10000 1.79 304 10:54 29.01.2022
3432 Clear 9 1032 53 10000 4.47 186 08:42 29.01.2022
3433 Clear 9 1031 51 10000 6.26 285 06:37 29.01.2022
3434 Clear 10 1030 47 10000 3.13 246 00:34 29.01.2022
3435 Clear 10 1030 50 10000 2.68 249 23:44 28.01.2022
3436 Clear 10 1030 46 10000 3.58 247 22:50 28.01.2022
3437 Clear 11 1030 46 10000 3.13 246 22:21 28.01.2022
3438 Clear 11 1030 45 10000 3.13 240 21:35 28.01.2022
3439 Clear 12 1029 44 10000 2.68 257 20:29 28.01.2022
3440 Clear 13 1029 42 10000 4.02 260 19:28 28.01.2022
3441 Clear 14 1028 46 10000 4.02 308 18:42 28.01.2022
3442 Clear 17 1027 37 10000 0.89 313 16:45 28.01.2022
3443 Clear 17 1027 37 10000 0.89 277 15:18 28.01.2022
3444 Clear 16 1028 36 10000 2.68 314 13:37 28.01.2022
3445 Clear 14 1030 45 10000 3.58 240 12:27 28.01.2022
3446 Clear 11 1029 52 10000 4.92 250 10:49 28.01.2022
3447 Clear 9 1029 57 10000 4.92 303 09:49 28.01.2022
3448 Clear 7 1029 60 10000 3.58 252 07:43 28.01.2022
3449 Clear 8 1029 60 10000 1.79 297 06:44 28.01.2022
3450 Clear 8 1029 60 10000 2.24 289 03:56 28.01.2022
3451 Clear 8 1029 60 10000 4.47 329 02:31 28.01.2022
3452 Clear 9 1029 61 10000 2.24 269 01:59 28.01.2022
3453 Clear 9 1028 61 10000 1.79 321 01:30 28.01.2022
3454 Clear 9 1029 73 9000 2.24 262 22:48 27.01.2022
3455 Clear 9 1029 81 9000 0.89 267 21:46 27.01.2022
3456 Clear 9 1028 79 9000 1.79 269 21:28 27.01.2022
3457 Clear 10 1027 84 10000 1.03 280 20:24 27.01.2022
3458 Clear 12 1028 82 10000 0.51 110 18:26 27.01.2022
3459 Clear 14 1028 77 10000 1.54 110 17:34 27.01.2022
3460 Clear 15 1029 64 10000 0.45 80 14:34 27.01.2022
3461 Clear 15 1029 54 10000 0.45 0 13:24 27.01.2022
3462 Clear 14 1030 50 10000 0.89 62 12:39 27.01.2022
3463 Clear 9 1030 58 10000 2.24 241 09:56 27.01.2022
3464 Clear 8 1029 59 10000 3.13 240 08:48 27.01.2022
3465 Clear 8 1029 58 10000 2.24 298 08:28 27.01.2022
3466 Clear 9 1029 51 10000 1.79 258 03:47 27.01.2022
3467 Clear 10 1028 48 10000 1.79 268 01:45 27.01.2022
3468 Clear 11 1029 54 10000 3.13 228 22:39 26.01.2022
3469 Clear 11 1028 58 10000 1.79 288 21:45 26.01.2022
3470 Clear 11 1028 61 10000 1.79 288 21:26 26.01.2022
3471 Clear 11 1028 68 10000 1.79 267 20:35 26.01.2022
3472 Clear 11 1028 72 10000 0.45 292 19:54 26.01.2022
3473 Clear 11 1028 72 10000 0.89 276 19:19 26.01.2022
3474 Clear 13 1027 67 10000 0.89 252 18:26 26.01.2022
3475 Clear 13 1027 66 10000 0.45 305 17:49 26.01.2022
3476 Clear 15 1028 62 10000 0.89 210 17:19 26.01.2022
3477 Clear 15 1028 61 10000 0.45 0 16:26 26.01.2022
3478 Clear 15 1028 59 10000 0.45 265 15:45 26.01.2022
3479 Clear 13 1030 54 10000 0.45 71 12:54 26.01.2022
3480 Clear 12 1031 59 9000 0.89 243 11:34 26.01.2022
3481 Clear 9 1031 66 10000 1.34 248 10:19 26.01.2022
3482 Clear 9 1031 66 10000 1.79 240 09:42 26.01.2022
3483 Clouds 7 1030 69 10000 0.45 344 07:32 26.01.2022
3484 Mist 7 1032 83 10000 0.89 247 00:48 26.01.2022
3485 Mist 7 1032 83 10000 0.89 247 00:48 26.01.2022
3486 Clouds 8 1032 82 10000 0.45 252 23:48 25.01.2022
3487 Clouds 8 1032 84 10000 0.89 310 22:50 25.01.2022
3488 Clouds 8 1032 83 10000 2.06 320 22:50 25.01.2022
3489 Clouds 8 1032 84 10000 0.89 310 22:50 25.01.2022
3490 Clouds 8 1031 85 10000 2.06 310 22:21 25.01.2022
3491 Clouds 8 1032 85 10000 1.03 280 21:41 25.01.2022
3492 Clouds 9 1032 85 10000 0.51 0 20:46 25.01.2022
3493 Clouds 9 1032 83 10000 0 0 20:21 25.01.2022
3494 Clouds 10 1032 83 10000 0.45 289 19:44 25.01.2022
3495 Clear 11 1032 80 10000 2.06 200 18:22 25.01.2022
3496 Clear 12 1031 76 10000 2.06 180 17:42 25.01.2022
3497 Clear 13 1031 71 10000 3.09 200 16:35 25.01.2022
3498 Clouds 14 1031 66 10000 0.45 177 15:44 25.01.2022
3499 Clouds 14 1031 66 10000 0.45 0 15:26 25.01.2022
3500 Clouds 14 1031 64 10000 0.45 176 14:57 25.01.2022
3501 Clouds 14 1031 65 10000 0.45 177 14:57 25.01.2022
3502 Clear 13 1032 62 10000 0.89 350 13:18 25.01.2022
3503 Clear 8 1033 76 10000 3.13 248 10:00 25.01.2022
3504 Clouds 6 1032 78 10000 2.24 245 08:32 25.01.2022
3505 Clouds 6 1032 77 10000 1.34 251 07:28 25.01.2022
3506 Clouds 6 1032 78 10000 0.45 303 06:22 25.01.2022
3507 Clouds 7 1032 83 10000 5.14 330 01:34 25.01.2022
3508 Clouds 7 1031 85 10000 3.6 320 23:36 24.01.2022
3509 Clouds 7 1031 85 10000 3.6 320 23:18 24.01.2022
3510 Clouds 7 1031 84 10000 1.54 320 22:59 24.01.2022
3511 Clouds 8 1031 84 10000 2.57 320 22:41 24.01.2022
3512 Clouds 8 1031 82 10000 1.03 0 21:45 24.01.2022
3513 Clouds 8 1031 82 10000 1.03 0 21:27 24.01.2022
3514 Clouds 9 1030 81 10000 1.54 280 20:29 24.01.2022
3515 Clouds 9 1030 79 10000 2.06 220 19:39 24.01.2022
3516 Clouds 10 1030 78 10000 1.54 200 18:55 24.01.2022
3517 Clouds 12 1029 70 10000 0.45 157 17:44 24.01.2022
3518 Clouds 13 1029 68 10000 0.89 221 17:23 24.01.2022
3519 Clouds 13 1028 65 10000 0.45 61 16:32 24.01.2022
3520 Clouds 13 1028 64 10000 0.45 210 15:52 24.01.2022
3521 Clouds 13 1029 64 10000 0.51 90 14:27 24.01.2022
3522 Clouds 11 1030 67 10000 0.89 265 12:36 24.01.2022
3523 Clouds 10 1030 71 10000 5.14 330 11:53 24.01.2022
3524 Clouds 7 1030 80 10000 0.89 267 10:25 24.01.2022
3525 Clouds 7 1030 82 10000 0.45 297 09:47 24.01.2022
3526 Clouds 5 1029 81 10000 1.34 335 08:19 24.01.2022
3527 Clouds 6 1028 85 10000 0.45 267 02:51 24.01.2022
3528 Clouds 7 1028 85 10000 0.45 303 01:28 24.01.2022
3529 Clouds 7 1028 84 10000 0.45 282 00:34 24.01.2022
3530 Clouds 7 1029 84 10000 0.45 295 23:47 23.01.2022
3531 Clouds 7 1028 83 10000 0.45 289 22:21 23.01.2022
3532 Clouds 7 1028 82 10000 0.45 287 21:42 23.01.2022
3533 Clouds 7 1027 82 10000 0.89 284 21:24 23.01.2022
3534 Clouds 8 1028 81 10000 2.06 310 20:29 23.01.2022
3535 Clouds 9 1028 79 10000 1.54 310 19:21 23.01.2022
3536 Clouds 10 1027 77 10000 1.54 230 18:44 23.01.2022
3537 Clouds 11 1027 71 10000 0.89 176 17:28 23.01.2022
3538 Clouds 12 1027 67 10000 0.45 317 16:38 23.01.2022
3539 Clouds 12 1027 64 10000 0.89 188 14:56 23.01.2022
3540 Clouds 12 1027 62 10000 1.34 180 14:19 23.01.2022
3541 Clear 11 1029 60 10000 0.89 113 12:49 23.01.2022
3542 Clear 10 1028 60 10000 0.45 117 12:21 23.01.2022
3543 Clear 9 1030 60 10000 0.45 182 11:51 23.01.2022
3544 Clear 8 1030 63 10000 0.45 280 11:18 23.01.2022
3545 Clear 7 1030 67 10000 0.89 252 10:26 23.01.2022
3546 Clouds 7 1029 69 10000 0.45 257 09:39 23.01.2022
3547 Clouds 5 1029 72 10000 6.69 330 08:51 23.01.2022
3548 Clear 5 1028 73 10000 0.45 285 05:55 23.01.2022
3549 Clear 5 1029 67 10000 0.89 313 01:49 23.01.2022
3550 Clear 5 1029 67 10000 0.89 360 01:25 23.01.2022
3551 Clear 6 1030 64 10000 0.45 250 00:23 23.01.2022
3552 Clear 6 1029 62 10000 0.45 307 23:35 22.01.2022
3553 Clear 6 1029 61 10000 0.89 263 22:34 22.01.2022
3554 Clear 7 1029 60 10000 0.45 261 21:28 22.01.2022
3555 Clear 7 1029 60 10000 0.89 311 19:51 22.01.2022
3556 Clear 9 1028 55 10000 0.45 294 18:49 22.01.2022
3557 Clear 10 1028 51 10000 0.45 292 17:59 22.01.2022
3558 Clear 11 1028 50 10000 5.14 240 17:35 22.01.2022
3559 Clear 11 1028 48 10000 0.45 210 16:55 22.01.2022
3560 Clear 11 1028 49 10000 1.34 291 15:49 22.01.2022
3561 Clear 11 1028 49 10000 0.89 68 14:58 22.01.2022
3562 Clear 10 1029 52 10000 0.45 84 13:42 22.01.2022
3563 Clouds 9 1030 55 10000 1.34 308 12:50 22.01.2022
3564 Clouds 8 1030 58 10000 0.45 0 12:28 22.01.2022
3565 Clouds 6 1031 63 10000 3.58 243 10:56 22.01.2022
3566 Clouds 5 1030 66 10000 1.79 298 10:29 22.01.2022
3567 Clouds 5 1030 68 10000 0.89 298 09:59 22.01.2022
3568 Clouds 3 1030 70 10000 1.79 296 08:52 22.01.2022
3569 Clouds 4 1030 69 10000 0.89 344 07:38 22.01.2022
3570 Clouds 4 1029 68 10000 2.24 256 04:52 22.01.2022
3571 Clouds 6 1029 73 10000 1.79 279 01:35 22.01.2022
3572 Clouds 6 1028 72 10000 1.34 304 23:38 21.01.2022
3573 Clouds 7 1028 70 10000 0.89 311 22:28 21.01.2022
3574 Clouds 7 1027 68 10000 0.89 294 20:28 21.01.2022
3575 Clouds 8 1026 64 10000 0.89 244 18:40 21.01.2022
3576 Clouds 9 1025 63 10000 2.24 284 17:31 21.01.2022
3577 Clouds 10 1024 62 10000 1.34 304 15:42 21.01.2022
3578 Clouds 10 1025 65 10000 1.34 346 13:51 21.01.2022
3579 Fog 9 1025 69 10000 0.89 360 12:38 21.01.2022
3580 Clouds 8 1025 76 10000 0.89 272 11:28 21.01.2022
3581 Clouds 7 1025 79 10000 0.89 342 10:19 21.01.2022
3582 Clouds 5 1024 81 10000 1.79 284 08:25 21.01.2022
3583 Clouds 6 1023 80 9000 1.34 101 06:57 21.01.2022
3584 Clear 7 1024 72 10000 0.89 289 23:40 20.01.2022
3585 Clear 8 1024 71 10000 3.13 225 22:41 20.01.2022
3586 Clear 8 1024 69 10000 3.13 286 21:43 20.01.2022
3587 Clear 9 1024 69 10000 3.58 277 20:56 20.01.2022
3588 Clear 9 1024 72 10000 0.45 288 19:21 20.01.2022
3589 Clear 10 1024 71 10000 2.57 240 18:51 20.01.2022
3590 Clouds 12 1024 65 10000 0.45 233 17:30 20.01.2022
3591 Clouds 13 1025 63 10000 0.45 74 15:45 20.01.2022
3592 Clouds 13 1025 62 10000 0.45 149 15:24 20.01.2022
3593 Clear 13 1026 60 10000 1.79 250 13:42 20.01.2022
3594 Clouds 11 1027 65 9000 0.89 268 12:38 20.01.2022
3595 Clouds 11 1027 65 8000 1.79 249 11:57 20.01.2022
3596 Clouds 9 1028 71 8000 0.45 305 10:47 20.01.2022
3597 Clouds 7 1027 77 9000 1.79 284 09:42 20.01.2022
3598 Mist 6 1027 80 10000 1.79 298 08:35 20.01.2022
3599 Mist 6 1027 81 10000 2.24 124 05:38 20.01.2022
3600 Mist 7 1029 84 10000 4.63 330 23:42 19.01.2022
3601 Clouds 8 1029 83 10000 3.09 330 22:37 19.01.2022
3602 Clouds 8 1029 84 10000 2.06 320 21:24 19.01.2022
3603 Clouds 8 1029 84 10000 1.03 310 20:51 19.01.2022
3604 Clouds 8 1029 82 9000 0.45 306 19:58 19.01.2022
3605 Clouds 9 1029 81 10000 0 0 18:48 19.01.2022
3606 Clouds 10 1029 76 10000 0.45 217 17:50 19.01.2022
3607 Clouds 12 1029 70 10000 0.45 134 16:59 19.01.2022
3608 Clouds 12 1029 64 10000 0.45 142 14:42 19.01.2022
3609 Clouds 11 1030 69 9000 0.89 288 12:53 19.01.2022
3610 Clouds 10 1031 73 10000 1.34 231 11:43 19.01.2022
3611 Clouds 8 1032 78 9000 0.89 0 10:38 19.01.2022
3612 Clouds 7 1032 79 10000 1.34 0 09:34 19.01.2022
3613 Mist 5 1031 84 10000 0.89 254 07:34 19.01.2022
3614 Clouds 6 1030 85 10000 1.79 278 05:19 19.01.2022
3615 Clouds 7 1032 87 10000 1.34 299 23:53 18.01.2022
3616 Clouds 8 1032 87 10000 1.34 289 23:18 18.01.2022
3617 Clouds 8 1032 86 10000 0.45 275 21:43 18.01.2022
3618 Clouds 9 1031 83 10000 0.45 54 19:57 18.01.2022
3619 Clouds 9 1031 82 10000 0.89 37 19:38 18.01.2022
3620 Clouds 9 1031 82 10000 0.45 291 19:18 18.01.2022
3621 Clouds 11 1030 80 10000 1.34 130 18:18 18.01.2022
3622 Clouds 12 1030 76 10000 2.24 117 17:29 18.01.2022
3623 Clouds 13 1030 72 10000 0.89 134 15:56 18.01.2022
3624 Clouds 13 1030 70 10000 0.89 52 15:24 18.01.2022
3625 Clear 13 1030 65 10000 0.89 0 14:18 18.01.2022
3626 Clear 9 1031 55 10000 2.24 280 11:20 18.01.2022
3627 Clear 8 1030 59 10000 3.13 286 09:58 18.01.2022
3628 Clear 6 1029 64 10000 2.24 263 08:19 18.01.2022
3629 Clear 6 1028 64 10000 0.45 65 07:31 18.01.2022
3630 Clear 7 1029 56 10000 3.58 259 00:22 18.01.2022
3631 Clear 8 1030 52 10000 3.13 254 22:31 17.01.2022
3632 Clear 8 1029 51 10000 0.45 151 21:36 17.01.2022
3633 Clear 9 1030 51 10000 0.89 128 20:39 17.01.2022
3634 Clear 11 1029 57 10000 0.89 261 18:46 17.01.2022
3635 Clear 11 1029 56 10000 3.09 250 18:23 17.01.2022
3636 Clear 14 1030 48 10000 1.34 172 16:53 17.01.2022
3637 Clear 15 1030 38 10000 1.34 0 15:47 17.01.2022
3638 Clear 15 1030 39 10000 0.89 259 14:58 17.01.2022
3639 Clear 14 1030 38 10000 0.45 131 14:22 17.01.2022
3640 Clear 12 1032 42 10000 1.34 317 12:58 17.01.2022
3641 Clear 11 1032 45 10000 2.68 244 11:51 17.01.2022
3642 Clear 10 1031 49 10000 3.58 227 10:47 17.01.2022
3643 Clouds 8 1031 53 10000 4.47 298 09:35 17.01.2022
3644 Clouds 7 1031 52 10000 2.24 248 08:43 17.01.2022
3645 Clouds 7 1031 51 10000 4.92 292 07:19 17.01.2022
3646 Clear 7 1031 48 10000 4.47 279 00:58 17.01.2022
3647 Clear 7 1030 50 10000 1.79 297 23:27 16.01.2022
3648 Clear 8 1030 53 10000 2.24 279 20:41 16.01.2022
3649 Clear 8 1030 57 10000 1.79 269 19:55 16.01.2022
3650 Clear 10 1028 54 10000 1.54 220 18:45 16.01.2022
3651 Clear 12 1028 49 10000 2.06 220 17:46 16.01.2022
3652 Clear 13 1028 42 10000 3.09 210 16:52 16.01.2022
3653 Clear 13 1027 41 10000 0.45 127 15:39 16.01.2022
3654 Clear 13 1028 39 10000 0.45 89 14:29 16.01.2022
3655 Clear 13 1028 39 10000 0.45 89 14:29 16.01.2022
3656 Clear 12 1028 44 10000 0.45 67 12:57 16.01.2022
3657 Clear 10 1029 48 10000 0.45 315 11:49 16.01.2022
3658 Clear 8 1029 53 10000 1.34 261 10:58 16.01.2022
3659 Clear 6 1028 57 10000 1.79 296 10:27 16.01.2022
3660 Clear 7 1028 56 10000 1.34 199 09:57 16.01.2022
3661 Clear 6 1027 57 10000 2.24 296 09:23 16.01.2022
3662 Clear 5 1028 59 10000 0.45 157 08:52 16.01.2022
3663 Clear 5 1026 61 10000 0.45 279 05:35 16.01.2022
3664 Clear 6 1026 56 10000 4.47 291 23:51 15.01.2022
3665 Clear 7 1026 52 10000 4.92 259 22:37 15.01.2022
3666 Clear 8 1027 49 10000 3.58 246 21:21 15.01.2022
3667 Clear 8 1026 49 10000 4.02 250 20:43 15.01.2022
3668 Clear 9 1025 48 10000 2.68 244 19:52 15.01.2022
3669 Clear 9 1025 49 10000 2.24 291 19:19 15.01.2022
3670 Clear 12 1025 49 10000 0.45 218 17:49 15.01.2022
3671 Clear 13 1025 46 10000 0.45 0 16:38 15.01.2022
3672 Clear 13 1025 40 10000 0.45 91 13:57 15.01.2022
3673 Clear 10 1026 45 10000 0.45 96 12:33 15.01.2022
3674 Clear 9 1027 50 10000 0.89 63 11:19 15.01.2022
3675 Clear 6 1027 60 10000 4.02 235 09:21 15.01.2022
3676 Clouds 7 1029 78 10000 2.24 258 00:52 15.01.2022
3677 Clear 8 1031 80 10000 0.45 323 21:57 14.01.2022
3678 Clear 8 1030 79 10000 2.06 320 20:51 14.01.2022
3679 Clear 8 1031 79 10000 1.54 300 20:23 14.01.2022
3680 Clear 9 1031 79 10000 1.03 0 19:48 14.01.2022
3681 Clear 10 1031 74 10000 0 0 18:28 14.01.2022
3682 Clouds 13 1031 61 10000 2.57 130 16:50 14.01.2022
3683 Clouds 13 1031 59 10000 3.09 120 15:48 14.01.2022
3684 Clouds 13 1032 57 10000 0.89 67 14:47 14.01.2022
3685 Clouds 13 1032 55 10000 0.89 343 13:47 14.01.2022
3686 Clouds 11 1033 52 10000 1.79 296 12:31 14.01.2022
3687 Clear 9 1034 51 10000 0.89 294 11:27 14.01.2022
3688 Clouds 8 1034 61 10000 1.34 294 09:51 14.01.2022
3689 Clouds 6 1034 64 10000 2.68 285 08:52 14.01.2022
3690 Clouds 6 1033 63 10000 2.24 321 07:21 14.01.2022
3691 Clear 7 1034 61 10000 1.34 275 01:37 14.01.2022
3692 Clear 7 1035 67 10000 4.12 330 23:32 13.01.2022
3693 Clear 7 1034 74 10000 2.68 292 21:41 13.01.2022
3694 Clear 8 1034 73 10000 1.79 271 21:23 13.01.2022
3695 Clear 8 1034 75 10000 1.03 30 19:41 13.01.2022
3696 Clear 8 1034 74 10000 1.03 30 19:22 13.01.2022
3697 Clear 11 1034 65 10000 1.03 140 17:56 13.01.2022
3698 Clear 12 1032 58 10000 1.54 160 16:22 13.01.2022
3699 Clear 12 1033 57 10000 2.57 140 15:37 13.01.2022
3700 Clear 12 1033 55 10000 0.45 201 14:49 13.01.2022
3701 Clear 11 1034 59 10000 0.89 240 12:46 13.01.2022
3702 Clear 7 1034 74 10000 0.89 0 10:25 13.01.2022
3703 Clear 6 1033 77 10000 0.89 300 09:20 13.01.2022
3704 Clear 5 1033 78 10000 0.89 320 08:27 13.01.2022
3705 Clear 5 1033 77 10000 0.45 297 07:24 13.01.2022
3706 Clear 5 1032 79 10000 0.45 312 06:41 13.01.2022
3707 Clear 5 1033 80 10000 0.89 312 05:20 13.01.2022
3708 Clear 6 1032 82 10000 1.34 307 03:24 13.01.2022
3709 Clouds 7 1032 79 10000 3.6 320 00:56 13.01.2022
3710 Clouds 7 1032 77 10000 3.6 330 23:50 12.01.2022
3711 Clouds 7 1032 76 10000 3.6 330 23:30 12.01.2022
3712 Clouds 8 1032 74 10000 2.57 310 21:58 12.01.2022
3713 Clouds 8 1032 73 10000 1.54 330 21:23 12.01.2022
3714 Clouds 8 1031 75 10000 0.45 26 20:57 12.01.2022
3715 Clouds 9 1031 74 10000 0.45 322 20:19 12.01.2022
3716 Clouds 10 1030 71 10000 0.45 90 18:48 12.01.2022
3717 Clouds 10 1030 69 10000 0.45 142 17:51 12.01.2022
3718 Clouds 12 1029 67 10000 0.45 116 16:42 12.01.2022
3719 Clouds 12 1029 68 10000 0.45 65 14:49 12.01.2022
3720 Clouds 12 1029 71 10000 0.89 58 13:37 12.01.2022
3721 Clouds 12 1029 69 10000 0.45 61 12:56 12.01.2022
3722 Clouds 8 1028 80 10000 0.89 294 08:55 12.01.2022
3723 Clouds 8 1027 81 10000 0.89 253 07:55 12.01.2022
3724 Clouds 8 1027 82 10000 0.45 252 07:32 12.01.2022
3725 Clouds 10 1026 78 10000 2.68 123 02:20 12.01.2022
3726 Clouds 10 1025 79 10000 4.92 164 23:26 11.01.2022
3727 Clouds 9 1025 81 10000 1.54 320 22:25 11.01.2022
3728 Clouds 10 1024 80 10000 2.06 310 21:28 11.01.2022
3729 Clouds 10 1023 80 10000 0.45 337 20:36 11.01.2022
3730 Clouds 11 1023 80 10000 0.45 290 19:23 11.01.2022
3731 Clouds 13 1022 75 10000 6.17 240 17:53 11.01.2022
3732 Clouds 15 1022 67 10000 0.45 129 16:39 11.01.2022
3733 Clouds 15 1022 65 10000 0.45 129 16:18 11.01.2022
3734 Clouds 14 1022 61 10000 0.45 305 14:50 11.01.2022
3735 Clouds 14 1022 61 10000 0.89 260 14:32 11.01.2022
3736 Clouds 14 1022 65 10000 0.45 203 13:48 11.01.2022
3737 Clouds 13 1023 73 10000 0.45 75 13:25 11.01.2022
3738 Clouds 12 1022 80 10000 0.45 264 12:25 11.01.2022
3739 Clouds 9 1023 86 10000 1.34 73 10:31 11.01.2022
3740 Clouds 8 1022 81 7000 0.45 269 07:50 11.01.2022
3741 Clouds 9 1021 84 10000 0.89 309 03:51 11.01.2022
3742 Clouds 10 1020 84 10000 1.79 251 00:27 11.01.2022
3743 Clouds 10 1019 84 10000 2.24 277 23:39 10.01.2022
3744 Clouds 10 1019 85 10000 2.68 261 22:39 10.01.2022
3745 Clouds 10 1019 84 10000 1.34 265 22:18 10.01.2022
3746 Clouds 10 1018 84 10000 1.79 259 21:33 10.01.2022
3747 Clouds 10 1018 84 10000 1.34 241 20:59 10.01.2022
3748 Clouds 10 1018 83 10000 0.45 321 20:41 10.01.2022
3749 Clouds 10 1018 83 10000 1.34 242 20:19 10.01.2022
3750 Clouds 10 1017 84 10000 0.45 307 19:38 10.01.2022
3751 Clouds 10 1017 84 10000 1.34 285 19:19 10.01.2022
3752 Clouds 10 1016 83 10000 0.45 0 18:46 10.01.2022
3753 Drizzle 10 1016 84 10000 0.89 319 16:49 10.01.2022
3754 Drizzle 10 1015 85 10000 1.54 20 16:27 10.01.2022
3755 Drizzle 10 1015 85 6000 1.79 123 14:44 10.01.2022
3756 Drizzle 10 1015 86 4000 2.24 116 13:35 10.01.2022
3757 Clouds 10 1014 86 10000 0.89 126 11:57 10.01.2022
3758 Drizzle 10 1013 86 10000 5.66 70 10:50 10.01.2022
3759 Drizzle 11 1012 85 8000 3.13 113 09:40 10.01.2022
3760 Clouds 10 1010 83 10000 3.09 60 05:52 10.01.2022
3761 Clouds 10 1010 82 10000 1.34 0 02:38 10.01.2022
3762 Clouds 10 1010 80 10000 0.89 305 01:21 10.01.2022
3763 Clouds 11 1011 77 10000 0.51 0 00:21 10.01.2022
3764 Clouds 11 1011 73 10000 2.57 40 22:47 09.01.2022
3765 Clouds 11 1011 73 10000 0.89 68 22:21 09.01.2022
3766 Clouds 12 1011 72 10000 0.45 0 21:42 09.01.2022
3767 Clouds 12 1011 71 10000 0.45 0 21:22 09.01.2022
3768 Clouds 12 1011 70 10000 1.34 269 20:47 09.01.2022
3769 Clouds 12 1011 70 10000 1.79 293 20:29 09.01.2022
3770 Clouds 13 1012 68 10000 0.89 255 19:42 09.01.2022
3771 Clouds 13 1012 67 10000 0.89 333 19:21 09.01.2022
3772 Clouds 13 1011 65 10000 1.34 288 18:47 09.01.2022
3773 Clouds 13 1011 63 10000 1.34 0 18:28 09.01.2022
3774 Clouds 14 1011 60 10000 0.45 0 17:30 09.01.2022
3775 Clouds 15 1011 57 10000 1.79 265 16:50 09.01.2022
3776 Clouds 15 1011 56 10000 2.24 293 15:52 09.01.2022
3777 Clouds 15 1011 57 10000 1.79 283 15:33 09.01.2022
3778 Clouds 14 1012 59 10000 3.58 281 14:39 09.01.2022
3779 Clouds 14 1012 60 10000 1.34 282 13:50 09.01.2022
3780 Clouds 13 1013 64 10000 4.02 316 12:31 09.01.2022
3781 Clouds 13 1014 66 10000 1.34 350 11:47 09.01.2022
3782 Clouds 11 1014 71 10000 2.24 60 09:56 09.01.2022
3783 Clouds 10 1014 71 10000 1.79 17 09:29 09.01.2022
3784 Clouds 10 1014 70 10000 0.89 292 08:25 09.01.2022
3785 Clouds 10 1014 58 10000 3.13 318 02:31 09.01.2022
3786 Clouds 10 1014 54 10000 4.02 0 01:20 09.01.2022
3787 Clouds 10 1016 57 10000 0.89 282 23:38 08.01.2022
3788 Clouds 10 1016 57 10000 1.34 299 22:59 08.01.2022
3789 Clouds 11 1017 60 10000 0.45 80 21:33 08.01.2022
3790 Clouds 11 1017 63 10000 1.34 278 20:45 08.01.2022
3791 Clouds 11 1017 63 10000 1.34 277 20:23 08.01.2022
3792 Clouds 11 1018 65 10000 1.34 26 19:58 08.01.2022
3793 Clouds 12 1019 65 10000 0.45 325 17:51 08.01.2022
3794 Clear 12 1019 65 10000 0.89 279 17:21 08.01.2022
3795 Clear 13 1020 61 10000 0.89 338 15:47 08.01.2022
3796 Clouds 12 1021 63 10000 0.89 254 14:41 08.01.2022
3797 Clear 10 1022 67 10000 0.45 186 12:44 08.01.2022
3798 Clouds 8 1023 71 10000 2.24 226 10:59 08.01.2022
3799 Clouds 8 1023 70 10000 0.89 283 10:25 08.01.2022
3800 Clouds 7 1023 72 10000 3.58 296 09:44 08.01.2022
3801 Clouds 7 1022 70 10000 4.02 280 07:19 08.01.2022
3802 Clouds 8 1023 63 10000 1.34 287 02:39 08.01.2022
3803 Clear 7 1023 64 10000 2.24 223 00:41 08.01.2022
3804 Clear 7 1024 62 10000 1.34 269 22:40 07.01.2022
3805 Clouds 7 1024 65 10000 0.89 284 20:56 07.01.2022
3806 Clouds 7 1024 66 10000 3.09 290 19:56 07.01.2022
3807 Clouds 8 1023 66 10000 3.09 290 19:56 07.01.2022
3808 Clouds 8 1023 64 10000 0.51 70 18:58 07.01.2022
3809 Clouds 9 1023 62 10000 1.54 100 18:38 07.01.2022
3810 Clear 11 1023 53 10000 1.03 220 17:25 07.01.2022
3811 Clear 12 1022 49 10000 0.45 256 16:23 07.01.2022
3812 Clear 11 1021 46 10000 0.45 43 13:53 07.01.2022
3813 Clear 10 1022 48 10000 0.45 172 13:22 07.01.2022
3814 Clear 10 1023 49 10000 0.45 335 12:49 07.01.2022
3815 Clear 5 1022 62 10000 3.13 245 09:37 07.01.2022
3816 Clear 5 1021 60 10000 4.02 300 02:55 07.01.2022
3817 Clear 6 1020 59 10000 0.45 0 01:54 07.01.2022
3818 Clear 5 1020 60 10000 0.45 300 01:27 07.01.2022
3819 Clear 6 1020 59 10000 2.24 284 00:58 07.01.2022
3820 Clear 6 1020 58 10000 2.24 284 00:58 07.01.2022
3821 Clear 6 1019 56 10000 0.89 325 22:54 06.01.2022
3822 Clear 7 1019 54 10000 0.45 0 21:28 06.01.2022
3823 Clear 7 1019 53 10000 0.45 262 20:22 06.01.2022
3824 Clear 7 1018 53 10000 0.89 311 19:45 06.01.2022
3825 Clear 8 1018 50 10000 3.58 275 18:29 06.01.2022
3826 Clear 10 1016 44 10000 2.24 344 17:40 06.01.2022
3827 Clear 11 1016 38 10000 1.79 316 16:44 06.01.2022
3828 Clear 11 1016 36 10000 2.24 271 15:47 06.01.2022
3829 Clear 11 1016 37 10000 1.79 284 15:26 06.01.2022
3830 Clear 11 1016 37 10000 2.24 330 14:51 06.01.2022
3831 Clear 11 1016 40 10000 0.45 307 14:18 06.01.2022
3832 Clear 9 1017 48 10000 1.34 273 12:50 06.01.2022
3833 Clear 8 1016 50 10000 1.34 166 11:43 06.01.2022
3834 Clear 7 1017 53 10000 3.58 288 11:23 06.01.2022
3835 Clear 4 1015 62 10000 5.36 340 08:59 06.01.2022
3836 Clouds 6 1012 66 10000 0.89 312 01:37 06.01.2022
3837 Clear 8 1013 73 10000 1.34 297 23:38 05.01.2022
3838 Clear 8 1013 72 10000 1.79 282 22:59 05.01.2022
3839 Clouds 8 1012 72 10000 1.34 316 22:33 05.01.2022
3840 Clouds 8 1012 75 10000 1.79 303 21:52 05.01.2022
3841 Clouds 8 1012 76 10000 0.89 322 21:21 05.01.2022
3842 Clouds 9 1012 76 10000 0.45 295 20:19 05.01.2022
3843 Clouds 10 1012 77 10000 0.45 277 18:54 05.01.2022
3844 Clear 11 1011 74 10000 1.34 152 17:45 05.01.2022
3845 Clear 12 1010 70 10000 0.89 143 16:56 05.01.2022
3846 Clouds 13 1010 62 10000 0.45 63 15:46 05.01.2022
3847 Clouds 13 1010 58 10000 0.45 191 14:28 05.01.2022
3848 Clouds 12 1010 63 10000 0.89 245 13:32 05.01.2022
3849 Clouds 10 1010 73 10000 1.34 17 11:45 05.01.2022
3850 Rain 10 1008 81 10000 0.89 298 08:20 05.01.2022
3851 Rain 10 1005 82 9000 0.89 193 06:36 05.01.2022
3852 Clouds 12 1003 75 10000 0.89 347 00:59 05.01.2022
3853 Clouds 12 1004 74 8000 0.51 0 23:38 04.01.2022
3854 Clouds 13 1004 74 8000 0.45 293 23:18 04.01.2022
3855 Clouds 14 1005 72 6000 0.45 298 21:31 04.01.2022
3856 Clear 15 1006 66 9000 1.79 323 19:55 04.01.2022
3857 Clear 16 1006 64 9000 0.45 221 18:19 04.01.2022
3858 Clear 17 1007 61 9000 0.89 222 17:18 04.01.2022
3859 Clear 19 1007 58 10000 0.89 272 16:31 04.01.2022
3860 Clear 20 1008 59 9000 0.45 194 14:58 04.01.2022
3861 Clear 20 1008 60 10000 0.45 194 14:36 04.01.2022
3862 Clear 20 1009 60 10000 1.34 265 13:48 04.01.2022
3863 Clear 16 1012 64 10000 0.45 102 10:59 04.01.2022
3864 Clear 14 1013 73 10000 1.79 250 09:58 04.01.2022
3865 Clear 12 1012 72 9000 0.45 300 08:36 04.01.2022
3866 Clear 12 1014 75 7000 0.45 277 04:24 04.01.2022
3867 Clouds 13 1017 75 6000 0.89 30 00:42 04.01.2022
3868 Clouds 12 1018 75 7000 0.45 330 23:44 03.01.2022
3869 Clouds 13 1019 75 8000 0.89 276 22:21 03.01.2022
3870 Clouds 13 1019 77 7000 0.45 238 21:38 03.01.2022
3871 Clouds 13 1019 78 6000 0.89 290 20:34 03.01.2022
3872 Clouds 13 1020 78 9000 0.45 5 18:55 03.01.2022
3873 Clouds 14 1020 77 9000 0.89 346 18:30 03.01.2022
3874 Clear 15 1020 74 8000 2.24 221 17:20 03.01.2022
3875 Clear 16 1020 73 9000 0.45 214 16:31 03.01.2022
3876 Clouds 16 1022 72 8000 0.45 66 14:31 03.01.2022
3877 Clear 15 1024 73 10000 1.34 220 12:52 03.01.2022
3878 Clouds 14 1025 72 8000 0.45 71 11:50 03.01.2022
3879 Clouds 12 1025 80 6000 2.57 290 10:37 03.01.2022
3880 Clouds 11 1025 78 6000 2.57 310 09:27 03.01.2022
3881 Clouds 12 1025 73 6000 0.89 252 07:52 03.01.2022
3882 Mist 10 1027 80 2500 0.89 117 02:56 03.01.2022
3883 Mist 11 1028 83 7000 1.79 301 23:23 02.01.2022
3884 Mist 12 1028 83 8000 0.45 257 22:56 02.01.2022
3885 Mist 12 1028 84 10000 1.03 0 21:52 02.01.2022
3886 Mist 12 1028 83 10000 1.54 60 20:50 02.01.2022
3887 Mist 12 1027 83 10000 0 0 20:29 02.01.2022
3888 Clouds 13 1028 81 10000 0.51 0 19:31 02.01.2022
3889 Clouds 13 1028 79 10000 0.45 135 18:56 02.01.2022
3890 Clouds 13 1027 79 10000 1.54 210 17:57 02.01.2022
3891 Clouds 14 1027 79 10000 0.45 41 17:39 02.01.2022
3892 Clouds 14 1027 74 10000 2.57 200 17:20 02.01.2022
3893 Clouds 16 1026 73 10000 3.6 220 16:28 02.01.2022
3894 Clouds 17 1027 72 10000 3.6 210 14:41 02.01.2022
3895 Clouds 15 1026 75 10000 0.89 153 13:25 02.01.2022
3896 Clouds 14 1028 76 10000 0.89 59 12:32 02.01.2022
3897 Fog 14 1028 73 10000 1.54 320 11:49 02.01.2022
3898 Fog 12 1028 84 10000 2.06 320 10:53 02.01.2022
3899 Fog 10 1028 86 10000 3.6 330 09:56 02.01.2022
3900 Clouds 11 1027 87 10000 3.09 320 07:34 02.01.2022
3901 Clouds 11 1027 70 10000 3.09 330 02:56 02.01.2022
3902 Clouds 11 1027 75 10000 2.57 340 23:42 01.01.2022
3903 Clear 11 1027 74 10000 1.54 330 23:24 01.01.2022
3904 Clouds 11 1027 75 9000 2.57 310 22:25 01.01.2022
3905 Clear 12 1026 79 10000 1.54 300 21:45 01.01.2022
3906 Clear 12 1026 80 10000 1.54 300 21:21 01.01.2022
3907 Clear 12 1026 82 10000 3.09 30 20:20 01.01.2022
3908 Clouds 13 1026 84 10000 1.03 0 19:34 01.01.2022
3909 Clouds 13 1026 84 10000 1.03 0 18:51 01.01.2022
3910 Clouds 15 1025 80 10000 0.89 87 17:38 01.01.2022
3911 Clouds 17 1025 76 10000 5.14 220 16:34 01.01.2022
3912 Clouds 17 1025 76 10000 5.14 220 16:34 01.01.2022
3913 Clear 18 1025 68 10000 0.45 165 15:37 01.01.2022
3914 Clouds 18 1024 69 10000 5.14 220 14:25 01.01.2022
3915 Clear 17 1026 68 10000 0.45 131 13:36 01.01.2022
3916 Clouds 16 1027 64 10000 0.45 117 12:18 01.01.2022
3917 Fog 14 1027 69 7000 0.45 263 11:25 01.01.2022
3918 Fog 15 1027 67 7000 1.79 256 10:56 01.01.2022
3919 Fog 12 1026 72 150 3.13 256 09:48 01.01.2022
3920 Fog 13 1026 61 8000 3.58 254 08:35 01.01.2022
3921 Fog 12 1025 64 10000 3.13 254 07:56 01.01.2022
3922 Fog 14 1025 61 8000 1.79 270 07:37 01.01.2022
3923 Mist 14 1025 61 5000 2.68 251 06:43 01.01.2022
3924 Fog 13 1026 69 600 1.79 264 04:39 01.01.2022
3925 Clouds 13 1026 69 6000 1.34 228 03:50 01.01.2022
3926 Clouds 12 1027 76 9000 1.34 129 23:55 31.12.2021
3927 Clear 12 1028 84 8000 2.57 320 22:24 31.12.2021
3928 Clouds 12 1028 84 6000 1.54 330 21:39 31.12.2021
3929 Clouds 13 1026 89 10000 1.03 70 19:43 31.12.2021
3930 Clear 13 1027 94 10000 1.54 80 18:50 31.12.2021
3931 Clouds 16 1026 81 10000 1.03 120 17:56 31.12.2021
3932 Clear 16 1026 81 10000 1.54 180 17:26 31.12.2021
3933 Clear 16 1026 77 10000 2.57 210 16:52 31.12.2021
3934 Clear 17 1026 73 10000 4.12 210 16:18 31.12.2021
3935 Clear 18 1025 68 10000 4.12 210 15:45 31.12.2021
3936 Clear 18 1025 68 10000 0.45 107 15:26 31.12.2021
3937 Clear 18 1025 68 10000 0.45 107 15:26 31.12.2021
3938 Clear 18 1025 63 10000 2.57 220 14:39 31.12.2021
3939 Clouds 18 1025 63 10000 3.09 220 13:51 31.12.2021
3940 Clear 17 1025 62 10000 1.34 235 12:51 31.12.2021
3941 Clear 17 1026 63 10000 1.34 249 12:21 31.12.2021
3942 Clear 16 1027 64 10000 2.68 244 11:42 31.12.2021
3943 Clouds 15 1026 66 10000 2.68 245 10:55 31.12.2021
3944 Clouds 14 1026 70 10000 3.13 242 10:28 31.12.2021
3945 Clouds 13 1026 76 10000 0.89 254 09:34 31.12.2021
3946 Clouds 13 1025 77 10000 6.69 320 08:52 31.12.2021
3947 Clear 12 1025 78 10000 0.45 298 07:55 31.12.2021
3948 Clear 13 1023 77 10000 1.79 250 04:55 31.12.2021
3949 Clear 14 1023 73 10000 0.45 288 23:18 30.12.2021
3950 Clear 14 1023 75 10000 2.24 256 22:32 30.12.2021
3951 Clear 15 1023 74 10000 1.79 251 21:39 30.12.2021
3952 Clear 15 1022 74 10000 0.89 247 21:19 30.12.2021
3953 Clear 15 1022 73 10000 0.45 179 20:40 30.12.2021
3954 Clear 16 1022 71 10000 3.58 271 19:56 30.12.2021
3955 Clear 16 1022 71 10000 3.13 302 19:31 30.12.2021
3956 Clouds 17 1022 67 10000 2.68 243 18:28 30.12.2021
3957 Clear 19 1021 61 10000 0.89 244 16:53 30.12.2021
3958 Clear 20 1021 58 10000 0.45 142 15:54 30.12.2021
3959 Clear 20 1021 58 10000 1.79 254 15:21 30.12.2021
3960 Clear 19 1022 60 10000 2.24 246 14:36 30.12.2021
3961 Clear 18 1022 63 10000 0.45 267 13:26 30.12.2021
3962 Clear 16 1023 69 10000 1.79 245 11:58 30.12.2021
3963 Clouds 15 1023 75 10000 2.68 279 10:40 30.12.2021
3964 Clouds 14 1022 77 10000 0.89 278 09:50 30.12.2021
3965 Clouds 14 1021 78 10000 1.79 288 07:25 30.12.2021
3966 Clouds 13 1022 80 10000 2.68 255 06:32 30.12.2021
3967 Clouds 14 1021 77 10000 3.13 289 03:41 30.12.2021
3968 Clouds 14 1021 78 10000 3.13 265 02:32 30.12.2021
3969 Clear 15 1022 75 10000 1.79 232 23:40 29.12.2021
3970 Clear 15 1021 73 10000 1.79 241 22:59 29.12.2021
3971 Clear 15 1021 71 10000 1.79 249 22:18 29.12.2021
3972 Clear 16 1021 67 10000 2.68 275 21:19 29.12.2021
3973 Clear 16 1021 66 10000 0.45 269 20:30 29.12.2021
3974 Clear 16 1021 65 10000 0.45 269 20:30 29.12.2021
3975 Clear 16 1021 66 10000 0.45 269 20:30 29.12.2021
3976 Clear 16 1021 66 10000 0.45 269 20:30 29.12.2021
3977 Clear 17 1021 65 10000 2.68 294 19:43 29.12.2021
3978 Clear 17 1020 64 10000 0.45 198 18:44 29.12.2021
3979 Clear 18 1019 63 10000 1.34 270 17:52 29.12.2021
3980 Clear 18 1019 61 10000 1.34 270 17:27 29.12.2021
3981 Clear 19 1018 57 10000 1.34 339 16:22 29.12.2021
3982 Clear 19 1018 56 10000 0.89 304 15:42 29.12.2021
3983 Clear 18 1018 59 10000 1.79 281 13:53 29.12.2021
3984 Clear 17 1019 62 10000 1.79 292 12:36 29.12.2021
3985 Clear 16 1019 66 10000 1.34 269 11:27 29.12.2021
3986 Clear 14 1019 74 10000 2.24 236 09:56 29.12.2021
3987 Clear 13 1018 76 10000 0.89 112 07:51 29.12.2021
3988 Clear 14 1018 75 10000 2.68 246 06:38 29.12.2021
3989 Clear 14 1018 73 10000 1.34 198 05:59 29.12.2021
3990 Clear 14 1017 74 10000 0.89 228 05:36 29.12.2021
3991 Clear 15 1016 69 10000 0.45 0 02:40 29.12.2021
3992 Clouds 16 1016 67 10000 1.79 290 00:22 29.12.2021
3993 Clouds 16 1016 68 10000 1.79 287 23:34 28.12.2021
3994 Clouds 16 1016 65 10000 1.79 196 22:42 28.12.2021
3995 Clear 16 1016 66 10000 1.34 300 22:24 28.12.2021
3996 Clouds 17 1016 65 10000 3.13 274 21:37 28.12.2021
3997 Clouds 17 1015 65 10000 2.68 322 20:39 28.12.2021
3998 Clouds 17 1016 63 10000 1.79 261 19:24 28.12.2021
3999 Clouds 17 1015 62 10000 0.45 86 18:37 28.12.2021
4000 Clouds 18 1015 60 10000 0.45 139 17:59 28.12.2021
4001 Clouds 19 1013 56 10000 0.45 28 16:34 28.12.2021
4002 Clear 19 1013 55 10000 0.89 20 15:50 28.12.2021
4003 Clear 19 1013 54 10000 0.89 344 15:20 28.12.2021
4004 Clouds 19 1013 53 10000 0.45 345 14:47 28.12.2021
4005 Clouds 19 1012 53 10000 5.81 305 14:21 28.12.2021
4006 Clouds 19 1013 53 10000 1.34 282 13:42 28.12.2021
4007 Clouds 19 1013 53 10000 1.34 282 13:42 28.12.2021
4008 Clouds 19 1013 54 10000 1.34 320 13:24 28.12.2021
4009 Clouds 18 1014 54 10000 2.24 281 12:49 28.12.2021
4010 Clear 16 1014 60 10000 5.36 302 11:36 28.12.2021
4011 Clear 13 1012 67 10000 1.79 303 08:30 28.12.2021
4012 Clear 15 1011 66 10000 2.24 258 06:42 28.12.2021
4013 Clear 16 1012 61 10000 0.89 320 23:44 27.12.2021
4014 Clear 16 1012 62 10000 2.24 289 23:23 27.12.2021
4015 Clear 16 1011 60 10000 0.45 272 21:42 27.12.2021
4016 Clear 16 1011 60 10000 2.24 293 21:21 27.12.2021
4017 Clear 17 1011 58 10000 0.89 76 20:23 27.12.2021
4018 Clear 17 1011 57 10000 1.79 297 19:41 27.12.2021
4019 Clouds 17 1010 58 10000 0.89 265 18:52 27.12.2021
4020 Rain 17 1010 61 10000 1.79 194 17:49 27.12.2021
4021 Clouds 18 1009 60 10000 1.34 259 16:55 27.12.2021
4022 Clouds 18 1008 56 10000 0.89 72 15:52 27.12.2021
4023 Clouds 19 1008 56 10000 0.89 305 14:33 27.12.2021
4024 Clouds 19 1008 55 10000 3.13 128 13:40 27.12.2021
4025 Clouds 19 1008 57 10000 0.89 5 12:40 27.12.2021
4026 Clear 16 1006 72 10000 0.45 89 10:32 27.12.2021
4027 Clear 15 1006 75 10000 3.13 313 09:57 27.12.2021
4028 Clouds 13 1006 79 10000 0.45 32 08:39 27.12.2021
4029 Clouds 13 1005 79 10000 1.79 293 07:32 27.12.2021
4030 Clouds 13 1007 75 10000 0.45 311 02:24 27.12.2021
4031 Clouds 12 1009 75 10000 0.45 296 23:58 26.12.2021
4032 Clouds 12 1009 75 10000 0.45 134 23:40 26.12.2021
4033 Clouds 12 1010 75 10000 0.89 280 22:36 26.12.2021
4034 Clouds 13 1009 75 10000 0.45 275 20:59 26.12.2021
4035 Clear 13 1009 73 10000 0.45 306 19:49 26.12.2021
4036 Clear 14 1008 72 10000 0.45 253 18:25 26.12.2021
4037 Clear 14 1009 72 10000 0.45 222 17:30 26.12.2021
4038 Clouds 17 1008 64 10000 0.89 306 14:38 26.12.2021
4039 Clouds 16 1009 63 10000 0.45 355 13:43 26.12.2021
4040 Clouds 16 1009 63 10000 0.45 345 13:21 26.12.2021
4041 Clouds 15 1009 70 10000 1.79 248 12:34 26.12.2021
4042 Clear 13 1009 76 10000 0.89 260 10:48 26.12.2021
4043 Clouds 11 1008 80 10000 1.79 249 09:30 26.12.2021
4044 Clouds 11 1008 80 10000 0.45 344 08:44 26.12.2021
4045 Clouds 11 1008 81 10000 0.89 326 08:23 26.12.2021
4046 Clouds 12 1006 76 10000 0.45 288 01:37 26.12.2021
4047 Clouds 13 1006 75 10000 0.45 232 00:20 26.12.2021
4048 Clouds 13 1006 74 10000 0.45 301 23:35 25.12.2021
4049 Clouds 14 1006 73 10000 0.45 240 22:29 25.12.2021
4050 Clouds 14 1006 71 10000 0.89 238 21:29 25.12.2021
4051 Clouds 15 1005 70 8000 0.89 288 19:46 25.12.2021
4052 Clouds 15 1005 69 6000 1.34 223 19:18 25.12.2021
4053 Clouds 15 1005 67 7000 0.89 265 18:29 25.12.2021
4054 Clouds 17 1004 59 10000 0.89 0 16:49 25.12.2021
4055 Clouds 18 1004 59 10000 0.45 314 15:30 25.12.2021
4056 Clouds 18 1005 66 10000 1.34 256 14:23 25.12.2021
4057 Clouds 16 1006 75 10000 0.89 169 12:21 25.12.2021
4058 Clouds 14 1006 80 10000 0.45 304 10:46 25.12.2021
4059 Clouds 13 1006 84 7000 0.45 332 09:49 25.12.2021
4060 Clouds 11 1006 81 8000 0.45 287 07:27 25.12.2021
4061 Drizzle 13 1006 83 10000 1.34 275 01:40 25.12.2021
4062 Drizzle 13 1007 84 9000 3.6 230 00:22 25.12.2021
4063 Clouds 13 1008 84 8000 1.03 0 21:59 24.12.2021
4064 Clouds 13 1009 83 8000 3.09 220 19:27 24.12.2021
4065 Drizzle 14 1009 83 9000 3.09 210 18:56 24.12.2021
4066 Clouds 15 1010 81 10000 4.63 230 16:49 24.12.2021
4067 Clouds 15 1010 82 10000 6.69 240 15:50 24.12.2021
4068 Clouds 15 1010 81 10000 0.89 243 15:25 24.12.2021
4069 Clouds 15 1011 81 10000 1.34 238 14:35 24.12.2021
4070 Clouds 15 1012 80 9000 0.45 245 13:59 24.12.2021
4071 Clouds 15 1012 82 9000 0.45 275 13:32 24.12.2021
4072 Mist 15 1013 81 8000 0.45 311 12:47 24.12.2021
4073 Mist 14 1014 83 7000 0.89 61 11:46 24.12.2021
4074 Drizzle 13 1014 83 6000 0.45 236 11:24 24.12.2021
4075 Drizzle 13 1014 83 6000 0.45 161 10:36 24.12.2021
4076 Drizzle 13 1014 84 8000 1.54 310 09:25 24.12.2021
4077 Mist 12 1014 85 10000 1.03 0 08:19 24.12.2021
4078 Mist 12 1015 85 10000 1.34 129 07:44 24.12.2021
4079 Mist 12 1017 85 9000 4.12 240 00:48 24.12.2021
4080 Clouds 12 1017 85 10000 3.6 240 23:54 23.12.2021
4081 Clouds 12 1018 84 10000 0.89 155 22:54 23.12.2021
4082 Clouds 12 1018 84 10000 0.45 307 22:27 23.12.2021
4083 Clouds 12 1018 83 10000 0.45 179 21:59 23.12.2021
4084 Clouds 12 1018 84 10000 0.45 235 20:54 23.12.2021
4085 Clouds 13 1018 83 10000 4.12 240 19:39 23.12.2021
4086 Clouds 12 1018 82 10000 0.45 0 18:32 23.12.2021
4087 Clouds 13 1018 82 10000 0.45 269 17:55 23.12.2021
4088 Clouds 14 1017 82 10000 0.45 133 16:43 23.12.2021
4089 Clouds 15 1018 82 10000 0.45 259 16:23 23.12.2021
4090 Clouds 14 1018 82 10000 0.89 115 15:31 23.12.2021
4091 Clouds 14 1018 82 10000 0.89 115 15:31 23.12.2021
4092 Clouds 14 1019 83 10000 0.45 333 14:43 23.12.2021
4093 Clouds 14 1019 83 10000 0.89 315 14:19 23.12.2021
4094 Clouds 14 1020 84 9000 0.45 130 12:53 23.12.2021
4095 Mist 12 1021 87 5000 0.45 124 10:43 23.12.2021
4096 Mist 11 1021 87 5000 1.54 310 09:35 23.12.2021
4097 Mist 11 1021 86 5000 1.54 310 08:59 23.12.2021
4098 Mist 11 1020 87 2700 1.79 241 06:51 23.12.2021
4099 Mist 11 1021 87 3100 2.06 330 04:30 23.12.2021
4100 Mist 11 1022 86 2600 1.54 350 22:57 22.12.2021
4101 Mist 11 1022 87 2400 1.54 20 22:39 22.12.2021
4102 Mist 11 1022 86 2200 1.54 10 21:54 22.12.2021
4103 Mist 11 1022 86 2500 2.57 30 21:29 22.12.2021
4104 Mist 11 1022 86 2400 2.57 30 20:47 22.12.2021
4105 Mist 11 1022 86 2500 3.09 50 20:26 22.12.2021
4106 Mist 11 1021 86 2200 2.06 40 19:21 22.12.2021
4107 Mist 11 1021 84 5000 0.45 91 17:42 22.12.2021
4108 Mist 11 1021 82 8000 0.45 78 16:39 22.12.2021
4109 Mist 11 1021 82 7000 0.89 58 15:39 22.12.2021
4110 Clouds 11 1021 82 7000 2.57 340 13:33 22.12.2021
4111 Clouds 11 1021 81 8000 3.09 320 12:40 22.12.2021
4112 Clouds 10 1021 82 7000 3.6 340 10:19 22.12.2021
4113 Clouds 10 1021 82 7000 0.45 289 09:38 22.12.2021
4114 Clouds 9 1020 83 7000 0.45 275 07:30 22.12.2021
4115 Clouds 10 1019 82 8000 0.89 297 05:50 22.12.2021
4116 Clouds 10 1019 83 8000 2.57 330 05:26 22.12.2021
4117 Clouds 10 1019 82 8000 3.09 330 04:50 22.12.2021
4118 Clouds 10 1020 82 8000 2.57 340 04:26 22.12.2021
4119 Clouds 10 1020 82 8000 2.57 340 03:32 22.12.2021
4120 Clouds 10 1020 84 8000 2.57 320 00:50 22.12.2021
4121 Clouds 10 1020 84 8000 2.57 310 23:25 21.12.2021
4122 Clouds 11 1020 84 8000 1.54 290 22:28 21.12.2021
4123 Clouds 11 1020 84 9000 2.06 10 21:44 21.12.2021
4124 Clouds 11 1020 83 10000 0 0 21:22 21.12.2021
4125 Clouds 11 1020 83 10000 1.54 60 20:21 21.12.2021
4126 Clouds 11 1020 84 10000 2.57 70 19:43 21.12.2021
4127 Clouds 12 1019 83 10000 0.45 23 18:48 21.12.2021
4128 Clouds 12 1019 82 10000 0.45 70 18:21 21.12.2021
4129 Clouds 12 1019 82 10000 0.45 88 17:42 21.12.2021
4130 Clouds 13 1019 81 10000 0.89 84 16:26 21.12.2021
4131 Clouds 13 1019 79 10000 0.45 0 15:25 21.12.2021
4132 Clouds 13 1019 76 10000 0.45 116 13:51 21.12.2021
4133 Clouds 13 1019 75 10000 1.79 126 13:31 21.12.2021
4134 Clouds 12 1020 72 10000 0.45 61 11:57 21.12.2021
4135 Clouds 10 1020 76 10000 1.34 292 10:25 21.12.2021
4136 Clouds 9 1020 77 10000 2.24 303 09:33 21.12.2021
4137 Clouds 8 1019 74 10000 1.34 334 08:28 21.12.2021
4138 Clouds 8 1019 73 10000 2.68 280 07:32 21.12.2021
4139 Clouds 8 1019 72 10000 0.45 299 06:50 21.12.2021
4140 Clouds 7 1018 74 10000 0.45 331 03:18 21.12.2021
4141 Clouds 8 1018 73 10000 1.34 69 00:46 21.12.2021
4142 Clouds 8 1019 69 10000 0.45 315 23:34 20.12.2021
4143 Clear 9 1019 68 10000 0.89 331 22:33 20.12.2021
4144 Clear 9 1019 68 10000 1.34 302 21:48 20.12.2021
4145 Clear 9 1018 67 10000 1.34 23 21:24 20.12.2021
4146 Clear 9 1019 69 10000 2.68 285 20:48 20.12.2021
4147 Clouds 9 1019 67 10000 0.89 22 19:55 20.12.2021
4148 Clouds 10 1019 68 10000 2.24 351 19:32 20.12.2021
4149 Clouds 10 1019 70 10000 1.79 313 18:55 20.12.2021
4150 Clouds 12 1018 65 10000 0.45 316 17:56 20.12.2021
4151 Clouds 12 1018 65 10000 0.45 309 17:37 20.12.2021
4152 Clear 14 1018 60 10000 0.89 306 16:43 20.12.2021
4153 Clear 14 1019 59 10000 0.45 279 15:52 20.12.2021
4154 Clear 14 1019 58 10000 0.45 15 14:56 20.12.2021
4155 Clear 13 1019 58 10000 1.34 315 13:18 20.12.2021
4156 Clouds 11 1020 62 10000 1.34 98 11:27 20.12.2021
4157 Clouds 9 1020 69 10000 2.68 286 09:51 20.12.2021
4158 Clear 8 1020 71 10000 1.34 0 09:31 20.12.2021
4159 Clear 7 1020 73 10000 3.58 313 08:42 20.12.2021
4160 Clear 6 1020 75 10000 2.24 229 07:55 20.12.2021
4161 Clouds 7 1020 73 10000 2.24 221 07:31 20.12.2021
4162 Clouds 8 1021 73 10000 0.89 0 04:36 20.12.2021
4163 Clouds 9 1022 72 10000 1.79 262 00:18 20.12.2021
4164 Clouds 8 1023 78 10000 0.45 257 22:53 19.12.2021
4165 Clouds 9 1023 80 10000 0.45 282 21:55 19.12.2021
4166 Clouds 9 1023 80 10000 0.45 280 21:31 19.12.2021
4167 Clouds 10 1023 81 10000 0.45 307 20:34 19.12.2021
4168 Clouds 10 1023 81 10000 0.45 300 19:52 19.12.2021
4169 Clouds 10 1023 81 10000 2.06 280 19:32 19.12.2021
4170 Clouds 11 1023 80 10000 4.12 240 18:30 19.12.2021
4171 Clouds 11 1023 79 10000 0.89 270 17:53 19.12.2021
4172 Clouds 12 1023 77 10000 0.89 306 17:21 19.12.2021
4173 Clouds 13 1023 76 10000 2.24 270 16:27 19.12.2021
4174 Clouds 13 1024 76 10000 2.24 311 15:43 19.12.2021
4175 Clouds 14 1024 75 10000 0.89 53 15:21 19.12.2021
4176 Clouds 14 1024 74 10000 1.79 285 14:42 19.12.2021
4177 Clouds 13 1025 74 10000 0.45 94 13:24 19.12.2021
4178 Clouds 13 1026 74 10000 0.89 242 12:47 19.12.2021
4179 Clouds 12 1026 77 10000 0.45 256 12:28 19.12.2021
4180 Clear 11 1027 79 7000 1.79 242 11:26 19.12.2021
4181 Clouds 9 1027 82 10000 2.24 239 10:28 19.12.2021
4182 Clouds 9 1028 79 10000 2.24 238 09:53 19.12.2021
4183 Clouds 8 1027 77 10000 1.79 248 08:45 19.12.2021
4184 Clouds 8 1028 78 10000 1.34 292 04:45 19.12.2021
4185 Clouds 9 1029 81 10000 0.45 290 01:39 19.12.2021
4186 Mist 9 1030 82 10000 0.45 301 00:53 19.12.2021
4187 Clouds 9 1030 83 10000 4.12 330 22:50 18.12.2021
4188 Clouds 10 1029 82 10000 3.6 320 22:20 18.12.2021
4189 Clouds 10 1030 83 9000 0.45 304 21:41 18.12.2021
4190 Clouds 10 1030 82 9000 2.57 320 21:22 18.12.2021
4191 Clouds 10 1030 84 8000 2.06 320 20:20 18.12.2021
4192 Clouds 10 1029 83 9000 1.03 0 19:27 18.12.2021
4193 Clouds 11 1029 81 10000 0.51 100 18:23 18.12.2021
4194 Clouds 12 1029 80 10000 0.51 100 17:49 18.12.2021
4195 Clear 14 1028 74 10000 1.54 130 16:27 18.12.2021
4196 Clear 14 1028 72 10000 0.45 126 15:48 18.12.2021
4197 Clear 14 1028 68 10000 0.89 94 14:51 18.12.2021
4198 Clear 13 1028 69 10000 0.45 236 13:42 18.12.2021
4199 Clear 12 1029 74 9000 0.89 249 11:47 18.12.2021
4200 Clear 9 1029 80 7000 1.34 318 09:53 18.12.2021
4201 Clear 9 1029 80 7000 1.34 302 09:30 18.12.2021
4202 Clear 7 1028 77 8000 1.34 290 08:35 18.12.2021
4203 Clouds 7 1027 78 7000 1.34 296 06:27 18.12.2021
4204 Mist 9 1029 82 9000 0.45 296 00:42 18.12.2021
4205 Clouds 9 1029 82 10000 2.06 330 23:46 17.12.2021
4206 Clouds 10 1029 82 10000 0.45 87 22:37 17.12.2021
4207 Clouds 10 1029 83 10000 1.54 320 21:28 17.12.2021
4208 Clouds 11 1029 82 10000 0.89 8 20:42 17.12.2021
4209 Clouds 11 1029 82 10000 0.45 137 19:51 17.12.2021
4210 Clouds 11 1029 80 10000 0.45 50 18:39 17.12.2021
4211 Clouds 11 1029 80 10000 0.45 60 17:47 17.12.2021
4212 Clouds 12 1029 78 10000 0.45 52 16:50 17.12.2021
4213 Clouds 13 1029 77 10000 2.57 110 16:27 17.12.2021
4214 Clouds 13 1028 74 10000 0.45 105 15:27 17.12.2021
4215 Clouds 13 1029 73 10000 0.89 96 14:42 17.12.2021
4216 Clouds 13 1029 74 10000 0.45 162 13:35 17.12.2021
4217 Clouds 12 1030 76 9000 0.45 78 12:36 17.12.2021
4218 Clear 11 1031 82 7000 0.45 299 10:41 17.12.2021
4219 Clouds 10 1030 83 10000 0.89 249 09:47 17.12.2021
4220 Clouds 9 1030 85 10000 0.45 269 08:31 17.12.2021
4221 Clouds 9 1029 85 10000 0.45 120 07:21 17.12.2021
4222 Clouds 9 1029 88 8000 0.45 297 04:40 17.12.2021
4223 Mist 9 1029 81 7000 1.54 330 00:22 17.12.2021
4224 Mist 9 1029 82 10000 1.54 310 22:24 16.12.2021
4225 Clouds 9 1029 82 10000 1.03 0 21:51 16.12.2021
4226 Clouds 10 1028 82 10000 1.54 320 21:33 16.12.2021
4227 Clouds 10 1028 83 10000 2.06 300 20:31 16.12.2021
4228 Clouds 10 1028 83 10000 1.03 0 19:51 16.12.2021
4229 Clouds 11 1028 82 10000 0 0 18:42 16.12.2021
4230 Clouds 11 1028 82 10000 0 0 18:22 16.12.2021
4231 Clouds 12 1028 79 10000 1.03 110 17:35 16.12.2021
4232 Clouds 14 1028 77 10000 2.06 100 16:23 16.12.2021
4233 Clouds 14 1028 73 10000 0.45 69 15:22 16.12.2021
4234 Clouds 14 1029 68 10000 1.54 300 13:44 16.12.2021
4235 Clouds 13 1030 70 10000 1.34 328 11:48 16.12.2021
4236 Clear 12 1030 73 10000 0.45 256 11:18 16.12.2021
4237 Clear 12 1030 74 10000 0.45 244 10:39 16.12.2021
4238 Clouds 10 1029 74 10000 0.89 0 09:39 16.12.2021
4239 Clouds 9 1028 75 10000 6.17 330 06:23 16.12.2021
4240 Clear 9 1028 79 10000 4.12 330 03:19 16.12.2021
4241 Clear 11 1028 79 10000 3.09 330 23:36 15.12.2021
4242 Clear 10 1028 80 10000 4.12 330 22:49 15.12.2021
4243 Clear 11 1027 78 10000 3.09 320 22:20 15.12.2021
4244 Clouds 11 1027 78 10000 2.06 320 21:31 15.12.2021
4245 Clouds 11 1027 79 10000 1.03 0 20:36 15.12.2021
4246 Clouds 11 1027 77 10000 0.51 310 19:53 15.12.2021
4247 Clouds 12 1026 76 10000 0.51 0 18:41 15.12.2021
4248 Clear 13 1026 75 10000 0 0 18:18 15.12.2021
4249 Clear 14 1026 69 10000 1.54 180 17:40 15.12.2021
4250 Clear 15 1025 64 10000 1.54 180 16:59 15.12.2021
4251 Clear 16 1025 59 10000 0.89 129 15:47 15.12.2021
4252 Clear 16 1025 58 10000 0.45 130 15:29 15.12.2021
4253 Clear 16 1025 55 10000 0.89 128 14:44 15.12.2021
4254 Clear 15 1025 55 10000 2.57 340 13:27 15.12.2021
4255 Clear 13 1026 65 10000 0.45 17 11:40 15.12.2021
4256 Clouds 11 1026 67 10000 1.79 238 09:38 15.12.2021
4257 Clouds 10 1025 69 10000 1.79 259 07:52 15.12.2021
4258 Clear 10 1025 68 10000 0.45 302 03:58 15.12.2021
4259 Clear 11 1026 72 10000 3.09 350 23:46 14.12.2021
4260 Clouds 10 1025 77 9000 2.57 310 22:52 14.12.2021
4261 Clouds 10 1025 77 8000 3.09 320 22:34 14.12.2021
4262 Clear 10 1025 79 7000 1.03 0 21:25 14.12.2021
4263 Clear 11 1025 79 6000 1.03 0 20:18 14.12.2021
4264 Clouds 11 1025 81 6000 1.03 260 19:21 14.12.2021
4265 Clouds 12 1025 81 7000 0 0 18:38 14.12.2021
4266 Clouds 13 1025 81 7000 0.51 90 17:51 14.12.2021
4267 Clear 14 1025 76 8000 0.45 241 16:43 14.12.2021
4268 Clouds 15 1025 75 9000 1.34 130 15:54 14.12.2021
4269 Clouds 15 1025 69 10000 0.45 135 13:35 14.12.2021
4270 Clouds 14 1026 70 10000 1.34 302 12:47 14.12.2021
4271 Clear 12 1026 75 10000 0.89 248 11:25 14.12.2021
4272 Clear 11 1027 81 10000 1.79 311 10:28 14.12.2021
4273 Clouds 11 1026 80 10000 2.24 238 09:53 14.12.2021
4274 Clouds 9 1026 81 10000 0.89 311 08:40 14.12.2021
4275 Clouds 9 1025 81 10000 1.34 254 08:20 14.12.2021
4276 Clouds 9 1025 80 10000 0.89 305 06:40 14.12.2021
4277 Clouds 10 1026 83 10000 1.34 257 23:42 13.12.2021
4278 Clouds 11 1026 84 10000 0.45 257 22:18 13.12.2021
4279 Clouds 11 1025 84 10000 0.45 309 21:34 13.12.2021
4280 Clouds 11 1025 85 10000 0.89 245 20:51 13.12.2021
4281 Clouds 12 1025 84 10000 0.45 262 20:20 13.12.2021
4282 Clouds 12 1025 83 10000 3.6 230 19:49 13.12.2021
4283 Clouds 14 1024 79 10000 1.34 233 17:27 13.12.2021
4284 Clouds 16 1024 76 10000 1.79 259 16:24 13.12.2021
4285 Clouds 16 1023 75 10000 2.68 273 15:43 13.12.2021
4286 Clouds 16 1024 73 10000 0.45 153 14:30 13.12.2021
4287 Clouds 15 1025 72 10000 1.34 140 13:36 13.12.2021
4288 Clouds 15 1026 73 10000 0.45 71 12:39 13.12.2021
4289 Clouds 14 1026 76 10000 0.45 343 11:50 13.12.2021
4290 Clouds 13 1026 77 10000 1.34 247 11:29 13.12.2021
4291 Clouds 11 1027 79 10000 1.79 244 10:21 13.12.2021
4292 Clouds 9 1026 82 10000 0.89 249 08:43 13.12.2021
4293 Clouds 9 1026 82 10000 0.45 290 08:43 13.12.2021
4294 Clouds 9 1025 83 10000 0.45 276 06:54 13.12.2021
4295 Clouds 9 1026 82 10000 5.14 320 04:52 13.12.2021
4296 Clouds 10 1026 79 10000 3.13 254 23:55 12.12.2021
4297 Clear 11 1026 78 10000 1.79 263 21:58 12.12.2021
4298 Clear 12 1025 75 10000 2.24 266 20:50 12.12.2021
4299 Clear 12 1025 75 10000 1.34 284 19:35 12.12.2021
4300 Clear 13 1025 74 10000 0.45 16 18:22 12.12.2021
4301 Clear 16 1025 64 10000 0.45 235 16:32 12.12.2021
4302 Clear 16 1024 64 10000 0.89 9 15:55 12.12.2021
4303 Clear 16 1024 64 10000 1.79 283 15:28 12.12.2021
4304 Clear 16 1024 64 10000 0.89 331 14:46 12.12.2021
4305 Clear 15 1025 65 10000 0.89 312 13:56 12.12.2021
4306 Clear 15 1025 67 10000 1.34 347 12:48 12.12.2021
4307 Clear 13 1026 71 10000 3.13 316 11:45 12.12.2021
4308 Clear 13 1026 73 10000 2.68 319 11:27 12.12.2021
4309 Clear 12 1026 75 10000 3.58 328 10:44 12.12.2021
4310 Clear 11 1026 79 10000 3.58 298 09:58 12.12.2021
4311 Clouds 9 1025 84 10000 2.24 309 08:44 12.12.2021
4312 Clouds 9 1024 84 10000 0.89 304 06:55 12.12.2021
4313 Clouds 9 1023 84 10000 1.34 292 05:28 12.12.2021
4314 Clouds 9 1023 84 10000 1.34 249 04:18 12.12.2021
4315 Clouds 10 1023 83 10000 0.89 311 00:54 12.12.2021
4316 Clouds 10 1022 83 10000 3.09 330 22:56 11.12.2021
4317 Clouds 10 1022 82 10000 3.09 330 22:20 11.12.2021
4318 Clouds 9 1022 83 10000 2.57 310 21:26 11.12.2021
4319 Clouds 10 1021 79 10000 1.03 40 19:50 11.12.2021
4320 Clouds 10 1020 79 10000 1.54 70 19:21 11.12.2021
4321 Clouds 11 1020 78 10000 1.54 90 18:42 11.12.2021
4322 Clouds 12 1019 76 10000 0.45 37 17:48 11.12.2021
4323 Clouds 13 1018 71 10000 0.89 142 15:58 11.12.2021
4324 Clouds 13 1018 70 10000 0.45 121 15:39 11.12.2021
4325 Clouds 14 1017 68 10000 0.89 87 14:33 11.12.2021
4326 Clouds 13 1017 65 10000 0.45 242 12:29 11.12.2021
4327 Clouds 11 1017 72 10000 0.45 317 10:49 11.12.2021
4328 Clouds 9 1016 78 10000 1.34 253 09:40 11.12.2021
4329 Clouds 9 1013 78 10000 0.89 297 03:57 11.12.2021
4330 Clouds 10 1012 71 10000 0.45 259 00:48 11.12.2021
4331 Clouds 11 1011 69 10000 0.45 0 23:44 10.12.2021
4332 Clouds 11 1010 65 10000 0.45 285 22:39 10.12.2021
4333 Clouds 12 1009 61 10000 1.34 0 21:40 10.12.2021
4334 Clouds 13 1008 57 10000 2.68 302 20:28 10.12.2021
4335 Clouds 14 1007 54 10000 3.58 61 19:19 10.12.2021
4336 Clouds 15 1006 54 10000 4.02 22 17:46 10.12.2021
4337 Clouds 16 1005 51 10000 3.13 319 16:37 10.12.2021
4338 Clouds 16 1005 51 10000 1.79 245 15:45 10.12.2021
4339 Clouds 16 1005 52 10000 3.58 40 15:26 10.12.2021
4340 Clouds 17 1005 53 10000 2.68 25 14:49 10.12.2021
4341 Clouds 17 1005 54 10000 2.24 161 13:50 10.12.2021
4342 Clouds 17 1005 59 10000 1.79 311 12:56 10.12.2021
4343 Clouds 15 1005 67 10000 4.02 286 11:43 10.12.2021
4344 Clouds 15 1005 71 10000 2.24 298 11:19 10.12.2021
4345 Clouds 14 1005 73 10000 4.47 29 09:49 10.12.2021
4346 Clouds 14 1005 72 10000 1.34 5 07:49 10.12.2021
4347 Clouds 11 1006 81 10000 1.79 70 04:58 10.12.2021
4348 Clouds 10 1008 79 10000 1.34 303 02:44 10.12.2021
4349 Clouds 8 1010 74 10000 0.89 288 23:43 09.12.2021
4350 Clouds 9 1011 72 10000 2.68 300 22:44 09.12.2021
4351 Clouds 9 1011 72 10000 2.68 300 22:23 09.12.2021
4352 Clouds 9 1012 71 10000 0.89 98 21:40 09.12.2021
4353 Clouds 9 1012 70 10000 0.89 5 20:38 09.12.2021
4354 Clouds 10 1012 68 10000 1.34 305 19:46 09.12.2021
4355 Clouds 10 1012 68 10000 0.45 315 19:46 09.12.2021
4356 Clouds 10 1012 67 10000 0.45 262 19:20 09.12.2021
4357 Clouds 10 1012 64 10000 2.68 292 18:24 09.12.2021
4358 Clouds 11 1012 61 10000 1.79 0 17:48 09.12.2021
4359 Clouds 11 1012 60 10000 1.79 348 17:24 09.12.2021
4360 Clouds 11 1012 58 10000 0.45 302 16:43 09.12.2021
4361 Clouds 12 1011 54 10000 1.34 317 15:31 09.12.2021
4362 Clouds 12 1012 52 10000 3.13 337 14:43 09.12.2021
4363 Clouds 10 1013 56 10000 0.89 250 12:49 09.12.2021
4364 Clouds 10 1013 56 10000 1.79 321 12:31 09.12.2021
4365 Clear 9 1014 61 10000 0.45 306 10:47 09.12.2021
4366 Clear 6 1012 69 10000 2.24 255 08:20 09.12.2021
4367 Clear 7 1010 64 10000 2.68 281 03:59 09.12.2021
4368 Clear 7 1009 63 10000 0.89 333 01:52 09.12.2021
4369 Clear 8 1008 57 10000 1.34 0 23:40 08.12.2021
4370 Clear 9 1008 56 10000 1.34 324 23:20 08.12.2021
4371 Clouds 9 1008 54 10000 2.24 234 22:43 08.12.2021
4372 Clouds 10 1007 51 10000 2.24 223 21:39 08.12.2021
4373 Clouds 10 1007 50 10000 3.13 281 20:58 08.12.2021
4374 Clouds 10 1006 49 10000 2.68 252 19:57 08.12.2021
4375 Clouds 10 1006 48 10000 1.34 280 19:29 08.12.2021
4376 Clouds 11 1006 45 10000 1.34 235 18:30 08.12.2021
4377 Clouds 12 1005 44 10000 2.68 271 17:24 08.12.2021
4378 Clouds 13 1004 45 10000 4.02 311 15:46 08.12.2021
4379 Clouds 13 1004 45 10000 4.92 315 15:23 08.12.2021
4380 Clouds 13 1004 46 10000 4.47 299 13:40 08.12.2021
4381 Clouds 13 1005 52 10000 4.02 292 10:53 08.12.2021
4382 Clouds 13 1005 52 10000 3.13 252 10:24 08.12.2021
4383 Clouds 12 1004 53 10000 3.13 288 08:54 08.12.2021
4384 Clouds 13 1004 66 10000 1.79 300 07:21 08.12.2021
4385 Clouds 13 1005 76 10000 0.45 290 01:21 08.12.2021
4386 Clouds 13 1007 78 10000 1.34 281 23:31 07.12.2021
4387 Clouds 13 1009 82 10000 0.45 305 21:26 07.12.2021
4388 Clouds 13 1009 83 10000 2.57 260 20:30 07.12.2021
4389 Clouds 13 1010 82 10000 0.45 341 19:50 07.12.2021
4390 Clouds 13 1011 79 10000 0.89 108 18:39 07.12.2021
4391 Clouds 14 1011 74 10000 0.89 220 17:27 07.12.2021
4392 Clouds 14 1012 73 10000 0.89 309 16:57 07.12.2021
4393 Clouds 15 1012 71 10000 0.89 268 16:28 07.12.2021
4394 Clouds 15 1014 66 10000 1.79 255 14:50 07.12.2021
4395 Clear 15 1015 63 10000 0.45 130 13:46 07.12.2021
4396 Clear 14 1017 62 10000 0.45 126 12:46 07.12.2021
4397 Clear 12 1018 67 10000 0.89 188 11:25 07.12.2021
4398 Clear 9 1019 77 10000 1.34 331 09:44 07.12.2021
4399 Clouds 8 1019 80 10000 0.45 0 07:55 07.12.2021
4400 Clear 8 1018 79 10000 3.58 282 05:55 07.12.2021
4401 Clear 8 1018 79 10000 2.24 290 05:30 07.12.2021
4402 Clear 9 1017 77 10000 1.03 0 23:45 06.12.2021
4403 Clear 9 1017 74 10000 0.45 293 22:44 06.12.2021
4404 Clear 9 1017 74 10000 1.79 126 22:22 06.12.2021
4405 Clear 10 1017 71 10000 0.45 302 21:42 06.12.2021
4406 Clouds 10 1018 66 10000 0.45 305 20:33 06.12.2021
4407 Clouds 11 1018 61 10000 0.45 301 19:27 06.12.2021
4408 Clouds 11 1018 59 10000 0.45 289 18:59 06.12.2021
4409 Clear 13 1017 51 10000 0.89 63 17:56 06.12.2021
4410 Clear 13 1017 51 10000 0.45 0 17:37 06.12.2021
4411 Clear 14 1017 44 10000 0.89 269 16:22 06.12.2021
4412 Clear 14 1016 43 10000 1.34 309 15:38 06.12.2021
4413 Clear 13 1016 45 10000 1.79 306 13:46 06.12.2021
4414 Clear 12 1017 49 10000 1.34 294 12:39 06.12.2021
4415 Clear 9 1017 60 10000 2.24 327 10:38 06.12.2021
4416 Clouds 6 1016 68 10000 0.89 336 08:45 06.12.2021
4417 Clouds 6 1014 67 10000 1.34 285 04:56 06.12.2021
4418 Clear 8 1012 52 10000 1.79 314 22:54 05.12.2021
4419 Clouds 8 1012 52 10000 1.34 303 21:43 05.12.2021
4420 Clouds 9 1012 53 10000 1.34 298 21:19 05.12.2021
4421 Clouds 9 1011 53 10000 2.24 0 20:19 05.12.2021
4422 Clouds 10 1011 48 10000 0.89 256 19:33 05.12.2021
4423 Clouds 10 1011 49 10000 0.89 257 18:47 05.12.2021
4424 Clouds 11 1010 55 10000 2.24 345 18:19 05.12.2021
4425 Clouds 11 1009 56 10000 2.68 254 17:48 05.12.2021
4426 Clouds 12 1008 55 10000 2.68 270 16:47 05.12.2021
4427 Clouds 12 1008 55 10000 2.24 347 16:26 05.12.2021
4428 Clouds 12 1007 57 10000 1.79 232 15:34 05.12.2021
4429 Clouds 12 1007 57 10000 3.58 333 14:37 05.12.2021
4430 Clouds 12 1007 58 10000 2.24 277 14:19 05.12.2021
4431 Clouds 11 1008 60 10000 3.58 347 13:22 05.12.2021
4432 Clouds 11 1008 62 10000 1.34 313 12:40 05.12.2021
4433 Clouds 11 1008 61 10000 0.89 67 12:18 05.12.2021
4434 Clouds 11 1009 63 10000 2.24 352 11:29 05.12.2021
4435 Clouds 10 1009 65 10000 0.89 167 09:59 05.12.2021
4436 Clouds 9 1009 68 10000 1.79 286 07:55 05.12.2021
4437 Clouds 9 1012 65 10000 3.13 268 03:27 05.12.2021
4438 Clouds 12 1013 63 10000 3.13 238 23:45 04.12.2021
4439 Clouds 13 1012 62 10000 3.13 248 21:55 04.12.2021
4440 Clouds 13 1012 59 10000 0.45 294 20:57 04.12.2021
4441 Clouds 14 1011 57 10000 0.89 305 20:20 04.12.2021
4442 Clear 14 1012 59 10000 3.58 290 19:32 04.12.2021
4443 Clouds 14 1012 65 10000 0.89 298 18:21 04.12.2021
4444 Clouds 15 1012 65 10000 1.34 5 17:39 04.12.2021
4445 Clouds 15 1011 63 10000 2.68 336 16:51 04.12.2021
4446 Clouds 15 1011 63 10000 3.13 291 16:31 04.12.2021
4447 Clouds 15 1011 60 10000 2.68 340 15:40 04.12.2021
4448 Clouds 15 1014 63 10000 0.45 129 11:51 04.12.2021
4449 Clouds 14 1015 65 10000 0.45 93 11:32 04.12.2021
4450 Clouds 13 1015 68 10000 0.45 49 10:53 04.12.2021
4451 Clear 10 1016 77 10000 3.13 319 08:48 04.12.2021
4452 Clouds 9 1016 80 10000 0.45 296 06:42 04.12.2021
4453 Clouds 9 1016 79 10000 1.79 261 04:42 04.12.2021
4454 Clouds 9 1019 75 10000 0.89 282 00:35 04.12.2021
4455 Clouds 9 1019 71 10000 0.45 292 23:27 03.12.2021
4456 Clouds 9 1019 70 10000 0.45 295 22:47 03.12.2021
4457 Clouds 9 1019 71 10000 0.89 297 21:42 03.12.2021
4458 Clouds 9 1019 71 10000 0.45 295 20:55 03.12.2021
4459 Clouds 9 1019 70 10000 0.45 301 20:26 03.12.2021
4460 Clouds 10 1018 65 10000 1.54 330 18:44 03.12.2021
4461 Clouds 11 1018 62 10000 0.51 0 17:59 03.12.2021
4462 Clouds 13 1017 53 10000 0.89 263 16:43 03.12.2021
4463 Clouds 13 1016 51 10000 0.45 234 13:27 03.12.2021
4464 Clear 11 1017 56 10000 0.45 13 12:20 03.12.2021
4465 Clear 9 1016 62 10000 1.34 279 10:58 03.12.2021
4466 Clouds 5 1014 72 10000 4.02 273 08:31 03.12.2021
4467 Clouds 5 1013 72 10000 4.02 300 07:43 03.12.2021
4468 Clouds 5 1013 72 10000 4.02 300 07:43 03.12.2021
4469 Clouds 6 1012 71 10000 1.79 0 06:40 03.12.2021
4470 Clouds 7 1011 44 10000 0.89 303 00:49 03.12.2021
4471 Clouds 8 1011 40 10000 0.45 233 23:48 02.12.2021
4472 Clouds 9 1011 37 10000 1.79 328 22:48 02.12.2021
4473 Clouds 11 1010 33 10000 2.68 329 21:41 02.12.2021
4474 Clouds 11 1009 38 10000 0.89 161 20:45 02.12.2021
4475 Clouds 11 1009 42 10000 0.89 227 20:22 02.12.2021
4476 Clouds 12 1007 60 10000 0.45 302 18:50 02.12.2021
4477 Clouds 14 1006 52 10000 1.34 112 16:43 02.12.2021
4478 Clouds 14 1005 52 10000 0.89 0 15:41 02.12.2021
4479 Clouds 14 1005 55 10000 0.45 223 14:52 02.12.2021
4480 Clouds 13 1006 60 10000 1.79 312 13:39 02.12.2021
4481 Clouds 12 1006 65 10000 0.89 59 12:36 02.12.2021
4482 Clouds 12 1006 68 10000 1.34 0 11:45 02.12.2021
4483 Clouds 10 1006 78 10000 1.34 344 09:27 02.12.2021
4484 Clouds 9 1005 80 10000 1.34 286 07:20 02.12.2021
4485 Clouds 10 1006 80 10000 0.89 237 01:38 02.12.2021
4486 Clouds 10 1007 81 10000 0.45 0 00:50 02.12.2021
4487 Clouds 11 1009 79 10000 2.24 262 22:33 01.12.2021
4488 Clouds 11 1009 79 10000 4.02 254 21:54 01.12.2021
4489 Clouds 11 1010 81 10000 2.24 317 20:35 01.12.2021
4490 Rain 11 1010 81 10000 2.68 318 19:47 01.12.2021
4491 Rain 11 1011 76 10000 1.79 297 18:55 01.12.2021
4492 Clouds 13 1011 62 10000 0.89 280 17:32 01.12.2021
4493 Clouds 14 1011 61 10000 0.89 288 16:38 01.12.2021
4494 Clouds 14 1012 63 10000 0.45 314 14:48 01.12.2021
4495 Clouds 12 1014 68 10000 0.89 287 13:38 01.12.2021
4496 Clouds 10 1017 74 10000 0.45 264 11:34 01.12.2021
4497 Clouds 10 1018 75 10000 1.34 332 10:41 01.12.2021
4498 Clear 8 1019 81 10000 0.89 323 08:54 01.12.2021
4499 Clear 8 1019 80 10000 0.45 256 08:26 01.12.2021
4500 Clouds 8 1019 80 10000 1.34 265 07:32 01.12.2021
4501 Clear 8 1020 81 10000 0.45 305 04:20 01.12.2021
4502 Clear 8 1021 81 10000 0.45 313 03:38 01.12.2021
4503 Clouds 9 1023 79 10000 0.45 340 00:48 01.12.2021
4504 Clouds 9 1023 79 10000 1.79 252 23:37 30.11.2021
4505 Clouds 9 1024 79 10000 3.6 320 22:48 30.11.2021
4506 Clouds 10 1024 77 10000 0.51 340 20:59 30.11.2021
4507 Clouds 10 1024 77 10000 1.03 320 20:34 30.11.2021
4508 Clouds 10 1024 78 10000 2.06 310 19:53 30.11.2021
4509 Clouds 10 1024 75 10000 2.57 280 19:30 30.11.2021
4510 Clouds 11 1024 76 10000 2.57 260 18:33 30.11.2021
4511 Clouds 14 1024 66 10000 0.45 193 16:34 30.11.2021
4512 Clouds 14 1024 68 10000 0.89 191 14:58 30.11.2021
4513 Clouds 14 1025 70 10000 0.45 140 14:19 30.11.2021
4514 Clouds 13 1025 70 10000 0.89 123 13:25 30.11.2021
4515 Clouds 12 1025 71 10000 0.89 54 12:45 30.11.2021
4516 Clouds 11 1026 73 10000 0.45 134 11:27 30.11.2021
4517 Clouds 10 1026 73 10000 0.45 260 10:56 30.11.2021
4518 Clouds 10 1025 75 10000 1.34 250 10:31 30.11.2021
4519 Drizzle 9 1024 79 10000 0.89 249 08:52 30.11.2021
4520 Clouds 8 1024 79 10000 0.45 243 08:20 30.11.2021
4521 Clouds 8 1024 79 10000 0.45 256 07:47 30.11.2021
4522 Clouds 7 1021 76 10000 0.89 239 02:29 30.11.2021
4523 Clouds 7 1021 74 10000 1.34 266 01:40 30.11.2021
4524 Clouds 7 1020 74 10000 0.45 286 23:57 29.11.2021
4525 Clouds 7 1019 73 10000 0.89 258 23:23 29.11.2021
4526 Clouds 8 1018 72 10000 0.45 327 22:52 29.11.2021
4527 Clouds 8 1018 70 10000 0.45 327 22:32 29.11.2021
4528 Clouds 9 1017 69 10000 1.79 117 21:23 29.11.2021
4529 Clouds 10 1017 68 10000 0.89 148 20:59 29.11.2021
4530 Clouds 10 1016 69 10000 1.34 176 20:32 29.11.2021
4531 Clouds 10 1015 69 10000 2.24 159 19:55 29.11.2021
4532 Clouds 11 1015 69 10000 4.47 136 19:35 29.11.2021
4533 Clouds 11 1015 55 10000 1.98 103 18:51 29.11.2021
4534 Clear 11 1015 48 10000 2.04 178 17:49 29.11.2021
4535 Clear 11 1014 47 10000 3.28 200 17:18 29.11.2021
4536 Clear 11 1013 43 10000 2.91 211 16:29 29.11.2021
4537 Clear 12 1013 43 10000 2.92 212 15:50 29.11.2021
4538 Clear 12 1012 39 10000 2.93 238 14:43 29.11.2021
4539 Clear 11 1012 38 10000 3.47 258 13:33 29.11.2021
4540 Clear 10 1012 35 10000 3.46 280 12:37 29.11.2021
4541 Clear 10 1012 35 10000 3.46 280 11:40 29.11.2021
4542 Clear 9 1012 37 10000 3.54 311 10:51 29.11.2021
4543 Clouds 5 1011 75 10000 5.14 290 09:34 29.11.2021
4544 Clouds 5 1008 75 10000 4.63 330 06:21 29.11.2021
4545 Clear 7 1006 65 10000 8.23 320 02:28 29.11.2021
4546 Clouds 6 1006 70 10000 5.14 290 00:42 29.11.2021
4547 Clouds 6 1007 65 10000 3.09 250 23:44 28.11.2021
4548 Clouds 6 1007 65 10000 3.09 250 23:24 28.11.2021
4549 Clouds 7 1007 61 10000 5.66 300 21:52 28.11.2021
4550 Clouds 7 1007 61 10000 6.69 300 21:23 28.11.2021
4551 Clouds 8 1007 57 10000 7.2 290 20:34 28.11.2021
4552 Clouds 9 1006 53 10000 9.26 290 19:25 28.11.2021
4553 Clouds 9 1004 53 10000 9.77 300 18:35 28.11.2021
4554 Clouds 9 1004 53 10000 9.77 290 17:56 28.11.2021
4555 Clouds 10 1005 50 10000 6.69 270 17:32 28.11.2021
4556 Clouds 11 1005 43 10000 7.72 270 16:44 28.11.2021
4557 Clouds 11 1005 46 10000 5.14 260 16:22 28.11.2021
4558 Clouds 11 1005 46 10000 6.69 280 15:32 28.11.2021
4559 Clouds 11 1005 46 10000 7.72 290 14:48 28.11.2021
4560 Clouds 11 1005 46 10000 7.2 280 13:49 28.11.2021
4561 Clouds 10 1006 53 10000 8.23 290 12:51 28.11.2021
4562 Clouds 9 1006 53 10000 9.77 300 11:18 28.11.2021
4563 Clouds 8 1006 53 10000 8.75 300 10:22 28.11.2021
4564 Clouds 7 1005 61 10000 3.09 360 09:38 28.11.2021
4565 Clouds 6 1004 61 10000 5.66 330 07:59 28.11.2021
4566 Clear 6 1002 70 10000 4.12 290 00:39 28.11.2021
4567 Clouds 8 1001 61 10000 3.6 320 21:40 27.11.2021
4568 Clouds 10 1000 53 10000 4.63 320 19:49 27.11.2021
4569 Clouds 11 999 58 10000 5.66 310 17:57 27.11.2021
4570 Clouds 13 997 54 10000 5.66 300 15:59 27.11.2021
4571 Clouds 14 997 51 10000 7.2 300 14:30 27.11.2021
4572 Clouds 14 998 47 10000 6.69 280 12:58 27.11.2021
4573 Clouds 12 999 58 10000 1.54 330 10:52 27.11.2021
4574 Clouds 10 998 66 10000 6.17 260 09:53 27.11.2021
4575 Clouds 7 999 76 10000 2.06 230 08:45 27.11.2021
4576 Clouds 6 999 75 10000 2.06 290 06:35 27.11.2021
4577 Clouds 6 1002 75 10000 5.14 320 02:25 27.11.2021
4578 Clear 7 1004 81 10000 3.6 320 23:40 26.11.2021
4579 Clear 8 1004 76 10000 4.63 340 22:41 26.11.2021
4580 Clear 8 1004 76 10000 4.63 340 22:19 26.11.2021
4581 Clear 8 1004 81 10000 2.06 320 21:22 26.11.2021
4582 Clear 9 1004 71 10000 3.09 340 20:40 26.11.2021
4583 Clear 9 1004 76 10000 3.09 320 19:55 26.11.2021
4584 Clear 11 1004 62 10000 3.09 330 18:45 26.11.2021
4585 Clear 12 1003 62 10000 4.63 340 17:26 26.11.2021
4586 Clear 13 1003 58 10000 4.63 330 16:45 26.11.2021
4587 Clouds 13 1004 58 10000 4.63 330 14:57 26.11.2021
4588 Clouds 12 1004 64 10000 0.45 296 13:35 26.11.2021
4589 Fog 10 1005 71 10000 3.13 339 10:44 26.11.2021
4590 Clear 9 1005 74 10000 4.02 338 09:53 26.11.2021
4591 Clear 8 1005 75 10000 4.47 298 08:50 26.11.2021
4592 Clear 8 1005 77 10000 3.58 309 08:20 26.11.2021
4593 Clouds 8 1005 76 10000 0.45 0 06:30 26.11.2021
4594 Clouds 8 1005 77 10000 0.45 0 05:35 26.11.2021
4595 Clouds 8 1005 78 10000 0.89 309 03:39 26.11.2021
4596 Clouds 9 1005 77 10000 3.13 264 23:49 25.11.2021
4597 Clouds 10 1005 75 10000 2.68 306 22:34 25.11.2021
4598 Clouds 10 1005 77 10000 1.79 307 20:45 25.11.2021
4599 Clouds 11 1005 78 10000 0.89 176 19:35 25.11.2021
4600 Clouds 11 1004 79 10000 0.45 216 18:35 25.11.2021
4601 Clouds 12 1004 76 10000 2.06 330 17:28 25.11.2021
4602 Clouds 13 1003 72 10000 1.54 360 16:47 25.11.2021
4603 Clouds 13 1003 71 10000 2.06 30 16:25 25.11.2021
4604 Clouds 13 1003 74 10000 0.45 281 14:52 25.11.2021
4605 Clouds 12 1003 78 10000 0.45 260 13:21 25.11.2021
4606 Clouds 12 1004 80 10000 2.24 293 12:19 25.11.2021
4607 Clouds 10 1004 81 10000 1.34 258 10:50 25.11.2021
4608 Clouds 9 1003 90 10000 0.89 233 08:42 25.11.2021
4609 Clouds 9 1004 85 10000 1.34 334 03:42 25.11.2021
4610 Clouds 10 1005 83 10000 0.45 145 02:44 25.11.2021
4611 Rain 10 1006 83 10000 3.09 290 22:44 24.11.2021
4612 Clouds 10 1006 82 10000 0.45 205 22:21 24.11.2021
4613 Clouds 11 1007 78 10000 1.54 220 21:27 24.11.2021
4614 Clouds 11 1007 80 10000 0.45 315 20:42 24.11.2021
4615 Clouds 11 1007 80 10000 0.45 248 20:18 24.11.2021
4616 Clouds 12 1007 80 10000 1.79 257 18:30 24.11.2021
4617 Rain 13 1007 81 10000 5.36 166 16:53 24.11.2021
4618 Clouds 14 1007 85 10000 4.02 131 15:22 24.11.2021
4619 Clouds 13 1008 84 10000 4.92 134 14:42 24.11.2021
4620 Clouds 13 1007 84 4000 4.02 161 14:19 24.11.2021
4621 Clouds 13 1011 84 6000 4.92 184 11:51 24.11.2021
4622 Clouds 13 1011 84 10000 4.92 130 11:20 24.11.2021
4623 Clouds 12 1011 84 10000 5.36 123 10:47 24.11.2021
4624 Clouds 12 1011 84 10000 5.81 109 10:21 24.11.2021
4625 Clouds 11 1011 88 10000 0.45 57 07:46 24.11.2021
4626 Clouds 11 1011 87 10000 1.34 283 06:51 24.11.2021
4627 Drizzle 10 1013 86 10000 1.34 284 03:50 24.11.2021
4628 Clouds 11 1013 86 10000 1.34 312 00:32 24.11.2021
4629 Clouds 12 1013 84 10000 1.34 157 22:40 23.11.2021
4630 Rain 12 1013 84 10000 1.34 167 22:18 23.11.2021
4631 Rain 12 1013 86 6000 0.45 279 21:44 23.11.2021
4632 Clouds 12 1013 85 10000 2.68 155 19:37 23.11.2021
4633 Clouds 12 1013 85 10000 2.68 155 19:37 23.11.2021
4634 Rain 13 1012 85 6000 1.79 181 18:41 23.11.2021
4635 Clouds 13 1012 86 9000 4.02 130 18:18 23.11.2021
4636 Rain 13 1013 86 3000 4.47 146 16:57 23.11.2021
4637 Rain 14 1012 83 3000 5.36 67 15:59 23.11.2021
4638 Rain 14 1012 81 3000 4.92 129 15:22 23.11.2021
4639 Clouds 14 1013 78 10000 3.58 179 13:50 23.11.2021
4640 Clouds 14 1014 74 10000 4.47 142 11:42 23.11.2021
4641 Drizzle 13 1014 75 10000 4.92 154 09:59 23.11.2021
4642 Clouds 12 1014 74 10000 2.24 184 09:18 23.11.2021
4643 Clouds 12 1013 74 10000 0.89 25 06:41 23.11.2021
4644 Clouds 12 1013 74 10000 6.69 70 03:52 23.11.2021
4645 Clouds 12 1013 74 10000 0.45 111 01:49 23.11.2021
4646 Clouds 13 1014 74 10000 0.89 167 23:21 22.11.2021
4647 Clouds 12 1013 75 10000 0.45 121 22:47 22.11.2021
4648 Clouds 13 1013 75 10000 0.89 35 22:25 22.11.2021
4649 Clouds 13 1013 76 10000 0.45 105 21:41 22.11.2021
4650 Clouds 13 1013 77 10000 1.79 108 20:52 22.11.2021
4651 Clouds 13 1012 78 10000 0.45 150 19:56 22.11.2021
4652 Clouds 13 1012 79 10000 1.34 123 19:19 22.11.2021
4653 Clouds 13 1012 79 10000 0.89 0 18:39 22.11.2021
4654 Clouds 14 1011 78 10000 1.34 130 17:43 22.11.2021
4655 Clouds 14 1010 77 10000 1.79 131 16:19 22.11.2021
4656 Clouds 14 1010 77 10000 1.34 76 14:18 22.11.2021
4657 Clouds 14 1010 79 10000 0.45 136 12:18 22.11.2021
4658 Clouds 13 1010 79 10000 0.45 333 10:43 22.11.2021
4659 Clouds 12 1010 80 10000 0.89 360 09:43 22.11.2021
4660 Clouds 11 1009 83 10000 1.34 121 08:40 22.11.2021
4661 Clouds 11 1008 81 10000 1.79 256 06:22 22.11.2021
4662 Clouds 12 1009 81 10000 0.89 319 23:30 21.11.2021
4663 Clouds 12 1010 82 10000 1.54 300 22:50 21.11.2021
4664 Clouds 13 1010 84 10000 0.45 320 21:57 21.11.2021
4665 Clouds 13 1010 86 10000 3.09 290 20:42 21.11.2021
4666 Clouds 14 1010 86 10000 2.06 300 19:59 21.11.2021
4667 Clouds 14 1010 86 10000 1.54 40 18:25 21.11.2021
4668 Clouds 15 1010 84 10000 1.54 80 17:39 21.11.2021
4669 Clouds 16 1010 81 10000 1.54 90 16:42 21.11.2021
4670 Clouds 17 1011 75 10000 1.34 153 14:46 21.11.2021
4671 Clouds 16 1011 71 10000 0.45 0 13:49 21.11.2021
4672 Clouds 16 1012 67 10000 0.45 67 12:38 21.11.2021
4673 Clouds 16 1013 67 10000 0.89 72 11:57 21.11.2021
4674 Clouds 16 1013 66 10000 0.89 69 11:35 21.11.2021
4675 Clouds 13 1014 75 10000 2.24 213 10:19 21.11.2021
4676 Clouds 12 1013 76 10000 1.79 273 09:20 21.11.2021
4677 Clouds 12 1014 76 10000 1.34 262 08:30 21.11.2021
4678 Clouds 12 1014 77 10000 0.89 293 07:50 21.11.2021
4679 Clouds 12 1014 78 10000 0.89 294 06:20 21.11.2021
4680 Clouds 12 1014 80 10000 2.24 291 05:30 21.11.2021
4681 Clouds 13 1016 80 9000 0.89 294 03:20 21.11.2021
4682 Clouds 13 1017 81 9000 0.89 143 02:53 21.11.2021
4683 Clouds 13 1017 81 9000 0.45 272 01:23 21.11.2021
4684 Clouds 13 1018 80 10000 0.45 286 00:23 21.11.2021
4685 Clouds 13 1019 81 10000 0.45 298 21:50 20.11.2021
4686 Clouds 13 1019 81 10000 0.45 292 21:30 20.11.2021
4687 Clouds 14 1020 80 10000 0 0 19:24 20.11.2021
4688 Clouds 14 1021 79 10000 0.45 289 18:45 20.11.2021
4689 Clouds 14 1020 78 10000 1.03 0 18:19 20.11.2021
4690 Clouds 15 1021 75 10000 1.03 0 17:19 20.11.2021
4691 Clear 16 1022 70 10000 0.45 10 14:50 20.11.2021
4692 Clear 16 1023 71 10000 1.03 300 14:28 20.11.2021
4693 Clear 15 1023 68 10000 0.45 289 13:33 20.11.2021
4694 Clear 14 1025 76 10000 2.24 244 11:24 20.11.2021
4695 Clouds 13 1025 78 10000 2.68 241 09:55 20.11.2021
4696 Clear 10 1027 79 10000 0.89 241 08:26 20.11.2021
4697 Clouds 10 981 80 10000 0.45 266 05:30 20.11.2021
4698 Clouds 11 1027 79 10000 1.34 245 04:51 20.11.2021
4699 Clouds 11 1027 81 10000 1.34 290 03:54 20.11.2021
4700 Clouds 11 1028 84 10000 1.34 129 00:42 20.11.2021
4701 Clouds 11 1029 84 10000 0.45 249 23:45 19.11.2021
4702 Clouds 11 1029 85 10000 3.09 320 22:53 19.11.2021
4703 Clouds 12 1028 85 10000 2.57 320 21:24 19.11.2021
4704 Clouds 12 1028 84 10000 1.03 330 20:40 19.11.2021
4705 Clouds 12 1028 83 10000 1.03 330 20:22 19.11.2021
4706 Clouds 12 1028 83 10000 1.54 340 19:43 19.11.2021
4707 Clear 13 1029 80 10000 0.51 0 18:45 19.11.2021
4708 Clear 14 1028 78 10000 0.45 328 17:44 19.11.2021
4709 Clear 16 1028 72 10000 0.45 130 16:40 19.11.2021
4710 Clear 17 1028 68 10000 0.89 129 14:51 19.11.2021
4711 Clear 14 1030 71 10000 0.45 136 11:32 19.11.2021
4712 Clear 13 1029 75 10000 0.45 75 10:24 19.11.2021
4713 Clear 10 1029 79 10000 0.45 296 08:35 19.11.2021
4714 Clouds 10 1028 78 10000 0.45 289 05:36 19.11.2021
4715 Clouds 10 1028 78 10000 1.34 300 03:37 19.11.2021
4716 Clouds 11 1029 80 10000 0.89 275 23:54 18.11.2021
4717 Clouds 11 1028 81 10000 3.6 330 22:49 18.11.2021
4718 Clouds 11 1028 81 10000 1.54 320 21:18 18.11.2021
4719 Clouds 11 1028 80 10000 2.06 320 20:44 18.11.2021
4720 Clouds 12 1028 79 10000 1.54 300 20:23 18.11.2021
4721 Clouds 12 1027 78 10000 0.51 0 19:36 18.11.2021
4722 Clouds 13 1027 75 10000 1.54 200 18:38 18.11.2021
4723 Clouds 14 1026 72 10000 0.45 5 17:52 18.11.2021
4724 Clear 15 1026 67 10000 2.06 210 17:22 18.11.2021
4725 Clear 15 1026 66 10000 0.45 184 16:42 18.11.2021
4726 Clear 16 1026 61 10000 0.45 144 15:23 18.11.2021
4727 Clear 15 1026 59 10000 0.89 0 12:56 18.11.2021
4728 Clear 14 1027 62 10000 2.68 245 11:44 18.11.2021
4729 Clear 13 1027 64 10000 2.24 262 11:26 18.11.2021
4730 Clear 13 1027 64 10000 2.24 254 11:26 18.11.2021
4731 Clear 12 1026 67 10000 4.02 243 10:36 18.11.2021
4732 Clouds 9 1026 75 10000 2.68 306 08:49 18.11.2021
4733 Clouds 8 1025 77 10000 2.24 292 07:19 18.11.2021
4734 Clouds 9 1024 76 10000 2.68 321 05:46 18.11.2021
4735 Clouds 10 1023 76 10000 4.47 295 02:34 18.11.2021
4736 Clouds 11 1023 82 10000 4.63 330 23:46 17.11.2021
4737 Clouds 11 1023 83 10000 0.45 292 22:40 17.11.2021
4738 Clouds 11 1023 83 10000 2.57 330 22:20 17.11.2021
4739 Clouds 11 1022 83 10000 2.57 330 21:36 17.11.2021
4740 Clouds 11 1022 81 10000 0.45 303 20:18 17.11.2021
4741 Clouds 14 1020 75 10000 2.06 170 17:44 17.11.2021
4742 Clouds 15 1019 71 10000 0.45 308 16:59 17.11.2021
4743 Clouds 16 1019 60 10000 0.89 291 13:59 17.11.2021
4744 Clouds 14 1019 62 10000 0.45 11 12:39 17.11.2021
4745 Clear 13 1020 64 10000 1.79 260 11:37 17.11.2021
4746 Clear 11 1019 71 10000 0.45 0 10:28 17.11.2021
4747 Clouds 10 1019 75 10000 1.79 244 09:23 17.11.2021
4748 Clouds 9 1018 76 10000 3.13 311 07:41 17.11.2021
4749 Clear 11 1017 74 10000 3.13 257 03:31 17.11.2021
4750 Clouds 12 1017 70 10000 3.13 269 00:47 17.11.2021
4751 Clouds 12 1018 73 10000 2.24 260 22:44 16.11.2021
4752 Clouds 12 1017 77 10000 2.24 294 20:20 16.11.2021
4753 Clouds 12 1017 77 10000 2.24 294 19:59 16.11.2021
4754 Clouds 12 1017 76 10000 0.45 0 18:53 16.11.2021
4755 Clouds 13 1016 76 10000 2.24 279 18:30 16.11.2021
4756 Clouds 13 1016 75 10000 2.24 275 17:34 16.11.2021
4757 Clouds 13 1016 76 10000 3.58 306 16:32 16.11.2021
4758 Clouds 13 1016 76 10000 3.58 263 15:49 16.11.2021
4759 Clouds 12 1016 80 10000 1.79 227 14:39 16.11.2021
4760 Rain 10 1018 83 10000 0.45 0 11:28 16.11.2021
4761 Clouds 11 1017 77 10000 3.13 314 09:46 16.11.2021
4762 Clouds 11 1017 72 10000 0.45 0 08:26 16.11.2021
4763 Clouds 11 1016 72 10000 3.58 267 07:32 16.11.2021
4764 Clouds 12 1017 77 10000 2.24 269 01:44 16.11.2021
4765 Clouds 12 1017 77 10000 1.34 311 23:20 15.11.2021
4766 Clouds 13 1016 79 10000 0.45 311 22:30 15.11.2021
4767 Clouds 13 1016 79 10000 0.89 259 21:53 15.11.2021
4768 Clouds 13 1016 77 10000 0.45 278 21:28 15.11.2021
4769 Clouds 13 1016 76 10000 1.54 40 19:42 15.11.2021
4770 Clouds 14 1015 73 10000 1.54 180 18:33 15.11.2021
4771 Clouds 15 1014 67 10000 0.51 360 16:20 15.11.2021
4772 Clouds 15 1013 65 10000 0.45 274 15:41 15.11.2021
4773 Clouds 15 1013 65 10000 0.45 292 15:23 15.11.2021
4774 Clouds 15 1014 70 10000 0.89 265 13:29 15.11.2021
4775 Rain 12 1015 82 10000 0.45 281 10:57 15.11.2021
4776 Clouds 11 1014 84 10000 0.45 271 09:28 15.11.2021
4777 Clouds 10 1013 88 10000 1.79 274 07:52 15.11.2021
4778 Clouds 11 1013 86 10000 0.89 256 05:21 15.11.2021
4779 Rain 12 1015 85 8000 4.12 60 23:54 14.11.2021
4780 Clouds 13 1014 84 10000 1.34 47 22:35 14.11.2021
4781 Clouds 15 1014 79 10000 2.24 171 19:57 14.11.2021
4782 Clouds 15 1014 79 10000 1.34 180 19:18 14.11.2021
4783 Clouds 15 1014 79 10000 1.79 167 18:54 14.11.2021
4784 Clouds 15 1014 79 10000 1.79 153 18:36 14.11.2021
4785 Clouds 15 1013 79 10000 1.79 174 18:18 14.11.2021
4786 Clouds 15 1013 78 10000 1.34 0 17:56 14.11.2021
4787 Clouds 15 1013 77 10000 0.45 179 17:38 14.11.2021
4788 Clouds 16 1013 77 10000 0.45 170 17:20 14.11.2021
4789 Clouds 16 1013 76 10000 0.89 75 16:47 14.11.2021
4790 Clouds 16 1013 76 10000 0.89 75 16:47 14.11.2021
4791 Clouds 16 1013 76 10000 0.89 182 16:20 14.11.2021
4792 Clouds 16 1013 74 10000 2.57 120 15:23 14.11.2021
4793 Clouds 16 1013 74 10000 0.45 138 14:49 14.11.2021
4794 Clouds 16 1013 73 10000 0.45 124 14:29 14.11.2021
4795 Clouds 16 1014 74 10000 0.89 59 13:57 14.11.2021
4796 Clouds 16 1014 73 10000 1.34 0 13:39 14.11.2021
4797 Clouds 16 1014 72 10000 0.89 274 12:28 14.11.2021
4798 Clouds 16 1015 72 10000 0.45 284 11:52 14.11.2021
4799 Fog 14 1015 74 10000 0.45 0 10:42 14.11.2021
4800 Fog 14 1015 76 10000 1.34 265 09:52 14.11.2021
4801 Clouds 12 1015 80 10000 0.45 15 08:55 14.11.2021
4802 Clouds 12 1015 80 10000 0.45 132 07:23 14.11.2021
4803 Clouds 14 1016 81 10000 0.45 273 01:24 14.11.2021
4804 Clouds 15 1017 79 10000 0.45 126 22:26 13.11.2021
4805 Clouds 15 1017 78 10000 0.45 270 21:57 13.11.2021
4806 Clouds 15 1017 78 10000 1.34 119 21:23 13.11.2021
4807 Clouds 16 1017 80 10000 1.03 100 19:47 13.11.2021
4808 Clouds 16 1017 80 10000 0.51 0 18:33 13.11.2021
4809 Clouds 17 1017 80 10000 1.54 110 17:56 13.11.2021
4810 Clouds 18 1016 74 10000 0.89 127 16:38 13.11.2021
4811 Clouds 19 1016 70 10000 0.45 40 15:34 13.11.2021
4812 Clouds 20 1016 64 10000 0.45 89 14:30 13.11.2021
4813 Clouds 20 1017 61 10000 0.89 123 13:32 13.11.2021
4814 Clouds 19 1017 63 10000 0.45 281 12:28 13.11.2021
4815 Clouds 18 1018 66 10000 1.34 309 11:38 13.11.2021
4816 Clouds 17 1018 66 10000 1.34 347 10:45 13.11.2021
4817 Clouds 17 1018 66 10000 1.34 347 10:22 13.11.2021
4818 Clouds 16 1017 70 10000 0.45 101 09:38 13.11.2021
4819 Clouds 15 1017 71 10000 0.45 254 08:56 13.11.2021
4820 Clouds 15 1017 72 10000 0.45 324 08:30 13.11.2021
4821 Clouds 15 1016 74 10000 0.89 252 04:48 13.11.2021
4822 Clouds 15 1016 73 10000 0.45 220 04:30 13.11.2021
4823 Clouds 16 1016 72 10000 3.13 284 01:38 13.11.2021
4824 Clouds 16 1016 74 10000 0.89 246 22:58 12.11.2021
4825 Clouds 16 1016 75 10000 1.54 320 21:49 12.11.2021
4826 Clouds 17 1015 69 10000 0.45 300 19:55 12.11.2021
4827 Clouds 17 1015 69 10000 3.13 41 19:28 12.11.2021
4828 Clouds 17 1015 68 10000 3.13 58 18:46 12.11.2021
4829 Clouds 19 1014 62 10000 0.45 260 16:35 12.11.2021
4830 Clouds 18 1014 64 10000 1.79 80 15:33 12.11.2021
4831 Clouds 16 1014 76 10000 0.45 112 12:54 12.11.2021
4832 Clouds 16 1014 76 10000 0.45 112 12:54 12.11.2021
4833 Drizzle 15 1015 79 10000 1.79 254 10:51 12.11.2021
4834 Rain 15 1015 78 10000 4.02 290 09:45 12.11.2021
4835 Clouds 15 1014 77 10000 4.02 351 08:39 12.11.2021
4836 Clouds 15 1015 81 10000 0.45 59 03:27 12.11.2021
4837 Clouds 16 1016 77 10000 2.68 103 23:42 11.11.2021
4838 Clouds 16 1017 76 10000 1.34 33 22:39 11.11.2021
4839 Clouds 16 1017 77 10000 0.89 0 21:28 11.11.2021
4840 Clouds 16 1017 78 10000 1.34 318 20:48 11.11.2021
4841 Clouds 17 1017 81 10000 1.34 65 19:24 11.11.2021
4842 Clouds 17 1016 83 10000 1.34 129 17:58 11.11.2021
4843 Clouds 17 1016 83 10000 3.58 196 17:36 11.11.2021
4844 Clouds 18 1015 82 10000 2.24 161 15:18 11.11.2021
4845 Clouds 18 1015 80 10000 1.79 139 14:30 11.11.2021
4846 Clouds 18 1015 78 10000 2.24 96 13:40 11.11.2021
4847 Clouds 18 1015 81 10000 3.13 103 12:52 11.11.2021
4848 Clouds 17 1016 83 10000 2.68 21 11:30 11.11.2021
4849 Clouds 15 1016 84 9000 0.89 264 09:49 11.11.2021
4850 Rain 15 1015 84 8000 1.34 164 08:19 11.11.2021
4851 Clouds 15 1014 77 10000 2.24 277 06:18 11.11.2021
4852 Clouds 15 1015 80 10000 0.89 192 00:36 11.11.2021
4853 Clouds 14 1015 81 10000 1.79 273 22:32 10.11.2021
4854 Clouds 14 1015 83 10000 0.45 294 21:33 10.11.2021
4855 Clouds 14 1015 82 10000 2.24 317 20:51 10.11.2021
4856 Clouds 14 1015 83 10000 0.45 242 19:48 10.11.2021
4857 Clouds 14 1015 85 10000 0.45 260 19:30 10.11.2021
4858 Rain 13 1014 92 6000 0.89 314 16:40 10.11.2021
4859 Rain 13 1014 90 7000 0.89 296 15:46 10.11.2021
4860 Rain 14 1014 85 8000 1.79 290 14:22 10.11.2021
4861 Rain 15 1014 79 10000 1.34 261 13:26 10.11.2021
4862 Clouds 16 1015 76 10000 1.34 277 11:39 10.11.2021
4863 Clouds 15 1016 74 10000 1.34 341 09:18 10.11.2021
4864 Clouds 15 1016 75 10000 0.45 254 08:40 10.11.2021
4865 Clouds 15 1016 75 10000 1.34 355 06:43 10.11.2021
4866 Clouds 15 1017 74 10000 0.89 216 05:53 10.11.2021
4867 Clouds 15 1017 71 10000 0.89 181 01:44 10.11.2021
4868 Drizzle 15 1017 71 10000 1.79 122 21:59 09.11.2021
4869 Clouds 15 1018 66 10000 1.79 96 20:34 09.11.2021
4870 Clouds 15 1017 63 10000 0.89 291 19:28 09.11.2021
4871 Clouds 15 1017 62 10000 0.89 229 18:47 09.11.2021
4872 Rain 16 1017 49 10000 0.89 0 16:29 09.11.2021
4873 Clouds 16 1017 48 10000 2.24 292 14:59 09.11.2021
4874 Clouds 16 1017 51 10000 0.45 288 13:31 09.11.2021
4875 Clouds 15 1018 55 10000 0.45 46 12:24 09.11.2021
4876 Clouds 13 1018 60 10000 0.45 323 10:53 09.11.2021
4877 Clouds 12 1017 63 10000 0.45 355 09:44 09.11.2021
4878 Clouds 11 1017 66 10000 2.68 307 08:53 09.11.2021
4879 Clouds 11 1016 72 10000 3.13 304 06:59 09.11.2021
4880 Clouds 12 1016 78 10000 1.34 222 02:32 09.11.2021
4881 Clouds 13 1016 78 10000 0.45 286 01:50 09.11.2021
4882 Clouds 13 1016 79 10000 1.34 343 00:22 09.11.2021
4883 Clouds 13 1016 80 10000 1.79 250 23:29 08.11.2021
4884 Clouds 13 1016 80 10000 0.89 251 22:36 08.11.2021
4885 Clear 13 1015 80 10000 2.57 320 21:22 08.11.2021
4886 Clear 14 1015 81 10000 1.03 10 20:31 08.11.2021
4887 Clear 14 1014 78 10000 1.03 30 19:18 08.11.2021
4888 Clear 17 1012 67 10000 1.34 0 17:39 08.11.2021
4889 Clear 18 1012 55 10000 0.45 74 15:48 08.11.2021
4890 Clear 19 1012 50 10000 0.45 30 14:55 08.11.2021
4891 Clear 19 1013 51 10000 0.45 108 14:24 08.11.2021
4892 Clouds 18 1014 50 10000 0.89 158 12:48 08.11.2021
4893 Clouds 16 1014 53 10000 1.34 275 11:37 08.11.2021
4894 Clouds 14 1014 57 10000 3.13 246 10:35 08.11.2021
4895 Clouds 12 1014 62 10000 1.34 306 08:56 08.11.2021
4896 Clouds 10 1014 65 10000 0.89 308 07:56 08.11.2021
4897 Clouds 10 1013 67 10000 1.79 298 06:55 08.11.2021
4898 Clouds 12 1014 59 10000 5.81 277 03:35 08.11.2021
4899 Clouds 13 1015 52 10000 2.68 286 00:18 08.11.2021
4900 Clouds 13 1016 50 10000 2.24 265 22:48 07.11.2021
4901 Clouds 14 1016 49 10000 1.79 241 21:24 07.11.2021
4902 Clouds 14 1016 49 10000 1.34 325 20:18 07.11.2021
4903 Clouds 15 1016 51 10000 2.06 250 18:30 07.11.2021
4904 Clouds 16 1015 44 10000 0.45 348 17:40 07.11.2021
4905 Clouds 18 1015 40 10000 1.79 261 16:21 07.11.2021
4906 Clouds 18 1016 38 10000 0.45 40 14:54 07.11.2021
4907 Clouds 18 1016 37 10000 0.45 257 14:27 07.11.2021
4908 Clouds 15 1017 43 10000 0.45 69 12:48 07.11.2021
4909 Clouds 14 1018 46 10000 0.89 219 11:41 07.11.2021
4910 Clouds 10 1018 53 10000 4.92 202 08:59 07.11.2021
4911 Clear 9 1019 56 10000 2.24 292 02:56 07.11.2021
4912 Clear 10 1019 56 10000 3.13 286 02:18 07.11.2021
4913 Clear 10 1020 59 10000 0.89 284 22:56 06.11.2021
4914 Clear 11 1021 58 10000 1.34 292 21:53 06.11.2021
4915 Clear 12 1020 53 10000 0.89 276 20:59 06.11.2021
4916 Clear 12 1021 50 10000 3.09 350 20:18 06.11.2021
4917 Clear 16 1020 42 10000 3.58 138 17:31 06.11.2021
4918 Clear 18 1020 39 10000 3.13 150 16:32 06.11.2021
4919 Clear 17 1021 37 10000 0.89 31 13:41 06.11.2021
4920 Clouds 16 1022 40 10000 0.89 103 12:56 06.11.2021
4921 Clear 13 1023 46 10000 1.34 313 11:18 06.11.2021
4922 Clear 9 1022 56 10000 2.24 323 08:48 06.11.2021
4923 Clear 9 1022 57 10000 1.79 279 04:50 06.11.2021
4924 Clouds 10 1022 67 10000 1.34 276 23:49 05.11.2021
4925 Clear 10 1022 68 10000 0.45 297 23:28 05.11.2021
4926 Clear 11 1021 70 10000 2.57 330 22:33 05.11.2021
4927 Clouds 12 1020 69 10000 3.09 330 20:32 05.11.2021
4928 Clouds 12 1020 72 10000 0.45 254 19:51 05.11.2021
4929 Clouds 13 1020 72 10000 0.45 288 18:43 05.11.2021
4930 Clouds 14 1019 70 10000 0.45 319 17:52 05.11.2021
4931 Clouds 15 1019 65 10000 0.45 46 16:45 05.11.2021
4932 Clouds 16 1018 60 10000 0.89 113 14:22 05.11.2021
4933 Clouds 14 1018 62 10000 0.89 321 12:27 05.11.2021
4934 Clouds 10 1018 77 10000 0.45 256 09:29 05.11.2021
4935 Clouds 9 1018 81 10000 1.79 315 08:28 05.11.2021
4936 Clouds 9 1016 80 10000 1.34 352 06:21 05.11.2021
4937 Clouds 10 1016 84 10000 1.34 301 02:38 05.11.2021
4938 Clouds 10 1016 83 10000 1.79 284 02:19 05.11.2021
4939 Clouds 11 1016 84 10000 0.45 338 23:57 04.11.2021
4940 Clouds 12 1015 79 10000 0.89 141 22:36 04.11.2021
4941 Rain 12 1015 78 10000 2.06 60 22:18 04.11.2021
4942 Rain 12 1015 77 10000 0.45 311 21:27 04.11.2021
4943 Clouds 12 1014 78 10000 0.89 0 20:29 04.11.2021
4944 Clouds 13 1014 77 10000 0.45 269 19:49 04.11.2021
4945 Clouds 13 1014 79 10000 0.45 313 19:27 04.11.2021
4946 Clouds 14 1013 76 10000 2.57 250 18:26 04.11.2021
4947 Clouds 14 1013 74 10000 0.45 41 17:26 04.11.2021
4948 Clouds 15 1012 70 10000 0.89 125 15:46 04.11.2021
4949 Clouds 15 1012 67 10000 0.89 246 13:50 04.11.2021
4950 Clouds 12 1012 71 10000 0.45 0 10:48 04.11.2021
4951 Clouds 9 1011 79 10000 1.79 275 08:41 04.11.2021
4952 Clouds 9 1009 79 10000 2.24 10 07:49 04.11.2021
4953 Clouds 9 1009 79 10000 0.89 279 07:31 04.11.2021
4954 Clouds 11 1007 72 10000 1.34 262 23:18 03.11.2021
4955 Clouds 12 1007 71 10000 0.45 289 22:26 03.11.2021
4956 Clouds 12 1006 73 10000 2.06 20 21:37 03.11.2021
4957 Clouds 12 1006 75 10000 1.03 0 20:44 03.11.2021
4958 Clouds 13 1005 75 10000 0.45 283 20:25 03.11.2021
4959 Clouds 13 1004 74 10000 3.6 60 19:33 03.11.2021
4960 Clouds 14 1003 69 10000 2.24 144 18:27 03.11.2021
4961 Clouds 14 1003 69 10000 2.24 157 18:27 03.11.2021
4962 Clouds 14 1003 69 10000 2.24 144 18:27 03.11.2021
4963 Clouds 15 1003 65 10000 1.79 148 17:48 03.11.2021
4964 Clouds 16 1002 56 10000 1.79 284 16:49 03.11.2021
4965 Clouds 16 1002 55 10000 1.34 350 15:49 03.11.2021
4966 Clouds 16 1001 55 10000 0.89 0 15:30 03.11.2021
4967 Clouds 16 1002 55 10000 0.45 360 13:42 03.11.2021
4968 Clouds 14 1003 66 10000 1.34 297 11:37 03.11.2021
4969 Clouds 13 1003 68 10000 1.34 263 10:50 03.11.2021
4970 Clouds 13 1003 70 10000 0.45 265 09:47 03.11.2021
4971 Clouds 13 1003 73 10000 1.34 321 08:58 03.11.2021
4972 Clouds 13 1002 76 10000 1.34 0 07:59 03.11.2021
4973 Clouds 13 1002 79 10000 1.34 314 07:35 03.11.2021
4974 Clouds 14 1001 69 10000 0.45 290 04:23 03.11.2021
4975 Clouds 15 1003 66 10000 1.34 319 00:58 03.11.2021
4976 Clouds 15 1004 63 10000 1.34 119 23:30 02.11.2021
4977 Clouds 16 1005 57 10000 0.89 245 21:59 02.11.2021
4978 Clouds 16 1005 57 10000 0.45 277 20:45 02.11.2021
4979 Clouds 16 1006 57 10000 1.34 231 20:21 02.11.2021
4980 Clouds 16 1006 56 10000 0.89 245 19:31 02.11.2021
4981 Clouds 16 1006 56 10000 0.45 266 19:31 02.11.2021
4982 Clouds 17 1006 54 10000 0.89 0 18:36 02.11.2021
4983 Clouds 17 1006 52 10000 0.89 301 17:47 02.11.2021
4984 Clouds 18 1006 52 10000 0.89 0 17:25 02.11.2021
4985 Clouds 18 1007 55 10000 0.89 250 16:19 02.11.2021
4986 Clear 19 1007 51 10000 0.89 278 14:57 02.11.2021
4987 Clear 18 1009 53 10000 1.79 317 13:31 02.11.2021
4988 Clear 17 1010 53 10000 1.34 317 12:59 02.11.2021
4989 Clear 17 1010 56 10000 0.45 333 12:18 02.11.2021
4990 Clear 16 1011 58 10000 1.79 19 11:26 02.11.2021
4991 Clear 15 1010 61 10000 1.79 275 10:45 02.11.2021
4992 Clear 15 1011 61 10000 1.34 244 10:22 02.11.2021
4993 Clouds 12 1010 67 10000 0.89 0 08:22 02.11.2021
4994 Clouds 13 1009 64 10000 1.34 0 06:29 02.11.2021
4995 Clear 14 1010 63 10000 0.45 286 03:30 02.11.2021
4996 Clouds 15 1010 56 10000 0.45 281 00:25 02.11.2021
4997 Clouds 16 1010 55 10000 4.12 250 22:25 01.11.2021
4998 Clouds 17 1009 53 10000 0.45 308 20:47 01.11.2021
4999 Clouds 17 1009 52 10000 0.89 300 20:27 01.11.2021
5000 Clouds 18 1009 50 10000 0.89 315 19:43 01.11.2021
5001 Clouds 18 1009 50 10000 0.45 304 18:54 01.11.2021
5002 Clouds 20 1008 48 10000 2.68 211 17:56 01.11.2021
5003 Clouds 21 1007 45 10000 3.13 287 16:58 01.11.2021
5004 Clouds 22 1007 46 10000 2.68 288 16:33 01.11.2021
5005 Clouds 22 1006 51 10000 2.68 267 15:40 01.11.2021
5006 Clouds 22 1006 54 10000 1.34 333 15:19 01.11.2021
5007 Clouds 22 1006 57 10000 0.89 286 14:39 01.11.2021
5008 Clouds 22 1006 59 10000 2.24 273 14:19 01.11.2021
5009 Clouds 22 1006 59 10000 2.24 273 14:19 01.11.2021
5010 Clouds 22 1006 59 10000 2.24 273 14:19 01.11.2021
5011 Clouds 22 1006 60 10000 1.34 254 12:50 01.11.2021
5012 Clouds 21 1006 65 10000 0.45 248 11:39 01.11.2021
5013 Clouds 19 1006 73 10000 2.24 290 10:21 01.11.2021
5014 Clouds 18 1005 78 10000 0.45 309 08:23 01.11.2021
5015 Clouds 18 1005 80 10000 0.45 269 07:47 01.11.2021
5016 Clouds 18 1004 86 6000 0.45 289 03:55 01.11.2021
5017 Clouds 18 1005 87 6000 0.45 288 03:36 01.11.2021
5018 Clouds 18 1007 87 8000 2.06 40 23:58 31.10.2021
5019 Drizzle 19 1008 86 9000 0.45 0 20:59 31.10.2021
5020 Drizzle 19 1008 86 10000 0.89 45 20:24 31.10.2021
5021 Clouds 22 1007 75 10000 0.45 0 18:43 31.10.2021
5022 Clouds 22 1007 70 10000 0.45 315 18:21 31.10.2021
5023 Clouds 24 1006 66 10000 4.63 250 16:48 31.10.2021
5024 Clouds 24 1006 65 10000 0.89 61 14:53 31.10.2021
5025 Clouds 24 1007 71 10000 0.89 304 12:57 31.10.2021
5026 Clouds 22 1008 76 10000 0.89 274 12:19 31.10.2021
5027 Clouds 20 1008 82 10000 0.45 277 10:51 31.10.2021
5028 Clouds 18 1008 85 10000 0.89 261 09:26 31.10.2021
5029 Clouds 17 1008 85 10000 0.89 255 08:46 31.10.2021
5030 Clouds 18 1009 86 10000 3.09 340 02:59 31.10.2021
5031 Clouds 18 1009 85 10000 0.45 307 23:43 30.10.2021
5032 Clouds 19 1008 86 10000 0.89 267 21:46 30.10.2021
5033 Clouds 19 1008 85 10000 2.68 271 21:25 30.10.2021
5034 Clouds 20 1007 85 10000 0.45 270 19:35 30.10.2021
5035 Clouds 21 1006 85 10000 0.45 251 17:48 30.10.2021
5036 Clouds 20 1006 88 9000 0.45 314 15:34 30.10.2021
5037 Clouds 19 1006 88 9000 0.45 287 13:59 30.10.2021
5038 Mist 19 1006 89 3000 0.45 0 13:38 30.10.2021
5039 Rain 19 1006 88 5000 0.89 0 13:20 30.10.2021
5040 Mist 19 1007 88 5000 1.34 259 11:49 30.10.2021
5041 Rain 18 1007 88 5000 1.79 278 10:44 30.10.2021
5042 Rain 18 1007 88 5000 1.79 251 08:56 30.10.2021
5043 Clouds 17 1007 88 10000 0.89 80 07:55 30.10.2021
5044 Drizzle 17 1007 88 10000 0.45 338 05:46 30.10.2021
5045 Clouds 17 1009 87 10000 0.45 130 02:26 30.10.2021
5046 Clouds 18 1010 88 10000 0.89 123 23:21 29.10.2021
5047 Rain 18 1011 87 6000 1.34 5 22:34 29.10.2021
5048 Clouds 19 1011 85 10000 1.54 200 20:59 29.10.2021
5049 Clouds 19 1011 84 10000 0.51 220 20:32 29.10.2021
5050 Clouds 19 1011 81 10000 0.45 250 19:18 29.10.2021
5051 Clouds 21 1011 75 10000 0.45 230 17:43 29.10.2021
5052 Clouds 21 1011 71 10000 2.24 265 15:26 29.10.2021
5053 Clouds 20 1013 79 10000 0.45 280 12:49 29.10.2021
5054 Clouds 17 1013 86 10000 0.45 319 10:46 29.10.2021
5055 Clouds 16 1014 88 10000 1.34 300 09:45 29.10.2021
5056 Clouds 14 1015 89 10000 0.45 137 02:22 29.10.2021
5057 Clouds 15 1016 87 10000 0.89 137 00:30 29.10.2021
5058 Clouds 15 1016 87 10000 1.54 320 22:27 28.10.2021
5059 Clouds 16 1016 84 10000 0.45 305 20:59 28.10.2021
5060 Clouds 17 1016 81 10000 0.51 0 19:52 28.10.2021
5061 Clouds 18 1016 78 10000 0.89 48 18:46 28.10.2021
5062 Clouds 20 1016 72 10000 0.45 180 17:38 28.10.2021
5063 Clouds 20 1017 69 10000 0.89 146 16:38 28.10.2021
5064 Clouds 20 1017 66 10000 1.34 144 14:40 28.10.2021
5065 Clear 20 1018 61 10000 0.45 78 13:33 28.10.2021
5066 Clear 19 1018 61 10000 0.89 94 12:49 28.10.2021
5067 Clear 18 1019 66 10000 1.34 360 11:49 28.10.2021
5068 Clouds 15 1019 76 10000 0.45 261 10:23 28.10.2021
5069 Clouds 13 1019 80 10000 0.89 229 09:37 28.10.2021
5070 Clouds 13 1019 83 10000 0.89 0 08:36 28.10.2021
5071 Clouds 13 1019 83 10000 0.45 277 07:41 28.10.2021
5072 Clouds 14 1020 84 10000 0.89 350 02:33 28.10.2021
5073 Clouds 16 1021 80 10000 0.45 301 22:54 27.10.2021
5074 Clouds 16 1021 79 10000 2.57 70 21:57 27.10.2021
5075 Clouds 16 1021 79 10000 1.34 88 21:28 27.10.2021
5076 Clouds 17 1021 80 10000 0.89 0 20:43 27.10.2021
5077 Clouds 18 1021 79 10000 2.68 115 19:47 27.10.2021
5078 Clouds 18 1021 78 10000 0.89 88 18:56 27.10.2021
5079 Clouds 18 1021 76 10000 0.89 91 18:36 27.10.2021
5080 Clouds 20 1021 67 10000 0.45 158 16:25 27.10.2021
5081 Clouds 20 1021 63 10000 1.34 138 15:25 27.10.2021
5082 Clouds 20 1022 62 10000 2.24 95 14:28 27.10.2021
5083 Clouds 17 1023 74 10000 0.45 79 11:18 27.10.2021
5084 Clouds 17 1023 74 10000 0.45 17 10:56 27.10.2021
5085 Clouds 14 1022 80 10000 0.45 268 09:28 27.10.2021
5086 Clear 14 1022 81 10000 1.79 299 07:46 27.10.2021
5087 Clear 14 1022 82 10000 0.89 309 05:49 27.10.2021
5088 Clear 15 1023 81 10000 1.34 272 01:26 27.10.2021
5089 Clear 16 1023 82 10000 1.34 271 00:55 27.10.2021
5090 Clear 16 1023 79 10000 1.34 266 23:56 26.10.2021
5091 Clouds 17 1022 77 10000 0.45 289 22:50 26.10.2021
5092 Clouds 17 1022 77 10000 0.45 301 22:27 26.10.2021
5093 Clouds 17 1022 77 10000 0.89 306 21:51 26.10.2021
5094 Clouds 19 1022 71 10000 0.45 304 19:59 26.10.2021
5095 Clouds 19 1021 69 10000 0.45 318 19:22 26.10.2021
5096 Clouds 21 1021 64 10000 0.45 259 18:30 26.10.2021
5097 Clouds 22 1021 60 10000 0.89 71 15:53 26.10.2021
5098 Clouds 21 1022 62 10000 1.34 97 14:18 26.10.2021
5099 Clear 18 1023 72 10000 0.89 251 11:23 26.10.2021
5100 Clear 14 1023 85 10000 0.45 0 09:28 26.10.2021
5101 Clouds 14 1022 87 9000 0.45 271 07:23 26.10.2021
5102 Clouds 16 1022 88 10000 3.6 330 00:31 26.10.2021
5103 Clouds 16 1022 88 10000 2.06 320 23:48 25.10.2021
5104 Clouds 16 1022 88 10000 1.54 310 22:35 25.10.2021
5105 Clouds 17 1021 86 10000 1.03 0 21:48 25.10.2021
5106 Clouds 17 1021 85 10000 0.51 70 21:23 25.10.2021
5107 Clouds 18 1020 82 10000 0.51 20 19:44 25.10.2021
5108 Clouds 18 1020 82 10000 1.34 308 19:24 25.10.2021
5109 Clouds 19 1020 78 10000 0.45 61 18:50 25.10.2021
5110 Clouds 20 1020 76 10000 0.45 120 17:42 25.10.2021
5111 Clouds 21 1020 73 10000 1.79 167 15:31 25.10.2021
5112 Clear 20 1022 70 10000 0.89 147 13:29 25.10.2021
5113 Clear 18 1022 72 10000 0.45 0 11:58 25.10.2021
5114 Clouds 14 1021 84 10000 1.79 240 09:23 25.10.2021
5115 Clouds 14 1021 84 10000 1.34 318 07:40 25.10.2021
5116 Clouds 14 1021 83 10000 1.34 289 05:55 25.10.2021
5117 Clear 16 1022 86 10000 1.79 267 00:53 25.10.2021
5118 Clouds 16 1022 86 10000 1.34 299 00:35 25.10.2021
5119 Clouds 16 1022 86 10000 1.79 272 23:45 24.10.2021
5120 Clouds 17 1022 86 10000 0.89 144 22:40 24.10.2021
5121 Clouds 17 1022 86 10000 0.89 152 22:20 24.10.2021
5122 Clouds 17 1022 84 10000 1.03 0 21:33 24.10.2021
5123 Clouds 18 1022 82 10000 2.24 265 20:42 24.10.2021
5124 Clouds 18 1021 79 10000 0.45 139 19:49 24.10.2021
5125 Clouds 20 1021 68 10000 0.45 81 18:30 24.10.2021
5126 Clouds 21 1021 65 10000 0.89 136 17:48 24.10.2021
5127 Clouds 22 1021 56 10000 1.79 131 15:57 24.10.2021
5128 Clouds 22 1022 56 10000 1.79 131 15:20 24.10.2021
5129 Clouds 21 1023 54 10000 0.89 157 13:23 24.10.2021
5130 Clouds 19 1023 56 10000 0.89 335 12:26 24.10.2021
5131 Clouds 18 1023 59 10000 0.89 331 11:36 24.10.2021
5132 Clouds 17 1023 63 10000 0.45 319 10:38 24.10.2021
5133 Clouds 14 1022 71 10000 0.89 0 08:43 24.10.2021
5134 Clear 14 1022 78 10000 2.24 273 02:58 24.10.2021
5135 Clear 15 1023 78 10000 0.45 133 23:51 23.10.2021
5136 Clear 15 1023 79 10000 0.89 263 22:40 23.10.2021
5137 Clear 16 1022 75 10000 0 0 20:43 23.10.2021
5138 Clear 17 1021 72 10000 0.51 0 19:36 23.10.2021
5139 Clouds 18 1021 66 10000 0.45 133 18:43 23.10.2021
5140 Clouds 19 1020 64 10000 0.89 172 17:44 23.10.2021
5141 Clouds 19 1020 62 10000 0.89 161 16:53 23.10.2021
5142 Clouds 20 1020 55 10000 0.45 178 15:20 23.10.2021
5143 Clouds 18 1021 57 10000 0.45 294 13:31 23.10.2021
5144 Clouds 16 1020 84 10000 0.45 152 00:42 23.10.2021
5145 Clouds 16 1020 84 10000 0.45 256 23:35 22.10.2021
5146 Clouds 17 1019 82 10000 1.03 0 21:29 22.10.2021
5147 Clouds 18 1019 77 10000 1.03 0 19:29 22.10.2021
5148 Clouds 19 1018 73 10000 0.89 0 18:24 22.10.2021
5149 Clouds 21 1018 67 10000 0.45 171 16:27 22.10.2021
5150 Clouds 21 1018 66 10000 0.45 117 14:35 22.10.2021
5151 Clouds 20 1019 65 10000 0.45 142 12:41 22.10.2021
5152 Clouds 20 1019 64 10000 0.45 142 12:41 22.10.2021
5153 Clouds 17 1019 73 10000 1.34 294 10:56 22.10.2021
5154 Clouds 16 1019 81 10000 0.89 143 09:57 22.10.2021
5155 Clouds 16 1018 83 10000 0.89 225 09:32 22.10.2021
5156 Clouds 15 1017 85 10000 1.34 295 07:30 22.10.2021
5157 Clouds 15 1017 85 10000 1.34 249 06:46 22.10.2021
5158 Clouds 17 1018 83 10000 0.45 309 00:40 22.10.2021
5159 Clouds 17 1018 82 10000 1.03 50 23:49 21.10.2021
5160 Clouds 18 1018 82 10000 0.89 305 22:43 21.10.2021
5161 Clouds 18 1017 81 10000 2.06 100 21:28 21.10.2021
5162 Clouds 19 1017 80 10000 0.45 64 20:21 21.10.2021
5163 Clouds 19 1017 79 10000 0.89 122 19:49 21.10.2021
5164 Drizzle 19 1017 80 10000 0.45 65 19:20 21.10.2021
5165 Clouds 20 1017 79 10000 0.45 131 18:30 21.10.2021
5166 Clouds 20 1017 79 10000 0.45 121 17:50 21.10.2021
5167 Clouds 20 1017 80 10000 1.34 43 16:47 21.10.2021
5168 Clouds 21 1016 77 10000 1.34 47 15:28 21.10.2021
5169 Clouds 21 1017 77 10000 1.34 54 14:51 21.10.2021
5170 Clouds 20 1017 81 10000 0.89 54 13:42 21.10.2021
5171 Clouds 20 1017 81 10000 0.45 78 11:49 21.10.2021
5172 Clouds 18 1016 85 10000 1.34 121 09:33 21.10.2021
5173 Clouds 17 1016 88 10000 0.45 255 07:46 21.10.2021
5174 Clouds 17 1016 88 10000 0.89 241 06:28 21.10.2021
5175 Clouds 19 1018 85 10000 0.45 306 00:35 21.10.2021
5176 Clouds 19 1019 82 10000 3.6 240 22:29 20.10.2021
5177 Clouds 19 1019 82 10000 0.45 331 21:47 20.10.2021
5178 Clouds 19 1019 82 10000 0.45 331 21:47 20.10.2021
5179 Clouds 20 1019 80 10000 0.45 86 20:58 20.10.2021
5180 Clouds 20 1019 80 10000 0.45 236 20:38 20.10.2021
5181 Clouds 20 1019 79 10000 0.89 230 20:18 20.10.2021
5182 Clouds 21 1019 77 10000 1.79 208 19:23 20.10.2021
5183 Clouds 21 1019 75 10000 2.68 252 18:29 20.10.2021
5184 Clouds 23 1019 71 10000 4.02 242 16:37 20.10.2021
5185 Clouds 22 1022 77 10000 3.58 206 13:54 20.10.2021
5186 Clouds 21 1023 81 10000 0.89 308 09:53 20.10.2021
5187 Clouds 19 1023 85 10000 0.89 171 05:34 20.10.2021
5188 Clouds 20 1024 86 10000 0.45 134 02:35 20.10.2021
5189 Clouds 20 1025 84 10000 0.45 112 00:33 20.10.2021
5190 Clouds 20 1025 82 10000 0.45 226 22:37 19.10.2021
5191 Clouds 21 1025 81 10000 1.34 91 21:37 19.10.2021
5192 Clouds 21 1025 80 10000 0.89 230 20:26 19.10.2021
5193 Clouds 21 1025 79 10000 1.34 222 19:58 19.10.2021
5194 Clouds 21 1025 79 10000 1.34 237 19:34 19.10.2021
5195 Clouds 22 1024 75 10000 0.45 354 18:40 19.10.2021
5196 Clouds 23 1024 73 10000 3.13 224 17:47 19.10.2021
5197 Clouds 24 1025 71 10000 3.13 151 15:29 19.10.2021
5198 Clouds 24 1025 70 10000 1.79 216 14:40 19.10.2021
5199 Clouds 23 1026 73 10000 0.45 137 13:52 19.10.2021
5200 Clouds 22 1027 78 10000 1.79 52 12:23 19.10.2021
5201 Clouds 21 1027 81 10000 0.89 263 11:24 19.10.2021
5202 Clouds 18 1026 90 10000 0.89 266 09:55 19.10.2021
5203 Clouds 17 1026 90 10000 2.57 340 08:56 19.10.2021
5204 Clouds 18 1026 91 10000 0.45 319 02:25 19.10.2021
5205 Clouds 18 1025 90 10000 1.54 320 23:59 18.10.2021
5206 Clouds 18 1025 90 10000 0.51 0 23:40 18.10.2021
5207 Clouds 19 1025 90 10000 0.51 310 22:56 18.10.2021
5208 Clouds 19 1025 89 10000 0 0 22:30 18.10.2021
5209 Clouds 20 1024 87 10000 1.54 210 20:50 18.10.2021
5210 Clouds 20 1024 85 10000 1.03 0 20:30 18.10.2021
5211 Clouds 21 1023 81 10000 0.89 332 19:32 18.10.2021
5212 Clouds 22 1023 80 10000 1.34 334 18:59 18.10.2021
5213 Clouds 23 1023 77 10000 1.34 193 16:59 18.10.2021
5214 Clouds 23 1023 77 10000 0.89 129 14:57 18.10.2021
5215 Clouds 22 1024 78 10000 0.45 113 12:28 18.10.2021
5216 Clouds 18 1023 87 10000 0.89 309 10:25 18.10.2021
5217 Clouds 17 1022 90 10000 0.45 299 09:25 18.10.2021
5218 Clouds 17 1022 90 10000 0.45 299 09:25 18.10.2021
5219 Clouds 18 1021 89 10000 2.06 340 01:23 18.10.2021
5220 Clouds 18 1021 88 10000 2.06 340 23:20 17.10.2021
5221 Clouds 18 1020 86 10000 1.54 30 21:45 17.10.2021
5222 Clouds 18 1020 86 10000 1.54 30 21:45 17.10.2021
5223 Clouds 19 1020 85 10000 0.45 262 20:59 17.10.2021
5224 Clouds 19 1019 84 10000 0.45 258 20:29 17.10.2021
5225 Clouds 19 1019 82 10000 0.89 262 19:38 17.10.2021
5226 Clouds 20 1019 80 10000 0.45 48 18:44 17.10.2021
5227 Clouds 21 1018 78 10000 0.89 151 17:27 17.10.2021
5228 Clouds 21 1018 76 10000 0.45 0 14:47 17.10.2021
5229 Clouds 21 1019 77 10000 0.45 80 14:24 17.10.2021
5230 Clouds 21 1019 76 10000 0.45 157 13:34 17.10.2021
5231 Clouds 20 1019 75 10000 0.45 64 11:54 17.10.2021
5232 Clouds 20 1019 74 10000 0.45 46 11:54 17.10.2021
5233 Clouds 17 1019 80 10000 3.6 330 10:20 17.10.2021
5234 Clouds 16 1018 86 10000 0.45 104 09:23 17.10.2021
5235 Clouds 16 1017 85 10000 1.34 127 06:56 17.10.2021
5236 Clouds 18 1018 84 10000 0.89 197 00:50 17.10.2021
5237 Clouds 18 1018 83 10000 1.03 30 23:43 16.10.2021
5238 Clouds 18 1018 82 10000 1.54 100 21:30 16.10.2021
5239 Clouds 18 1018 80 10000 0.45 278 20:31 16.10.2021
5240 Clouds 19 1018 78 10000 1.34 300 19:44 16.10.2021
5241 Clouds 19 1017 77 10000 0.89 142 19:21 16.10.2021
5242 Clouds 19 1017 76 10000 0.89 39 18:51 16.10.2021
5243 Clouds 20 1017 74 10000 1.34 53 18:29 16.10.2021
5244 Clouds 20 1017 73 10000 0.45 0 17:53 16.10.2021
5245 Clouds 20 1017 72 10000 0.89 0 17:22 16.10.2021
5246 Clouds 22 1017 69 10000 1.79 0 14:48 16.10.2021
5247 Clouds 20 1018 74 10000 1.34 60 11:31 16.10.2021
5248 Clouds 19 1017 81 10000 1.34 262 10:25 16.10.2021
5249 Clouds 17 1016 87 10000 0.45 305 07:50 16.10.2021
5250 Clouds 18 1016 84 10000 3.09 330 01:25 16.10.2021
5251 Clouds 18 1016 83 10000 0.45 0 23:50 15.10.2021
5252 Clouds 19 1016 83 10000 2.24 34 22:38 15.10.2021
5253 Clouds 19 1016 83 10000 0.45 0 22:18 15.10.2021
5254 Clouds 20 1016 79 10000 0.45 285 21:26 15.10.2021
5255 Clouds 20 1016 77 10000 0.45 318 20:46 15.10.2021
5256 Clouds 21 1015 74 10000 0.89 60 19:26 15.10.2021
5257 Clouds 22 1015 72 10000 0.45 200 18:40 15.10.2021
5258 Clouds 23 1015 68 10000 1.34 265 16:28 15.10.2021
5259 Clouds 24 1016 64 10000 1.34 171 15:36 15.10.2021
5260 Clouds 22 1017 71 10000 1.34 0 13:29 15.10.2021
5261 Clouds 20 1018 74 10000 0.45 101 11:36 15.10.2021
5262 Clouds 18 1018 81 10000 0.45 96 10:46 15.10.2021
5263 Clouds 17 1018 87 10000 1.34 247 09:46 15.10.2021
5264 Clouds 16 1019 88 10000 1.34 331 05:32 15.10.2021
5265 Clouds 16 1019 88 10000 1.34 300 05:32 15.10.2021
5266 Clouds 17 1021 85 10000 0.45 307 01:45 15.10.2021
5267 Clouds 17 1022 83 10000 1.54 330 00:22 15.10.2021
5268 Clouds 17 1022 81 10000 0.45 285 22:52 14.10.2021
5269 Clouds 18 1022 79 10000 0.45 280 21:45 14.10.2021
5270 Clouds 18 1022 77 10000 1.34 45 20:49 14.10.2021
5271 Clouds 18 1022 76 10000 0.45 224 20:19 14.10.2021
5272 Clouds 19 1022 74 10000 0.45 257 19:35 14.10.2021
5273 Clouds 20 1022 66 10000 0.45 144 17:31 14.10.2021
5274 Clouds 21 1022 62 10000 0.45 167 16:50 14.10.2021
5275 Clouds 21 1022 61 10000 0.45 157 16:20 14.10.2021
5276 Clouds 21 1022 57 10000 1.34 151 14:43 14.10.2021
5277 Clouds 21 1023 57 10000 0.45 0 14:21 14.10.2021
5278 Clouds 19 1023 61 10000 0.45 74 11:44 14.10.2021
5279 Clouds 16 1023 69 10000 0.45 292 09:55 14.10.2021
5280 Clouds 16 1023 69 10000 0.45 292 09:55 14.10.2021
5281 Clouds 16 1022 79 10000 1.34 284 06:56 14.10.2021
5282 Clouds 17 1021 70 10000 0.45 297 00:59 14.10.2021
5283 Clouds 17 1021 70 10000 0.45 293 00:28 14.10.2021
5284 Clouds 18 1020 66 10000 0.45 294 21:58 13.10.2021
5285 Clouds 19 1020 64 10000 0.45 328 21:32 13.10.2021
5286 Clouds 19 1019 61 10000 0.89 61 19:59 13.10.2021
5287 Clouds 20 1019 61 10000 0.89 0 18:57 13.10.2021
5288 Clouds 20 1019 62 10000 1.79 158 18:35 13.10.2021
5289 Clouds 22 1017 62 10000 0.89 167 15:32 13.10.2021
5290 Clouds 22 1018 62 10000 1.34 167 14:45 13.10.2021
5291 Clouds 21 1018 62 10000 0.89 26 14:21 13.10.2021
5292 Clouds 20 1018 67 10000 2.24 307 12:22 13.10.2021
5293 Clouds 19 1018 71 10000 0.45 251 11:35 13.10.2021
5294 Clouds 16 1016 85 10000 0.45 0 08:42 13.10.2021
5295 Clouds 16 1016 84 10000 0.45 319 06:51 13.10.2021
5296 Clear 17 1016 85 10000 4.12 320 02:28 13.10.2021
5297 Clear 17 1016 82 10000 3.6 330 01:43 13.10.2021
5298 Clear 17 1016 77 10000 2.06 320 23:30 12.10.2021
5299 Clear 17 1016 77 10000 2.06 320 23:30 12.10.2021
5300 Clear 18 1016 75 10000 0.45 299 22:46 12.10.2021
5301 Clear 18 1016 72 10000 0.45 188 21:50 12.10.2021
5302 Clear 19 1015 68 10000 0.45 302 20:34 12.10.2021
5303 Clear 20 1015 67 10000 0.45 312 19:57 12.10.2021
5304 Clear 22 1015 61 10000 0.45 11 18:36 12.10.2021
5305 Clear 22 1015 59 10000 0.89 146 17:57 12.10.2021
5306 Clear 23 1015 55 10000 0.89 153 16:39 12.10.2021
5307 Clouds 23 1015 56 10000 0.89 144 15:58 12.10.2021
5308 Clouds 23 1016 58 10000 0.89 103 14:45 12.10.2021
5309 Clear 23 1017 56 10000 0.45 132 13:43 12.10.2021
5310 Clear 21 1018 59 10000 0.45 294 12:39 12.10.2021
5311 Clear 18 1018 73 10000 2.68 244 09:59 12.10.2021
5312 Clear 16 1018 81 10000 0.45 326 08:44 12.10.2021
5313 Clear 15 1018 82 10000 0.45 300 07:36 12.10.2021
5314 Clear 15 1019 81 10000 0.89 266 05:31 12.10.2021
5315 Clear 16 1019 81 10000 0.45 269 04:32 12.10.2021
5316 Clear 17 1020 80 10000 2.57 310 00:28 12.10.2021
5317 Clear 17 1021 79 10000 0.45 244 23:41 11.10.2021
5318 Clear 18 1021 80 10000 1.03 320 22:57 11.10.2021
5319 Clear 18 1021 76 10000 1.54 280 21:46 11.10.2021
5320 Clear 19 1020 74 10000 4.12 250 21:18 11.10.2021
5321 Clear 20 1020 73 10000 1.34 40 19:46 11.10.2021
5322 Clear 22 1020 64 10000 0.45 0 18:43 11.10.2021
5323 Clouds 23 1020 62 10000 0.89 0 17:54 11.10.2021
5324 Clouds 23 1020 59 10000 0.45 145 16:39 11.10.2021
5325 Clouds 23 1020 58 10000 1.34 120 15:51 11.10.2021
5326 Clouds 23 1021 58 10000 0.45 172 14:55 11.10.2021
5327 Clouds 23 1021 58 10000 0.89 120 14:33 11.10.2021
5328 Clouds 22 1022 58 10000 1.79 242 13:37 11.10.2021
5329 Clear 20 1022 66 10000 2.68 234 11:51 11.10.2021
5330 Clouds 18 1022 76 10000 3.13 249 10:34 11.10.2021
5331 Clouds 16 1022 84 10000 1.34 152 09:37 11.10.2021
5332 Clouds 15 1021 86 10000 1.34 261 07:27 11.10.2021
5333 Clouds 16 1022 83 10000 2.57 320 01:40 11.10.2021
5334 Clouds 17 1022 81 10000 0.89 255 00:48 11.10.2021
5335 Clouds 17 1022 80 10000 0.45 307 00:23 11.10.2021
5336 Clouds 18 1022 76 10000 1.03 0 21:54 10.10.2021
5337 Clouds 18 1021 76 10000 1.54 180 21:32 10.10.2021
5338 Clouds 19 1021 75 10000 0.51 0 20:47 10.10.2021
5339 Clouds 19 1021 75 10000 1.54 160 20:21 10.10.2021
5340 Clouds 19 1021 75 10000 1.54 160 19:59 10.10.2021
5341 Clouds 19 1021 74 10000 0.45 53 19:36 10.10.2021
5342 Clouds 20 1021 73 10000 0.45 46 18:36 10.10.2021
5343 Clouds 20 1021 67 10000 0.45 0 16:46 10.10.2021
5344 Clouds 21 1021 64 10000 0.45 0 15:46 10.10.2021
5345 Clouds 20 1022 67 10000 1.79 104 13:57 10.10.2021
5346 Clouds 20 1022 68 10000 0.45 77 13:33 10.10.2021
5347 Clouds 20 1022 73 10000 0.89 254 12:35 10.10.2021
5348 Clouds 18 1022 77 10000 1.34 261 10:44 10.10.2021
5349 Clouds 17 1021 83 10000 0.45 241 09:31 10.10.2021
5350 Clouds 17 1021 85 10000 0.45 143 08:54 10.10.2021
5351 Clouds 16 1021 85 10000 0.89 300 07:28 10.10.2021
5352 Clouds 18 1022 84 10000 0.45 0 02:45 10.10.2021
5353 Clouds 18 1022 85 10000 0.45 65 00:58 10.10.2021
5354 Clouds 18 1022 83 10000 1.79 63 00:29 10.10.2021
5355 Clouds 18 1021 84 10000 0.45 144 22:53 09.10.2021
5356 Clouds 18 1021 82 10000 1.03 350 21:47 09.10.2021
5357 Clouds 18 1021 83 10000 0.45 118 21:28 09.10.2021
5358 Clouds 18 1020 82 10000 0.45 224 19:44 09.10.2021
5359 Clouds 18 1020 82 10000 0.45 54 19:19 09.10.2021
5360 Clouds 19 1020 81 10000 0.45 275 18:33 09.10.2021
5361 Clouds 19 1020 78 10000 0.45 54 17:20 09.10.2021
5362 Clouds 20 1020 77 10000 0.89 40 16:19 09.10.2021
5363 Clouds 21 1021 72 10000 1.34 155 13:45 09.10.2021
5364 Clouds 20 1021 74 10000 0.45 58 12:40 09.10.2021
5365 Clouds 19 1021 76 10000 0.45 0 11:48 09.10.2021
5366 Clouds 18 1021 84 10000 0.89 117 10:42 09.10.2021
5367 Clouds 18 1020 87 10000 1.34 244 09:52 09.10.2021
5368 Clouds 17 1020 87 10000 3.09 330 08:30 09.10.2021
5369 Clouds 17 1019 87 10000 3.09 330 07:49 09.10.2021
5370 Clouds 17 1019 86 10000 3.09 330 05:29 09.10.2021
5371 Clouds 17 1020 85 10000 3.09 330 02:59 09.10.2021
5372 Clouds 17 1020 85 10000 3.6 330 02:40 09.10.2021
5373 Clouds 17 1020 83 10000 1.03 0 23:51 08.10.2021
5374 Clouds 18 1020 81 10000 0.51 360 22:55 08.10.2021
5375 Clouds 18 1019 80 10000 0.51 310 22:24 08.10.2021
5376 Clouds 19 1019 77 10000 3.09 240 20:55 08.10.2021
5377 Clouds 21 1019 70 10000 0.89 226 18:54 08.10.2021
5378 Clouds 22 1019 67 10000 0.45 56 17:36 08.10.2021
5379 Clouds 22 1019 65 10000 0.89 123 16:51 08.10.2021
5380 Clouds 22 1019 64 10000 1.34 190 16:23 08.10.2021
5381 Clouds 22 1020 62 10000 0.89 142 13:57 08.10.2021
5382 Clouds 22 1020 62 10000 0.89 74 12:56 08.10.2021
5383 Clouds 20 1020 64 10000 2.24 260 11:33 08.10.2021
5384 Clouds 20 1020 65 10000 1.79 244 10:41 08.10.2021
5385 Clouds 17 1019 71 10000 1.79 302 09:18 08.10.2021
5386 Clouds 18 1019 81 10000 0.89 109 23:59 07.10.2021
5387 Clouds 18 1019 80 10000 2.06 50 23:19 07.10.2021
5388 Clear 19 1018 75 10000 0 0 21:46 07.10.2021
5389 Clear 19 1018 74 10000 2.06 230 21:23 07.10.2021
5390 Clear 20 1018 76 10000 0.45 306 20:20 07.10.2021
5391 Clear 21 1017 72 10000 1.34 188 19:29 07.10.2021
5392 Clouds 22 1017 68 10000 2.68 219 18:22 07.10.2021
5393 Clouds 23 1017 67 10000 0.45 124 17:24 07.10.2021
5394 Clouds 23 1018 66 10000 0.45 173 15:50 07.10.2021
5395 Clouds 22 1019 65 10000 0.89 105 13:52 07.10.2021
5396 Clouds 22 1019 65 10000 0.45 173 13:34 07.10.2021
5397 Clouds 21 1020 63 10000 1.34 138 12:40 07.10.2021
5398 Clouds 18 1021 67 10000 1.34 313 10:52 07.10.2021
5399 Clouds 18 1021 67 10000 1.34 313 10:52 07.10.2021
5400 Clouds 17 1021 70 10000 1.34 230 10:19 07.10.2021
5401 Clouds 16 1021 75 10000 0.45 0 09:33 07.10.2021
5402 Clouds 15 1021 75 10000 1.79 331 08:41 07.10.2021
5403 Clouds 15 1021 78 10000 2.68 300 07:43 07.10.2021
5404 Clouds 15 1021 79 10000 2.68 298 07:19 07.10.2021
5405 Clear 16 1022 85 10000 1.34 323 02:26 07.10.2021
5406 Clouds 17 1022 85 10000 0.45 298 23:55 06.10.2021
5407 Clouds 18 1022 83 10000 0.45 291 22:51 06.10.2021
5408 Clouds 18 1022 81 10000 2.06 210 21:53 06.10.2021
5409 Clouds 19 1022 79 10000 0.45 245 20:38 06.10.2021
5410 Clouds 19 1021 78 10000 0.45 309 19:53 06.10.2021
5411 Clouds 20 1021 73 10000 0.45 272 18:40 06.10.2021
5412 Clouds 22 1021 66 10000 2.24 167 16:56 06.10.2021
5413 Clouds 21 1021 65 10000 1.79 203 15:30 06.10.2021
5414 Clouds 20 1022 69 10000 0.45 143 14:22 06.10.2021
5415 Clouds 20 1022 72 10000 0.45 52 12:59 06.10.2021
5416 Clouds 20 1022 69 10000 0.45 122 12:41 06.10.2021
5417 Clouds 20 1022 67 10000 0.45 311 12:21 06.10.2021
5418 Clouds 19 1022 70 10000 1.79 244 10:21 06.10.2021
5419 Clouds 18 1022 73 10000 0.89 325 09:39 06.10.2021
5420 Clouds 17 1021 77 10000 0.89 128 08:42 06.10.2021
5421 Clouds 17 1020 80 10000 0.45 112 07:48 06.10.2021
5422 Clouds 18 1019 82 10000 0.45 71 05:26 06.10.2021
5423 Clear 19 1019 73 10000 1.79 46 00:29 06.10.2021
5424 Clear 20 1019 71 10000 1.34 51 23:58 05.10.2021
5425 Clear 20 1018 71 10000 0.45 307 23:39 05.10.2021
5426 Clear 20 1018 70 10000 0.45 289 23:20 05.10.2021
5427 Clear 20 1018 68 10000 0.45 280 22:28 05.10.2021
5428 Clear 20 1018 69 10000 1.03 200 21:49 05.10.2021
5429 Clear 21 1017 67 10000 0.45 241 20:42 05.10.2021
5430 Clear 21 1017 65 10000 0.45 226 20:24 05.10.2021
5431 Clear 22 1017 60 10000 5.14 240 19:43 05.10.2021
5432 Clouds 23 1016 53 10000 0.45 241 18:54 05.10.2021
5433 Clear 24 1015 46 10000 1.34 272 16:38 05.10.2021
5434 Clear 24 1016 46 10000 0.45 161 14:38 05.10.2021
5435 Clear 22 1016 50 10000 1.79 298 13:35 05.10.2021
5436 Clear 21 1017 52 10000 0.89 323 12:47 05.10.2021
5437 Clear 21 1017 53 10000 1.34 291 12:18 05.10.2021
5438 Clear 19 1017 58 10000 0.45 327 11:19 05.10.2021
5439 Clear 15 1017 69 10000 0.89 329 09:26 05.10.2021
5440 Clouds 14 1017 80 10000 1.79 277 04:47 05.10.2021
5441 Clouds 16 1018 84 10000 1.34 240 23:53 04.10.2021
5442 Clouds 16 1018 89 10000 0.89 137 22:38 04.10.2021
5443 Clouds 17 1017 84 10000 0.45 305 20:29 04.10.2021
5444 Clouds 18 1016 80 10000 0.45 236 18:34 04.10.2021
5445 Clouds 18 1016 81 10000 0.45 274 16:34 04.10.2021
5446 Clouds 17 1016 83 10000 0.45 41 15:31 04.10.2021
5447 Drizzle 16 1016 87 10000 0.45 294 14:43 04.10.2021
5448 Drizzle 16 1016 89 10000 1.34 335 13:57 04.10.2021
5449 Clouds 15 1017 91 10000 1.34 267 13:25 04.10.2021
5450 Clouds 15 1016 89 9000 1.34 259 12:28 04.10.2021
5451 Rain 15 1016 88 10000 1.34 267 11:31 04.10.2021
5452 Rain 15 1016 88 10000 1.34 262 10:23 04.10.2021
5453 Drizzle 15 1014 88 10000 2.24 302 08:42 04.10.2021
5454 Rain 15 1014 88 10000 2.68 235 07:43 04.10.2021
5455 Rain 17 1012 91 10000 0.89 319 01:56 04.10.2021
5456 Clouds 22 1010 68 10000 0.45 190 22:41 03.10.2021
5457 Clouds 22 1010 72 10000 1.79 292 21:42 03.10.2021
5458 Clouds 23 1010 75 10000 0.89 262 21:23 03.10.2021
5459 Clouds 23 1009 83 10000 4.12 220 20:21 03.10.2021
5460 Clouds 24 1009 81 10000 0.45 76 19:30 03.10.2021
5461 Clouds 24 1008 79 10000 0.45 0 18:28 03.10.2021
5462 Clouds 25 1008 78 10000 0.89 192 17:29 03.10.2021
5463 Clouds 25 1009 78 10000 0.45 97 14:49 03.10.2021
5464 Clouds 25 1009 77 10000 1.34 167 14:27 03.10.2021
5465 Clouds 25 1009 77 10000 3.13 139 13:34 03.10.2021
5466 Clouds 25 1010 80 10000 1.79 30 12:41 03.10.2021
5467 Clouds 24 1010 81 10000 0.89 359 10:52 03.10.2021
5468 Clouds 23 1010 84 10000 1.34 340 09:34 03.10.2021
5469 Clouds 23 1011 86 10000 0.45 0 03:36 03.10.2021
5470 Clouds 23 1013 83 10000 0.45 92 22:46 02.10.2021
5471 Clouds 23 1014 83 10000 0.45 173 21:30 02.10.2021
5472 Clouds 23 1014 82 10000 0.45 253 19:54 02.10.2021
5473 Clouds 23 1014 79 10000 1.34 254 18:56 02.10.2021
5474 Clouds 24 1014 75 10000 1.34 0 18:18 02.10.2021
5475 Clouds 24 1014 75 10000 0.45 132 17:36 02.10.2021
5476 Clouds 25 1015 74 10000 0.45 274 15:53 02.10.2021
5477 Clear 17 1020 89 10000 0.45 273 06:59 01.10.2021
5478 Clouds 24 1023 72 10000 0.45 125 15:37 30.09.2021
5479 Clouds 24 1024 70 10000 2.24 161 13:51 30.09.2021
5480 Clouds 22 1025 67 10000 0.89 155 11:38 30.09.2021
5481 Clouds 21 1025 69 10000 0.45 316 10:46 30.09.2021
5482 Clouds 20 1025 77 10000 0.45 322 09:44 30.09.2021
5483 Clouds 18 1025 85 10000 0.45 318 08:30 30.09.2021
5484 Clouds 19 1024 87 10000 2.24 296 07:34 30.09.2021
5485 Clouds 19 1024 89 10000 0.89 240 05:18 30.09.2021
5486 Clouds 20 1026 84 10000 1.54 320 01:36 30.09.2021
5487 Clouds 21 1026 83 10000 0.51 0 00:23 30.09.2021
5488 Clouds 21 1026 83 10000 1.03 0 22:37 29.09.2021
5489 Clouds 21 1025 81 10000 1.03 0 21:25 29.09.2021
5490 Clouds 21 1025 80 10000 0.45 253 20:27 29.09.2021
5491 Clouds 22 1025 80 10000 1.34 200 19:51 29.09.2021
5492 Clouds 23 1024 76 10000 0.45 1 18:50 29.09.2021
5493 Clouds 23 1024 75 10000 0.45 0 17:41 29.09.2021
5494 Clouds 24 1024 76 10000 0.45 82 16:48 29.09.2021
5495 Clouds 23 1023 78 10000 1.34 167 15:58 29.09.2021
5496 Clouds 23 1023 77 10000 1.34 47 14:39 29.09.2021
5497 Clouds 23 1024 77 10000 0.89 48 13:58 29.09.2021
5498 Rain 23 1024 75 10000 0.89 0 13:18 29.09.2021
5499 Clouds 23 1024 74 10000 0.89 319 12:19 29.09.2021
5500 Clouds 23 1023 75 10000 2.06 140 10:49 29.09.2021
5501 Clouds 22 1023 83 10000 2.57 320 09:51 29.09.2021
5502 Clouds 21 1023 84 10000 2.06 330 09:24 29.09.2021
5503 Clouds 20 1021 84 10000 2.57 330 07:32 29.09.2021
5504 Clouds 21 1020 87 10000 2.57 340 04:19 29.09.2021
5505 Clouds 22 1019 84 10000 2.06 260 23:27 28.09.2021
5506 Clouds 23 1019 82 10000 2.57 250 22:24 28.09.2021
5507 Clouds 23 1019 81 10000 0.89 229 21:44 28.09.2021
5508 Clouds 23 1019 80 10000 1.79 300 20:39 28.09.2021
5509 Clouds 24 1018 79 10000 3.13 232 19:46 28.09.2021
5510 Clouds 24 1018 76 10000 0.45 332 18:50 28.09.2021
5511 Clouds 25 1018 74 10000 2.24 255 18:18 28.09.2021
5512 Clouds 26 1019 67 10000 2.68 263 16:38 28.09.2021
5513 Clouds 27 1020 60 10000 0.45 0 14:30 28.09.2021
5514 Clouds 26 1021 68 10000 0.89 0 12:50 28.09.2021
5515 Clouds 25 1021 69 10000 0.89 0 12:21 28.09.2021
5516 Clouds 25 1021 70 10000 0.45 157 11:46 28.09.2021
5517 Clouds 24 1021 72 10000 0.45 100 11:22 28.09.2021
5518 Clear 22 1021 77 10000 1.79 265 10:21 28.09.2021
5519 Clouds 21 1021 81 10000 1.34 243 09:18 28.09.2021
5520 Clouds 21 1021 83 10000 0.45 247 08:39 28.09.2021
5521 Clouds 20 1021 84 10000 3.6 320 07:48 28.09.2021
5522 Clouds 20 1021 85 10000 1.34 292 05:31 28.09.2021
5523 Clouds 21 1022 83 10000 1.54 310 01:25 28.09.2021
5524 Clouds 22 1022 83 10000 2.06 30 00:26 28.09.2021
5525 Clouds 22 1022 83 10000 2.57 30 23:41 27.09.2021
5526 Clouds 22 1022 83 10000 2.57 30 23:22 27.09.2021
5527 Clouds 23 1021 77 10000 0.89 113 21:55 27.09.2021
5528 Clouds 25 1020 66 10000 0.45 90 20:45 27.09.2021
5529 Clouds 26 1020 58 10000 0.45 99 19:56 27.09.2021
5530 Clouds 26 1019 57 10000 0.89 58 19:28 27.09.2021
5531 Clouds 27 1019 60 10000 0.89 162 18:51 27.09.2021
5532 Clouds 28 1018 57 10000 0.45 138 17:30 27.09.2021
5533 Clouds 28 1018 57 10000 0.45 0 16:50 27.09.2021
5534 Clear 28 1018 58 10000 1.34 355 15:45 27.09.2021
5535 Clear 28 1018 56 10000 1.34 113 15:19 27.09.2021
5536 Clear 28 1018 50 10000 0.45 333 13:32 27.09.2021
5537 Clear 26 1018 52 10000 0.45 346 11:49 27.09.2021
5538 Clear 23 1018 63 10000 0.89 298 10:37 27.09.2021
5539 Clear 22 1018 72 10000 0.89 229 09:28 27.09.2021
5540 Clear 20 1018 81 10000 0.89 240 06:30 27.09.2021
5541 Clear 20 1019 83 10000 0.89 300 03:25 27.09.2021
5542 Clear 22 1020 82 10000 2.57 70 22:39 26.09.2021
5543 Clear 22 1020 81 10000 2.57 80 21:53 26.09.2021
5544 Clouds 22 1019 82 10000 0.45 12 21:26 26.09.2021
5545 Clouds 23 1019 81 10000 2.24 184 20:24 26.09.2021
5546 Clouds 24 1018 80 10000 0.89 115 19:52 26.09.2021
5547 Clouds 25 1018 76 10000 1.34 138 18:48 26.09.2021
5548 Clouds 26 1018 68 10000 2.24 0 17:57 26.09.2021
5549 Clouds 27 1018 65 10000 0.89 146 17:36 26.09.2021
5550 Clouds 27 1017 63 10000 2.24 160 17:18 26.09.2021
5551 Clouds 28 1017 53 10000 0.45 190 16:22 26.09.2021
5552 Clouds 29 1017 48 10000 0.45 60 15:22 26.09.2021
5553 Clear 29 1018 48 10000 1.34 254 13:59 26.09.2021
5554 Clear 28 1018 47 10000 1.34 344 13:31 26.09.2021
5555 Clouds 28 1018 48 10000 2.24 325 12:26 26.09.2021
5556 Clouds 27 1018 49 10000 2.68 302 11:52 26.09.2021
5557 Clouds 25 1018 56 10000 0.45 264 10:52 26.09.2021
5558 Clouds 23 1017 67 10000 2.68 257 09:37 26.09.2021
5559 Clouds 21 1017 80 10000 2.68 324 08:20 26.09.2021
5560 Clouds 23 1016 87 10000 0.45 0 00:28 26.09.2021
5561 Clouds 23 1016 85 10000 1.03 0 23:41 25.09.2021
5562 Clouds 24 1016 84 10000 1.34 292 22:39 25.09.2021
5563 Clouds 24 1015 83 10000 0.45 294 22:18 25.09.2021
5564 Clouds 24 1016 85 10000 0.45 280 21:36 25.09.2021
5565 Clouds 25 1016 84 10000 0.45 279 20:52 25.09.2021
5566 Drizzle 26 1015 80 10000 0.45 216 19:33 25.09.2021
5567 Clouds 26 1015 80 10000 0.89 210 18:27 25.09.2021
5568 Clouds 27 1015 79 10000 0.45 170 17:21 25.09.2021
5569 Clouds 28 1016 73 10000 1.34 142 14:30 25.09.2021
5570 Clouds 28 1016 72 10000 0.89 119 13:54 25.09.2021
5571 Clouds 27 1016 70 10000 0.89 184 12:37 25.09.2021
5572 Clouds 24 1016 74 10000 0.45 299 10:42 25.09.2021
5573 Clouds 24 1016 76 10000 0.45 299 10:18 25.09.2021
5574 Clouds 21 1016 85 10000 1.79 280 08:55 25.09.2021
5575 Clouds 21 1016 85 10000 0.45 299 07:47 25.09.2021
5576 Clouds 22 1017 84 10000 0.89 149 00:52 25.09.2021
5577 Clouds 22 1016 85 10000 0.89 69 22:18 24.09.2021
5578 Clouds 22 1016 85 10000 0.45 19 21:32 24.09.2021
5579 Clouds 23 1015 85 10000 0.45 81 20:32 24.09.2021
5580 Clouds 23 1015 81 10000 0.89 100 19:31 24.09.2021
5581 Clouds 24 1015 77 10000 1.79 142 18:20 24.09.2021
5582 Clouds 24 1016 75 10000 3.13 116 17:49 24.09.2021
5583 Clouds 24 1016 73 10000 0.89 142 17:31 24.09.2021
5584 Clouds 25 1016 64 10000 1.34 0 15:39 24.09.2021
5585 Clouds 25 1017 57 10000 2.24 153 13:21 24.09.2021
5586 Clouds 25 1017 57 10000 2.24 153 13:21 24.09.2021
5587 Clouds 24 1017 58 10000 1.34 153 12:43 24.09.2021
5588 Clouds 23 1017 60 10000 0.45 102 12:25 24.09.2021
5589 Clouds 22 1017 64 10000 0.45 346 10:53 24.09.2021
5590 Clouds 21 1017 66 10000 0.45 5 09:37 24.09.2021
5591 Clouds 18 1017 74 10000 0.45 321 07:57 24.09.2021
5592 Clear 18 1017 75 10000 0.45 293 06:59 24.09.2021
5593 Clear 19 1017 74 10000 0.45 0 05:57 24.09.2021
5594 Clear 19 1018 72 10000 2.68 323 02:29 24.09.2021
5595 Clear 21 1018 73 10000 1.79 136 22:37 23.09.2021
5596 Clear 21 1018 75 10000 2.24 142 21:58 23.09.2021
5597 Clear 22 1018 75 10000 1.79 124 20:54 23.09.2021
5598 Clear 22 1018 73 10000 0.45 0 20:31 23.09.2021
5599 Clear 24 1018 62 10000 2.24 96 18:32 23.09.2021
5600 Clouds 24 1019 67 10000 2.24 0 15:53 23.09.2021
5601 Clouds 23 1020 72 10000 1.79 103 15:19 23.09.2021
5602 Clouds 23 1020 67 10000 1.79 139 14:25 23.09.2021
5603 Drizzle 22 1020 69 10000 2.68 111 13:27 23.09.2021
5604 Drizzle 22 1021 69 10000 0.45 0 12:55 23.09.2021
5605 Clouds 21 1020 74 10000 0.45 235 12:26 23.09.2021
5606 Clouds 21 1020 74 10000 1.34 104 11:57 23.09.2021
5607 Drizzle 19 1020 81 10000 0.45 342 10:30 23.09.2021
5608 Rain 19 1020 81 9000 4.63 50 09:54 23.09.2021
5609 Rain 19 1020 78 10000 0.89 0 08:56 23.09.2021
5610 Rain 20 1018 61 10000 0.45 297 05:32 23.09.2021
5611 Clouds 20 1019 65 10000 1.54 360 23:50 22.09.2021
5612 Clouds 21 1018 61 10000 1.34 344 22:52 22.09.2021
5613 Clouds 21 1019 66 10000 1.34 65 22:20 22.09.2021
5614 Clouds 21 1019 68 10000 0.45 334 21:42 22.09.2021
5615 Clouds 22 1019 67 10000 2.24 103 20:57 22.09.2021
5616 Clouds 23 1018 66 10000 4.92 79 19:48 22.09.2021
5617 Clouds 23 1018 65 10000 4.47 74 19:26 22.09.2021
5618 Clouds 23 1018 63 10000 4.92 70 18:30 22.09.2021
5619 Clouds 24 1019 62 10000 1.79 66 17:18 22.09.2021
5620 Clouds 24 1019 61 10000 0.45 78 15:51 22.09.2021
5621 Clouds 24 1020 58 10000 2.24 80 14:28 22.09.2021
5622 Clouds 23 1020 58 10000 5.36 69 13:19 22.09.2021
5623 Clouds 22 1020 58 10000 0.45 25 11:20 22.09.2021
5624 Clouds 19 1020 67 10000 1.34 334 09:30 22.09.2021
5625 Clouds 18 1020 69 10000 1.34 204 08:45 22.09.2021
5626 Clouds 18 1020 70 10000 0.89 304 07:33 22.09.2021
5627 Clouds 19 1020 68 10000 1.34 297 06:31 22.09.2021
5628 Clouds 19 1020 69 10000 1.34 46 05:48 22.09.2021
5629 Clouds 19 1020 72 10000 1.34 273 04:20 22.09.2021
5630 Clouds 19 1021 71 10000 1.79 28 02:56 22.09.2021
5631 Clouds 19 1022 69 10000 2.06 340 23:54 21.09.2021
5632 Clouds 19 1022 68 10000 1.54 320 22:26 21.09.2021
5633 Clouds 20 1021 64 10000 0.45 159 20:43 21.09.2021
5634 Clouds 21 1020 61 10000 2.59 181 19:36 21.09.2021
5635 Clouds 22 1021 59 10000 1.54 90 19:18 21.09.2021
5636 Clouds 22 1021 57 10000 1.54 80 16:48 21.09.2021
5637 Clouds 22 1021 60 10000 0.89 297 15:57 21.09.2021
5638 Clouds 21 1022 62 10000 1.54 300 14:59 21.09.2021
5639 Clouds 21 1022 62 10000 0.89 308 14:40 21.09.2021
5640 Drizzle 20 1022 68 10000 1.34 314 13:39 21.09.2021
5641 Clouds 19 1022 66 10000 1.34 125 12:45 21.09.2021
5642 Clouds 17 1021 63 10000 5.14 330 10:44 21.09.2021
5643 Clouds 17 1021 67 10000 4.12 330 09:28 21.09.2021
5644 Clouds 17 1020 67 10000 5.14 340 07:40 21.09.2021
5645 Clouds 17 1020 77 10000 6.69 320 05:18 21.09.2021
5646 Clouds 18 1021 77 10000 2.57 50 23:51 20.09.2021
5647 Clouds 17 1020 82 10000 4.63 30 21:52 20.09.2021
5648 Clouds 17 1020 82 10000 4.63 30 21:32 20.09.2021
5649 Thunderstorm 20 1017 79 10000 0.45 80 19:55 20.09.2021
5650 Thunderstorm 22 1017 76 10000 4.92 134 18:37 20.09.2021
5651 Clouds 22 1017 74 10000 0.45 136 17:30 20.09.2021
5652 Clouds 23 1017 72 10000 3.13 113 16:26 20.09.2021
5653 Clouds 23 1017 66 10000 0.45 105 15:47 20.09.2021
5654 Clouds 24 1017 61 10000 0.45 89 14:50 20.09.2021
5655 Clouds 23 1018 55 10000 0.89 77 12:53 20.09.2021
5656 Clouds 23 1018 56 10000 0.45 69 12:29 20.09.2021
5657 Clouds 20 1018 64 10000 1.79 332 10:57 20.09.2021
5658 Clouds 19 1018 69 10000 3.13 121 09:52 20.09.2021
5659 Clouds 19 1018 72 10000 2.24 320 09:33 20.09.2021
5660 Clouds 18 1018 72 10000 2.24 320 08:55 20.09.2021
5661 Clouds 18 1017 79 10000 1.79 237 06:34 20.09.2021
5662 Clouds 21 1018 70 10000 0.45 305 23:30 19.09.2021
5663 Clouds 22 1018 66 10000 2.57 190 21:53 19.09.2021
5664 Clouds 22 1018 65 10000 0.89 218 21:21 19.09.2021
5665 Clouds 23 1017 63 10000 0.45 174 20:32 19.09.2021
5666 Clouds 24 1017 58 10000 1.34 120 18:57 19.09.2021
5667 Clouds 25 1017 53 10000 1.34 157 17:57 19.09.2021
5668 Clouds 25 1017 51 10000 0.89 130 17:21 19.09.2021
5669 Clouds 25 1017 49 10000 0.89 138 15:44 19.09.2021
5670 Clouds 24 1017 51 10000 0.89 144 14:49 19.09.2021
5671 Clouds 24 1017 50 10000 1.34 89 14:25 19.09.2021
5672 Clouds 23 1018 52 10000 0.45 105 12:57 19.09.2021
5673 Clouds 22 1018 53 10000 1.34 316 12:35 19.09.2021
5674 Clouds 21 1018 57 10000 0.45 113 11:25 19.09.2021
5675 Clouds 19 1018 61 10000 3.13 323 09:58 19.09.2021
5676 Clouds 18 1017 64 10000 2.24 300 09:26 19.09.2021
5677 Rain 17 1016 61 10000 6.69 330 07:18 19.09.2021
5678 Clouds 21 1014 88 10000 1.54 340 01:39 19.09.2021
5679 Clouds 21 1014 92 10000 3.6 320 23:26 18.09.2021
5680 Clouds 22 1013 89 10000 1.34 147 21:58 18.09.2021
5681 Clouds 23 1012 86 10000 3.09 340 20:48 18.09.2021
5682 Clouds 23 1012 86 10000 0.45 18 20:26 18.09.2021
5683 Clouds 23 1012 88 10000 1.03 310 19:37 18.09.2021
5684 Clouds 23 1011 85 10000 2.06 360 19:19 18.09.2021
5685 Clouds 23 1012 83 10000 3.09 350 18:31 18.09.2021
5686 Rain 23 1012 86 10000 4.12 40 17:22 18.09.2021
5687 Thunderstorm 24 1013 83 10000 2.24 34 15:46 18.09.2021
5688 Clouds 25 1013 75 10000 0.89 80 13:46 18.09.2021
5689 Clouds 25 1013 75 10000 1.79 109 13:25 18.09.2021
5690 Clouds 25 1014 74 10000 0.45 91 12:24 18.09.2021
5691 Clouds 24 1014 75 10000 1.79 82 11:34 18.09.2021
5692 Rain 23 1014 78 10000 0.45 274 10:31 18.09.2021
5693 Clouds 22 1013 80 10000 0.45 13 09:25 18.09.2021
5694 Rain 21 1013 83 10000 0.89 300 08:30 18.09.2021
5695 Rain 21 1013 83 10000 0.89 300 08:30 18.09.2021
5696 Rain 21 1013 83 10000 0.89 300 08:30 18.09.2021
5697 Clear 22 1013 80 10000 3.81 234 00:56 18.09.2021
5698 Clear 23 1013 79 10000 1.34 150 00:35 18.09.2021
5699 Clear 23 1013 76 10000 0.45 158 23:44 17.09.2021
5700 Clear 24 1013 74 10000 0.45 104 22:32 17.09.2021
5701 Clear 24 1012 72 10000 0.89 264 21:47 17.09.2021
5702 Clear 25 1011 68 10000 0.45 190 20:18 17.09.2021
5703 Clouds 27 1011 58 10000 3.58 295 18:45 17.09.2021
5704 Clouds 28 1011 54 10000 0.45 0 16:47 17.09.2021
5705 Clouds 28 1012 53 10000 3.13 261 15:50 17.09.2021
5706 Clouds 26 1014 64 10000 0.89 146 12:32 17.09.2021
5707 Clouds 23 1015 69 10000 1.79 300 10:40 17.09.2021
5708 Clouds 20 1015 86 10000 1.34 299 07:50 17.09.2021
5709 Clouds 21 1015 86 10000 0.89 142 06:29 17.09.2021
5710 Clouds 22 1017 81 10000 1.79 316 00:39 17.09.2021
5711 Clouds 23 1017 81 10000 0.45 236 22:46 16.09.2021
5712 Clouds 23 1016 80 10000 0.45 193 22:24 16.09.2021
5713 Clouds 23 1016 79 10000 1.34 33 21:36 16.09.2021
5714 Clouds 24 1016 77 10000 0.45 240 20:36 16.09.2021
5715 Clouds 25 1015 72 10000 1.54 140 19:36 16.09.2021
5716 Clouds 25 1015 72 10000 0.89 175 18:19 16.09.2021
5717 Clouds 26 1015 71 10000 0.45 178 17:22 16.09.2021
5718 Clouds 27 1016 64 10000 1.79 124 14:51 16.09.2021
5719 Clouds 26 1016 67 10000 0.89 134 13:47 16.09.2021
5720 Clouds 26 1016 64 10000 0.45 134 12:47 16.09.2021
5721 Clouds 25 1016 64 10000 0.45 179 12:26 16.09.2021
5722 Clouds 25 1016 68 10000 0.89 10 11:24 16.09.2021
5723 Clouds 24 1015 74 10000 1.34 65 10:29 16.09.2021
5724 Clouds 23 1015 81 10000 0.89 263 09:39 16.09.2021
5725 Clouds 21 1014 88 10000 3.09 310 08:28 16.09.2021
5726 Clouds 21 1014 89 10000 0.45 311 06:59 16.09.2021
5727 Clouds 21 1014 89 10000 3.09 330 06:39 16.09.2021
5728 Clouds 22 1014 84 10000 2.68 122 04:18 16.09.2021
5729 Rain 25 1014 80 10000 2.06 240 00:59 16.09.2021
5730 Clouds 25 1014 79 10000 4.12 250 23:32 15.09.2021
5731 Clouds 25 1014 80 10000 4.12 250 23:32 15.09.2021
5732 Clouds 25 1013 79 10000 1.34 227 22:45 15.09.2021
5733 Clouds 26 1013 77 10000 0.89 224 21:37 15.09.2021
5734 Clouds 26 1012 77 10000 0.45 228 20:54 15.09.2021
5735 Clouds 28 1012 72 10000 2.24 236 19:34 15.09.2021
5736 Clear 28 1012 68 10000 0.45 72 18:59 15.09.2021
5737 Clear 29 1011 64 10000 1.34 194 17:46 15.09.2021
5738 Clouds 30 1011 63 10000 0.89 209 16:44 15.09.2021
5739 Clouds 30 1012 63 10000 0.89 107 15:29 15.09.2021
5740 Clouds 29 1012 64 10000 0.45 109 14:44 15.09.2021
5741 Clouds 29 1012 65 10000 1.34 160 13:51 15.09.2021
5742 Clouds 29 1013 64 10000 1.34 166 13:29 15.09.2021
5743 Clouds 28 1013 65 10000 0.45 145 12:34 15.09.2021
5744 Clouds 28 1013 67 10000 0.45 101 11:51 15.09.2021
5745 Clouds 27 1013 70 10000 0.45 35 11:18 15.09.2021
5746 Clouds 25 1013 75 10000 2.06 310 10:35 15.09.2021
5747 Clouds 24 1011 80 10000 0.45 306 09:23 15.09.2021
5748 Clouds 23 1011 82 10000 1.34 290 07:30 15.09.2021
5749 Clouds 23 1011 82 10000 1.34 290 07:30 15.09.2021
5750 Clouds 25 1011 87 10000 0.89 118 02:50 15.09.2021
5751 Clouds 25 1012 85 10000 0.89 36 22:38 14.09.2021
5752 Clouds 26 1013 85 10000 0.45 71 21:38 14.09.2021
5753 Clouds 26 1012 82 10000 0.45 90 20:26 14.09.2021
5754 Clouds 26 1012 80 10000 2.24 304 19:41 14.09.2021
5755 Clouds 28 1013 74 10000 0.45 121 17:34 14.09.2021
5756 Clouds 29 1013 71 10000 0.45 154 16:56 14.09.2021
5757 Clouds 29 1013 74 10000 0.45 130 15:27 14.09.2021
5758 Clouds 29 1013 75 10000 0.45 148 14:28 14.09.2021
5759 Clouds 28 1013 77 10000 0.45 188 11:51 14.09.2021
5760 Clouds 27 1014 83 10000 1.79 158 10:53 14.09.2021
5761 Clouds 25 1014 87 10000 0.45 314 09:50 14.09.2021
5762 Clouds 24 1013 90 10000 0 0 08:36 14.09.2021
5763 Clouds 24 1013 88 10000 1.03 0 06:22 14.09.2021
5764 Clouds 25 1015 83 10000 1.34 229 23:54 13.09.2021
5765 Clouds 26 1015 82 10000 2.24 236 22:30 13.09.2021
5766 Clouds 26 1015 82 10000 0.45 323 21:59 13.09.2021
5767 Clouds 26 1015 82 10000 1.79 219 21:40 13.09.2021
5768 Clouds 26 1014 81 10000 3.13 217 20:47 13.09.2021
5769 Clouds 27 1014 77 10000 2.68 204 18:45 13.09.2021
5770 Clouds 27 1014 77 10000 2.68 204 18:45 13.09.2021
5771 Clouds 27 1014 74 10000 0.89 163 17:41 13.09.2021
5772 Clouds 28 1014 72 10000 0.45 156 16:50 13.09.2021
5773 Clouds 29 1015 69 10000 0.89 203 14:57 13.09.2021
5774 Clouds 29 1015 69 10000 0.89 203 14:57 13.09.2021
5775 Clouds 27 1016 73 10000 1.34 123 11:55 13.09.2021
5776 Clouds 26 1016 80 10000 0.45 64 10:58 13.09.2021
5777 Clouds 23 1015 89 10000 1.34 309 09:31 13.09.2021
5778 Clouds 23 1015 88 10000 1.03 0 01:24 13.09.2021
5779 Clouds 24 1015 85 10000 0.45 81 22:59 12.09.2021
5780 Clouds 24 1015 84 10000 0.45 120 22:25 12.09.2021
5781 Clouds 25 1014 82 10000 3.09 220 21:34 12.09.2021
5782 Clouds 26 1014 79 10000 0.89 220 20:21 12.09.2021
5783 Clouds 26 1014 78 10000 1.79 219 19:49 12.09.2021
5784 Clouds 26 1014 77 10000 2.68 232 19:19 12.09.2021
5785 Clouds 27 1014 76 10000 0.89 71 18:19 12.09.2021
5786 Rain 26 1015 78 10000 1.79 246 16:30 12.09.2021
5787 Rain 26 1015 78 10000 1.79 246 16:30 12.09.2021
5788 Clouds 28 1015 69 10000 1.34 155 14:50 12.09.2021
5789 Thunderstorm 27 1016 73 10000 0.45 141 12:47 12.09.2021
5790 Clouds 25 1016 78 10000 1.34 291 10:35 12.09.2021
5791 Clouds 22 1015 87 10000 0.45 315 08:59 12.09.2021
5792 Clouds 22 1015 87 10000 3.6 330 08:36 12.09.2021
5793 Clouds 23 1017 82 10000 1.03 0 00:56 12.09.2021
5794 Clouds 24 1016 80 10000 0.45 128 23:18 11.09.2021
5795 Clouds 24 1016 79 10000 3.09 220 21:40 11.09.2021
5796 Clouds 25 1016 74 10000 1.34 251 20:18 11.09.2021
5797 Clouds 25 1016 74 10000 1.34 251 20:18 11.09.2021
5798 Clouds 26 1016 68 10000 0.89 187 18:32 11.09.2021
5799 Clouds 26 1016 67 10000 0.45 132 17:29 11.09.2021
5800 Clouds 27 1017 64 10000 1.34 153 15:39 11.09.2021
5801 Clouds 27 1018 60 10000 1.34 147 13:30 11.09.2021
5802 Clear 26 1019 66 10000 1.34 151 11:47 11.09.2021
5803 Clear 24 1018 71 10000 1.34 314 10:51 11.09.2021
5804 Clear 22 1018 78 10000 1.79 293 09:31 11.09.2021
5805 Clear 20 1017 80 10000 0.45 124 07:44 11.09.2021
5806 Clear 20 1017 79 10000 0.45 322 06:31 11.09.2021
5807 Clear 21 1017 82 10000 0.45 298 22:48 10.09.2021
5808 Clouds 21 1018 82 10000 0.45 130 22:22 10.09.2021
5809 Clouds 21 1018 84 10000 1.79 309 21:46 10.09.2021
5810 Clouds 22 1017 80 10000 6.17 70 19:41 10.09.2021
5811 Clouds 23 1017 76 10000 2.68 89 18:20 10.09.2021
5812 Thunderstorm 23 1016 82 6000 5.36 91 16:40 10.09.2021
5813 Clouds 27 1015 63 10000 0.89 155 13:54 10.09.2021
5814 Clouds 27 1015 63 10000 0.45 251 11:46 10.09.2021
5815 Clouds 21 1014 82 10000 1.79 314 08:29 10.09.2021
5816 Clouds 21 1013 82 10000 0.45 306 07:45 10.09.2021
5817 Clouds 23 1013 82 10000 0.45 295 00:42 10.09.2021
5818 Clouds 23 1013 87 10000 1.79 306 22:24 09.09.2021
5819 Rain 23 1013 86 10000 1.34 304 21:28 09.09.2021
5820 Rain 24 1013 83 10000 0.89 259 20:42 09.09.2021
5821 Clouds 25 1012 75 10000 0.89 286 18:55 09.09.2021
5822 Clouds 26 1011 74 10000 2.24 223 17:56 09.09.2021
5823 Clouds 26 1011 73 10000 2.68 68 16:40 09.09.2021
5824 Clouds 28 1011 67 10000 1.34 65 15:27 09.09.2021
5825 Clouds 28 1012 62 10000 2.68 59 12:48 09.09.2021
5826 Clouds 27 1012 65 10000 2.24 73 11:33 09.09.2021
5827 Clouds 25 1012 74 10000 0.45 32 09:39 09.09.2021
5828 Clouds 23 1012 81 10000 1.34 112 08:32 09.09.2021
5829 Clouds 23 1012 84 10000 0.45 298 06:24 09.09.2021
5830 Clouds 24 1012 86 10000 0.45 72 02:18 09.09.2021
5831 Clouds 25 1012 85 10000 0.89 69 22:39 08.09.2021
5832 Clouds 25 1011 83 10000 1.34 51 21:22 08.09.2021
5833 Clouds 26 1011 78 10000 0.89 256 19:56 08.09.2021
5834 Clouds 27 1011 76 10000 1.34 72 18:55 08.09.2021
5835 Clouds 27 1011 74 10000 0.45 80 18:28 08.09.2021
5836 Clouds 28 1011 72 10000 1.34 57 17:55 08.09.2021
5837 Clouds 28 1012 72 10000 0.89 67 16:28 08.09.2021
5838 Clouds 28 1013 71 10000 0.89 105 14:23 08.09.2021
5839 Clear 28 1014 65 10000 0.45 136 12:43 08.09.2021
5840 Clear 28 1014 65 10000 0.89 127 12:25 08.09.2021
5841 Clear 28 1014 65 10000 1.34 79 11:29 08.09.2021
5842 Clear 26 1014 70 10000 0.45 65 10:33 08.09.2021
5843 Clear 25 1014 75 10000 0.89 274 09:59 08.09.2021
5844 Clear 22 1014 84 9000 0.45 121 07:55 08.09.2021
5845 Clear 22 1014 86 10000 0.45 113 07:32 08.09.2021
5846 Clouds 23 1015 82 10000 3.09 330 03:41 08.09.2021
5847 Clouds 24 1017 80 10000 0.51 0 22:38 07.09.2021
5848 Clouds 25 1017 78 10000 1.54 90 21:46 07.09.2021
5849 Clouds 27 1017 70 10000 0.89 197 19:47 07.09.2021
5850 Clouds 28 1017 69 10000 0.89 148 18:39 07.09.2021
5851 Clouds 28 1017 71 10000 0.89 166 17:47 07.09.2021
5852 Clouds 27 1018 73 10000 0.45 94 15:59 07.09.2021
5853 Clouds 27 1018 74 10000 1.34 155 15:35 07.09.2021
5854 Clouds 27 1019 75 10000 1.34 164 14:41 07.09.2021
5855 Clouds 28 1020 72 10000 0.45 134 12:38 07.09.2021
5856 Clouds 28 1020 73 10000 0.45 134 12:38 07.09.2021
5857 Clouds 27 1020 79 10000 0.89 134 11:36 07.09.2021
5858 Clouds 26 1020 82 10000 1.34 132 10:40 07.09.2021
5859 Clouds 24 1019 89 10000 2.57 320 08:23 07.09.2021
5860 Clouds 23 1019 89 10000 2.57 310 06:44 07.09.2021
5861 Clouds 23 1019 90 10000 1.54 350 05:24 07.09.2021
5862 Clouds 24 1019 89 10000 0.45 221 02:32 07.09.2021
5863 Clouds 25 1020 87 10000 1.34 217 00:40 07.09.2021
5864 Clouds 25 1020 86 10000 0.89 321 23:31 06.09.2021
5865 Clouds 25 1020 84 10000 1.34 230 22:53 06.09.2021
5866 Clouds 25 1020 84 10000 1.34 219 22:32 06.09.2021
5867 Thunderstorm 26 1020 82 10000 2.24 35 20:55 06.09.2021
5868 Clouds 27 1019 78 10000 1.34 198 19:22 06.09.2021
5869 Clouds 27 1019 77 10000 0.45 192 18:46 06.09.2021
5870 Clouds 27 1019 76 10000 0.45 140 18:23 06.09.2021
5871 Clouds 28 1019 75 10000 0.45 130 17:36 06.09.2021
5872 Clouds 29 1019 73 10000 0.45 0 15:49 06.09.2021
5873 Clouds 29 1019 72 10000 1.34 135 13:47 06.09.2021
5874 Clouds 29 1019 73 10000 1.34 146 12:46 06.09.2021
5875 Clouds 27 1019 76 10000 1.79 155 10:44 06.09.2021
5876 Clouds 23 1018 89 10000 0.89 112 07:59 06.09.2021
5877 Clear 23 1018 88 10000 0.45 300 04:45 06.09.2021
5878 Clouds 25 1019 84 10000 0.45 232 23:34 05.09.2021
5879 Clouds 25 1018 83 10000 2.24 257 22:47 05.09.2021
5880 Clouds 25 1018 83 10000 0.45 254 21:58 05.09.2021
5881 Clouds 25 1017 82 10000 1.79 252 21:30 05.09.2021
5882 Clouds 27 1016 77 10000 1.34 220 20:21 05.09.2021
5883 Clouds 28 1016 71 10000 2.68 158 18:46 05.09.2021
5884 Clouds 28 1016 70 10000 1.79 235 17:31 05.09.2021
5885 Clouds 29 1016 68 10000 2.24 239 15:28 05.09.2021
5886 Clouds 30 1017 65 10000 0.45 128 14:19 05.09.2021
5887 Clouds 28 1017 69 10000 1.79 96 12:29 05.09.2021
5888 Clouds 26 1017 72 10000 0.45 80 10:53 05.09.2021
5889 Clouds 25 1017 77 10000 0.45 294 10:23 05.09.2021
5890 Clouds 23 1016 85 10000 1.34 129 09:22 05.09.2021
5891 Clouds 22 1016 87 10000 0.45 155 07:51 05.09.2021
5892 Clouds 23 1016 86 10000 0.45 89 01:22 05.09.2021
5893 Clouds 23 1016 85 10000 1.54 260 00:30 05.09.2021
5894 Clouds 24 1016 84 10000 0.51 0 23:39 04.09.2021
5895 Clouds 24 1016 83 10000 2.57 210 22:36 04.09.2021
5896 Clouds 24 1015 83 10000 0.45 163 21:58 04.09.2021
5897 Clouds 25 1014 77 10000 0.45 136 19:42 04.09.2021
5898 Clouds 26 1014 75 10000 0.45 110 18:44 04.09.2021
5899 Clouds 26 1015 72 10000 1.79 0 16:23 04.09.2021
5900 Clouds 26 1016 72 10000 0.45 0 13:22 04.09.2021
5901 Clouds 24 1016 75 10000 0.45 153 11:20 04.09.2021
5902 Clouds 22 1016 80 10000 0.45 304 09:25 04.09.2021
5903 Clouds 21 1015 82 10000 2.06 340 05:53 04.09.2021
5904 Clouds 22 1015 76 10000 1.54 330 00:27 04.09.2021
5905 Clouds 23 1015 76 10000 0.89 313 23:32 03.09.2021
5906 Clouds 23 1015 76 10000 6.17 80 22:39 03.09.2021
5907 Clouds 23 1015 76 10000 3.58 111 21:35 03.09.2021
5908 Clouds 24 1014 77 10000 0.45 132 20:43 03.09.2021
5909 Clouds 24 1014 79 10000 2.24 127 19:55 03.09.2021
5910 Rain 25 1014 79 10000 1.79 90 19:19 03.09.2021
5911 Clouds 26 1014 72 10000 1.79 0 17:53 03.09.2021
5912 Clouds 26 1014 73 10000 0.45 318 16:37 03.09.2021
5913 Clouds 27 1015 65 10000 0.89 0 14:59 03.09.2021
5914 Clouds 27 1016 63 10000 0.45 69 12:24 03.09.2021
5915 Clear 25 1016 69 10000 1.34 65 10:32 03.09.2021
5916 Clear 22 1016 78 10000 0.45 37 08:59 03.09.2021
5917 Clouds 21 1015 81 10000 0.45 288 07:44 03.09.2021
5918 Clouds 21 1016 79 10000 0.45 255 05:24 03.09.2021
5919 Clouds 23 1016 71 10000 0.89 30 23:20 02.09.2021
5920 Clouds 24 1016 73 10000 4.47 63 21:35 02.09.2021
5921 Clouds 25 1015 71 10000 0.89 142 19:56 02.09.2021
5922 Clouds 27 1015 67 10000 4.02 132 17:33 02.09.2021
5923 Clouds 26 1016 69 10000 0.89 323 15:54 02.09.2021
5924 Clouds 25 1017 73 10000 2.24 72 13:59 02.09.2021
5925 Clouds 25 1017 73 10000 2.68 130 12:55 02.09.2021
5926 Clouds 24 1017 73 10000 1.34 5 11:35 02.09.2021
5927 Clouds 22 1016 73 10000 0.45 72 09:44 02.09.2021
5928 Clouds 21 1014 69 10000 0.89 346 07:57 02.09.2021
5929 Clouds 20 1013 73 10000 3.58 167 07:18 02.09.2021
5930 Clouds 20 1013 73 10000 3.58 167 07:18 02.09.2021
5931 Rain 22 1018 65 10000 0.89 136 02:57 02.09.2021
5932 Clouds 22 1018 62 10000 0.89 122 02:33 02.09.2021
5933 Clouds 23 1017 58 10000 1.34 311 01:28 02.09.2021
5934 Clouds 23 1017 61 10000 2.24 142 23:40 01.09.2021
5935 Drizzle 24 1017 56 10000 3.13 135 22:41 01.09.2021
5936 Rain 24 1016 57 10000 0.89 48 21:40 01.09.2021
5937 Clouds 24 1016 64 10000 1.79 113 20:45 01.09.2021
5938 Clouds 24 1017 62 10000 1.34 17 18:53 01.09.2021
5939 Clouds 24 1018 72 10000 0.89 144 17:41 01.09.2021
5940 Rain 24 1018 70 10000 0.89 0 16:47 01.09.2021
5941 Rain 24 1019 68 10000 0.89 0 15:47 01.09.2021
5942 Clouds 25 1018 64 10000 2.24 0 12:23 01.09.2021
5943 Clouds 24 1018 68 10000 2.24 118 11:44 01.09.2021
5944 Clouds 22 1017 77 10000 0.89 305 08:48 01.09.2021
5945 Clouds 21 1016 80 10000 0.89 350 07:52 01.09.2021
5946 Clouds 21 1016 81 10000 0.89 306 05:23 01.09.2021
5947 Clouds 22 1017 83 10000 1.03 0 22:43 31.08.2021
5948 Clouds 23 1016 79 10000 4.63 60 21:33 31.08.2021
5949 Clouds 24 1016 79 10000 1.34 148 19:46 31.08.2021
5950 Clouds 25 1016 76 10000 0.89 0 18:30 31.08.2021
5951 Clouds 26 1016 71 10000 0.45 152 17:38 31.08.2021
5952 Clouds 26 1016 70 10000 0.45 105 17:20 31.08.2021
5953 Clouds 26 1017 68 10000 0.45 127 16:24 31.08.2021
5954 Clouds 26 1017 68 10000 1.79 153 13:40 31.08.2021
5955 Clouds 25 1017 68 10000 1.34 138 11:36 31.08.2021
5956 Clouds 25 1017 69 10000 0.89 110 10:55 31.08.2021
5957 Clouds 23 1017 77 10000 1.79 251 09:45 31.08.2021
5958 Clouds 22 1016 83 10000 3.09 330 08:39 31.08.2021
5959 Clouds 21 1016 87 10000 0.45 128 07:38 31.08.2021
5960 Clouds 21 1015 87 10000 2.57 340 05:36 31.08.2021
5961 Clouds 22 1015 87 10000 0.45 148 23:35 30.08.2021
5962 Clouds 23 1014 85 10000 1.54 30 21:52 30.08.2021
5963 Clouds 23 1014 84 10000 2.06 20 21:32 30.08.2021
5964 Clouds 23 1013 84 10000 0.45 191 20:20 30.08.2021
5965 Clouds 23 1014 83 10000 0.45 253 19:29 30.08.2021
5966 Clouds 23 1013 82 10000 0.45 81 18:44 30.08.2021
5967 Clouds 23 1013 85 10000 0.45 231 17:46 30.08.2021
5968 Rain 23 1014 84 6000 1.03 0 16:24 30.08.2021
5969 Rain 23 1014 79 10000 0.45 340 15:39 30.08.2021
5970 Clouds 24 1014 74 10000 0.45 127 13:45 30.08.2021
5971 Clouds 24 1015 74 10000 2.24 134 12:29 30.08.2021
5972 Clouds 23 1014 74 7000 1.34 92 10:33 30.08.2021
5973 Clouds 23 1014 72 10000 0.45 160 22:30 29.08.2021
5974 Clouds 24 1013 70 10000 0.89 301 21:33 29.08.2021
5975 Clouds 24 1013 67 10000 0.45 140 20:22 29.08.2021
5976 Clouds 25 1013 65 10000 0.89 137 19:19 29.08.2021
5977 Clouds 25 1013 64 10000 0.45 141 17:53 29.08.2021
5978 Clouds 26 1014 62 10000 0.89 185 15:49 29.08.2021
5979 Clouds 26 1014 61 10000 1.79 62 14:20 29.08.2021
5980 Clouds 26 1014 61 10000 2.24 144 13:44 29.08.2021
5981 Clouds 26 1014 59 10000 1.34 161 12:40 29.08.2021
5982 Clouds 26 1014 60 10000 1.34 133 11:50 29.08.2021
5983 Clouds 26 1014 60 10000 0.89 130 11:23 29.08.2021
5984 Clouds 26 1014 58 10000 0.89 122 10:43 29.08.2021
5985 Clouds 26 1014 59 10000 0.45 105 10:24 29.08.2021
5986 Clouds 23 1014 67 10000 0.45 219 08:58 29.08.2021
5987 Clouds 23 1014 68 10000 1.03 0 00:37 29.08.2021
5988 Clouds 24 1014 64 10000 1.03 0 21:54 28.08.2021
5989 Clouds 24 1013 66 10000 0.89 122 20:28 28.08.2021
5990 Clouds 25 1013 67 10000 0.89 0 18:43 28.08.2021
5991 Clouds 25 1013 67 10000 0.89 132 18:20 28.08.2021
5992 Clouds 26 1013 64 10000 0.45 168 17:20 28.08.2021
5993 Clouds 26 1013 63 10000 1.34 115 15:46 28.08.2021
5994 Clouds 27 1013 62 10000 0.89 128 14:26 28.08.2021
5995 Clouds 26 1013 62 10000 0.89 166 13:45 28.08.2021
5996 Clouds 26 1013 62 10000 0.45 82 12:44 28.08.2021
5997 Clouds 26 1013 63 10000 2.24 122 11:54 28.08.2021
5998 Clouds 25 1013 66 10000 2.24 140 10:42 28.08.2021
5999 Clouds 23 1013 73 10000 0.89 66 08:41 28.08.2021
6000 Clouds 23 1012 74 10000 1.34 268 07:24 28.08.2021
6001 Clouds 25 1012 80 10000 4.02 68 22:30 27.08.2021
6002 Clouds 26 1011 82 10000 0.89 84 21:19 27.08.2021
6003 Clouds 27 1011 80 10000 2.68 74 20:30 27.08.2021
6004 Clouds 28 1011 74 10000 1.34 131 18:58 27.08.2021
6005 Clouds 28 1011 73 10000 0.45 144 18:37 27.08.2021
6006 Clouds 29 1011 72 10000 0.45 111 17:20 27.08.2021
6007 Clouds 30 1011 72 10000 0.45 171 15:55 27.08.2021
6008 Clouds 30 1011 71 10000 0.45 0 14:43 27.08.2021
6009 Clouds 29 1012 69 10000 1.34 0 12:54 27.08.2021
6010 Clouds 28 1012 70 10000 0.45 181 11:26 27.08.2021
6011 Clouds 27 1012 74 10000 0.45 13 10:43 27.08.2021
6012 Clouds 26 1012 80 10000 0.45 123 09:37 27.08.2021
6013 Clouds 24 1012 87 10000 2.06 320 08:46 27.08.2021
6014 Clouds 23 1011 89 10000 1.03 320 06:58 27.08.2021
6015 Clouds 23 1012 88 10000 0 0 05:28 27.08.2021
6016 Clouds 24 1012 86 10000 0.45 61 00:36 27.08.2021
6017 Clouds 25 1012 83 10000 3.09 230 22:49 26.08.2021
6018 Clouds 25 1012 83 10000 0.45 91 22:19 26.08.2021
6019 Clouds 26 1012 79 10000 2.68 278 20:37 26.08.2021
6020 Clouds 27 1011 76 10000 3.13 236 18:53 26.08.2021
6021 Clouds 27 1012 78 10000 3.13 229 17:45 26.08.2021
6022 Clouds 28 1012 72 10000 1.79 275 16:35 26.08.2021
6023 Clouds 28 1012 70 10000 2.24 127 15:55 26.08.2021
6024 Clouds 29 1013 65 10000 1.34 253 13:48 26.08.2021
6025 Clouds 28 1013 64 10000 4.02 195 12:55 26.08.2021
6026 Clouds 28 1013 65 10000 0.45 243 12:30 26.08.2021
6027 Clouds 25 1013 66 10000 0.45 280 10:21 26.08.2021
6028 Clouds 22 1013 75 10000 0.45 304 08:34 26.08.2021
6029 Clouds 21 1013 78 10000 5.14 320 06:34 26.08.2021
6030 Clouds 22 1013 63 10000 2.57 300 22:54 25.08.2021
6031 Clouds 23 1013 65 10000 1.34 292 22:35 25.08.2021
6032 Clear 23 1012 68 10000 0.45 201 21:42 25.08.2021
6033 Clear 24 1013 72 10000 0.45 178 20:48 25.08.2021
6034 Clear 25 1013 73 10000 0.89 163 20:28 25.08.2021
6035 Clouds 26 1013 71 10000 0.89 186 18:45 25.08.2021
6036 Clouds 26 1013 69 10000 0.45 171 17:36 25.08.2021
6037 Clouds 26 1014 69 10000 1.79 150 15:45 25.08.2021
6038 Clouds 27 1014 66 10000 1.79 174 14:48 25.08.2021
6039 Clouds 27 1014 64 10000 1.34 163 14:30 25.08.2021
6040 Clear 27 1014 60 10000 1.79 153 13:25 25.08.2021
6041 Clear 26 1014 58 10000 1.79 146 11:27 25.08.2021
6042 Clear 25 1013 62 10000 1.79 103 10:43 25.08.2021
6043 Clear 24 1013 65 10000 0.89 43 09:58 25.08.2021
6044 Clear 23 1013 70 10000 1.54 340 09:18 25.08.2021
6045 Clear 22 1013 73 10000 0.45 316 08:30 25.08.2021
6046 Rain 22 1013 77 10000 0.45 300 04:19 25.08.2021
6047 Clouds 23 1014 74 10000 0.45 144 23:54 24.08.2021
6048 Clouds 24 1014 73 10000 0.45 140 21:49 24.08.2021
6049 Clouds 24 1013 72 10000 0.45 147 20:48 24.08.2021
6050 Clouds 25 1013 70 10000 0.45 169 19:52 24.08.2021
6051 Clouds 26 1013 67 10000 0.45 122 18:47 24.08.2021
6052 Clouds 26 1013 67 10000 0.89 248 17:46 24.08.2021
6053 Clouds 27 1013 66 10000 0.45 166 17:19 24.08.2021
6054 Clouds 27 1015 62 10000 0.89 207 14:30 24.08.2021
6055 Clouds 26 1015 65 10000 0.45 149 13:25 24.08.2021
6056 Clouds 25 1015 71 10000 0.89 137 12:33 24.08.2021
6057 Clouds 24 1016 78 10000 1.54 340 10:48 24.08.2021
6058 Clouds 23 1015 80 10000 2.57 10 10:27 24.08.2021
6059 Rain 23 1015 82 10000 0.45 63 08:59 24.08.2021
6060 Clouds 22 1014 84 10000 0.45 304 06:55 24.08.2021
6061 Rain 24 1014 83 10000 0.45 208 04:54 24.08.2021
6062 Clouds 24 1017 80 10000 0.45 212 00:48 24.08.2021
6063 Clouds 24 1016 78 10000 0.89 273 23:19 23.08.2021
6064 Clouds 24 1016 78 10000 0.45 311 22:39 23.08.2021
6065 Clouds 25 1015 75 10000 1.34 355 20:39 23.08.2021
6066 Clouds 26 1015 74 10000 0.89 147 19:24 23.08.2021
6067 Clouds 27 1015 70 10000 1.79 136 16:41 23.08.2021
6068 Clouds 28 1017 71 10000 1.79 193 14:49 23.08.2021
6069 Clouds 26 1018 73 10000 0.89 164 13:23 23.08.2021
6070 Clouds 26 1018 73 10000 2.24 346 12:20 23.08.2021
6071 Clouds 26 1018 71 10000 1.34 127 10:39 23.08.2021
6072 Clouds 25 1018 72 10000 0.45 156 09:48 23.08.2021
6073 Clouds 24 1018 79 10000 0.45 311 08:33 23.08.2021
6074 Clouds 22 1018 82 10000 0.45 270 06:50 23.08.2021
6075 Clouds 22 1018 82 10000 0.45 293 06:30 23.08.2021
6076 Clouds 24 1019 78 10000 0.89 148 00:54 23.08.2021
6077 Clouds 25 1019 80 10000 0.45 65 22:46 22.08.2021
6078 Clouds 25 1019 80 10000 0.45 68 22:27 22.08.2021
6079 Clouds 26 1018 75 10000 0.45 136 20:23 22.08.2021
6080 Clouds 27 1018 72 10000 1.79 108 19:40 22.08.2021
6081 Clouds 29 1019 67 10000 0.45 159 17:26 22.08.2021
6082 Clouds 29 1020 71 10000 1.79 182 15:32 22.08.2021
6083 Clouds 29 1020 70 10000 1.34 166 14:43 22.08.2021
6084 Clouds 29 1020 67 10000 1.79 193 13:37 22.08.2021
6085 Clouds 29 1020 67 10000 0.45 75 13:18 22.08.2021
6086 Clouds 29 1020 65 10000 0.45 142 12:28 22.08.2021
6087 Clouds 29 1020 65 10000 0.45 130 11:43 22.08.2021
6088 Clouds 27 1020 64 10000 0.45 286 10:32 22.08.2021
6089 Clear 24 1019 75 10000 3.6 330 08:20 22.08.2021
6090 Clouds 23 1018 82 10000 0.45 136 04:57 22.08.2021
6091 Clouds 25 1018 79 10000 1.03 170 00:32 22.08.2021
6092 Clouds 26 1018 77 10000 0.89 35 22:34 21.08.2021
6093 Clouds 27 1016 70 10000 1.34 218 20:38 21.08.2021
6094 Clouds 29 1016 71 10000 0.45 123 18:46 21.08.2021
6095 Clouds 29 1017 69 10000 1.34 117 17:59 21.08.2021
6096 Clear 30 1017 68 10000 1.79 172 16:55 21.08.2021
6097 Clear 30 1017 67 10000 0.89 178 16:28 21.08.2021
6098 Clear 30 1017 67 10000 0.89 202 15:36 21.08.2021
6099 Clear 30 1017 66 10000 0.45 0 14:47 21.08.2021
6100 Clouds 29 1017 71 10000 0.89 193 13:32 21.08.2021
6101 Clouds 29 1018 73 10000 0.45 153 12:38 21.08.2021
6102 Clouds 25 1017 80 10000 0.45 287 09:30 21.08.2021
6103 Clouds 23 1016 85 10000 1.34 116 05:41 21.08.2021
6104 Clouds 23 1016 85 10000 2.24 124 05:41 21.08.2021
6105 Clear 25 1016 80 10000 3.09 230 23:22 20.08.2021
6106 Clear 26 1015 77 10000 0.45 82 21:53 20.08.2021
6107 Clouds 28 1015 73 10000 1.34 140 18:27 20.08.2021
6108 Clouds 28 1015 74 10000 3.13 171 16:21 20.08.2021
6109 Clouds 28 1016 75 10000 0.45 0 13:47 20.08.2021
6110 Clouds 27 1015 72 10000 1.34 115 11:40 20.08.2021
6111 Clouds 26 1015 72 10000 1.34 158 10:55 20.08.2021
6112 Clouds 25 1015 73 10000 0.45 287 09:42 20.08.2021
6113 Clouds 22 1015 83 10000 0.45 117 08:46 20.08.2021
6114 Clouds 21 1014 83 10000 1.79 286 07:45 20.08.2021
6115 Clouds 22 1014 83 10000 1.34 317 04:22 20.08.2021
6116 Clear 23 1014 84 10000 0.45 115 00:20 20.08.2021
6117 Clouds 23 1014 86 10000 2.06 270 23:20 19.08.2021
6118 Clouds 24 1014 86 10000 0.45 44 22:33 19.08.2021
6119 Clouds 25 1013 78 10000 2.24 11 20:39 19.08.2021
6120 Clouds 25 1013 76 10000 0.45 207 19:44 19.08.2021
6121 Clouds 25 1014 75 10000 2.24 178 17:27 19.08.2021
6122 Clouds 25 1014 75 10000 0.45 157 16:30 19.08.2021
6123 Rain 26 1015 76 10000 1.79 161 13:47 19.08.2021
6124 Clouds 26 1015 72 10000 1.79 182 12:37 19.08.2021
6125 Clouds 25 1015 75 10000 1.34 300 11:30 19.08.2021
6126 Rain 23 1015 77 10000 0.89 310 10:24 19.08.2021
6127 Clouds 23 1014 77 10000 0.89 280 09:47 19.08.2021
6128 Clouds 23 1015 78 10000 2.57 330 09:21 19.08.2021
6129 Clouds 21 1015 83 10000 3.6 330 07:35 19.08.2021
6130 Clouds 22 1016 83 10000 1.54 310 02:25 19.08.2021
6131 Clouds 22 1016 81 10000 2.06 310 01:51 19.08.2021
6132 Clouds 23 1015 74 10000 0.89 309 22:56 18.08.2021
6133 Clear 24 1015 72 10000 0.89 331 21:41 18.08.2021
6134 Clear 25 1014 69 10000 0.89 194 20:32 18.08.2021
6135 Clouds 26 1014 71 10000 0.45 112 19:34 18.08.2021
6136 Clouds 26 1015 70 10000 0.45 0 18:54 18.08.2021
6137 Clouds 27 1015 68 10000 3.13 125 17:57 18.08.2021
6138 Clouds 27 1016 70 10000 2.24 176 16:23 18.08.2021
6139 Clouds 27 1016 69 10000 2.24 159 15:38 18.08.2021
6140 Clouds 27 1016 69 10000 2.68 164 15:20 18.08.2021
6141 Clouds 27 1017 53 10000 2.24 171 12:43 18.08.2021
6142 Clouds 27 1017 51 10000 1.79 178 12:25 18.08.2021
6143 Clouds 24 1017 51 10000 1.34 302 10:43 18.08.2021
6144 Clouds 21 1017 59 10000 0.89 271 07:48 18.08.2021
6145 Clear 23 1018 76 10000 0.45 101 00:45 18.08.2021
6146 Clear 24 1017 70 10000 1.34 125 22:30 17.08.2021
6147 Clear 25 1017 67 10000 0.45 157 21:27 17.08.2021
6148 Clear 25 1016 63 10000 0.89 295 20:45 17.08.2021
6149 Clouds 26 1016 59 10000 0.89 165 19:18 17.08.2021
6150 Clear 28 1017 53 10000 1.34 0 17:33 17.08.2021
6151 Clear 28 1017 53 10000 0.89 155 17:33 17.08.2021
6152 Clear 28 1017 52 10000 0.45 0 16:40 17.08.2021
6153 Clear 28 1018 54 10000 0.45 119 15:38 17.08.2021
6154 Clear 27 1018 53 10000 1.34 120 14:28 17.08.2021
6155 Clouds 27 1019 50 10000 2.68 191 12:23 17.08.2021
6156 Clouds 22 1018 59 10000 1.34 293 09:22 17.08.2021
6157 Clouds 21 1018 61 10000 1.34 344 07:48 17.08.2021
6158 Clouds 24 1017 65 10000 0.45 336 04:33 17.08.2021
6159 Clouds 25 1018 76 10000 0.89 219 23:18 16.08.2021
6160 Clouds 25 1017 77 10000 0.89 224 22:46 16.08.2021
6161 Clouds 25 1017 77 10000 0.45 171 22:27 16.08.2021
6162 Clouds 25 1017 77 10000 0.45 299 21:36 16.08.2021
6163 Clouds 25 1016 76 10000 0.45 263 20:49 16.08.2021
6164 Clouds 26 1016 75 10000 0.45 159 19:25 16.08.2021
6165 Clouds 28 1016 71 10000 2.24 158 18:25 16.08.2021
6166 Clouds 28 1016 68 10000 2.68 134 17:51 16.08.2021
6167 Clouds 30 1015 63 10000 0.89 121 15:50 16.08.2021
6168 Clouds 30 1015 61 10000 0.89 123 14:57 16.08.2021
6169 Clouds 30 1016 63 10000 1.34 159 13:39 16.08.2021
6170 Clouds 30 1016 64 10000 0.89 0 12:55 16.08.2021
6171 Clouds 29 1016 60 10000 0.45 235 11:29 16.08.2021
6172 Clouds 25 1016 71 10000 0.89 307 08:53 16.08.2021
6173 Clouds 24 1015 81 10000 3.13 338 07:45 16.08.2021
6174 Clouds 24 1015 84 10000 0.89 259 07:26 16.08.2021
6175 Clear 25 1015 82 10000 3.09 40 02:45 16.08.2021
6176 Clear 26 1015 82 10000 0.89 252 23:32 15.08.2021
6177 Clear 27 1013 76 10000 0.45 63 20:51 15.08.2021
6178 Clear 29 1014 68 10000 0.45 180 18:48 15.08.2021
6179 Clear 30 1015 67 10000 0.45 180 18:18 15.08.2021
6180 Clear 30 1014 68 10000 0.89 283 17:41 15.08.2021
6181 Clear 30 1015 66 10000 0.45 129 16:28 15.08.2021
6182 Clear 30 1015 65 10000 0.45 137 15:28 15.08.2021
6183 Clear 30 1016 66 10000 0.89 150 14:30 15.08.2021
6184 Clear 30 1016 70 10000 0.89 131 11:44 15.08.2021
6185 Clouds 27 1016 81 10000 0.45 107 09:41 15.08.2021
6186 Clear 25 1015 82 10000 2.24 64 06:31 15.08.2021
6187 Clear 26 1017 82 10000 0.89 109 00:43 15.08.2021
6188 Clear 27 1017 86 10000 0.45 31 23:25 14.08.2021
6189 Clear 28 1016 76 10000 1.79 73 21:20 14.08.2021
6190 Clouds 31 1015 56 10000 0.45 0 19:44 14.08.2021
6191 Clouds 32 1015 51 10000 1.79 212 19:24 14.08.2021
6192 Clear 33 1016 49 10000 0.45 0 17:22 14.08.2021
6193 Clear 33 1017 46 10000 1.34 137 15:58 14.08.2021
6194 Clear 33 1017 51 10000 0.89 120 14:32 14.08.2021
6195 Clear 32 1018 58 10000 0.45 158 12:33 14.08.2021
6196 Clear 30 1018 60 10000 0.89 136 10:54 14.08.2021
6197 Clear 26 1018 66 10000 3.09 340 07:49 14.08.2021
6198 Clear 26 1020 74 10000 0 0 23:54 13.08.2021
6199 Clear 26 1020 75 10000 0 0 23:18 13.08.2021
6200 Clear 26 1020 77 10000 2.57 60 21:46 13.08.2021
6201 Clear 29 1020 70 10000 0.45 129 18:49 13.08.2021
6202 Clear 29 1020 69 10000 0.45 117 17:57 13.08.2021
6203 Clear 32 1019 59 10000 0.45 0 16:34 13.08.2021
6204 Clear 32 1020 58 10000 0.45 149 15:41 13.08.2021
6205 Clear 31 1021 48 10000 0.89 167 11:21 13.08.2021
6206 Clear 30 1021 53 10000 0.45 307 10:32 13.08.2021
6207 Clear 25 1020 67 10000 0.89 325 08:37 13.08.2021
6208 Clear 24 1020 72 10000 2.57 340 07:48 13.08.2021
6209 Clear 24 1019 78 10000 0.45 329 04:59 13.08.2021
6210 Clear 25 1018 75 10000 1.03 0 23:57 12.08.2021
6211 Clear 26 1018 75 10000 1.03 0 23:57 12.08.2021
6212 Clear 27 1017 71 10000 0.45 327 21:34 12.08.2021
6213 Clear 28 1016 66 10000 1.34 73 20:25 12.08.2021
6214 Clouds 29 1016 65 10000 1.79 71 19:49 12.08.2021
6215 Clear 30 1017 58 10000 0.45 0 17:55 12.08.2021
6216 Clouds 30 1017 60 10000 0.45 117 16:50 12.08.2021
6217 Clear 31 1017 60 10000 0.45 110 15:34 12.08.2021
6218 Clear 32 1017 57 10000 2.68 125 13:39 12.08.2021
6219 Clear 30 1017 63 10000 0.89 129 11:33 12.08.2021
6220 Clear 25 1015 68 10000 0.45 82 08:30 12.08.2021
6221 Clear 25 1015 68 10000 4.12 220 06:41 12.08.2021
6222 Clouds 27 1016 55 10000 2.57 50 22:59 11.08.2021
6223 Clouds 27 1015 55 10000 0.89 322 21:37 11.08.2021
6224 Clear 30 1016 46 10000 0.45 76 18:48 11.08.2021
6225 Clear 29 1016 48 10000 0.45 75 18:24 11.08.2021
6226 Clear 31 1016 50 10000 1.34 85 15:21 11.08.2021
6227 Clear 30 1016 47 10000 0.45 127 14:25 11.08.2021
6228 Rain 29 1017 49 10000 0.45 75 12:36 11.08.2021
6229 Clouds 29 1017 47 10000 0.45 133 11:57 11.08.2021
6230 Clouds 29 1017 47 10000 0.45 0 11:38 11.08.2021
6231 Clouds 29 1017 49 10000 0.45 23 11:18 11.08.2021
6232 Clouds 24 1017 58 10000 3.09 320 08:38 11.08.2021
6233 Clear 24 1015 66 10000 1.54 70 01:39 11.08.2021
6234 Clear 25 1015 64 10000 0.45 252 22:33 10.08.2021
6235 Clear 26 1015 61 10000 1.34 238 21:38 10.08.2021
6236 Clear 27 1014 59 10000 0.45 116 20:42 10.08.2021
6237 Clear 29 1015 51 10000 0.89 301 19:25 10.08.2021
6238 Clouds 28 1015 52 10000 0.45 50 16:51 10.08.2021
6239 Clouds 27 1017 57 10000 1.34 84 15:22 10.08.2021
6240 Clouds 28 1017 56 10000 0.89 0 14:39 10.08.2021
6241 Clear 26 1017 63 10000 1.34 118 10:47 10.08.2021
6242 Clear 22 1015 65 10000 0.89 0 08:18 10.08.2021
6243 Clear 23 1016 64 10000 0.89 310 04:59 10.08.2021
6244 Clear 23 1017 64 10000 1.54 330 00:33 10.08.2021
6245 Clear 23 1017 67 10000 0 0 23:24 09.08.2021
6246 Clear 24 1016 66 10000 0.51 0 21:52 09.08.2021
6247 Clouds 25 1016 64 10000 1.54 180 20:35 09.08.2021
6248 Clouds 27 1016 57 10000 0.45 183 17:57 09.08.2021
6249 Clouds 28 1018 55 10000 2.24 175 15:35 09.08.2021
6250 Clouds 28 1018 55 10000 2.24 175 15:35 09.08.2021
6251 Clouds 28 1018 55 10000 1.79 184 15:35 09.08.2021
6252 Clouds 27 1018 53 10000 1.79 175 14:37 09.08.2021
6253 Clouds 25 1018 56 10000 2.24 168 13:29 09.08.2021
6254 Rain 25 1019 57 10000 3.09 30 11:48 09.08.2021
6255 Clouds 23 1017 60 10000 0.45 303 09:27 09.08.2021
6256 Clouds 21 1017 66 10000 3.13 285 07:59 09.08.2021
6257 Clear 23 1017 67 10000 2.24 91 21:32 08.08.2021
6258 Clear 23 1017 66 10000 0.45 105 20:36 08.08.2021
6259 Clouds 25 1016 66 10000 0.89 0 17:36 08.08.2021
6260 Clouds 26 1016 64 10000 1.34 144 15:46 08.08.2021
6261 Clouds 25 1017 64 10000 1.79 134 14:34 08.08.2021
6262 Clouds 25 1016 64 10000 0.45 134 12:46 08.08.2021
6263 Clear 24 1015 65 10000 0.45 148 10:35 08.08.2021
6264 Clouds 22 1013 70 10000 1.03 0 06:41 08.08.2021
6265 Clouds 24 1012 72 10000 0.89 101 00:53 08.08.2021
6266 Clouds 24 1011 71 10000 1.34 121 00:24 08.08.2021
6267 Clouds 25 1009 73 10000 1.34 68 21:47 07.08.2021
6268 Clouds 25 1009 74 10000 1.79 153 21:47 07.08.2021
6269 Clouds 25 1009 72 10000 0.45 0 21:19 07.08.2021
6270 Clouds 27 1007 78 10000 2.68 149 18:21 07.08.2021
6271 Clouds 29 1006 72 10000 2.68 150 16:52 07.08.2021
6272 Clouds 30 1005 70 10000 1.79 134 15:36 07.08.2021
6273 Clouds 29 1005 69 10000 2.68 172 13:35 07.08.2021
6274 Clouds 26 1005 77 10000 0.45 159 10:37 07.08.2021
6275 Clouds 23 1005 87 10000 1.03 100 07:52 07.08.2021
6276 Clouds 23 1006 87 10000 3.09 60 04:45 07.08.2021
6277 Clouds 24 1008 86 10000 1.79 101 22:51 06.08.2021
6278 Clouds 24 1008 84 10000 1.34 70 20:36 06.08.2021
6279 Clouds 24 1008 84 10000 1.34 70 20:36 06.08.2021
6280 Clouds 25 1009 83 10000 1.34 68 19:59 06.08.2021
6281 Clouds 25 1009 83 10000 1.79 61 19:37 06.08.2021
6282 Clouds 25 1009 83 10000 1.79 61 19:37 06.08.2021
6283 Clouds 26 1009 76 10000 0.89 125 17:44 06.08.2021
6284 Clouds 25 1012 74 10000 2.68 0 12:25 06.08.2021
6285 Clouds 25 1011 83 10000 3.13 150 09:57 06.08.2021
6286 Clouds 24 1011 88 10000 0.45 159 08:29 06.08.2021
6287 Clouds 24 1012 87 10000 0.45 136 00:33 06.08.2021
6288 Clouds 26 1011 83 10000 1.79 18 22:33 05.08.2021
6289 Clouds 28 1011 76 10000 0.89 210 20:48 05.08.2021
6290 Clouds 28 1010 74 10000 2.68 218 19:49 05.08.2021
6291 Clouds 29 1011 73 10000 3.13 257 18:25 05.08.2021
6292 Clouds 29 1013 63 10000 0.89 0 15:35 05.08.2021
6293 Clouds 28 1015 70 10000 0.89 229 12:39 05.08.2021
6294 Clouds 22 1015 79 10000 1.79 243 08:52 05.08.2021
6295 Clouds 21 1015 84 10000 0.45 318 07:38 05.08.2021
6296 Clouds 21 1017 85 10000 0.89 132 00:55 05.08.2021
6297 Clouds 21 1016 82 10000 0.45 60 22:21 04.08.2021
6298 Clouds 22 1015 83 10000 1.79 0 21:25 04.08.2021
6299 Clouds 22 1015 83 10000 2.24 148 19:19 04.08.2021
6300 Clouds 27 1012 78 10000 2.24 123 16:59 04.08.2021
6301 Clouds 28 1013 72 10000 0.45 134 14:45 04.08.2021
6302 Clouds 27 1013 74 10000 0.89 265 12:21 04.08.2021
6303 Clouds 23 1011 77 10000 1.54 70 06:23 04.08.2021
6304 Clear 26 1013 70 10000 2.24 0 20:53 03.08.2021
6305 Clouds 27 1013 66 10000 2.24 257 20:00 03.08.2021
6306 Clouds 28 1014 62 10000 0.89 199 18:37 03.08.2021
6307 Clouds 28 1014 67 10000 1.34 143 16:47 03.08.2021
6308 Clouds 27 1016 69 10000 0.45 211 13:56 03.08.2021
6309 Clouds 26 1016 69 10000 0.45 0 10:57 03.08.2021
6310 Clouds 24 1016 77 10000 0.45 336 09:30 03.08.2021
6311 Clouds 26 1016 69 10000 0.45 0 19:24 02.08.2021
6312 Clouds 26 1016 72 10000 1.34 159 16:39 02.08.2021
6313 Clouds 26 1016 69 10000 1.79 175 15:30 02.08.2021
6314 Clouds 26 1016 66 10000 3.13 127 12:29 02.08.2021
6315 Clouds 26 1017 65 10000 1.34 115 11:57 02.08.2021
6316 Clouds 23 1017 73 10000 0.89 74 09:50 02.08.2021
6317 Clear 20 1016 83 10000 0.45 239 04:26 02.08.2021
6318 Clouds 26 1014 56 10000 1.34 0 18:26 01.08.2021
6319 Clouds 25 1014 58 10000 1.34 126 15:31 01.08.2021
6320 Clouds 23 1014 61 10000 0.45 355 11:38 01.08.2021
6321 Clouds 19 1014 74 10000 2.24 302 09:37 01.08.2021
6322 Clouds 19 1012 88 10000 0.45 273 03:48 01.08.2021
6323 Rain 19 1011 89 10000 2.24 239 22:53 31.07.2021
6324 Rain 24 1008 78 10000 0.45 154 20:54 31.07.2021
6325 Clear 26 1009 62 10000 1.79 125 17:49 31.07.2021
6326 Clear 28 1009 58 10000 0.45 149 16:37 31.07.2021
6327 Rain 27 1010 57 10000 0.89 35 13:31 31.07.2021
6328 Clouds 25 1011 79 10000 0.45 81 08:57 31.07.2021
6329 Clouds 24 1013 82 10000 0.45 126 02:35 31.07.2021
6330 Clouds 27 1011 82 10000 0.89 82 20:38 30.07.2021
6331 Clouds 27 1011 81 10000 0.89 49 20:19 30.07.2021
6332 Clouds 30 1011 72 10000 0.89 153 14:18 30.07.2021
6333 Clear 29 1013 63 10000 0.89 159 18:19 29.07.2021
6334 Clouds 22 1016 81 10000 0.45 260 06:59 29.07.2021
6335 Clouds 22 1016 79 10000 0.89 116 04:49 29.07.2021
6336 Clouds 24 1016 83 10000 1.79 111 21:55 28.07.2021
6337 Clouds 27 1015 75 10000 0.45 117 17:47 28.07.2021
6338 Clear 27 1016 73 10000 0.89 147 16:54 28.07.2021
6339 Clear 25 1015 72 10000 3.13 134 09:29 28.07.2021
6340 Clouds 24 1013 80 10000 0.89 35 23:44 27.07.2021
6341 Clouds 26 1013 76 10000 0.89 279 21:29 27.07.2021
6342 Clear 30 1014 51 10000 1.79 89 14:53 27.07.2021
6343 Clear 30 1014 46 10000 2.24 175 12:58 27.07.2021
6344 Clear 27 1015 53 10000 0.45 121 10:20 27.07.2021
6345 Clouds 26 1015 69 10000 0.45 21 20:43 26.07.2021
6346 Clouds 27 1013 58 10000 0.45 0 15:32 26.07.2021
6347 Clear 23 1012 66 10000 0.89 196 07:49 26.07.2021
6348 Clouds 25 1011 71 10000 0.89 71 20:57 25.07.2021
6349 Clouds 27 1010 69 10000 1.34 151 18:45 25.07.2021
6350 Clouds 28 1010 70 10000 0.45 171 16:20 25.07.2021
6351 Clear 28 1010 59 10000 1.79 0 10:57 25.07.2021
6352 Clear 24 1009 71 10000 0.45 257 08:20 25.07.2021
6353 Clear 24 1010 73 10000 0.45 328 02:34 25.07.2021
6354 Clear 27 1009 66 10000 0.45 78 20:20 24.07.2021
6355 Clouds 29 1008 73 10000 2.24 93 15:50 24.07.2021
6356 Clear 25 1009 68 10000 0.45 262 04:20 24.07.2021
6357 Clear 32 1014 49 10000 1.34 150 14:46 23.07.2021
6358 Clear 32 1015 46 10000 0.89 190 12:42 23.07.2021
6359 Clear 25 1014 58 10000 1.34 139 07:34 23.07.2021
6360 Clear 27 1016 72 10000 0.45 215 22:43 22.07.2021
6361 Clear 32 1017 56 10000 0.45 18 13:24 22.07.2021
6362 Clear 29 1018 48 10000 0.89 317 09:58 22.07.2021
6363 Clear 26 1018 56 10000 2.24 120 08:23 22.07.2021
6364 Clear 26 1018 56 10000 2.24 120 08:23 22.07.2021
6365 Clear 26 1018 74 10000 0.45 266 22:33 21.07.2021
6366 Clear 28 1018 70 10000 1.34 162 21:30 21.07.2021
6367 Clear 31 1019 59 10000 1.34 148 15:20 21.07.2021
6368 Clear 28 1017 59 10000 0.45 164 09:50 21.07.2021
6369 Clear 28 1017 60 10000 0.45 131 09:50 21.07.2021
6370 Clear 27 1017 62 10000 0.89 275 09:18 21.07.2021
6371 Clouds 25 1017 78 10000 0.45 221 23:55 20.07.2021
6372 Clouds 30 1014 64 10000 1.34 156 17:46 20.07.2021
6373 Clear 31 1014 56 10000 2.24 139 16:33 20.07.2021
6374 Clear 31 1014 55 10000 1.79 195 15:26 20.07.2021
6375 Clear 30 1014 56 10000 2.68 260 11:18 20.07.2021
6376 Clear 24 1014 66 10000 1.79 250 07:19 20.07.2021
6377 Clear 27 1013 59 10000 0.45 287 22:35 19.07.2021
6378 Clouds 32 1012 47 10000 1.79 59 15:26 19.07.2021
6379 Clear 31 1012 50 10000 1.79 47 12:37 19.07.2021
6380 Clear 27 1013 71 10000 0.89 40 20:44 18.07.2021
6381 Clouds 30 1013 57 10000 0.45 128 15:20 18.07.2021
6382 Clouds 26 1013 67 10000 0.45 74 10:19 18.07.2021
6383 Clouds 24 1016 81 10000 0.45 317 22:28 17.07.2021
6384 Clouds 25 1016 80 10000 0.45 153 21:55 17.07.2021
6385 Clouds 25 1016 79 10000 0.45 318 21:37 17.07.2021
6386 Clouds 28 1017 68 10000 1.34 103 12:34 17.07.2021
6387 Clouds 26 1018 74 10000 0.45 303 10:21 17.07.2021
6388 Clouds 22 1018 87 10000 0.45 250 04:47 17.07.2021
6389 Clouds 28 1018 56 10000 1.79 124 14:24 16.07.2021
6390 Clouds 25 1018 71 10000 0.45 291 09:45 16.07.2021
6391 Clouds 21 1018 87 10000 0.45 259 06:59 16.07.2021
6392 Clouds 27 1018 65 10000 2.68 99 14:39 15.07.2021
6393 Clouds 26 1018 66 10000 1.34 184 13:48 15.07.2021
6394 Clouds 22 1019 71 10000 1.79 271 08:44 15.07.2021
6395 Clouds 23 1020 75 10000 1.34 103 22:30 14.07.2021
6396 Clouds 25 1018 66 10000 0.89 126 16:48 14.07.2021
6397 Clouds 25 1018 54 10000 0.45 164 11:34 14.07.2021
6398 Clear 21 1016 68 10000 0.89 297 01:18 14.07.2021
6399 Clouds 25 1013 55 10000 9.26 220 20:21 13.07.2021
6400 Clouds 25 1013 53 10000 0.45 138 19:42 13.07.2021
6401 Clouds 26 1013 53 10000 0.89 78 19:21 13.07.2021
6402 Clouds 26 1013 54 10000 0.45 149 18:43 13.07.2021
6403 Clouds 26 1013 51 10000 0.89 145 18:23 13.07.2021
6404 Clouds 26 1014 43 10000 1.34 179 14:33 13.07.2021
6405 Clear 21 1015 48 10000 1.79 346 09:38 13.07.2021
6406 Clouds 24 1012 79 10000 0.89 207 22:45 12.07.2021
6407 Clouds 26 1010 77 10000 0.45 76 17:28 12.07.2021
6408 Clouds 26 1010 79 10000 1.34 69 14:50 12.07.2021
6409 Clouds 25 1014 82 10000 0.45 268 23:23 11.07.2021
6410 Clouds 26 1013 72 10000 0.45 136 20:53 11.07.2021
6411 Clouds 28 1016 70 10000 1.34 120 15:30 11.07.2021
6412 Clear 25 1017 59 10000 0.45 294 01:27 11.07.2021
6413 Clear 30 1015 47 10000 5.36 169 17:19 10.07.2021
6414 Clouds 22 1018 84 10000 0.45 304 07:52 10.07.2021
6415 Clear 22 1020 81 10000 1.03 310 02:27 10.07.2021
6416 Clear 26 1019 67 10000 1.79 150 19:47 09.07.2021
6417 Clouds 28 1021 60 10000 2.24 153 14:50 09.07.2021
6418 Clouds 27 1022 60 10000 3.13 153 12:46 09.07.2021
6419 Clouds 23 1023 72 10000 0.45 146 23:55 08.07.2021
6420 Clouds 23 1023 73 10000 0.45 174 22:49 08.07.2021
6421 Clouds 24 1022 72 10000 1.34 96 19:49 08.07.2021
6422 Clouds 26 1021 63 10000 1.34 163 17:50 08.07.2021
6423 Clear 27 1021 47 10000 1.79 135 13:50 08.07.2021
6424 Clear 27 1021 48 10000 0.89 84 13:30 08.07.2021
6425 Clear 26 1021 42 10000 0.45 92 12:34 08.07.2021
6426 Clouds 24 1021 50 10000 0.45 43 11:19 08.07.2021
6427 Clouds 21 1018 65 10000 1.34 262 06:33 08.07.2021
6428 Clouds 22 1017 83 10000 2.24 115 03:50 08.07.2021
6429 Clouds 24 1017 79 10000 4.12 220 22:59 07.07.2021
6430 Clouds 24 1016 78 10000 0.45 158 22:19 07.07.2021
6431 Clouds 25 1015 76 10000 0.45 23 21:45 07.07.2021
6432 Clouds 25 1015 74 10000 0.89 209 21:24 07.07.2021
6433 Clouds 26 1015 68 10000 1.34 41 19:59 07.07.2021
6434 Clouds 27 1014 64 10000 0.45 11 19:30 07.07.2021
6435 Clouds 27 1014 64 10000 0.45 11 19:30 07.07.2021
6436 Clouds 27 1014 64 10000 0.45 11 19:30 07.07.2021
6437 Clouds 27 1014 64 10000 0.89 97 18:52 07.07.2021
6438 Clouds 27 1015 62 10000 1.34 92 15:55 07.07.2021
6439 Clouds 26 1015 65 10000 0.45 148 14:58 07.07.2021
6440 Clouds 27 1015 65 10000 0.45 148 14:58 07.07.2021
6441 Clouds 25 1015 65 10000 0.45 130 11:24 07.07.2021
6442 Clouds 22 1013 64 10000 0.89 249 07:23 07.07.2021
6443 Clouds 23 1013 63 10000 0.45 84 05:51 07.07.2021
6444 Clouds 24 1013 56 10000 2.57 320 02:55 07.07.2021
6445 Clouds 26 1011 84 10000 0.89 67 20:18 06.07.2021
6446 Clouds 27 1011 81 10000 0.89 76 18:57 06.07.2021
6447 Clouds 27 1011 79 10000 0.89 76 18:37 06.07.2021
6448 Clouds 28 1011 77 10000 0.45 66 17:43 06.07.2021
6449 Clouds 29 1010 73 10000 1.34 68 13:35 06.07.2021
6450 Clouds 26 1010 79 10000 0.89 305 09:44 06.07.2021
6451 Clouds 25 1010 86 10000 0.45 183 08:36 06.07.2021
6452 Clouds 24 1010 88 10000 2.06 230 07:39 06.07.2021
6453 Clouds 24 1010 83 10000 0.45 111 01:59 06.07.2021
6454 Clouds 25 1011 84 10000 1.79 236 23:57 05.07.2021
6455 Clouds 26 1011 81 10000 0.45 353 21:58 05.07.2021
6456 Clouds 29 1012 68 10000 0.89 194 17:21 05.07.2021
6457 Clouds 28 1014 64 10000 2.24 152 12:41 05.07.2021
6458 Clear 21 1015 79 10000 0.89 272 05:59 05.07.2021
6459 Clear 21 1015 80 10000 0.89 240 05:40 05.07.2021
6460 Clear 22 1017 83 10000 0.45 106 00:32 05.07.2021
6461 Clouds 24 1015 78 10000 0.89 71 21:18 04.07.2021
6462 Clouds 25 1014 78 10000 1.79 38 17:35 04.07.2021
6463 Clouds 26 1014 76 10000 2.68 81 15:22 04.07.2021
6464 Clouds 28 1012 65 10000 0.45 273 11:26 04.07.2021
6465 Clear 23 1013 80 10000 0.89 234 07:34 04.07.2021
6466 Clear 24 1015 84 10000 0.51 120 23:27 03.07.2021
6467 Clear 25 1014 81 10000 0.45 74 21:40 03.07.2021
6468 Clear 29 1014 66 10000 1.34 182 12:51 03.07.2021
6469 Clouds 28 1014 69 10000 0.89 126 11:57 03.07.2021
6470 Clouds 25 1014 73 10000 0.45 287 09:28 03.07.2021
6471 Clouds 24 1014 78 10000 0.89 279 08:45 03.07.2021
6472 Clear 24 1016 74 10000 0.89 257 23:48 02.07.2021
6473 Clear 26 1017 63 10000 0.45 59 10:25 02.07.2021
6474 Clouds 21 1017 82 10000 0.45 273 07:28 02.07.2021
6475 Clouds 22 1016 85 10000 1.34 108 03:23 02.07.2021
6476 Clouds 24 1017 81 10000 2.24 16 22:32 01.07.2021
6477 Clear 25 1016 76 10000 2.24 265 21:37 01.07.2021
6478 Clear 26 1016 71 10000 0.89 246 20:22 01.07.2021
6479 Clouds 27 1016 70 10000 0.89 264 19:21 01.07.2021
6480 Clouds 27 1016 70 10000 0.45 0 19:21 01.07.2021
6481 Clouds 27 1016 70 10000 0.45 159 18:48 01.07.2021
6482 Clouds 28 1016 69 10000 0.89 67 17:43 01.07.2021
6483 Clouds 28 1016 69 10000 1.79 143 16:43 01.07.2021
6484 Clouds 28 1017 67 10000 1.79 99 15:24 01.07.2021
6485 Clouds 28 1017 67 10000 0.45 177 14:20 01.07.2021
6486 Clouds 26 1017 71 10000 1.79 198 10:55 01.07.2021
6487 Clouds 22 1017 87 10000 0.89 235 04:43 01.07.2021
6488 Clouds 23 1019 83 10000 1.79 354 23:19 30.06.2021
6489 Clouds 23 1018 79 10000 1.79 205 21:59 30.06.2021
6490 Clouds 24 1017 78 10000 0.45 0 21:21 30.06.2021
6491 Clouds 25 1017 73 10000 0.89 0 20:26 30.06.2021
6492 Clouds 26 1017 66 10000 0.45 240 17:21 30.06.2021
6493 Clouds 24 1018 68 10000 1.79 152 14:25 30.06.2021
6494 Clouds 24 1018 68 10000 1.79 153 12:59 30.06.2021
6495 Clouds 22 1018 75 10000 0.45 48 07:30 30.06.2021
6496 Clouds 23 1017 80 10000 0.89 177 21:29 29.06.2021
6497 Clouds 24 1016 79 10000 1.34 0 18:36 29.06.2021
6498 Clouds 24 1016 79 10000 1.34 0 18:36 29.06.2021
6499 Clouds 25 1016 77 10000 0.89 159 17:30 29.06.2021
6500 Clouds 25 1016 73 10000 1.79 180 15:52 29.06.2021
6501 Clouds 25 1016 70 10000 0.89 175 14:58 29.06.2021
6502 Clouds 26 1017 69 10000 2.24 175 13:30 29.06.2021
6503 Clouds 26 1017 65 10000 1.79 167 12:19 29.06.2021
6504 Clouds 23 1015 81 10000 1.34 0 00:41 29.06.2021
6505 Clouds 24 1014 84 10000 1.79 118 21:47 28.06.2021
6506 Clouds 27 1013 74 10000 1.34 47 19:40 28.06.2021
6507 Clouds 27 1013 72 10000 0.45 0 17:29 28.06.2021
6508 Clouds 27 1013 69 10000 1.34 0 15:22 28.06.2021
6509 Clouds 26 1014 73 10000 0.89 137 12:58 28.06.2021
6510 Clouds 22 1013 79 10000 2.57 330 07:50 28.06.2021
6511 Clouds 22 1013 83 10000 1.03 210 23:45 27.06.2021
6512 Clouds 24 1013 75 10000 0.45 200 21:33 27.06.2021
6513 Clouds 26 1013 65 10000 0.89 128 19:40 27.06.2021
6514 Clouds 28 1013 59 10000 0.89 175 16:50 27.06.2021
6515 Clouds 27 1014 62 10000 0.89 161 13:31 27.06.2021
6516 Clouds 21 1014 82 10000 0.45 303 07:38 27.06.2021
6517 Clouds 23 1015 68 10000 4.12 220 22:58 26.06.2021
6518 Clouds 24 1015 65 10000 2.24 263 20:59 26.06.2021
6519 Clouds 25 1014 64 10000 1.79 228 20:40 26.06.2021
6520 Clouds 25 1015 62 10000 4.47 229 19:25 26.06.2021
6521 Clouds 27 1016 60 10000 1.79 103 15:29 26.06.2021
6522 Clouds 27 1017 67 10000 1.79 138 12:28 26.06.2021
6523 Clouds 24 1017 76 10000 0.45 140 09:29 26.06.2021
6524 Clouds 20 1017 88 10000 0.45 156 04:35 26.06.2021
6525 Clouds 23 1017 78 10000 0.45 0 21:21 25.06.2021
6526 Clouds 25 1017 72 10000 3.13 281 19:44 25.06.2021
6527 Clouds 26 1018 65 10000 1.34 48 17:53 25.06.2021
6528 Clouds 26 1018 64 10000 1.34 193 16:51 25.06.2021
6529 Clouds 26 1019 63 10000 0.45 0 14:59 25.06.2021
6530 Clouds 26 1020 66 10000 0.45 166 13:18 25.06.2021
6531 Clouds 22 1020 76 10000 0.45 128 09:28 25.06.2021
6532 Clouds 19 1021 87 10000 0.45 259 07:20 25.06.2021
6533 Clear 19 1021 86 10000 0.45 135 03:55 25.06.2021
6534 Clear 22 1021 78 10000 0.89 65 22:48 24.06.2021
6535 Clear 22 1021 72 10000 0.45 98 21:47 24.06.2021
6536 Clear 23 1021 63 10000 0.45 115 20:41 24.06.2021
6537 Clear 24 1020 53 10000 0.89 114 18:51 24.06.2021
6538 Clear 25 1020 52 10000 0.89 101 16:53 24.06.2021
6539 Clear 25 1021 53 10000 0.45 105 15:22 24.06.2021
6540 Clear 26 1021 54 10000 0.89 104 14:50 24.06.2021
6541 Clear 25 1020 49 10000 0.89 128 12:25 24.06.2021
6542 Clear 20 1020 59 10000 0.89 355 09:45 24.06.2021
6543 Clouds 18 1020 65 10000 0.45 120 08:25 24.06.2021
6544 Clear 18 1018 71 10000 1.79 237 05:50 24.06.2021
6545 Clouds 21 1019 72 10000 0.45 287 23:31 23.06.2021
6546 Clouds 21 1017 70 10000 1.34 256 22:18 23.06.2021
6547 Clouds 23 1017 63 10000 1.79 181 20:58 23.06.2021
6548 Clouds 24 1017 55 10000 0.45 103 19:22 23.06.2021
6549 Clouds 25 1016 54 10000 0.45 51 18:27 23.06.2021
6550 Clouds 25 1016 54 10000 0.89 93 16:51 23.06.2021
6551 Clouds 22 1017 73 10000 5.14 320 14:30 23.06.2021
6552 Clouds 19 1018 82 10000 1.34 304 12:37 23.06.2021
6553 Rain 19 1017 80 10000 2.24 22 10:49 23.06.2021
6554 Clouds 20 1017 73 10000 0.45 0 09:26 23.06.2021
6555 Drizzle 19 1016 72 10000 5.14 320 08:38 23.06.2021
6556 Clouds 20 1016 76 10000 1.34 209 07:48 23.06.2021
6557 Clouds 21 1016 82 10000 1.34 272 04:35 23.06.2021
6558 Clouds 21 1016 83 10000 0.89 96 01:50 23.06.2021
6559 Clouds 22 1016 84 10000 1.34 79 23:58 22.06.2021
6560 Clouds 22 1016 83 10000 0.89 51 23:32 22.06.2021
6561 Clouds 22 1015 83 10000 0.89 49 22:32 22.06.2021
6562 Clouds 23 1015 81 10000 0.89 55 21:39 22.06.2021
6563 Clouds 23 1014 79 10000 0.89 35 20:27 22.06.2021
6564 Clouds 24 1014 75 10000 0.45 157 19:18 22.06.2021
6565 Clouds 25 1014 70 10000 0.45 110 18:29 22.06.2021
6566 Clouds 25 1014 64 10000 0.45 162 17:29 22.06.2021
6567 Clouds 25 1014 61 10000 0.89 97 16:48 22.06.2021
6568 Clouds 25 1014 58 10000 0.89 105 14:54 22.06.2021
6569 Clouds 25 1014 58 10000 0.89 107 14:25 22.06.2021
6570 Clouds 25 1013 57 10000 0.89 144 13:34 22.06.2021
6571 Clouds 25 1013 60 10000 0.45 135 11:55 22.06.2021
6572 Clouds 25 1013 61 10000 0.45 125 10:42 22.06.2021
6573 Clouds 23 1012 61 10000 0.89 61 08:28 22.06.2021
6574 Clouds 23 1010 73 10000 0.89 291 00:54 22.06.2021
6575 Clouds 24 1010 71 10000 0.45 308 23:41 21.06.2021
6576 Clouds 24 1009 68 10000 0.89 224 22:40 21.06.2021
6577 Clouds 25 1009 64 10000 2.24 277 21:29 21.06.2021
6578 Clouds 26 1008 56 10000 2.24 217 20:49 21.06.2021
6579 Clouds 27 1008 56 10000 2.24 306 19:55 21.06.2021
6580 Clouds 27 1008 57 10000 2.68 251 18:59 21.06.2021
6581 Clouds 28 1008 58 10000 1.34 221 17:47 21.06.2021
6582 Clouds 28 1008 60 10000 0.89 185 16:49 21.06.2021
6583 Clouds 28 1008 54 10000 0.45 211 16:26 21.06.2021
6584 Clouds 28 1008 54 10000 0.45 211 16:26 21.06.2021
6585 Clouds 29 1008 49 10000 0.89 0 15:46 21.06.2021
6586 Clouds 28 1008 50 10000 1.34 196 14:24 21.06.2021
6587 Clouds 28 1008 48 10000 1.34 174 13:36 21.06.2021
6588 Clouds 28 1008 51 10000 3.13 140 12:50 21.06.2021
6589 Clouds 28 1008 51 10000 0.89 119 12:24 21.06.2021
6590 Clouds 27 1008 45 10000 1.34 112 10:33 21.06.2021
6591 Clouds 26 1008 48 10000 2.24 318 09:40 21.06.2021
6592 Clouds 24 1009 55 10000 1.79 322 08:24 21.06.2021
6593 Clouds 23 1009 58 10000 2.24 267 07:44 21.06.2021
6594 Clear 23 1009 71 10000 0.89 288 00:50 21.06.2021
6595 Clear 23 1009 72 10000 0.45 251 23:38 20.06.2021
6596 Clouds 24 1009 73 10000 5.14 250 22:59 20.06.2021
6597 Clouds 24 1008 75 10000 0.45 277 22:29 20.06.2021
6598 Clouds 24 1008 77 10000 0.89 28 21:34 20.06.2021
6599 Clouds 26 1007 69 10000 2.68 301 19:57 20.06.2021
6600 Clouds 27 1007 62 10000 4.02 240 19:33 20.06.2021
6601 Clouds 28 1007 55 10000 0.89 124 18:35 20.06.2021
6602 Clouds 27 1008 58 10000 1.34 155 17:25 20.06.2021
6603 Clouds 27 1008 59 10000 0.89 249 16:35 20.06.2021
6604 Clouds 27 1008 53 10000 0.45 0 15:35 20.06.2021
6605 Clouds 27 1008 54 10000 0.89 142 14:55 20.06.2021
6606 Clouds 27 1008 51 10000 0.89 0 14:28 20.06.2021
6607 Clouds 26 1008 51 10000 0.89 0 13:19 20.06.2021
6608 Clouds 24 1010 65 10000 1.34 255 11:47 20.06.2021
6609 Clouds 24 1009 68 10000 0.89 318 10:55 20.06.2021
6610 Clouds 24 1009 71 10000 0.89 295 09:48 20.06.2021
6611 Clouds 23 1009 76 9000 2.68 309 08:36 20.06.2021
6612 Clouds 24 1014 78 10000 0.89 39 00:33 20.06.2021
6613 Clouds 24 1015 86 10000 1.03 270 23:26 19.06.2021
6614 Clouds 25 1014 85 10000 0.45 52 22:29 19.06.2021
6615 Rain 25 1014 80 10000 0.45 0 21:44 19.06.2021
6616 Rain 25 1014 80 10000 0.45 53 20:29 19.06.2021
6617 Clouds 26 1014 75 10000 0.45 24 18:47 19.06.2021
6618 Clouds 27 1014 70 10000 0.45 56 17:51 19.06.2021
6619 Clouds 27 1013 71 10000 0.89 58 17:19 19.06.2021
6620 Clouds 27 1014 77 10000 0.89 47 15:50 19.06.2021
6621 Clouds 27 1014 77 10000 0.89 143 14:20 19.06.2021
6622 Clouds 28 1014 73 10000 0.45 27 12:45 19.06.2021
6623 Clouds 27 1015 70 10000 0.89 134 11:45 19.06.2021
6624 Clouds 27 1015 69 7000 0.89 65 10:41 19.06.2021
6625 Clouds 26 1014 70 7000 1.79 134 10:21 19.06.2021
6626 Clouds 23 1015 80 8000 2.57 320 08:36 19.06.2021
6627 Clouds 22 1014 84 10000 3.13 307 07:43 19.06.2021